<?xml version="1.0" encoding="UTF-8" standalone="no" ?>
<gpx xmlns="http://www.topografix.com/GPX/1/1" xmlns:xsi="http://www.w3.org/2001/XMLSchema-instance" xsi:schemaLocation="http://www.topografix.com/GPX/1/1 http://www.topografix.com/GPX/1/1/gpx.xsd" version="1.1" creator="VisuGPX - https://www.visugpx.com">
  <metadata>
    <name>secteur Saverne - Dabo - Petite Pierre</name>
  </metadata>
  <trk>
    <name><![CDATA[secteur Saverne - Dabo - Petite Pierre_53]]></name>
    <trkseg>
      <trkpt lat="48.67867" lon="7.29771">
        <ele>469.9</ele>
        <time>2020-08-18T13:44:01Z</time>
      </trkpt>
      <trkpt lat="48.67862" lon="7.29774">
        <ele>473.8</ele>
        <time>2020-08-18T13:44:06Z</time>
      </trkpt>
      <trkpt lat="48.67857" lon="7.29775">
        <ele>474.8</ele>
        <time>2020-08-18T13:44:08Z</time>
      </trkpt>
      <trkpt lat="48.67848" lon="7.29777">
        <ele>476.1</ele>
        <time>2020-08-18T13:44:11Z</time>
      </trkpt>
      <trkpt lat="48.67843" lon="7.29779">
        <ele>475.3</ele>
        <time>2020-08-18T13:44:13Z</time>
      </trkpt>
      <trkpt lat="48.67839" lon="7.29785">
        <ele>474.8</ele>
        <time>2020-08-18T13:44:15Z</time>
      </trkpt>
      <trkpt lat="48.67829" lon="7.29797">
        <ele>473.7</ele>
        <time>2020-08-18T13:44:18Z</time>
      </trkpt>
      <trkpt lat="48.6782" lon="7.29804">
        <ele>473.3</ele>
        <time>2020-08-18T13:44:20Z</time>
      </trkpt>
      <trkpt lat="48.67812" lon="7.29813">
        <ele>472.5</ele>
        <time>2020-08-18T13:44:22Z</time>
      </trkpt>
      <trkpt lat="48.67807" lon="7.29824">
        <ele>472.3</ele>
        <time>2020-08-18T13:44:24Z</time>
      </trkpt>
      <trkpt lat="48.67803" lon="7.29837">
        <ele>472.3</ele>
        <time>2020-08-18T13:44:26Z</time>
      </trkpt>
      <trkpt lat="48.67801" lon="7.2985">
        <ele>472.4</ele>
        <time>2020-08-18T13:44:28Z</time>
      </trkpt>
      <trkpt lat="48.67802" lon="7.2987">
        <ele>472.2</ele>
        <time>2020-08-18T13:44:31Z</time>
      </trkpt>
      <trkpt lat="48.67806" lon="7.2988">
        <ele>472.5</ele>
        <time>2020-08-18T13:44:33Z</time>
      </trkpt>
      <trkpt lat="48.67814" lon="7.29897">
        <ele>473.6</ele>
        <time>2020-08-18T13:44:36Z</time>
      </trkpt>
      <trkpt lat="48.67821" lon="7.29916">
        <ele>474.6</ele>
        <time>2020-08-18T13:44:39Z</time>
      </trkpt>
      <trkpt lat="48.67825" lon="7.29928">
        <ele>474.9</ele>
        <time>2020-08-18T13:44:41Z</time>
      </trkpt>
      <trkpt lat="48.67828" lon="7.29942">
        <ele>475.7</ele>
        <time>2020-08-18T13:44:43Z</time>
      </trkpt>
      <trkpt lat="48.6783" lon="7.29956">
        <ele>476.5</ele>
        <time>2020-08-18T13:44:45Z</time>
      </trkpt>
      <trkpt lat="48.6783" lon="7.2997">
        <ele>477.2</ele>
        <time>2020-08-18T13:44:47Z</time>
      </trkpt>
      <trkpt lat="48.67829" lon="7.29984">
        <ele>477.8</ele>
        <time>2020-08-18T13:44:49Z</time>
      </trkpt>
      <trkpt lat="48.67827" lon="7.29998">
        <ele>478.4</ele>
        <time>2020-08-18T13:44:51Z</time>
      </trkpt>
      <trkpt lat="48.67824" lon="7.30012">
        <ele>478.9</ele>
        <time>2020-08-18T13:44:53Z</time>
      </trkpt>
      <trkpt lat="48.67821" lon="7.30025">
        <ele>479</ele>
        <time>2020-08-18T13:44:55Z</time>
      </trkpt>
      <trkpt lat="48.67818" lon="7.3004">
        <ele>479.3</ele>
        <time>2020-08-18T13:44:57Z</time>
      </trkpt>
      <trkpt lat="48.6781" lon="7.30055">
        <ele>480</ele>
        <time>2020-08-18T13:45:00Z</time>
      </trkpt>
      <trkpt lat="48.67805" lon="7.30058">
        <ele>480.3</ele>
        <time>2020-08-18T13:45:03Z</time>
      </trkpt>
      <trkpt lat="48.67802" lon="7.30049">
        <ele>481.3</ele>
        <time>2020-08-18T13:45:06Z</time>
      </trkpt>
      <trkpt lat="48.67805" lon="7.30057">
        <ele>484.7</ele>
        <time>2020-08-18T13:45:20Z</time>
      </trkpt>
      <trkpt lat="48.6781" lon="7.30072">
        <ele>485</ele>
        <time>2020-08-18T13:45:23Z</time>
      </trkpt>
      <trkpt lat="48.67813" lon="7.30082">
        <ele>485.3</ele>
        <time>2020-08-18T13:45:25Z</time>
      </trkpt>
      <trkpt lat="48.67818" lon="7.30098">
        <ele>485.6</ele>
        <time>2020-08-18T13:45:28Z</time>
      </trkpt>
      <trkpt lat="48.67823" lon="7.30109">
        <ele>486.2</ele>
        <time>2020-08-18T13:45:30Z</time>
      </trkpt>
      <trkpt lat="48.67827" lon="7.30122">
        <ele>486.3</ele>
        <time>2020-08-18T13:45:32Z</time>
      </trkpt>
      <trkpt lat="48.67829" lon="7.30135">
        <ele>486.6</ele>
        <time>2020-08-18T13:45:34Z</time>
      </trkpt>
      <trkpt lat="48.6783" lon="7.30145">
        <ele>486.5</ele>
        <time>2020-08-18T13:45:36Z</time>
      </trkpt>
      <trkpt lat="48.67831" lon="7.30152">
        <ele>486.7</ele>
        <time>2020-08-18T13:45:38Z</time>
      </trkpt>
      <trkpt lat="48.67834" lon="7.30159">
        <ele>486.9</ele>
        <time>2020-08-18T13:45:40Z</time>
      </trkpt>
      <trkpt lat="48.67838" lon="7.30168">
        <ele>487.1</ele>
        <time>2020-08-18T13:45:42Z</time>
      </trkpt>
      <trkpt lat="48.67845" lon="7.30181">
        <ele>486.8</ele>
        <time>2020-08-18T13:45:45Z</time>
      </trkpt>
      <trkpt lat="48.67849" lon="7.30189">
        <ele>487.5</ele>
        <time>2020-08-18T13:45:47Z</time>
      </trkpt>
      <trkpt lat="48.67852" lon="7.30195">
        <ele>488.6</ele>
        <time>2020-08-18T13:45:50Z</time>
      </trkpt>
      <trkpt lat="48.67856" lon="7.30199">
        <ele>491</ele>
        <time>2020-08-18T13:45:57Z</time>
      </trkpt>
      <trkpt lat="48.67862" lon="7.30206">
        <ele>492.4</ele>
        <time>2020-08-18T13:46:00Z</time>
      </trkpt>
      <trkpt lat="48.67868" lon="7.30214">
        <ele>492.9</ele>
        <time>2020-08-18T13:46:02Z</time>
      </trkpt>
      <trkpt lat="48.67874" lon="7.30225">
        <ele>493</ele>
        <time>2020-08-18T13:46:04Z</time>
      </trkpt>
      <trkpt lat="48.67879" lon="7.30233">
        <ele>492.2</ele>
        <time>2020-08-18T13:46:06Z</time>
      </trkpt>
      <trkpt lat="48.67885" lon="7.30246">
        <ele>492.3</ele>
        <time>2020-08-18T13:46:08Z</time>
      </trkpt>
      <trkpt lat="48.67891" lon="7.30259">
        <ele>491.8</ele>
        <time>2020-08-18T13:46:10Z</time>
      </trkpt>
      <trkpt lat="48.67897" lon="7.3027">
        <ele>491.5</ele>
        <time>2020-08-18T13:46:12Z</time>
      </trkpt>
      <trkpt lat="48.67902" lon="7.3028">
        <ele>491.5</ele>
        <time>2020-08-18T13:46:14Z</time>
      </trkpt>
      <trkpt lat="48.67908" lon="7.30289">
        <ele>492</ele>
        <time>2020-08-18T13:46:16Z</time>
      </trkpt>
      <trkpt lat="48.67914" lon="7.30304">
        <ele>492</ele>
        <time>2020-08-18T13:46:19Z</time>
      </trkpt>
      <trkpt lat="48.67919" lon="7.30316">
        <ele>493.1</ele>
        <time>2020-08-18T13:46:21Z</time>
      </trkpt>
      <trkpt lat="48.67924" lon="7.30325">
        <ele>493</ele>
        <time>2020-08-18T13:46:23Z</time>
      </trkpt>
      <trkpt lat="48.67929" lon="7.30337">
        <ele>493.3</ele>
        <time>2020-08-18T13:46:25Z</time>
      </trkpt>
      <trkpt lat="48.67933" lon="7.30348">
        <ele>494</ele>
        <time>2020-08-18T13:46:27Z</time>
      </trkpt>
      <trkpt lat="48.67936" lon="7.30357">
        <ele>494.2</ele>
        <time>2020-08-18T13:46:29Z</time>
      </trkpt>
      <trkpt lat="48.6794" lon="7.30366">
        <ele>494.9</ele>
        <time>2020-08-18T13:46:31Z</time>
      </trkpt>
      <trkpt lat="48.67944" lon="7.30376">
        <ele>495.3</ele>
        <time>2020-08-18T13:46:33Z</time>
      </trkpt>
      <trkpt lat="48.67951" lon="7.30391">
        <ele>496.2</ele>
        <time>2020-08-18T13:46:36Z</time>
      </trkpt>
      <trkpt lat="48.67956" lon="7.304">
        <ele>496.5</ele>
        <time>2020-08-18T13:46:38Z</time>
      </trkpt>
      <trkpt lat="48.67961" lon="7.30408">
        <ele>496.3</ele>
        <time>2020-08-18T13:46:40Z</time>
      </trkpt>
      <trkpt lat="48.67964" lon="7.30416">
        <ele>496</ele>
        <time>2020-08-18T13:46:42Z</time>
      </trkpt>
      <trkpt lat="48.67967" lon="7.30425">
        <ele>494.3</ele>
        <time>2020-08-18T13:46:45Z</time>
      </trkpt>
      <trkpt lat="48.6797" lon="7.30433">
        <ele>492.6</ele>
        <time>2020-08-18T13:46:47Z</time>
      </trkpt>
      <trkpt lat="48.67975" lon="7.30442">
        <ele>491.7</ele>
        <time>2020-08-18T13:46:49Z</time>
      </trkpt>
      <trkpt lat="48.67979" lon="7.30452">
        <ele>491</ele>
        <time>2020-08-18T13:46:51Z</time>
      </trkpt>
      <trkpt lat="48.67983" lon="7.30462">
        <ele>490.3</ele>
        <time>2020-08-18T13:46:53Z</time>
      </trkpt>
      <trkpt lat="48.6799" lon="7.3048">
        <ele>489.7</ele>
        <time>2020-08-18T13:46:56Z</time>
      </trkpt>
      <trkpt lat="48.67994" lon="7.3049">
        <ele>489.3</ele>
        <time>2020-08-18T13:46:58Z</time>
      </trkpt>
      <trkpt lat="48.67998" lon="7.30497">
        <ele>487.7</ele>
        <time>2020-08-18T13:47:10Z</time>
      </trkpt>
      <trkpt lat="48.68002" lon="7.30503">
        <ele>487.3</ele>
        <time>2020-08-18T13:47:12Z</time>
      </trkpt>
      <trkpt lat="48.68005" lon="7.30514">
        <ele>487.2</ele>
        <time>2020-08-18T13:47:14Z</time>
      </trkpt>
      <trkpt lat="48.68011" lon="7.30526">
        <ele>487</ele>
        <time>2020-08-18T13:47:16Z</time>
      </trkpt>
      <trkpt lat="48.68017" lon="7.30541">
        <ele>487.5</ele>
        <time>2020-08-18T13:47:18Z</time>
      </trkpt>
      <trkpt lat="48.68021" lon="7.30556">
        <ele>487.8</ele>
        <time>2020-08-18T13:47:20Z</time>
      </trkpt>
      <trkpt lat="48.68029" lon="7.3058">
        <ele>489.4</ele>
        <time>2020-08-18T13:47:23Z</time>
      </trkpt>
      <trkpt lat="48.68036" lon="7.30605">
        <ele>489.4</ele>
        <time>2020-08-18T13:47:26Z</time>
      </trkpt>
      <trkpt lat="48.68043" lon="7.30623">
        <ele>489.5</ele>
        <time>2020-08-18T13:47:28Z</time>
      </trkpt>
      <trkpt lat="48.68048" lon="7.30639">
        <ele>489.5</ele>
        <time>2020-08-18T13:47:30Z</time>
      </trkpt>
      <trkpt lat="48.68054" lon="7.30654">
        <ele>488.9</ele>
        <time>2020-08-18T13:47:33Z</time>
      </trkpt>
      <trkpt lat="48.68053" lon="7.30666">
        <ele>489.4</ele>
        <time>2020-08-18T13:47:35Z</time>
      </trkpt>
      <trkpt lat="48.68057" lon="7.30677">
        <ele>489.5</ele>
        <time>2020-08-18T13:47:37Z</time>
      </trkpt>
      <trkpt lat="48.68062" lon="7.30697">
        <ele>489.5</ele>
        <time>2020-08-18T13:47:40Z</time>
      </trkpt>
      <trkpt lat="48.68064" lon="7.30715">
        <ele>489.3</ele>
        <time>2020-08-18T13:47:42Z</time>
      </trkpt>
      <trkpt lat="48.68064" lon="7.3073">
        <ele>488.6</ele>
        <time>2020-08-18T13:47:44Z</time>
      </trkpt>
      <trkpt lat="48.68066" lon="7.30745">
        <ele>488.6</ele>
        <time>2020-08-18T13:47:46Z</time>
      </trkpt>
      <trkpt lat="48.68068" lon="7.30762">
        <ele>487.9</ele>
        <time>2020-08-18T13:47:48Z</time>
      </trkpt>
      <trkpt lat="48.68068" lon="7.30787">
        <ele>487.7</ele>
        <time>2020-08-18T13:47:51Z</time>
      </trkpt>
      <trkpt lat="48.68066" lon="7.30806">
        <ele>487.6</ele>
        <time>2020-08-18T13:47:53Z</time>
      </trkpt>
      <trkpt lat="48.68064" lon="7.30823">
        <ele>487.4</ele>
        <time>2020-08-18T13:47:55Z</time>
      </trkpt>
      <trkpt lat="48.68061" lon="7.30839">
        <ele>486.6</ele>
        <time>2020-08-18T13:47:57Z</time>
      </trkpt>
      <trkpt lat="48.68057" lon="7.30852">
        <ele>485.8</ele>
        <time>2020-08-18T13:47:59Z</time>
      </trkpt>
      <trkpt lat="48.68049" lon="7.30872">
        <ele>483.9</ele>
        <time>2020-08-18T13:48:02Z</time>
      </trkpt>
      <trkpt lat="48.68043" lon="7.30888">
        <ele>482.8</ele>
        <time>2020-08-18T13:48:04Z</time>
      </trkpt>
      <trkpt lat="48.68038" lon="7.30904">
        <ele>482.1</ele>
        <time>2020-08-18T13:48:06Z</time>
      </trkpt>
      <trkpt lat="48.68034" lon="7.30922">
        <ele>482.1</ele>
        <time>2020-08-18T13:48:08Z</time>
      </trkpt>
      <trkpt lat="48.68032" lon="7.30939">
        <ele>481.5</ele>
        <time>2020-08-18T13:48:10Z</time>
      </trkpt>
      <trkpt lat="48.6803" lon="7.30953">
        <ele>481.9</ele>
        <time>2020-08-18T13:48:12Z</time>
      </trkpt>
      <trkpt lat="48.68029" lon="7.30969">
        <ele>482</ele>
        <time>2020-08-18T13:48:14Z</time>
      </trkpt>
      <trkpt lat="48.68029" lon="7.30984">
        <ele>482</ele>
        <time>2020-08-18T13:48:16Z</time>
      </trkpt>
      <trkpt lat="48.68035" lon="7.31011">
        <ele>482.2</ele>
        <time>2020-08-18T13:48:19Z</time>
      </trkpt>
      <trkpt lat="48.6804" lon="7.31031">
        <ele>482.7</ele>
        <time>2020-08-18T13:48:21Z</time>
      </trkpt>
      <trkpt lat="48.68045" lon="7.31045">
        <ele>482.8</ele>
        <time>2020-08-18T13:48:23Z</time>
      </trkpt>
      <trkpt lat="48.68057" lon="7.31067">
        <ele>483.1</ele>
        <time>2020-08-18T13:48:26Z</time>
      </trkpt>
      <trkpt lat="48.68066" lon="7.3108">
        <ele>483.3</ele>
        <time>2020-08-18T13:48:28Z</time>
      </trkpt>
      <trkpt lat="48.68074" lon="7.31091">
        <ele>483.5</ele>
        <time>2020-08-18T13:48:30Z</time>
      </trkpt>
      <trkpt lat="48.68081" lon="7.31101">
        <ele>483.1</ele>
        <time>2020-08-18T13:48:32Z</time>
      </trkpt>
      <trkpt lat="48.6809" lon="7.31108">
        <ele>483</ele>
        <time>2020-08-18T13:48:34Z</time>
      </trkpt>
      <trkpt lat="48.68097" lon="7.31114">
        <ele>482.3</ele>
        <time>2020-08-18T13:48:36Z</time>
      </trkpt>
      <trkpt lat="48.68108" lon="7.31123">
        <ele>481</ele>
        <time>2020-08-18T13:48:39Z</time>
      </trkpt>
      <trkpt lat="48.68116" lon="7.31134">
        <ele>480.2</ele>
        <time>2020-08-18T13:48:41Z</time>
      </trkpt>
      <trkpt lat="48.68121" lon="7.31147">
        <ele>479.5</ele>
        <time>2020-08-18T13:48:43Z</time>
      </trkpt>
      <trkpt lat="48.68124" lon="7.31156">
        <ele>479.2</ele>
        <time>2020-08-18T13:48:45Z</time>
      </trkpt>
      <trkpt lat="48.68122" lon="7.31164">
        <ele>474.1</ele>
        <time>2020-08-18T13:49:04Z</time>
      </trkpt>
      <trkpt lat="48.68119" lon="7.31168">
        <ele>473.4</ele>
        <time>2020-08-18T13:49:06Z</time>
      </trkpt>
      <trkpt lat="48.68114" lon="7.31173">
        <ele>473.6</ele>
        <time>2020-08-18T13:49:08Z</time>
      </trkpt>
      <trkpt lat="48.68107" lon="7.31175">
        <ele>473.4</ele>
        <time>2020-08-18T13:49:10Z</time>
      </trkpt>
      <trkpt lat="48.68098" lon="7.31165">
        <ele>472.5</ele>
        <time>2020-08-18T13:49:13Z</time>
      </trkpt>
      <trkpt lat="48.68093" lon="7.31164">
        <ele>471.9</ele>
        <time>2020-08-18T13:49:15Z</time>
      </trkpt>
      <trkpt lat="48.68087" lon="7.31166">
        <ele>472.7</ele>
        <time>2020-08-18T13:49:17Z</time>
      </trkpt>
      <trkpt lat="48.6808" lon="7.31166">
        <ele>472.6</ele>
        <time>2020-08-18T13:49:19Z</time>
      </trkpt>
      <trkpt lat="48.68075" lon="7.31168">
        <ele>473.9</ele>
        <time>2020-08-18T13:49:22Z</time>
      </trkpt>
      <trkpt lat="48.68071" lon="7.3117">
        <ele>475.9</ele>
        <time>2020-08-18T13:49:30Z</time>
      </trkpt>
      <trkpt lat="48.68065" lon="7.3117">
        <ele>476.8</ele>
        <time>2020-08-18T13:49:35Z</time>
      </trkpt>
      <trkpt lat="48.6806" lon="7.31167">
        <ele>476.8</ele>
        <time>2020-08-18T13:49:38Z</time>
      </trkpt>
      <trkpt lat="48.68055" lon="7.31163">
        <ele>477.1</ele>
        <time>2020-08-18T13:49:40Z</time>
      </trkpt>
      <trkpt lat="48.68051" lon="7.31159">
        <ele>477.2</ele>
        <time>2020-08-18T13:49:42Z</time>
      </trkpt>
      <trkpt lat="48.68045" lon="7.31154">
        <ele>477.6</ele>
        <time>2020-08-18T13:49:45Z</time>
      </trkpt>
      <trkpt lat="48.6804" lon="7.31151">
        <ele>478.3</ele>
        <time>2020-08-18T13:49:47Z</time>
      </trkpt>
      <trkpt lat="48.68034" lon="7.31149">
        <ele>477.9</ele>
        <time>2020-08-18T13:49:49Z</time>
      </trkpt>
      <trkpt lat="48.68029" lon="7.31146">
        <ele>477.9</ele>
        <time>2020-08-18T13:49:51Z</time>
      </trkpt>
      <trkpt lat="48.68023" lon="7.31143">
        <ele>479</ele>
        <time>2020-08-18T13:49:54Z</time>
      </trkpt>
      <trkpt lat="48.68018" lon="7.31138">
        <ele>479.9</ele>
        <time>2020-08-18T13:49:56Z</time>
      </trkpt>
      <trkpt lat="48.68012" lon="7.31132">
        <ele>480.5</ele>
        <time>2020-08-18T13:49:59Z</time>
      </trkpt>
      <trkpt lat="48.68004" lon="7.31127">
        <ele>482.1</ele>
        <time>2020-08-18T13:50:01Z</time>
      </trkpt>
      <trkpt lat="48.67998" lon="7.31124">
        <ele>482.4</ele>
        <time>2020-08-18T13:50:03Z</time>
      </trkpt>
      <trkpt lat="48.67994" lon="7.3112">
        <ele>483.3</ele>
        <time>2020-08-18T13:50:05Z</time>
      </trkpt>
      <trkpt lat="48.67987" lon="7.31116">
        <ele>485</ele>
        <time>2020-08-18T13:50:08Z</time>
      </trkpt>
      <trkpt lat="48.67982" lon="7.31117">
        <ele>484.9</ele>
        <time>2020-08-18T13:50:10Z</time>
      </trkpt>
      <trkpt lat="48.67977" lon="7.31118">
        <ele>485.8</ele>
        <time>2020-08-18T13:50:12Z</time>
      </trkpt>
      <trkpt lat="48.67973" lon="7.31121">
        <ele>486.9</ele>
        <time>2020-08-18T13:50:19Z</time>
      </trkpt>
      <trkpt lat="48.67974" lon="7.31114">
        <ele>486.2</ele>
        <time>2020-08-18T13:50:25Z</time>
      </trkpt>
      <trkpt lat="48.67974" lon="7.31107">
        <ele>487.9</ele>
        <time>2020-08-18T13:50:30Z</time>
      </trkpt>
      <trkpt lat="48.67976" lon="7.31101">
        <ele>489.6</ele>
        <time>2020-08-18T13:50:34Z</time>
      </trkpt>
      <trkpt lat="48.67979" lon="7.31095">
        <ele>491</ele>
        <time>2020-08-18T13:50:38Z</time>
      </trkpt>
      <trkpt lat="48.67979" lon="7.31087">
        <ele>492.4</ele>
        <time>2020-08-18T13:50:42Z</time>
      </trkpt>
      <trkpt lat="48.67976" lon="7.31081">
        <ele>495.2</ele>
        <time>2020-08-18T13:50:51Z</time>
      </trkpt>
      <trkpt lat="48.67972" lon="7.31075">
        <ele>495.9</ele>
        <time>2020-08-18T13:50:54Z</time>
      </trkpt>
      <trkpt lat="48.67968" lon="7.31067">
        <ele>496.2</ele>
        <time>2020-08-18T13:50:57Z</time>
      </trkpt>
      <trkpt lat="48.67965" lon="7.31055">
        <ele>496.7</ele>
        <time>2020-08-18T13:51:00Z</time>
      </trkpt>
      <trkpt lat="48.67964" lon="7.31047">
        <ele>496.5</ele>
        <time>2020-08-18T13:51:02Z</time>
      </trkpt>
      <trkpt lat="48.67963" lon="7.31038">
        <ele>497.4</ele>
        <time>2020-08-18T13:51:04Z</time>
      </trkpt>
      <trkpt lat="48.67962" lon="7.3103">
        <ele>498.1</ele>
        <time>2020-08-18T13:51:06Z</time>
      </trkpt>
      <trkpt lat="48.6796" lon="7.31015">
        <ele>499.8</ele>
        <time>2020-08-18T13:51:09Z</time>
      </trkpt>
      <trkpt lat="48.67959" lon="7.31007">
        <ele>500.7</ele>
        <time>2020-08-18T13:51:11Z</time>
      </trkpt>
      <trkpt lat="48.67958" lon="7.31">
        <ele>501.1</ele>
        <time>2020-08-18T13:51:13Z</time>
      </trkpt>
      <trkpt lat="48.67958" lon="7.30992">
        <ele>501.4</ele>
        <time>2020-08-18T13:51:15Z</time>
      </trkpt>
      <trkpt lat="48.67958" lon="7.30978">
        <ele>502.2</ele>
        <time>2020-08-18T13:51:18Z</time>
      </trkpt>
      <trkpt lat="48.67958" lon="7.30965">
        <ele>503.3</ele>
        <time>2020-08-18T13:51:21Z</time>
      </trkpt>
      <trkpt lat="48.67959" lon="7.30956">
        <ele>502.7</ele>
        <time>2020-08-18T13:51:23Z</time>
      </trkpt>
      <trkpt lat="48.67963" lon="7.30944">
        <ele>502.6</ele>
        <time>2020-08-18T13:51:26Z</time>
      </trkpt>
      <trkpt lat="48.67965" lon="7.30937">
        <ele>502.4</ele>
        <time>2020-08-18T13:51:28Z</time>
      </trkpt>
      <trkpt lat="48.67968" lon="7.3093">
        <ele>501.9</ele>
        <time>2020-08-18T13:51:30Z</time>
      </trkpt>
      <trkpt lat="48.67971" lon="7.30921">
        <ele>502</ele>
        <time>2020-08-18T13:51:33Z</time>
      </trkpt>
      <trkpt lat="48.67972" lon="7.30912">
        <ele>503.1</ele>
        <time>2020-08-18T13:51:35Z</time>
      </trkpt>
      <trkpt lat="48.67973" lon="7.30904">
        <ele>502.5</ele>
        <time>2020-08-18T13:51:37Z</time>
      </trkpt>
      <trkpt lat="48.67974" lon="7.30896">
        <ele>503.1</ele>
        <time>2020-08-18T13:51:39Z</time>
      </trkpt>
      <trkpt lat="48.67975" lon="7.30888">
        <ele>502.9</ele>
        <time>2020-08-18T13:51:41Z</time>
      </trkpt>
      <trkpt lat="48.67975" lon="7.30879">
        <ele>502.1</ele>
        <time>2020-08-18T13:51:43Z</time>
      </trkpt>
      <trkpt lat="48.67976" lon="7.30871">
        <ele>501.5</ele>
        <time>2020-08-18T13:51:45Z</time>
      </trkpt>
      <trkpt lat="48.67976" lon="7.30863">
        <ele>501.3</ele>
        <time>2020-08-18T13:51:47Z</time>
      </trkpt>
      <trkpt lat="48.67975" lon="7.30856">
        <ele>501.1</ele>
        <time>2020-08-18T13:51:49Z</time>
      </trkpt>
      <trkpt lat="48.67974" lon="7.30849">
        <ele>501.1</ele>
        <time>2020-08-18T13:51:51Z</time>
      </trkpt>
      <trkpt lat="48.67974" lon="7.30839">
        <ele>500.4</ele>
        <time>2020-08-18T13:51:54Z</time>
      </trkpt>
      <trkpt lat="48.67974" lon="7.30829">
        <ele>500.8</ele>
        <time>2020-08-18T13:51:57Z</time>
      </trkpt>
      <trkpt lat="48.67973" lon="7.3082">
        <ele>501.2</ele>
        <time>2020-08-18T13:52:00Z</time>
      </trkpt>
      <trkpt lat="48.67971" lon="7.30807">
        <ele>501.9</ele>
        <time>2020-08-18T13:52:03Z</time>
      </trkpt>
      <trkpt lat="48.67969" lon="7.30795">
        <ele>502.5</ele>
        <time>2020-08-18T13:52:06Z</time>
      </trkpt>
      <trkpt lat="48.67967" lon="7.30788">
        <ele>503</ele>
        <time>2020-08-18T13:52:08Z</time>
      </trkpt>
      <trkpt lat="48.67965" lon="7.30778">
        <ele>503.5</ele>
        <time>2020-08-18T13:52:11Z</time>
      </trkpt>
      <trkpt lat="48.67962" lon="7.30771">
        <ele>505</ele>
        <time>2020-08-18T13:52:13Z</time>
      </trkpt>
      <trkpt lat="48.6796" lon="7.30765">
        <ele>506.3</ele>
        <time>2020-08-18T13:52:15Z</time>
      </trkpt>
      <trkpt lat="48.67959" lon="7.30758">
        <ele>507.7</ele>
        <time>2020-08-18T13:52:17Z</time>
      </trkpt>
      <trkpt lat="48.67952" lon="7.30746">
        <ele>510</ele>
        <time>2020-08-18T13:52:20Z</time>
      </trkpt>
      <trkpt lat="48.6795" lon="7.30739">
        <ele>511.3</ele>
        <time>2020-08-18T13:52:22Z</time>
      </trkpt>
      <trkpt lat="48.67947" lon="7.30729">
        <ele>511.7</ele>
        <time>2020-08-18T13:52:24Z</time>
      </trkpt>
      <trkpt lat="48.67946" lon="7.3072">
        <ele>513.6</ele>
        <time>2020-08-18T13:52:27Z</time>
      </trkpt>
      <trkpt lat="48.67944" lon="7.30712">
        <ele>514.3</ele>
        <time>2020-08-18T13:52:29Z</time>
      </trkpt>
      <trkpt lat="48.67942" lon="7.30703">
        <ele>514.7</ele>
        <time>2020-08-18T13:52:32Z</time>
      </trkpt>
      <trkpt lat="48.6794" lon="7.30696">
        <ele>515.2</ele>
        <time>2020-08-18T13:52:35Z</time>
      </trkpt>
      <trkpt lat="48.67938" lon="7.3069">
        <ele>515.2</ele>
        <time>2020-08-18T13:52:37Z</time>
      </trkpt>
      <trkpt lat="48.67937" lon="7.30683">
        <ele>516.7</ele>
        <time>2020-08-18T13:52:39Z</time>
      </trkpt>
      <trkpt lat="48.67936" lon="7.30674">
        <ele>517.3</ele>
        <time>2020-08-18T13:52:42Z</time>
      </trkpt>
      <trkpt lat="48.67935" lon="7.30667">
        <ele>519</ele>
        <time>2020-08-18T13:52:43Z</time>
      </trkpt>
      <trkpt lat="48.67933" lon="7.30659">
        <ele>518.9</ele>
        <time>2020-08-18T13:52:46Z</time>
      </trkpt>
      <trkpt lat="48.6793" lon="7.30649">
        <ele>519.1</ele>
        <time>2020-08-18T13:52:48Z</time>
      </trkpt>
      <trkpt lat="48.67927" lon="7.30641">
        <ele>518.8</ele>
        <time>2020-08-18T13:52:50Z</time>
      </trkpt>
      <trkpt lat="48.67924" lon="7.30634">
        <ele>519.8</ele>
        <time>2020-08-18T13:52:52Z</time>
      </trkpt>
      <trkpt lat="48.67923" lon="7.30623">
        <ele>520.2</ele>
        <time>2020-08-18T13:52:55Z</time>
      </trkpt>
      <trkpt lat="48.67922" lon="7.30613">
        <ele>521.3</ele>
        <time>2020-08-18T13:52:58Z</time>
      </trkpt>
      <trkpt lat="48.67921" lon="7.30605">
        <ele>520.8</ele>
        <time>2020-08-18T13:53:00Z</time>
      </trkpt>
      <trkpt lat="48.67918" lon="7.30597">
        <ele>521.5</ele>
        <time>2020-08-18T13:53:02Z</time>
      </trkpt>
      <trkpt lat="48.67913" lon="7.30587">
        <ele>521.7</ele>
        <time>2020-08-18T13:53:05Z</time>
      </trkpt>
      <trkpt lat="48.6791" lon="7.30578">
        <ele>521.9</ele>
        <time>2020-08-18T13:53:07Z</time>
      </trkpt>
      <trkpt lat="48.67907" lon="7.30571">
        <ele>522.2</ele>
        <time>2020-08-18T13:53:09Z</time>
      </trkpt>
      <trkpt lat="48.67904" lon="7.30565">
        <ele>522.5</ele>
        <time>2020-08-18T13:53:11Z</time>
      </trkpt>
      <trkpt lat="48.67901" lon="7.30558">
        <ele>523</ele>
        <time>2020-08-18T13:53:13Z</time>
      </trkpt>
      <trkpt lat="48.67899" lon="7.30551">
        <ele>523.2</ele>
        <time>2020-08-18T13:53:15Z</time>
      </trkpt>
      <trkpt lat="48.67897" lon="7.30544">
        <ele>524</ele>
        <time>2020-08-18T13:53:17Z</time>
      </trkpt>
      <trkpt lat="48.67893" lon="7.30534">
        <ele>525.1</ele>
        <time>2020-08-18T13:53:20Z</time>
      </trkpt>
      <trkpt lat="48.6789" lon="7.30526">
        <ele>526.4</ele>
        <time>2020-08-18T13:53:23Z</time>
      </trkpt>
      <trkpt lat="48.67888" lon="7.30518">
        <ele>527</ele>
        <time>2020-08-18T13:53:25Z</time>
      </trkpt>
      <trkpt lat="48.67885" lon="7.30511">
        <ele>526.8</ele>
        <time>2020-08-18T13:53:27Z</time>
      </trkpt>
      <trkpt lat="48.67882" lon="7.30505">
        <ele>526.6</ele>
        <time>2020-08-18T13:53:29Z</time>
      </trkpt>
      <trkpt lat="48.67879" lon="7.30499">
        <ele>526.1</ele>
        <time>2020-08-18T13:53:32Z</time>
      </trkpt>
      <trkpt lat="48.67876" lon="7.30493">
        <ele>525.3</ele>
        <time>2020-08-18T13:53:34Z</time>
      </trkpt>
      <trkpt lat="48.67872" lon="7.30485">
        <ele>526</ele>
        <time>2020-08-18T13:53:36Z</time>
      </trkpt>
      <trkpt lat="48.67869" lon="7.30477">
        <ele>526.2</ele>
        <time>2020-08-18T13:53:38Z</time>
      </trkpt>
      <trkpt lat="48.67866" lon="7.3047">
        <ele>526.6</ele>
        <time>2020-08-18T13:53:40Z</time>
      </trkpt>
      <trkpt lat="48.67863" lon="7.30463">
        <ele>526.6</ele>
        <time>2020-08-18T13:53:42Z</time>
      </trkpt>
      <trkpt lat="48.67859" lon="7.30457">
        <ele>527.4</ele>
        <time>2020-08-18T13:53:45Z</time>
      </trkpt>
      <trkpt lat="48.67855" lon="7.30449">
        <ele>528.1</ele>
        <time>2020-08-18T13:53:48Z</time>
      </trkpt>
      <trkpt lat="48.67854" lon="7.30441">
        <ele>527.9</ele>
        <time>2020-08-18T13:53:51Z</time>
      </trkpt>
      <trkpt lat="48.67851" lon="7.30434">
        <ele>527.9</ele>
        <time>2020-08-18T13:53:53Z</time>
      </trkpt>
      <trkpt lat="48.67849" lon="7.30427">
        <ele>528.2</ele>
        <time>2020-08-18T13:53:55Z</time>
      </trkpt>
      <trkpt lat="48.67845" lon="7.30419">
        <ele>528.4</ele>
        <time>2020-08-18T13:53:58Z</time>
      </trkpt>
      <trkpt lat="48.67841" lon="7.30411">
        <ele>529.3</ele>
        <time>2020-08-18T13:54:01Z</time>
      </trkpt>
      <trkpt lat="48.67837" lon="7.30405">
        <ele>529.9</ele>
        <time>2020-08-18T13:54:03Z</time>
      </trkpt>
      <trkpt lat="48.67834" lon="7.30401">
        <ele>530.2</ele>
        <time>2020-08-18T13:54:05Z</time>
      </trkpt>
      <trkpt lat="48.67829" lon="7.30395">
        <ele>530.7</ele>
        <time>2020-08-18T13:54:07Z</time>
      </trkpt>
      <trkpt lat="48.67824" lon="7.30389">
        <ele>531.9</ele>
        <time>2020-08-18T13:54:10Z</time>
      </trkpt>
      <trkpt lat="48.67818" lon="7.30382">
        <ele>533</ele>
        <time>2020-08-18T13:54:13Z</time>
      </trkpt>
      <trkpt lat="48.67813" lon="7.30377">
        <ele>533.5</ele>
        <time>2020-08-18T13:54:16Z</time>
      </trkpt>
      <trkpt lat="48.67808" lon="7.30372">
        <ele>534.2</ele>
        <time>2020-08-18T13:54:18Z</time>
      </trkpt>
      <trkpt lat="48.67804" lon="7.30368">
        <ele>535.6</ele>
        <time>2020-08-18T13:54:20Z</time>
      </trkpt>
      <trkpt lat="48.678" lon="7.30362">
        <ele>535.9</ele>
        <time>2020-08-18T13:54:23Z</time>
      </trkpt>
      <trkpt lat="48.67795" lon="7.30358">
        <ele>536.6</ele>
        <time>2020-08-18T13:54:25Z</time>
      </trkpt>
      <trkpt lat="48.67788" lon="7.3035">
        <ele>537.5</ele>
        <time>2020-08-18T13:54:28Z</time>
      </trkpt>
      <trkpt lat="48.67784" lon="7.30344">
        <ele>537.4</ele>
        <time>2020-08-18T13:54:30Z</time>
      </trkpt>
      <trkpt lat="48.67779" lon="7.3034">
        <ele>537.7</ele>
        <time>2020-08-18T13:54:32Z</time>
      </trkpt>
      <trkpt lat="48.67773" lon="7.30334">
        <ele>538.2</ele>
        <time>2020-08-18T13:54:35Z</time>
      </trkpt>
      <trkpt lat="48.67769" lon="7.3033">
        <ele>538</ele>
        <time>2020-08-18T13:54:37Z</time>
      </trkpt>
      <trkpt lat="48.67764" lon="7.30326">
        <ele>538.4</ele>
        <time>2020-08-18T13:54:39Z</time>
      </trkpt>
      <trkpt lat="48.6776" lon="7.30322">
        <ele>539</ele>
        <time>2020-08-18T13:54:41Z</time>
      </trkpt>
      <trkpt lat="48.67753" lon="7.30317">
        <ele>539.8</ele>
        <time>2020-08-18T13:54:44Z</time>
      </trkpt>
      <trkpt lat="48.67749" lon="7.30313">
        <ele>540.5</ele>
        <time>2020-08-18T13:54:46Z</time>
      </trkpt>
      <trkpt lat="48.67744" lon="7.30308">
        <ele>540.7</ele>
        <time>2020-08-18T13:54:49Z</time>
      </trkpt>
      <trkpt lat="48.67739" lon="7.30304">
        <ele>540.8</ele>
        <time>2020-08-18T13:54:51Z</time>
      </trkpt>
      <trkpt lat="48.67735" lon="7.303">
        <ele>541.1</ele>
        <time>2020-08-18T13:54:53Z</time>
      </trkpt>
      <trkpt lat="48.67731" lon="7.30296">
        <ele>541.5</ele>
        <time>2020-08-18T13:54:55Z</time>
      </trkpt>
      <trkpt lat="48.67724" lon="7.3029">
        <ele>542.8</ele>
        <time>2020-08-18T13:54:58Z</time>
      </trkpt>
      <trkpt lat="48.67717" lon="7.30286">
        <ele>543.8</ele>
        <time>2020-08-18T13:55:01Z</time>
      </trkpt>
      <trkpt lat="48.67711" lon="7.30281">
        <ele>544.9</ele>
        <time>2020-08-18T13:55:04Z</time>
      </trkpt>
      <trkpt lat="48.67707" lon="7.30278">
        <ele>545.7</ele>
        <time>2020-08-18T13:55:06Z</time>
      </trkpt>
      <trkpt lat="48.67704" lon="7.30274">
        <ele>546.1</ele>
        <time>2020-08-18T13:55:08Z</time>
      </trkpt>
      <trkpt lat="48.677" lon="7.30269">
        <ele>546.5</ele>
        <time>2020-08-18T13:55:10Z</time>
      </trkpt>
      <trkpt lat="48.67696" lon="7.30262">
        <ele>548.1</ele>
        <time>2020-08-18T13:55:12Z</time>
      </trkpt>
      <trkpt lat="48.67693" lon="7.30255">
        <ele>548.3</ele>
        <time>2020-08-18T13:55:14Z</time>
      </trkpt>
      <trkpt lat="48.6769" lon="7.30246">
        <ele>549.4</ele>
        <time>2020-08-18T13:55:17Z</time>
      </trkpt>
      <trkpt lat="48.67684" lon="7.30236">
        <ele>550.2</ele>
        <time>2020-08-18T13:55:20Z</time>
      </trkpt>
      <trkpt lat="48.67679" lon="7.30228">
        <ele>549.8</ele>
        <time>2020-08-18T13:55:23Z</time>
      </trkpt>
      <trkpt lat="48.67675" lon="7.30223">
        <ele>549.7</ele>
        <time>2020-08-18T13:55:25Z</time>
      </trkpt>
      <trkpt lat="48.67672" lon="7.30218">
        <ele>549.5</ele>
        <time>2020-08-18T13:55:27Z</time>
      </trkpt>
      <trkpt lat="48.67668" lon="7.30213">
        <ele>549.1</ele>
        <time>2020-08-18T13:55:29Z</time>
      </trkpt>
      <trkpt lat="48.67664" lon="7.30209">
        <ele>548.9</ele>
        <time>2020-08-18T13:55:31Z</time>
      </trkpt>
      <trkpt lat="48.6766" lon="7.30206">
        <ele>548.4</ele>
        <time>2020-08-18T13:55:35Z</time>
      </trkpt>
      <trkpt lat="48.67662" lon="7.30212">
        <ele>544.6</ele>
        <time>2020-08-18T13:55:42Z</time>
      </trkpt>
      <trkpt lat="48.67658" lon="7.30206">
        <ele>544.4</ele>
        <time>2020-08-18T13:55:47Z</time>
      </trkpt>
      <trkpt lat="48.67654" lon="7.30198">
        <ele>544.5</ele>
        <time>2020-08-18T13:55:50Z</time>
      </trkpt>
      <trkpt lat="48.6765" lon="7.3019">
        <ele>544.8</ele>
        <time>2020-08-18T13:55:53Z</time>
      </trkpt>
      <trkpt lat="48.67646" lon="7.30183">
        <ele>546</ele>
        <time>2020-08-18T13:55:56Z</time>
      </trkpt>
      <trkpt lat="48.67643" lon="7.30177">
        <ele>546.7</ele>
        <time>2020-08-18T13:55:58Z</time>
      </trkpt>
      <trkpt lat="48.6764" lon="7.3017">
        <ele>546.5</ele>
        <time>2020-08-18T13:56:00Z</time>
      </trkpt>
      <trkpt lat="48.67637" lon="7.30164">
        <ele>548.3</ele>
        <time>2020-08-18T13:56:02Z</time>
      </trkpt>
      <trkpt lat="48.67633" lon="7.30157">
        <ele>549.1</ele>
        <time>2020-08-18T13:56:04Z</time>
      </trkpt>
      <trkpt lat="48.67628" lon="7.3015">
        <ele>549.9</ele>
        <time>2020-08-18T13:56:07Z</time>
      </trkpt>
      <trkpt lat="48.67625" lon="7.30144">
        <ele>551</ele>
        <time>2020-08-18T13:56:09Z</time>
      </trkpt>
      <trkpt lat="48.67623" lon="7.30138">
        <ele>551.5</ele>
        <time>2020-08-18T13:56:11Z</time>
      </trkpt>
      <trkpt lat="48.67619" lon="7.30131">
        <ele>552.4</ele>
        <time>2020-08-18T13:56:13Z</time>
      </trkpt>
      <trkpt lat="48.67616" lon="7.30119">
        <ele>552.9</ele>
        <time>2020-08-18T13:56:16Z</time>
      </trkpt>
      <trkpt lat="48.67614" lon="7.30111">
        <ele>553.5</ele>
        <time>2020-08-18T13:56:18Z</time>
      </trkpt>
      <trkpt lat="48.67611" lon="7.30102">
        <ele>553.8</ele>
        <time>2020-08-18T13:56:20Z</time>
      </trkpt>
      <trkpt lat="48.67608" lon="7.30095">
        <ele>553.9</ele>
        <time>2020-08-18T13:56:22Z</time>
      </trkpt>
      <trkpt lat="48.67605" lon="7.30086">
        <ele>554.6</ele>
        <time>2020-08-18T13:56:24Z</time>
      </trkpt>
      <trkpt lat="48.67603" lon="7.30078">
        <ele>553.8</ele>
        <time>2020-08-18T13:56:26Z</time>
      </trkpt>
      <trkpt lat="48.676" lon="7.30071">
        <ele>553.7</ele>
        <time>2020-08-18T13:56:28Z</time>
      </trkpt>
      <trkpt lat="48.67597" lon="7.30064">
        <ele>553.2</ele>
        <time>2020-08-18T13:56:30Z</time>
      </trkpt>
      <trkpt lat="48.67595" lon="7.30056">
        <ele>553.6</ele>
        <time>2020-08-18T13:56:32Z</time>
      </trkpt>
      <trkpt lat="48.67591" lon="7.30048">
        <ele>553.3</ele>
        <time>2020-08-18T13:56:34Z</time>
      </trkpt>
      <trkpt lat="48.67587" lon="7.30037">
        <ele>553.6</ele>
        <time>2020-08-18T13:56:37Z</time>
      </trkpt>
      <trkpt lat="48.67583" lon="7.3003">
        <ele>554.2</ele>
        <time>2020-08-18T13:56:39Z</time>
      </trkpt>
      <trkpt lat="48.6758" lon="7.30021">
        <ele>553.7</ele>
        <time>2020-08-18T13:56:41Z</time>
      </trkpt>
      <trkpt lat="48.67576" lon="7.3001">
        <ele>554</ele>
        <time>2020-08-18T13:56:44Z</time>
      </trkpt>
      <trkpt lat="48.67573" lon="7.30004">
        <ele>553.2</ele>
        <time>2020-08-18T13:56:46Z</time>
      </trkpt>
      <trkpt lat="48.67568" lon="7.29998">
        <ele>554.3</ele>
        <time>2020-08-18T13:56:49Z</time>
      </trkpt>
      <trkpt lat="48.67564" lon="7.29991">
        <ele>555.3</ele>
        <time>2020-08-18T13:56:52Z</time>
      </trkpt>
      <trkpt lat="48.67561" lon="7.29984">
        <ele>555.8</ele>
        <time>2020-08-18T13:56:54Z</time>
      </trkpt>
      <trkpt lat="48.67557" lon="7.29977">
        <ele>555.6</ele>
        <time>2020-08-18T13:56:57Z</time>
      </trkpt>
      <trkpt lat="48.67552" lon="7.29969">
        <ele>556.6</ele>
        <time>2020-08-18T13:57:00Z</time>
      </trkpt>
      <trkpt lat="48.67547" lon="7.29963">
        <ele>556.2</ele>
        <time>2020-08-18T13:57:03Z</time>
      </trkpt>
      <trkpt lat="48.67543" lon="7.29958">
        <ele>556</ele>
        <time>2020-08-18T13:57:05Z</time>
      </trkpt>
      <trkpt lat="48.67539" lon="7.29954">
        <ele>556.3</ele>
        <time>2020-08-18T13:57:07Z</time>
      </trkpt>
      <trkpt lat="48.67535" lon="7.29949">
        <ele>557</ele>
        <time>2020-08-18T13:57:09Z</time>
      </trkpt>
      <trkpt lat="48.67531" lon="7.29942">
        <ele>556.6</ele>
        <time>2020-08-18T13:57:12Z</time>
      </trkpt>
      <trkpt lat="48.67527" lon="7.29936">
        <ele>557.2</ele>
        <time>2020-08-18T13:57:15Z</time>
      </trkpt>
      <trkpt lat="48.67523" lon="7.29931">
        <ele>557.5</ele>
        <time>2020-08-18T13:57:18Z</time>
      </trkpt>
      <trkpt lat="48.67519" lon="7.29925">
        <ele>558.1</ele>
        <time>2020-08-18T13:57:21Z</time>
      </trkpt>
      <trkpt lat="48.67516" lon="7.29918">
        <ele>557.8</ele>
        <time>2020-08-18T13:57:23Z</time>
      </trkpt>
      <trkpt lat="48.67513" lon="7.29911">
        <ele>558.1</ele>
        <time>2020-08-18T13:57:25Z</time>
      </trkpt>
      <trkpt lat="48.67506" lon="7.29903">
        <ele>557.9</ele>
        <time>2020-08-18T13:57:28Z</time>
      </trkpt>
      <trkpt lat="48.67502" lon="7.29896">
        <ele>558.2</ele>
        <time>2020-08-18T13:57:30Z</time>
      </trkpt>
      <trkpt lat="48.67499" lon="7.29889">
        <ele>558.6</ele>
        <time>2020-08-18T13:57:32Z</time>
      </trkpt>
      <trkpt lat="48.67495" lon="7.29883">
        <ele>558.5</ele>
        <time>2020-08-18T13:57:35Z</time>
      </trkpt>
      <trkpt lat="48.67492" lon="7.29875">
        <ele>558.3</ele>
        <time>2020-08-18T13:57:38Z</time>
      </trkpt>
      <trkpt lat="48.67488" lon="7.29867">
        <ele>558.7</ele>
        <time>2020-08-18T13:57:41Z</time>
      </trkpt>
      <trkpt lat="48.67485" lon="7.2986">
        <ele>559.9</ele>
        <time>2020-08-18T13:57:44Z</time>
      </trkpt>
      <trkpt lat="48.67482" lon="7.29853">
        <ele>559.8</ele>
        <time>2020-08-18T13:57:47Z</time>
      </trkpt>
      <trkpt lat="48.6748" lon="7.29846">
        <ele>558.9</ele>
        <time>2020-08-18T13:57:54Z</time>
      </trkpt>
      <trkpt lat="48.67479" lon="7.29839">
        <ele>559.7</ele>
        <time>2020-08-18T13:58:05Z</time>
      </trkpt>
      <trkpt lat="48.67475" lon="7.29833">
        <ele>559.8</ele>
        <time>2020-08-18T13:58:10Z</time>
      </trkpt>
      <trkpt lat="48.67473" lon="7.29826">
        <ele>560.3</ele>
        <time>2020-08-18T13:58:13Z</time>
      </trkpt>
      <trkpt lat="48.6747" lon="7.29819">
        <ele>560.2</ele>
        <time>2020-08-18T13:58:16Z</time>
      </trkpt>
      <trkpt lat="48.67467" lon="7.29812">
        <ele>561.3</ele>
        <time>2020-08-18T13:58:19Z</time>
      </trkpt>
      <trkpt lat="48.67464" lon="7.29805">
        <ele>561.7</ele>
        <time>2020-08-18T13:58:21Z</time>
      </trkpt>
      <trkpt lat="48.67461" lon="7.29799">
        <ele>563</ele>
        <time>2020-08-18T13:58:23Z</time>
      </trkpt>
      <trkpt lat="48.67458" lon="7.29793">
        <ele>563.3</ele>
        <time>2020-08-18T13:58:25Z</time>
      </trkpt>
      <trkpt lat="48.67454" lon="7.29787">
        <ele>563.4</ele>
        <time>2020-08-18T13:58:27Z</time>
      </trkpt>
      <trkpt lat="48.67451" lon="7.2978">
        <ele>562.8</ele>
        <time>2020-08-18T13:58:30Z</time>
      </trkpt>
      <trkpt lat="48.67449" lon="7.29771">
        <ele>562.5</ele>
        <time>2020-08-18T13:58:33Z</time>
      </trkpt>
      <trkpt lat="48.67447" lon="7.29764">
        <ele>561.9</ele>
        <time>2020-08-18T13:58:35Z</time>
      </trkpt>
      <trkpt lat="48.67444" lon="7.29757">
        <ele>562.3</ele>
        <time>2020-08-18T13:58:37Z</time>
      </trkpt>
      <trkpt lat="48.6744" lon="7.29747">
        <ele>561.9</ele>
        <time>2020-08-18T13:58:40Z</time>
      </trkpt>
      <trkpt lat="48.67433" lon="7.29739">
        <ele>562</ele>
        <time>2020-08-18T13:58:43Z</time>
      </trkpt>
      <trkpt lat="48.67427" lon="7.29737">
        <ele>562.4</ele>
        <time>2020-08-18T13:58:46Z</time>
      </trkpt>
      <trkpt lat="48.67422" lon="7.29735">
        <ele>562.9</ele>
        <time>2020-08-18T13:58:49Z</time>
      </trkpt>
      <trkpt lat="48.67419" lon="7.29728">
        <ele>562.5</ele>
        <time>2020-08-18T13:58:52Z</time>
      </trkpt>
      <trkpt lat="48.67419" lon="7.29722">
        <ele>562.2</ele>
        <time>2020-08-18T13:59:02Z</time>
      </trkpt>
      <trkpt lat="48.67418" lon="7.29714">
        <ele>562.9</ele>
        <time>2020-08-18T13:59:06Z</time>
      </trkpt>
      <trkpt lat="48.67418" lon="7.29705">
        <ele>563.5</ele>
        <time>2020-08-18T13:59:09Z</time>
      </trkpt>
      <trkpt lat="48.67418" lon="7.29696">
        <ele>563.9</ele>
        <time>2020-08-18T13:59:12Z</time>
      </trkpt>
      <trkpt lat="48.6742" lon="7.29688">
        <ele>563.9</ele>
        <time>2020-08-18T13:59:15Z</time>
      </trkpt>
      <trkpt lat="48.67421" lon="7.29681">
        <ele>564.5</ele>
        <time>2020-08-18T13:59:18Z</time>
      </trkpt>
      <trkpt lat="48.67424" lon="7.29673">
        <ele>565.5</ele>
        <time>2020-08-18T13:59:21Z</time>
      </trkpt>
      <trkpt lat="48.67425" lon="7.29664">
        <ele>566.3</ele>
        <time>2020-08-18T13:59:24Z</time>
      </trkpt>
      <trkpt lat="48.67427" lon="7.29656">
        <ele>566.8</ele>
        <time>2020-08-18T13:59:27Z</time>
      </trkpt>
      <trkpt lat="48.67429" lon="7.29648">
        <ele>566.8</ele>
        <time>2020-08-18T13:59:30Z</time>
      </trkpt>
      <trkpt lat="48.67431" lon="7.29639">
        <ele>567.2</ele>
        <time>2020-08-18T13:59:33Z</time>
      </trkpt>
      <trkpt lat="48.67433" lon="7.2963">
        <ele>567.8</ele>
        <time>2020-08-18T13:59:36Z</time>
      </trkpt>
      <trkpt lat="48.67435" lon="7.29622">
        <ele>568.8</ele>
        <time>2020-08-18T13:59:39Z</time>
      </trkpt>
      <trkpt lat="48.67439" lon="7.29613">
        <ele>570.4</ele>
        <time>2020-08-18T13:59:41Z</time>
      </trkpt>
      <trkpt lat="48.67441" lon="7.29606">
        <ele>569.7</ele>
        <time>2020-08-18T13:59:43Z</time>
      </trkpt>
      <trkpt lat="48.67443" lon="7.29599">
        <ele>570.5</ele>
        <time>2020-08-18T13:59:45Z</time>
      </trkpt>
      <trkpt lat="48.67445" lon="7.29593">
        <ele>570.9</ele>
        <time>2020-08-18T13:59:47Z</time>
      </trkpt>
      <trkpt lat="48.67446" lon="7.29587">
        <ele>570.6</ele>
        <time>2020-08-18T13:59:49Z</time>
      </trkpt>
      <trkpt lat="48.67448" lon="7.2958">
        <ele>570.9</ele>
        <time>2020-08-18T13:59:51Z</time>
      </trkpt>
      <trkpt lat="48.6745" lon="7.29571">
        <ele>571.5</ele>
        <time>2020-08-18T13:59:54Z</time>
      </trkpt>
      <trkpt lat="48.67453" lon="7.29562">
        <ele>572.3</ele>
        <time>2020-08-18T13:59:57Z</time>
      </trkpt>
      <trkpt lat="48.67453" lon="7.29554">
        <ele>573.5</ele>
        <time>2020-08-18T13:59:59Z</time>
      </trkpt>
      <trkpt lat="48.67454" lon="7.29546">
        <ele>575.4</ele>
        <time>2020-08-18T14:00:02Z</time>
      </trkpt>
      <trkpt lat="48.67456" lon="7.29536">
        <ele>576.7</ele>
        <time>2020-08-18T14:00:05Z</time>
      </trkpt>
      <trkpt lat="48.67457" lon="7.2953">
        <ele>577.2</ele>
        <time>2020-08-18T14:00:07Z</time>
      </trkpt>
      <trkpt lat="48.67459" lon="7.2952">
        <ele>578.1</ele>
        <time>2020-08-18T14:00:10Z</time>
      </trkpt>
      <trkpt lat="48.6746" lon="7.29513">
        <ele>578.8</ele>
        <time>2020-08-18T14:00:12Z</time>
      </trkpt>
      <trkpt lat="48.6746" lon="7.29506">
        <ele>579.7</ele>
        <time>2020-08-18T14:00:16Z</time>
      </trkpt>
      <trkpt lat="48.67461" lon="7.29499">
        <ele>580.4</ele>
        <time>2020-08-18T14:00:20Z</time>
      </trkpt>
      <trkpt lat="48.67461" lon="7.29492">
        <ele>581.1</ele>
        <time>2020-08-18T14:00:24Z</time>
      </trkpt>
      <trkpt lat="48.67463" lon="7.29484">
        <ele>583.2</ele>
        <time>2020-08-18T14:00:30Z</time>
      </trkpt>
      <trkpt lat="48.67463" lon="7.29477">
        <ele>583.8</ele>
        <time>2020-08-18T14:00:35Z</time>
      </trkpt>
      <trkpt lat="48.67463" lon="7.29469">
        <ele>584.8</ele>
        <time>2020-08-18T14:00:40Z</time>
      </trkpt>
      <trkpt lat="48.67464" lon="7.29463">
        <ele>586.3</ele>
        <time>2020-08-18T14:00:44Z</time>
      </trkpt>
      <trkpt lat="48.6746" lon="7.29458">
        <ele>588.4</ele>
        <time>2020-08-18T14:00:51Z</time>
      </trkpt>
      <trkpt lat="48.67456" lon="7.29461">
        <ele>589.6</ele>
        <time>2020-08-18T14:01:00Z</time>
      </trkpt>
      <trkpt lat="48.67452" lon="7.29465">
        <ele>591.9</ele>
        <time>2020-08-18T14:01:11Z</time>
      </trkpt>
      <trkpt lat="48.67447" lon="7.29468">
        <ele>594.1</ele>
        <time>2020-08-18T14:01:19Z</time>
      </trkpt>
      <trkpt lat="48.67443" lon="7.2947">
        <ele>596.9</ele>
        <time>2020-08-18T14:01:26Z</time>
      </trkpt>
      <trkpt lat="48.6744" lon="7.29475">
        <ele>597.9</ele>
        <time>2020-08-18T14:01:30Z</time>
      </trkpt>
      <trkpt lat="48.67438" lon="7.29468">
        <ele>600.8</ele>
        <time>2020-08-18T14:01:45Z</time>
      </trkpt>
      <trkpt lat="48.67438" lon="7.29461">
        <ele>601</ele>
        <time>2020-08-18T14:01:51Z</time>
      </trkpt>
      <trkpt lat="48.67439" lon="7.29453">
        <ele>601.7</ele>
        <time>2020-08-18T14:01:56Z</time>
      </trkpt>
      <trkpt lat="48.67434" lon="7.29454">
        <ele>604.1</ele>
        <time>2020-08-18T14:02:05Z</time>
      </trkpt>
      <trkpt lat="48.6743" lon="7.29449">
        <ele>605.7</ele>
        <time>2020-08-18T14:02:12Z</time>
      </trkpt>
      <trkpt lat="48.67428" lon="7.29443">
        <ele>606.8</ele>
        <time>2020-08-18T14:02:18Z</time>
      </trkpt>
      <trkpt lat="48.67423" lon="7.29445">
        <ele>608.1</ele>
        <time>2020-08-18T14:02:30Z</time>
      </trkpt>
      <trkpt lat="48.67418" lon="7.29446">
        <ele>608.4</ele>
        <time>2020-08-18T14:02:35Z</time>
      </trkpt>
      <trkpt lat="48.67413" lon="7.29445">
        <ele>608.3</ele>
        <time>2020-08-18T14:02:50Z</time>
      </trkpt>
      <trkpt lat="48.67408" lon="7.29443">
        <ele>608.2</ele>
        <time>2020-08-18T14:02:53Z</time>
      </trkpt>
      <trkpt lat="48.67403" lon="7.2944">
        <ele>608.4</ele>
        <time>2020-08-18T14:02:56Z</time>
      </trkpt>
      <trkpt lat="48.67398" lon="7.29436">
        <ele>608.4</ele>
        <time>2020-08-18T14:02:59Z</time>
      </trkpt>
      <trkpt lat="48.67394" lon="7.29431">
        <ele>608.3</ele>
        <time>2020-08-18T14:03:02Z</time>
      </trkpt>
      <trkpt lat="48.6739" lon="7.29422">
        <ele>608.4</ele>
        <time>2020-08-18T14:03:05Z</time>
      </trkpt>
      <trkpt lat="48.67388" lon="7.29413">
        <ele>608.7</ele>
        <time>2020-08-18T14:03:07Z</time>
      </trkpt>
      <trkpt lat="48.67384" lon="7.29405">
        <ele>609.1</ele>
        <time>2020-08-18T14:03:09Z</time>
      </trkpt>
      <trkpt lat="48.67379" lon="7.29398">
        <ele>609.3</ele>
        <time>2020-08-18T14:03:11Z</time>
      </trkpt>
      <trkpt lat="48.67374" lon="7.29394">
        <ele>609.3</ele>
        <time>2020-08-18T14:03:13Z</time>
      </trkpt>
      <trkpt lat="48.67369" lon="7.29392">
        <ele>609.8</ele>
        <time>2020-08-18T14:03:15Z</time>
      </trkpt>
      <trkpt lat="48.67364" lon="7.29391">
        <ele>609.8</ele>
        <time>2020-08-18T14:03:17Z</time>
      </trkpt>
      <trkpt lat="48.67359" lon="7.29391">
        <ele>609.3</ele>
        <time>2020-08-18T14:03:19Z</time>
      </trkpt>
      <trkpt lat="48.67353" lon="7.29389">
        <ele>609.4</ele>
        <time>2020-08-18T14:03:21Z</time>
      </trkpt>
      <trkpt lat="48.67347" lon="7.29388">
        <ele>609.8</ele>
        <time>2020-08-18T14:03:23Z</time>
      </trkpt>
      <trkpt lat="48.67342" lon="7.29384">
        <ele>610.1</ele>
        <time>2020-08-18T14:03:25Z</time>
      </trkpt>
      <trkpt lat="48.67337" lon="7.29377">
        <ele>609.8</ele>
        <time>2020-08-18T14:03:27Z</time>
      </trkpt>
      <trkpt lat="48.67331" lon="7.29368">
        <ele>609.1</ele>
        <time>2020-08-18T14:03:29Z</time>
      </trkpt>
      <trkpt lat="48.67325" lon="7.29359">
        <ele>608.9</ele>
        <time>2020-08-18T14:03:31Z</time>
      </trkpt>
      <trkpt lat="48.67319" lon="7.29354">
        <ele>608.9</ele>
        <time>2020-08-18T14:03:33Z</time>
      </trkpt>
      <trkpt lat="48.67313" lon="7.29349">
        <ele>608.9</ele>
        <time>2020-08-18T14:03:35Z</time>
      </trkpt>
      <trkpt lat="48.67308" lon="7.29347">
        <ele>608.9</ele>
        <time>2020-08-18T14:03:37Z</time>
      </trkpt>
      <trkpt lat="48.67303" lon="7.29343">
        <ele>609.2</ele>
        <time>2020-08-18T14:03:39Z</time>
      </trkpt>
      <trkpt lat="48.67299" lon="7.29338">
        <ele>609.1</ele>
        <time>2020-08-18T14:03:41Z</time>
      </trkpt>
      <trkpt lat="48.67295" lon="7.29332">
        <ele>609.7</ele>
        <time>2020-08-18T14:03:43Z</time>
      </trkpt>
      <trkpt lat="48.67292" lon="7.29327">
        <ele>609.8</ele>
        <time>2020-08-18T14:03:45Z</time>
      </trkpt>
      <trkpt lat="48.67287" lon="7.29322">
        <ele>610.7</ele>
        <time>2020-08-18T14:03:47Z</time>
      </trkpt>
      <trkpt lat="48.67282" lon="7.29317">
        <ele>610.8</ele>
        <time>2020-08-18T14:03:49Z</time>
      </trkpt>
      <trkpt lat="48.67277" lon="7.29313">
        <ele>611.4</ele>
        <time>2020-08-18T14:03:51Z</time>
      </trkpt>
      <trkpt lat="48.67272" lon="7.2931">
        <ele>611.6</ele>
        <time>2020-08-18T14:03:53Z</time>
      </trkpt>
      <trkpt lat="48.67267" lon="7.29304">
        <ele>611.4</ele>
        <time>2020-08-18T14:03:55Z</time>
      </trkpt>
      <trkpt lat="48.67262" lon="7.29299">
        <ele>611.8</ele>
        <time>2020-08-18T14:03:57Z</time>
      </trkpt>
      <trkpt lat="48.67258" lon="7.29295">
        <ele>611.8</ele>
        <time>2020-08-18T14:03:59Z</time>
      </trkpt>
      <trkpt lat="48.67253" lon="7.29291">
        <ele>611.9</ele>
        <time>2020-08-18T14:04:01Z</time>
      </trkpt>
      <trkpt lat="48.67248" lon="7.29286">
        <ele>611.8</ele>
        <time>2020-08-18T14:04:03Z</time>
      </trkpt>
      <trkpt lat="48.67244" lon="7.29281">
        <ele>612</ele>
        <time>2020-08-18T14:04:05Z</time>
      </trkpt>
      <trkpt lat="48.6724" lon="7.29274">
        <ele>612</ele>
        <time>2020-08-18T14:04:07Z</time>
      </trkpt>
      <trkpt lat="48.67236" lon="7.29269">
        <ele>612.3</ele>
        <time>2020-08-18T14:04:09Z</time>
      </trkpt>
      <trkpt lat="48.67232" lon="7.29265">
        <ele>612.3</ele>
        <time>2020-08-18T14:04:11Z</time>
      </trkpt>
      <trkpt lat="48.67227" lon="7.2926">
        <ele>612.3</ele>
        <time>2020-08-18T14:04:14Z</time>
      </trkpt>
      <trkpt lat="48.67223" lon="7.29256">
        <ele>612.8</ele>
        <time>2020-08-18T14:04:16Z</time>
      </trkpt>
      <trkpt lat="48.67218" lon="7.2925">
        <ele>612.7</ele>
        <time>2020-08-18T14:04:19Z</time>
      </trkpt>
      <trkpt lat="48.67212" lon="7.29245">
        <ele>612.2</ele>
        <time>2020-08-18T14:04:22Z</time>
      </trkpt>
      <trkpt lat="48.67207" lon="7.29241">
        <ele>611.8</ele>
        <time>2020-08-18T14:04:25Z</time>
      </trkpt>
      <trkpt lat="48.67203" lon="7.29238">
        <ele>611.6</ele>
        <time>2020-08-18T14:04:28Z</time>
      </trkpt>
      <trkpt lat="48.67199" lon="7.29231">
        <ele>610.2</ele>
        <time>2020-08-18T14:04:44Z</time>
      </trkpt>
      <trkpt lat="48.67197" lon="7.29226">
        <ele>610.9</ele>
        <time>2020-08-18T14:04:47Z</time>
      </trkpt>
      <trkpt lat="48.67194" lon="7.29219">
        <ele>611.6</ele>
        <time>2020-08-18T14:04:50Z</time>
      </trkpt>
      <trkpt lat="48.67191" lon="7.2921">
        <ele>612</ele>
        <time>2020-08-18T14:04:53Z</time>
      </trkpt>
      <trkpt lat="48.67187" lon="7.29203">
        <ele>612.6</ele>
        <time>2020-08-18T14:04:56Z</time>
      </trkpt>
      <trkpt lat="48.67183" lon="7.29195">
        <ele>612.9</ele>
        <time>2020-08-18T14:04:59Z</time>
      </trkpt>
      <trkpt lat="48.6718" lon="7.29189">
        <ele>612.9</ele>
        <time>2020-08-18T14:05:01Z</time>
      </trkpt>
      <trkpt lat="48.67177" lon="7.29181">
        <ele>612.9</ele>
        <time>2020-08-18T14:05:04Z</time>
      </trkpt>
      <trkpt lat="48.67174" lon="7.29175">
        <ele>613.6</ele>
        <time>2020-08-18T14:05:08Z</time>
      </trkpt>
      <trkpt lat="48.67173" lon="7.29167">
        <ele>613.8</ele>
        <time>2020-08-18T14:05:19Z</time>
      </trkpt>
      <trkpt lat="48.67168" lon="7.29166">
        <ele>614.3</ele>
        <time>2020-08-18T14:05:36Z</time>
      </trkpt>
      <trkpt lat="48.67172" lon="7.2917">
        <ele>614.4</ele>
        <time>2020-08-18T14:05:44Z</time>
      </trkpt>
      <trkpt lat="48.6717" lon="7.29177">
        <ele>615.4</ele>
        <time>2020-08-18T14:05:58Z</time>
      </trkpt>
      <trkpt lat="48.67172" lon="7.29184">
        <ele>614</ele>
        <time>2020-08-18T14:10:05Z</time>
      </trkpt>
      <trkpt lat="48.67177" lon="7.29191">
        <ele>614.4</ele>
        <time>2020-08-18T14:10:09Z</time>
      </trkpt>
      <trkpt lat="48.67181" lon="7.29198">
        <ele>614.5</ele>
        <time>2020-08-18T14:10:11Z</time>
      </trkpt>
      <trkpt lat="48.67185" lon="7.29205">
        <ele>614.7</ele>
        <time>2020-08-18T14:10:13Z</time>
      </trkpt>
      <trkpt lat="48.67189" lon="7.29212">
        <ele>614.7</ele>
        <time>2020-08-18T14:10:15Z</time>
      </trkpt>
      <trkpt lat="48.67192" lon="7.2922">
        <ele>614.9</ele>
        <time>2020-08-18T14:10:17Z</time>
      </trkpt>
      <trkpt lat="48.67195" lon="7.29228">
        <ele>614.7</ele>
        <time>2020-08-18T14:10:20Z</time>
      </trkpt>
      <trkpt lat="48.67197" lon="7.29235">
        <ele>614.4</ele>
        <time>2020-08-18T14:10:23Z</time>
      </trkpt>
      <trkpt lat="48.67195" lon="7.29241">
        <ele>612.9</ele>
        <time>2020-08-18T14:10:41Z</time>
      </trkpt>
      <trkpt lat="48.67189" lon="7.29242">
        <ele>612.6</ele>
        <time>2020-08-18T14:10:54Z</time>
      </trkpt>
      <trkpt lat="48.67185" lon="7.29247">
        <ele>611.4</ele>
        <time>2020-08-18T14:10:59Z</time>
      </trkpt>
      <trkpt lat="48.6718" lon="7.29243">
        <ele>610.2</ele>
        <time>2020-08-18T14:11:07Z</time>
      </trkpt>
      <trkpt lat="48.67177" lon="7.29238">
        <ele>609.1</ele>
        <time>2020-08-18T14:11:09Z</time>
      </trkpt>
      <trkpt lat="48.67174" lon="7.2923">
        <ele>607.3</ele>
        <time>2020-08-18T14:11:12Z</time>
      </trkpt>
      <trkpt lat="48.6717" lon="7.29222">
        <ele>605.6</ele>
        <time>2020-08-18T14:11:15Z</time>
      </trkpt>
      <trkpt lat="48.67165" lon="7.29221">
        <ele>605.1</ele>
        <time>2020-08-18T14:11:18Z</time>
      </trkpt>
      <trkpt lat="48.67165" lon="7.29232">
        <ele>604</ele>
        <time>2020-08-18T14:11:21Z</time>
      </trkpt>
      <trkpt lat="48.67166" lon="7.29242">
        <ele>603.6</ele>
        <time>2020-08-18T14:11:23Z</time>
      </trkpt>
      <trkpt lat="48.67166" lon="7.29251">
        <ele>602.8</ele>
        <time>2020-08-18T14:11:25Z</time>
      </trkpt>
      <trkpt lat="48.67167" lon="7.29259">
        <ele>601.5</ele>
        <time>2020-08-18T14:11:28Z</time>
      </trkpt>
      <trkpt lat="48.67169" lon="7.29265">
        <ele>600.3</ele>
        <time>2020-08-18T14:11:35Z</time>
      </trkpt>
      <trkpt lat="48.67163" lon="7.29264">
        <ele>599.3</ele>
        <time>2020-08-18T14:11:48Z</time>
      </trkpt>
      <trkpt lat="48.6716" lon="7.29257">
        <ele>598.1</ele>
        <time>2020-08-18T14:11:51Z</time>
      </trkpt>
      <trkpt lat="48.67156" lon="7.29251">
        <ele>597.3</ele>
        <time>2020-08-18T14:11:53Z</time>
      </trkpt>
      <trkpt lat="48.67153" lon="7.29244">
        <ele>596.2</ele>
        <time>2020-08-18T14:11:55Z</time>
      </trkpt>
      <trkpt lat="48.67149" lon="7.29236">
        <ele>595.4</ele>
        <time>2020-08-18T14:11:57Z</time>
      </trkpt>
      <trkpt lat="48.67147" lon="7.29229">
        <ele>594.2</ele>
        <time>2020-08-18T14:12:06Z</time>
      </trkpt>
      <trkpt lat="48.67144" lon="7.29223">
        <ele>591.4</ele>
        <time>2020-08-18T14:12:09Z</time>
      </trkpt>
      <trkpt lat="48.6714" lon="7.29218">
        <ele>590.2</ele>
        <time>2020-08-18T14:12:11Z</time>
      </trkpt>
      <trkpt lat="48.67135" lon="7.29213">
        <ele>589.3</ele>
        <time>2020-08-18T14:12:13Z</time>
      </trkpt>
      <trkpt lat="48.6713" lon="7.29205">
        <ele>587.8</ele>
        <time>2020-08-18T14:12:15Z</time>
      </trkpt>
      <trkpt lat="48.67126" lon="7.29199">
        <ele>586.4</ele>
        <time>2020-08-18T14:12:17Z</time>
      </trkpt>
      <trkpt lat="48.67123" lon="7.29194">
        <ele>584.7</ele>
        <time>2020-08-18T14:12:19Z</time>
      </trkpt>
      <trkpt lat="48.6712" lon="7.29188">
        <ele>583.8</ele>
        <time>2020-08-18T14:12:21Z</time>
      </trkpt>
      <trkpt lat="48.67117" lon="7.2918">
        <ele>583.4</ele>
        <time>2020-08-18T14:12:23Z</time>
      </trkpt>
      <trkpt lat="48.67114" lon="7.2917">
        <ele>583.1</ele>
        <time>2020-08-18T14:12:25Z</time>
      </trkpt>
      <trkpt lat="48.67111" lon="7.2916">
        <ele>582.6</ele>
        <time>2020-08-18T14:12:27Z</time>
      </trkpt>
      <trkpt lat="48.67109" lon="7.29149">
        <ele>582.3</ele>
        <time>2020-08-18T14:12:29Z</time>
      </trkpt>
      <trkpt lat="48.67109" lon="7.29139">
        <ele>581.9</ele>
        <time>2020-08-18T14:12:31Z</time>
      </trkpt>
      <trkpt lat="48.6711" lon="7.2913">
        <ele>581.7</ele>
        <time>2020-08-18T14:12:33Z</time>
      </trkpt>
      <trkpt lat="48.6711" lon="7.29122">
        <ele>581.9</ele>
        <time>2020-08-18T14:12:36Z</time>
      </trkpt>
      <trkpt lat="48.67109" lon="7.29115">
        <ele>582.7</ele>
        <time>2020-08-18T14:12:40Z</time>
      </trkpt>
      <trkpt lat="48.67106" lon="7.29108">
        <ele>581.1</ele>
        <time>2020-08-18T14:12:54Z</time>
      </trkpt>
      <trkpt lat="48.67099" lon="7.29101">
        <ele>580.4</ele>
        <time>2020-08-18T14:12:57Z</time>
      </trkpt>
      <trkpt lat="48.67091" lon="7.29104">
        <ele>579.8</ele>
        <time>2020-08-18T14:13:00Z</time>
      </trkpt>
      <trkpt lat="48.67087" lon="7.29108">
        <ele>579.3</ele>
        <time>2020-08-18T14:13:02Z</time>
      </trkpt>
      <trkpt lat="48.67084" lon="7.29115">
        <ele>578.8</ele>
        <time>2020-08-18T14:13:05Z</time>
      </trkpt>
      <trkpt lat="48.67081" lon="7.29121">
        <ele>578.1</ele>
        <time>2020-08-18T14:13:08Z</time>
      </trkpt>
      <trkpt lat="48.67077" lon="7.29127">
        <ele>577.1</ele>
        <time>2020-08-18T14:13:11Z</time>
      </trkpt>
      <trkpt lat="48.67072" lon="7.29129">
        <ele>576.2</ele>
        <time>2020-08-18T14:13:14Z</time>
      </trkpt>
      <trkpt lat="48.67065" lon="7.29126">
        <ele>574.8</ele>
        <time>2020-08-18T14:13:17Z</time>
      </trkpt>
      <trkpt lat="48.6706" lon="7.29123">
        <ele>572.1</ele>
        <time>2020-08-18T14:13:22Z</time>
      </trkpt>
      <trkpt lat="48.67057" lon="7.29118">
        <ele>569.3</ele>
        <time>2020-08-18T14:13:28Z</time>
      </trkpt>
      <trkpt lat="48.67052" lon="7.29108">
        <ele>568.7</ele>
        <time>2020-08-18T14:13:31Z</time>
      </trkpt>
      <trkpt lat="48.6705" lon="7.29098">
        <ele>568.3</ele>
        <time>2020-08-18T14:13:33Z</time>
      </trkpt>
      <trkpt lat="48.67049" lon="7.29088">
        <ele>567.8</ele>
        <time>2020-08-18T14:13:36Z</time>
      </trkpt>
      <trkpt lat="48.67048" lon="7.29082">
        <ele>567.6</ele>
        <time>2020-08-18T14:13:40Z</time>
      </trkpt>
      <trkpt lat="48.67046" lon="7.29074">
        <ele>567.7</ele>
        <time>2020-08-18T14:13:45Z</time>
      </trkpt>
      <trkpt lat="48.67048" lon="7.29066">
        <ele>568.2</ele>
        <time>2020-08-18T14:13:49Z</time>
      </trkpt>
      <trkpt lat="48.67049" lon="7.29058">
        <ele>567</ele>
        <time>2020-08-18T14:13:52Z</time>
      </trkpt>
      <trkpt lat="48.67049" lon="7.29039">
        <ele>565.6</ele>
        <time>2020-08-18T14:13:55Z</time>
      </trkpt>
      <trkpt lat="48.67049" lon="7.29029">
        <ele>563.9</ele>
        <time>2020-08-18T14:13:57Z</time>
      </trkpt>
      <trkpt lat="48.67052" lon="7.29015">
        <ele>561.2</ele>
        <time>2020-08-18T14:14:00Z</time>
      </trkpt>
      <trkpt lat="48.67055" lon="7.29002">
        <ele>559.2</ele>
        <time>2020-08-18T14:14:03Z</time>
      </trkpt>
      <trkpt lat="48.67058" lon="7.28995">
        <ele>557.5</ele>
        <time>2020-08-18T14:14:05Z</time>
      </trkpt>
      <trkpt lat="48.67058" lon="7.28988">
        <ele>555.2</ele>
        <time>2020-08-18T14:14:09Z</time>
      </trkpt>
      <trkpt lat="48.67053" lon="7.28984">
        <ele>552.7</ele>
        <time>2020-08-18T14:14:18Z</time>
      </trkpt>
      <trkpt lat="48.67048" lon="7.28986">
        <ele>551.9</ele>
        <time>2020-08-18T14:14:21Z</time>
      </trkpt>
      <trkpt lat="48.67042" lon="7.2899">
        <ele>548.9</ele>
        <time>2020-08-18T14:14:34Z</time>
      </trkpt>
      <trkpt lat="48.67036" lon="7.28989">
        <ele>550</ele>
        <time>2020-08-18T14:14:37Z</time>
      </trkpt>
      <trkpt lat="48.67029" lon="7.28988">
        <ele>549.8</ele>
        <time>2020-08-18T14:14:39Z</time>
      </trkpt>
      <trkpt lat="48.67025" lon="7.28989">
        <ele>548.9</ele>
        <time>2020-08-18T14:14:41Z</time>
      </trkpt>
      <trkpt lat="48.6702" lon="7.28989">
        <ele>548.5</ele>
        <time>2020-08-18T14:14:45Z</time>
      </trkpt>
      <trkpt lat="48.67017" lon="7.28995">
        <ele>551</ele>
        <time>2020-08-18T14:14:51Z</time>
      </trkpt>
      <trkpt lat="48.67009" lon="7.2899">
        <ele>554.3</ele>
        <time>2020-08-18T14:15:00Z</time>
      </trkpt>
      <trkpt lat="48.67005" lon="7.28986">
        <ele>552.6</ele>
        <time>2020-08-18T14:15:02Z</time>
      </trkpt>
      <trkpt lat="48.67002" lon="7.28979">
        <ele>550</ele>
        <time>2020-08-18T14:15:06Z</time>
      </trkpt>
      <trkpt lat="48.67001" lon="7.28971">
        <ele>548.5</ele>
        <time>2020-08-18T14:15:10Z</time>
      </trkpt>
      <trkpt lat="48.66996" lon="7.28968">
        <ele>545.9</ele>
        <time>2020-08-18T14:15:19Z</time>
      </trkpt>
      <trkpt lat="48.66992" lon="7.28969">
        <ele>544.3</ele>
        <time>2020-08-18T14:15:24Z</time>
      </trkpt>
      <trkpt lat="48.66987" lon="7.28968">
        <ele>544.6</ele>
        <time>2020-08-18T14:15:27Z</time>
      </trkpt>
      <trkpt lat="48.66982" lon="7.28965">
        <ele>544.2</ele>
        <time>2020-08-18T14:15:30Z</time>
      </trkpt>
      <trkpt lat="48.66978" lon="7.2896">
        <ele>540.8</ele>
        <time>2020-08-18T14:15:34Z</time>
      </trkpt>
      <trkpt lat="48.66973" lon="7.2895">
        <ele>537.5</ele>
        <time>2020-08-18T14:15:38Z</time>
      </trkpt>
      <trkpt lat="48.66967" lon="7.28946">
        <ele>534.2</ele>
        <time>2020-08-18T14:15:41Z</time>
      </trkpt>
      <trkpt lat="48.66963" lon="7.28942">
        <ele>532.6</ele>
        <time>2020-08-18T14:15:43Z</time>
      </trkpt>
      <trkpt lat="48.66959" lon="7.28936">
        <ele>529.4</ele>
        <time>2020-08-18T14:15:47Z</time>
      </trkpt>
      <trkpt lat="48.66954" lon="7.28929">
        <ele>526.7</ele>
        <time>2020-08-18T14:15:50Z</time>
      </trkpt>
      <trkpt lat="48.66947" lon="7.28923">
        <ele>525</ele>
        <time>2020-08-18T14:15:52Z</time>
      </trkpt>
      <trkpt lat="48.6694" lon="7.28917">
        <ele>523.2</ele>
        <time>2020-08-18T14:15:54Z</time>
      </trkpt>
      <trkpt lat="48.66933" lon="7.28909">
        <ele>521.3</ele>
        <time>2020-08-18T14:15:56Z</time>
      </trkpt>
      <trkpt lat="48.66919" lon="7.28892">
        <ele>518.8</ele>
        <time>2020-08-18T14:15:59Z</time>
      </trkpt>
      <trkpt lat="48.66911" lon="7.28884">
        <ele>516.8</ele>
        <time>2020-08-18T14:16:01Z</time>
      </trkpt>
      <trkpt lat="48.66901" lon="7.28874">
        <ele>516.5</ele>
        <time>2020-08-18T14:16:03Z</time>
      </trkpt>
      <trkpt lat="48.66894" lon="7.28866">
        <ele>515.4</ele>
        <time>2020-08-18T14:16:05Z</time>
      </trkpt>
      <trkpt lat="48.6689" lon="7.28862">
        <ele>514.3</ele>
        <time>2020-08-18T14:16:08Z</time>
      </trkpt>
      <trkpt lat="48.66888" lon="7.28856">
        <ele>513.4</ele>
        <time>2020-08-18T14:16:15Z</time>
      </trkpt>
      <trkpt lat="48.66886" lon="7.28848">
        <ele>513</ele>
        <time>2020-08-18T14:16:19Z</time>
      </trkpt>
      <trkpt lat="48.66883" lon="7.28842">
        <ele>509.7</ele>
        <time>2020-08-18T14:16:31Z</time>
      </trkpt>
      <trkpt lat="48.66882" lon="7.28834">
        <ele>510</ele>
        <time>2020-08-18T14:16:34Z</time>
      </trkpt>
      <trkpt lat="48.66881" lon="7.28824">
        <ele>511.2</ele>
        <time>2020-08-18T14:16:37Z</time>
      </trkpt>
      <trkpt lat="48.66879" lon="7.28817">
        <ele>512.2</ele>
        <time>2020-08-18T14:16:39Z</time>
      </trkpt>
      <trkpt lat="48.66876" lon="7.2881">
        <ele>513</ele>
        <time>2020-08-18T14:16:41Z</time>
      </trkpt>
      <trkpt lat="48.66871" lon="7.28799">
        <ele>514.9</ele>
        <time>2020-08-18T14:16:44Z</time>
      </trkpt>
      <trkpt lat="48.66867" lon="7.28792">
        <ele>515.7</ele>
        <time>2020-08-18T14:16:46Z</time>
      </trkpt>
      <trkpt lat="48.66858" lon="7.28784">
        <ele>517.1</ele>
        <time>2020-08-18T14:16:49Z</time>
      </trkpt>
      <trkpt lat="48.66849" lon="7.28778">
        <ele>517.4</ele>
        <time>2020-08-18T14:16:52Z</time>
      </trkpt>
      <trkpt lat="48.66844" lon="7.28771">
        <ele>518.1</ele>
        <time>2020-08-18T14:16:54Z</time>
      </trkpt>
      <trkpt lat="48.6684" lon="7.28765">
        <ele>518.5</ele>
        <time>2020-08-18T14:16:56Z</time>
      </trkpt>
      <trkpt lat="48.66834" lon="7.28756">
        <ele>518.7</ele>
        <time>2020-08-18T14:16:59Z</time>
      </trkpt>
      <trkpt lat="48.66831" lon="7.28749">
        <ele>518.7</ele>
        <time>2020-08-18T14:17:01Z</time>
      </trkpt>
      <trkpt lat="48.66829" lon="7.28741">
        <ele>519</ele>
        <time>2020-08-18T14:17:03Z</time>
      </trkpt>
      <trkpt lat="48.66828" lon="7.28732">
        <ele>519</ele>
        <time>2020-08-18T14:17:05Z</time>
      </trkpt>
      <trkpt lat="48.66823" lon="7.28713">
        <ele>520.4</ele>
        <time>2020-08-18T14:17:08Z</time>
      </trkpt>
      <trkpt lat="48.66822" lon="7.287">
        <ele>520.8</ele>
        <time>2020-08-18T14:17:10Z</time>
      </trkpt>
      <trkpt lat="48.66821" lon="7.28681">
        <ele>521.5</ele>
        <time>2020-08-18T14:17:13Z</time>
      </trkpt>
      <trkpt lat="48.66819" lon="7.28669">
        <ele>522.3</ele>
        <time>2020-08-18T14:17:15Z</time>
      </trkpt>
      <trkpt lat="48.66815" lon="7.28649">
        <ele>523.3</ele>
        <time>2020-08-18T14:17:18Z</time>
      </trkpt>
      <trkpt lat="48.66812" lon="7.28639">
        <ele>524.1</ele>
        <time>2020-08-18T14:17:20Z</time>
      </trkpt>
      <trkpt lat="48.66806" lon="7.28623">
        <ele>524.9</ele>
        <time>2020-08-18T14:17:23Z</time>
      </trkpt>
      <trkpt lat="48.66802" lon="7.28608">
        <ele>526.2</ele>
        <time>2020-08-18T14:17:26Z</time>
      </trkpt>
      <trkpt lat="48.66801" lon="7.286">
        <ele>526.1</ele>
        <time>2020-08-18T14:17:28Z</time>
      </trkpt>
      <trkpt lat="48.66799" lon="7.2859">
        <ele>527.4</ele>
        <time>2020-08-18T14:17:30Z</time>
      </trkpt>
      <trkpt lat="48.66798" lon="7.28582">
        <ele>529</ele>
        <time>2020-08-18T14:17:32Z</time>
      </trkpt>
      <trkpt lat="48.66796" lon="7.28576">
        <ele>530.9</ele>
        <time>2020-08-18T14:17:35Z</time>
      </trkpt>
      <trkpt lat="48.66793" lon="7.28568">
        <ele>531.9</ele>
        <time>2020-08-18T14:17:38Z</time>
      </trkpt>
      <trkpt lat="48.66794" lon="7.28561">
        <ele>533.3</ele>
        <time>2020-08-18T14:17:42Z</time>
      </trkpt>
      <trkpt lat="48.66794" lon="7.28552">
        <ele>533.9</ele>
        <time>2020-08-18T14:17:46Z</time>
      </trkpt>
      <trkpt lat="48.66793" lon="7.28545">
        <ele>535</ele>
        <time>2020-08-18T14:17:54Z</time>
      </trkpt>
      <trkpt lat="48.6679" lon="7.28537">
        <ele>534.2</ele>
        <time>2020-08-18T14:17:58Z</time>
      </trkpt>
      <trkpt lat="48.66786" lon="7.28532">
        <ele>533.9</ele>
        <time>2020-08-18T14:18:01Z</time>
      </trkpt>
      <trkpt lat="48.66778" lon="7.28523">
        <ele>531.5</ele>
        <time>2020-08-18T14:18:04Z</time>
      </trkpt>
      <trkpt lat="48.66774" lon="7.28514">
        <ele>531.6</ele>
        <time>2020-08-18T14:18:06Z</time>
      </trkpt>
      <trkpt lat="48.66769" lon="7.28503">
        <ele>531.9</ele>
        <time>2020-08-18T14:18:08Z</time>
      </trkpt>
      <trkpt lat="48.66766" lon="7.28493">
        <ele>532.4</ele>
        <time>2020-08-18T14:18:10Z</time>
      </trkpt>
      <trkpt lat="48.6676" lon="7.28473">
        <ele>532.7</ele>
        <time>2020-08-18T14:18:13Z</time>
      </trkpt>
      <trkpt lat="48.66754" lon="7.28463">
        <ele>532.7</ele>
        <time>2020-08-18T14:18:15Z</time>
      </trkpt>
      <trkpt lat="48.66749" lon="7.28456">
        <ele>533.7</ele>
        <time>2020-08-18T14:18:17Z</time>
      </trkpt>
      <trkpt lat="48.66745" lon="7.28451">
        <ele>534.2</ele>
        <time>2020-08-18T14:18:19Z</time>
      </trkpt>
      <trkpt lat="48.6674" lon="7.2845">
        <ele>535.5</ele>
        <time>2020-08-18T14:18:31Z</time>
      </trkpt>
      <trkpt lat="48.66733" lon="7.28447">
        <ele>535.9</ele>
        <time>2020-08-18T14:18:34Z</time>
      </trkpt>
      <trkpt lat="48.66727" lon="7.28442">
        <ele>535.5</ele>
        <time>2020-08-18T14:18:36Z</time>
      </trkpt>
      <trkpt lat="48.66721" lon="7.28441">
        <ele>536.1</ele>
        <time>2020-08-18T14:18:38Z</time>
      </trkpt>
      <trkpt lat="48.66714" lon="7.28439">
        <ele>536.1</ele>
        <time>2020-08-18T14:18:40Z</time>
      </trkpt>
      <trkpt lat="48.66709" lon="7.28436">
        <ele>536.8</ele>
        <time>2020-08-18T14:18:42Z</time>
      </trkpt>
      <trkpt lat="48.66703" lon="7.28433">
        <ele>535.6</ele>
        <time>2020-08-18T14:18:44Z</time>
      </trkpt>
      <trkpt lat="48.66696" lon="7.28429">
        <ele>536</ele>
        <time>2020-08-18T14:18:46Z</time>
      </trkpt>
      <trkpt lat="48.6669" lon="7.28424">
        <ele>536.4</ele>
        <time>2020-08-18T14:18:48Z</time>
      </trkpt>
      <trkpt lat="48.66683" lon="7.28423">
        <ele>536.7</ele>
        <time>2020-08-18T14:18:50Z</time>
      </trkpt>
      <trkpt lat="48.66676" lon="7.2842">
        <ele>537.1</ele>
        <time>2020-08-18T14:18:52Z</time>
      </trkpt>
      <trkpt lat="48.66665" lon="7.2841">
        <ele>536.7</ele>
        <time>2020-08-18T14:18:55Z</time>
      </trkpt>
      <trkpt lat="48.66658" lon="7.28406">
        <ele>537.4</ele>
        <time>2020-08-18T14:18:57Z</time>
      </trkpt>
      <trkpt lat="48.66649" lon="7.28402">
        <ele>538</ele>
        <time>2020-08-18T14:18:59Z</time>
      </trkpt>
      <trkpt lat="48.66642" lon="7.284">
        <ele>538.9</ele>
        <time>2020-08-18T14:19:01Z</time>
      </trkpt>
      <trkpt lat="48.66635" lon="7.284">
        <ele>539.8</ele>
        <time>2020-08-18T14:19:03Z</time>
      </trkpt>
      <trkpt lat="48.66628" lon="7.28395">
        <ele>540.4</ele>
        <time>2020-08-18T14:19:05Z</time>
      </trkpt>
      <trkpt lat="48.66623" lon="7.28394">
        <ele>538.6</ele>
        <time>2020-08-18T14:19:07Z</time>
      </trkpt>
      <trkpt lat="48.66615" lon="7.28392">
        <ele>538.7</ele>
        <time>2020-08-18T14:19:09Z</time>
      </trkpt>
      <trkpt lat="48.66606" lon="7.28391">
        <ele>538.7</ele>
        <time>2020-08-18T14:19:11Z</time>
      </trkpt>
      <trkpt lat="48.66598" lon="7.28386">
        <ele>539.5</ele>
        <time>2020-08-18T14:19:13Z</time>
      </trkpt>
      <trkpt lat="48.6659" lon="7.28381">
        <ele>537.5</ele>
        <time>2020-08-18T14:19:15Z</time>
      </trkpt>
      <trkpt lat="48.66582" lon="7.28377">
        <ele>539.2</ele>
        <time>2020-08-18T14:19:17Z</time>
      </trkpt>
      <trkpt lat="48.66574" lon="7.28372">
        <ele>539.5</ele>
        <time>2020-08-18T14:19:19Z</time>
      </trkpt>
      <trkpt lat="48.66567" lon="7.28367">
        <ele>539.6</ele>
        <time>2020-08-18T14:19:21Z</time>
      </trkpt>
      <trkpt lat="48.66559" lon="7.28363">
        <ele>539.2</ele>
        <time>2020-08-18T14:19:23Z</time>
      </trkpt>
      <trkpt lat="48.66548" lon="7.28356">
        <ele>538.8</ele>
        <time>2020-08-18T14:19:26Z</time>
      </trkpt>
      <trkpt lat="48.66542" lon="7.28352">
        <ele>539.1</ele>
        <time>2020-08-18T14:19:28Z</time>
      </trkpt>
      <trkpt lat="48.66533" lon="7.28348">
        <ele>539.6</ele>
        <time>2020-08-18T14:19:30Z</time>
      </trkpt>
      <trkpt lat="48.66525" lon="7.28345">
        <ele>539.8</ele>
        <time>2020-08-18T14:19:32Z</time>
      </trkpt>
      <trkpt lat="48.66514" lon="7.2834">
        <ele>539.9</ele>
        <time>2020-08-18T14:19:34Z</time>
      </trkpt>
      <trkpt lat="48.66506" lon="7.28338">
        <ele>540.4</ele>
        <time>2020-08-18T14:19:36Z</time>
      </trkpt>
      <trkpt lat="48.66499" lon="7.28335">
        <ele>541.7</ele>
        <time>2020-08-18T14:19:38Z</time>
      </trkpt>
      <trkpt lat="48.66492" lon="7.28331">
        <ele>542.6</ele>
        <time>2020-08-18T14:19:40Z</time>
      </trkpt>
      <trkpt lat="48.66483" lon="7.28329">
        <ele>543.4</ele>
        <time>2020-08-18T14:19:42Z</time>
      </trkpt>
      <trkpt lat="48.66475" lon="7.28325">
        <ele>543.3</ele>
        <time>2020-08-18T14:19:44Z</time>
      </trkpt>
      <trkpt lat="48.66466" lon="7.28321">
        <ele>544.9</ele>
        <time>2020-08-18T14:19:46Z</time>
      </trkpt>
      <trkpt lat="48.66458" lon="7.28314">
        <ele>545.9</ele>
        <time>2020-08-18T14:19:48Z</time>
      </trkpt>
      <trkpt lat="48.66451" lon="7.28307">
        <ele>547.1</ele>
        <time>2020-08-18T14:19:50Z</time>
      </trkpt>
      <trkpt lat="48.66443" lon="7.28301">
        <ele>547.9</ele>
        <time>2020-08-18T14:19:52Z</time>
      </trkpt>
      <trkpt lat="48.66438" lon="7.28294">
        <ele>547.4</ele>
        <time>2020-08-18T14:19:54Z</time>
      </trkpt>
      <trkpt lat="48.66431" lon="7.28287">
        <ele>544.2</ele>
        <time>2020-08-18T14:19:56Z</time>
      </trkpt>
      <trkpt lat="48.66426" lon="7.2828">
        <ele>545.4</ele>
        <time>2020-08-18T14:19:58Z</time>
      </trkpt>
      <trkpt lat="48.66422" lon="7.28273">
        <ele>545.5</ele>
        <time>2020-08-18T14:20:00Z</time>
      </trkpt>
      <trkpt lat="48.66417" lon="7.28263">
        <ele>547.5</ele>
        <time>2020-08-18T14:20:02Z</time>
      </trkpt>
      <trkpt lat="48.66412" lon="7.28248">
        <ele>549.6</ele>
        <time>2020-08-18T14:20:05Z</time>
      </trkpt>
      <trkpt lat="48.66407" lon="7.28239">
        <ele>552</ele>
        <time>2020-08-18T14:20:07Z</time>
      </trkpt>
      <trkpt lat="48.66401" lon="7.28228">
        <ele>553.8</ele>
        <time>2020-08-18T14:20:09Z</time>
      </trkpt>
      <trkpt lat="48.66398" lon="7.28217">
        <ele>555.1</ele>
        <time>2020-08-18T14:20:11Z</time>
      </trkpt>
      <trkpt lat="48.66396" lon="7.28207">
        <ele>557.2</ele>
        <time>2020-08-18T14:20:13Z</time>
      </trkpt>
      <trkpt lat="48.66393" lon="7.282">
        <ele>558.6</ele>
        <time>2020-08-18T14:20:15Z</time>
      </trkpt>
      <trkpt lat="48.66388" lon="7.28194">
        <ele>558.1</ele>
        <time>2020-08-18T14:20:17Z</time>
      </trkpt>
      <trkpt lat="48.66385" lon="7.28187">
        <ele>558.5</ele>
        <time>2020-08-18T14:20:19Z</time>
      </trkpt>
      <trkpt lat="48.6638" lon="7.28177">
        <ele>559.6</ele>
        <time>2020-08-18T14:20:21Z</time>
      </trkpt>
      <trkpt lat="48.66376" lon="7.28167">
        <ele>559.9</ele>
        <time>2020-08-18T14:20:23Z</time>
      </trkpt>
      <trkpt lat="48.66372" lon="7.28159">
        <ele>561.1</ele>
        <time>2020-08-18T14:20:26Z</time>
      </trkpt>
      <trkpt lat="48.66367" lon="7.28152">
        <ele>561.7</ele>
        <time>2020-08-18T14:20:28Z</time>
      </trkpt>
      <trkpt lat="48.66361" lon="7.28146">
        <ele>562.2</ele>
        <time>2020-08-18T14:20:30Z</time>
      </trkpt>
      <trkpt lat="48.66353" lon="7.28138">
        <ele>563.5</ele>
        <time>2020-08-18T14:20:32Z</time>
      </trkpt>
      <trkpt lat="48.66346" lon="7.28133">
        <ele>565.3</ele>
        <time>2020-08-18T14:20:34Z</time>
      </trkpt>
      <trkpt lat="48.66338" lon="7.28121">
        <ele>566.1</ele>
        <time>2020-08-18T14:20:37Z</time>
      </trkpt>
      <trkpt lat="48.66333" lon="7.28117">
        <ele>567.9</ele>
        <time>2020-08-18T14:20:39Z</time>
      </trkpt>
      <trkpt lat="48.66326" lon="7.28113">
        <ele>568.9</ele>
        <time>2020-08-18T14:20:41Z</time>
      </trkpt>
      <trkpt lat="48.66321" lon="7.28108">
        <ele>569.9</ele>
        <time>2020-08-18T14:20:43Z</time>
      </trkpt>
      <trkpt lat="48.66317" lon="7.28102">
        <ele>570.5</ele>
        <time>2020-08-18T14:20:45Z</time>
      </trkpt>
      <trkpt lat="48.66309" lon="7.28099">
        <ele>570.8</ele>
        <time>2020-08-18T14:20:47Z</time>
      </trkpt>
      <trkpt lat="48.66301" lon="7.28095">
        <ele>555.4</ele>
        <time>2020-08-18T14:20:49Z</time>
      </trkpt>
      <trkpt lat="48.66294" lon="7.28092">
        <ele>554.6</ele>
        <time>2020-08-18T14:20:51Z</time>
      </trkpt>
      <trkpt lat="48.66288" lon="7.28089">
        <ele>551.2</ele>
        <time>2020-08-18T14:20:53Z</time>
      </trkpt>
      <trkpt lat="48.66278" lon="7.28088">
        <ele>551.5</ele>
        <time>2020-08-18T14:20:55Z</time>
      </trkpt>
      <trkpt lat="48.66269" lon="7.2809">
        <ele>553</ele>
        <time>2020-08-18T14:20:57Z</time>
      </trkpt>
      <trkpt lat="48.6626" lon="7.28091">
        <ele>545.4</ele>
        <time>2020-08-18T14:20:59Z</time>
      </trkpt>
      <trkpt lat="48.66251" lon="7.28093">
        <ele>546.1</ele>
        <time>2020-08-18T14:21:01Z</time>
      </trkpt>
      <trkpt lat="48.66239" lon="7.28097">
        <ele>542.6</ele>
        <time>2020-08-18T14:21:04Z</time>
      </trkpt>
      <trkpt lat="48.66233" lon="7.28097">
        <ele>551.7</ele>
        <time>2020-08-18T14:21:06Z</time>
      </trkpt>
      <trkpt lat="48.66226" lon="7.28099">
        <ele>554.1</ele>
        <time>2020-08-18T14:21:08Z</time>
      </trkpt>
      <trkpt lat="48.66219" lon="7.28102">
        <ele>557.7</ele>
        <time>2020-08-18T14:21:10Z</time>
      </trkpt>
      <trkpt lat="48.66212" lon="7.28105">
        <ele>560.1</ele>
        <time>2020-08-18T14:21:12Z</time>
      </trkpt>
      <trkpt lat="48.66203" lon="7.28104">
        <ele>562.9</ele>
        <time>2020-08-18T14:21:15Z</time>
      </trkpt>
      <trkpt lat="48.66193" lon="7.28108">
        <ele>563.5</ele>
        <time>2020-08-18T14:21:17Z</time>
      </trkpt>
      <trkpt lat="48.66184" lon="7.28109">
        <ele>562.5</ele>
        <time>2020-08-18T14:21:20Z</time>
      </trkpt>
      <trkpt lat="48.66177" lon="7.28111">
        <ele>561.8</ele>
        <time>2020-08-18T14:21:22Z</time>
      </trkpt>
      <trkpt lat="48.66166" lon="7.2811">
        <ele>561.3</ele>
        <time>2020-08-18T14:21:25Z</time>
      </trkpt>
      <trkpt lat="48.66156" lon="7.28114">
        <ele>538.8</ele>
        <time>2020-08-18T14:21:28Z</time>
      </trkpt>
      <trkpt lat="48.66146" lon="7.28115">
        <ele>537.5</ele>
        <time>2020-08-18T14:21:31Z</time>
      </trkpt>
      <trkpt lat="48.66138" lon="7.28119">
        <ele>537.5</ele>
        <time>2020-08-18T14:21:33Z</time>
      </trkpt>
      <trkpt lat="48.66128" lon="7.28123">
        <ele>538.1</ele>
        <time>2020-08-18T14:21:36Z</time>
      </trkpt>
      <trkpt lat="48.66121" lon="7.28125">
        <ele>540.7</ele>
        <time>2020-08-18T14:21:38Z</time>
      </trkpt>
      <trkpt lat="48.66111" lon="7.28125">
        <ele>542.3</ele>
        <time>2020-08-18T14:21:41Z</time>
      </trkpt>
      <trkpt lat="48.66107" lon="7.28127">
        <ele>543.3</ele>
        <time>2020-08-18T14:21:43Z</time>
      </trkpt>
      <trkpt lat="48.661" lon="7.28127">
        <ele>544.7</ele>
        <time>2020-08-18T14:21:45Z</time>
      </trkpt>
      <trkpt lat="48.66091" lon="7.28128">
        <ele>546.9</ele>
        <time>2020-08-18T14:21:48Z</time>
      </trkpt>
      <trkpt lat="48.66086" lon="7.28127">
        <ele>548.6</ele>
        <time>2020-08-18T14:21:50Z</time>
      </trkpt>
      <trkpt lat="48.66079" lon="7.28125">
        <ele>549.6</ele>
        <time>2020-08-18T14:21:52Z</time>
      </trkpt>
      <trkpt lat="48.66072" lon="7.28122">
        <ele>550.4</ele>
        <time>2020-08-18T14:21:54Z</time>
      </trkpt>
      <trkpt lat="48.66065" lon="7.28119">
        <ele>526.1</ele>
        <time>2020-08-18T14:21:56Z</time>
      </trkpt>
      <trkpt lat="48.66059" lon="7.28117">
        <ele>522.3</ele>
        <time>2020-08-18T14:21:58Z</time>
      </trkpt>
      <trkpt lat="48.66051" lon="7.28116">
        <ele>519</ele>
        <time>2020-08-18T14:22:00Z</time>
      </trkpt>
      <trkpt lat="48.66044" lon="7.28115">
        <ele>520.1</ele>
        <time>2020-08-18T14:22:02Z</time>
      </trkpt>
      <trkpt lat="48.66037" lon="7.28113">
        <ele>522.3</ele>
        <time>2020-08-18T14:22:04Z</time>
      </trkpt>
      <trkpt lat="48.66029" lon="7.2811">
        <ele>526.4</ele>
        <time>2020-08-18T14:22:06Z</time>
      </trkpt>
      <trkpt lat="48.6602" lon="7.28107">
        <ele>531.5</ele>
        <time>2020-08-18T14:22:08Z</time>
      </trkpt>
      <trkpt lat="48.6601" lon="7.28103">
        <ele>538.1</ele>
        <time>2020-08-18T14:22:11Z</time>
      </trkpt>
      <trkpt lat="48.66003" lon="7.28101">
        <ele>542.4</ele>
        <time>2020-08-18T14:22:13Z</time>
      </trkpt>
      <trkpt lat="48.65997" lon="7.28098">
        <ele>547</ele>
        <time>2020-08-18T14:22:15Z</time>
      </trkpt>
      <trkpt lat="48.65992" lon="7.28093">
        <ele>550.1</ele>
        <time>2020-08-18T14:22:17Z</time>
      </trkpt>
      <trkpt lat="48.65986" lon="7.28087">
        <ele>553.8</ele>
        <time>2020-08-18T14:22:19Z</time>
      </trkpt>
      <trkpt lat="48.65979" lon="7.28081">
        <ele>557.5</ele>
        <time>2020-08-18T14:22:21Z</time>
      </trkpt>
      <trkpt lat="48.65972" lon="7.28075">
        <ele>561.3</ele>
        <time>2020-08-18T14:22:23Z</time>
      </trkpt>
      <trkpt lat="48.65965" lon="7.2807">
        <ele>563.9</ele>
        <time>2020-08-18T14:22:25Z</time>
      </trkpt>
      <trkpt lat="48.65959" lon="7.28065">
        <ele>565.9</ele>
        <time>2020-08-18T14:22:27Z</time>
      </trkpt>
      <trkpt lat="48.65953" lon="7.2806">
        <ele>566.9</ele>
        <time>2020-08-18T14:22:29Z</time>
      </trkpt>
      <trkpt lat="48.65947" lon="7.28056">
        <ele>567.9</ele>
        <time>2020-08-18T14:22:31Z</time>
      </trkpt>
      <trkpt lat="48.65939" lon="7.28053">
        <ele>569</ele>
        <time>2020-08-18T14:22:33Z</time>
      </trkpt>
      <trkpt lat="48.65932" lon="7.28052">
        <ele>569.1</ele>
        <time>2020-08-18T14:22:35Z</time>
      </trkpt>
      <trkpt lat="48.65926" lon="7.28054">
        <ele>569.2</ele>
        <time>2020-08-18T14:22:37Z</time>
      </trkpt>
      <trkpt lat="48.65922" lon="7.28058">
        <ele>569.9</ele>
        <time>2020-08-18T14:22:43Z</time>
      </trkpt>
      <trkpt lat="48.65917" lon="7.28055">
        <ele>573.8</ele>
        <time>2020-08-18T14:24:55Z</time>
      </trkpt>
      <trkpt lat="48.65911" lon="7.28053">
        <ele>573.6</ele>
        <time>2020-08-18T14:24:58Z</time>
      </trkpt>
      <trkpt lat="48.65904" lon="7.28052">
        <ele>571.8</ele>
        <time>2020-08-18T14:25:01Z</time>
      </trkpt>
      <trkpt lat="48.65899" lon="7.28052">
        <ele>571.1</ele>
        <time>2020-08-18T14:25:03Z</time>
      </trkpt>
      <trkpt lat="48.65893" lon="7.28052">
        <ele>571.1</ele>
        <time>2020-08-18T14:25:05Z</time>
      </trkpt>
      <trkpt lat="48.65888" lon="7.28052">
        <ele>571.3</ele>
        <time>2020-08-18T14:25:07Z</time>
      </trkpt>
      <trkpt lat="48.65883" lon="7.28053">
        <ele>571.3</ele>
        <time>2020-08-18T14:25:09Z</time>
      </trkpt>
      <trkpt lat="48.65878" lon="7.28052">
        <ele>571</ele>
        <time>2020-08-18T14:25:11Z</time>
      </trkpt>
      <trkpt lat="48.65873" lon="7.28051">
        <ele>571.4</ele>
        <time>2020-08-18T14:25:13Z</time>
      </trkpt>
      <trkpt lat="48.65867" lon="7.28049">
        <ele>571.8</ele>
        <time>2020-08-18T14:25:15Z</time>
      </trkpt>
      <trkpt lat="48.65862" lon="7.28049">
        <ele>571.9</ele>
        <time>2020-08-18T14:25:17Z</time>
      </trkpt>
      <trkpt lat="48.65857" lon="7.2805">
        <ele>571.5</ele>
        <time>2020-08-18T14:25:19Z</time>
      </trkpt>
      <trkpt lat="48.65852" lon="7.28052">
        <ele>570.9</ele>
        <time>2020-08-18T14:25:21Z</time>
      </trkpt>
      <trkpt lat="48.65846" lon="7.28055">
        <ele>569.8</ele>
        <time>2020-08-18T14:25:24Z</time>
      </trkpt>
      <trkpt lat="48.65842" lon="7.28055">
        <ele>569.3</ele>
        <time>2020-08-18T14:25:26Z</time>
      </trkpt>
      <trkpt lat="48.65835" lon="7.28055">
        <ele>568.6</ele>
        <time>2020-08-18T14:25:28Z</time>
      </trkpt>
      <trkpt lat="48.65827" lon="7.28057">
        <ele>568.8</ele>
        <time>2020-08-18T14:25:30Z</time>
      </trkpt>
      <trkpt lat="48.6582" lon="7.28058">
        <ele>568.3</ele>
        <time>2020-08-18T14:25:32Z</time>
      </trkpt>
      <trkpt lat="48.65812" lon="7.28059">
        <ele>568.4</ele>
        <time>2020-08-18T14:25:34Z</time>
      </trkpt>
      <trkpt lat="48.65805" lon="7.28061">
        <ele>568.4</ele>
        <time>2020-08-18T14:25:36Z</time>
      </trkpt>
      <trkpt lat="48.65797" lon="7.28064">
        <ele>568.8</ele>
        <time>2020-08-18T14:25:38Z</time>
      </trkpt>
      <trkpt lat="48.65788" lon="7.28067">
        <ele>569.8</ele>
        <time>2020-08-18T14:25:40Z</time>
      </trkpt>
      <trkpt lat="48.6578" lon="7.28071">
        <ele>570.8</ele>
        <time>2020-08-18T14:25:42Z</time>
      </trkpt>
      <trkpt lat="48.65773" lon="7.28074">
        <ele>572.2</ele>
        <time>2020-08-18T14:25:44Z</time>
      </trkpt>
      <trkpt lat="48.65767" lon="7.28078">
        <ele>572.4</ele>
        <time>2020-08-18T14:25:46Z</time>
      </trkpt>
      <trkpt lat="48.6576" lon="7.28083">
        <ele>573</ele>
        <time>2020-08-18T14:25:48Z</time>
      </trkpt>
      <trkpt lat="48.65753" lon="7.28089">
        <ele>573.3</ele>
        <time>2020-08-18T14:25:50Z</time>
      </trkpt>
      <trkpt lat="48.65746" lon="7.28095">
        <ele>573.8</ele>
        <time>2020-08-18T14:25:52Z</time>
      </trkpt>
      <trkpt lat="48.6574" lon="7.28102">
        <ele>574.6</ele>
        <time>2020-08-18T14:25:54Z</time>
      </trkpt>
      <trkpt lat="48.6573" lon="7.28115">
        <ele>580.4</ele>
        <time>2020-08-18T14:25:56Z</time>
      </trkpt>
      <trkpt lat="48.65723" lon="7.28122">
        <ele>580.6</ele>
        <time>2020-08-18T14:25:58Z</time>
      </trkpt>
      <trkpt lat="48.65718" lon="7.28129">
        <ele>581</ele>
        <time>2020-08-18T14:26:00Z</time>
      </trkpt>
      <trkpt lat="48.65713" lon="7.28136">
        <ele>581.3</ele>
        <time>2020-08-18T14:26:02Z</time>
      </trkpt>
      <trkpt lat="48.65708" lon="7.28142">
        <ele>581.6</ele>
        <time>2020-08-18T14:26:04Z</time>
      </trkpt>
      <trkpt lat="48.65703" lon="7.28147">
        <ele>582.4</ele>
        <time>2020-08-18T14:26:06Z</time>
      </trkpt>
      <trkpt lat="48.65697" lon="7.28152">
        <ele>582.9</ele>
        <time>2020-08-18T14:26:08Z</time>
      </trkpt>
      <trkpt lat="48.65692" lon="7.28156">
        <ele>583.6</ele>
        <time>2020-08-18T14:26:10Z</time>
      </trkpt>
      <trkpt lat="48.65687" lon="7.2816">
        <ele>583.2</ele>
        <time>2020-08-18T14:26:12Z</time>
      </trkpt>
      <trkpt lat="48.65682" lon="7.28165">
        <ele>583.3</ele>
        <time>2020-08-18T14:26:14Z</time>
      </trkpt>
      <trkpt lat="48.65676" lon="7.28171">
        <ele>582.7</ele>
        <time>2020-08-18T14:26:16Z</time>
      </trkpt>
      <trkpt lat="48.6567" lon="7.28176">
        <ele>581.9</ele>
        <time>2020-08-18T14:26:18Z</time>
      </trkpt>
      <trkpt lat="48.65664" lon="7.2818">
        <ele>582.1</ele>
        <time>2020-08-18T14:26:20Z</time>
      </trkpt>
      <trkpt lat="48.65659" lon="7.28183">
        <ele>582.5</ele>
        <time>2020-08-18T14:26:22Z</time>
      </trkpt>
      <trkpt lat="48.65654" lon="7.28185">
        <ele>582.2</ele>
        <time>2020-08-18T14:26:24Z</time>
      </trkpt>
      <trkpt lat="48.65649" lon="7.28188">
        <ele>582.1</ele>
        <time>2020-08-18T14:26:26Z</time>
      </trkpt>
      <trkpt lat="48.65643" lon="7.2819">
        <ele>582.1</ele>
        <time>2020-08-18T14:26:28Z</time>
      </trkpt>
      <trkpt lat="48.65636" lon="7.28192">
        <ele>582.3</ele>
        <time>2020-08-18T14:26:30Z</time>
      </trkpt>
      <trkpt lat="48.6563" lon="7.28196">
        <ele>582.3</ele>
        <time>2020-08-18T14:26:32Z</time>
      </trkpt>
      <trkpt lat="48.65624" lon="7.28201">
        <ele>582.9</ele>
        <time>2020-08-18T14:26:34Z</time>
      </trkpt>
      <trkpt lat="48.65617" lon="7.28207">
        <ele>582.5</ele>
        <time>2020-08-18T14:26:36Z</time>
      </trkpt>
      <trkpt lat="48.65612" lon="7.28211">
        <ele>582.3</ele>
        <time>2020-08-18T14:26:38Z</time>
      </trkpt>
      <trkpt lat="48.65607" lon="7.28215">
        <ele>582.5</ele>
        <time>2020-08-18T14:26:40Z</time>
      </trkpt>
      <trkpt lat="48.65601" lon="7.28219">
        <ele>582.5</ele>
        <time>2020-08-18T14:26:42Z</time>
      </trkpt>
      <trkpt lat="48.65594" lon="7.28222">
        <ele>582.4</ele>
        <time>2020-08-18T14:26:44Z</time>
      </trkpt>
      <trkpt lat="48.65587" lon="7.28222">
        <ele>582.8</ele>
        <time>2020-08-18T14:26:46Z</time>
      </trkpt>
      <trkpt lat="48.6558" lon="7.28222">
        <ele>582.8</ele>
        <time>2020-08-18T14:26:48Z</time>
      </trkpt>
      <trkpt lat="48.65573" lon="7.28223">
        <ele>582.5</ele>
        <time>2020-08-18T14:26:50Z</time>
      </trkpt>
      <trkpt lat="48.65565" lon="7.28226">
        <ele>582.1</ele>
        <time>2020-08-18T14:26:52Z</time>
      </trkpt>
      <trkpt lat="48.65558" lon="7.28229">
        <ele>582.2</ele>
        <time>2020-08-18T14:26:54Z</time>
      </trkpt>
      <trkpt lat="48.65551" lon="7.28232">
        <ele>582.4</ele>
        <time>2020-08-18T14:26:56Z</time>
      </trkpt>
      <trkpt lat="48.65544" lon="7.28234">
        <ele>583.1</ele>
        <time>2020-08-18T14:26:58Z</time>
      </trkpt>
      <trkpt lat="48.65537" lon="7.28235">
        <ele>583.6</ele>
        <time>2020-08-18T14:27:00Z</time>
      </trkpt>
      <trkpt lat="48.6553" lon="7.28235">
        <ele>584.2</ele>
        <time>2020-08-18T14:27:02Z</time>
      </trkpt>
      <trkpt lat="48.65522" lon="7.28235">
        <ele>584.6</ele>
        <time>2020-08-18T14:27:04Z</time>
      </trkpt>
      <trkpt lat="48.65513" lon="7.28234">
        <ele>585.1</ele>
        <time>2020-08-18T14:27:06Z</time>
      </trkpt>
      <trkpt lat="48.65504" lon="7.28235">
        <ele>585.9</ele>
        <time>2020-08-18T14:27:08Z</time>
      </trkpt>
      <trkpt lat="48.65494" lon="7.28236">
        <ele>587</ele>
        <time>2020-08-18T14:27:10Z</time>
      </trkpt>
      <trkpt lat="48.65486" lon="7.28235">
        <ele>587.5</ele>
        <time>2020-08-18T14:27:12Z</time>
      </trkpt>
      <trkpt lat="48.65477" lon="7.28233">
        <ele>587.4</ele>
        <time>2020-08-18T14:27:14Z</time>
      </trkpt>
      <trkpt lat="48.65469" lon="7.28232">
        <ele>587.2</ele>
        <time>2020-08-18T14:27:16Z</time>
      </trkpt>
      <trkpt lat="48.65462" lon="7.2823">
        <ele>588.4</ele>
        <time>2020-08-18T14:27:18Z</time>
      </trkpt>
      <trkpt lat="48.65454" lon="7.28229">
        <ele>588.9</ele>
        <time>2020-08-18T14:27:20Z</time>
      </trkpt>
      <trkpt lat="48.65447" lon="7.2823">
        <ele>589.3</ele>
        <time>2020-08-18T14:27:22Z</time>
      </trkpt>
      <trkpt lat="48.6544" lon="7.28231">
        <ele>590.2</ele>
        <time>2020-08-18T14:27:24Z</time>
      </trkpt>
      <trkpt lat="48.65429" lon="7.28233">
        <ele>591.3</ele>
        <time>2020-08-18T14:27:26Z</time>
      </trkpt>
      <trkpt lat="48.6542" lon="7.28233">
        <ele>590.5</ele>
        <time>2020-08-18T14:27:28Z</time>
      </trkpt>
      <trkpt lat="48.65413" lon="7.28232">
        <ele>589.7</ele>
        <time>2020-08-18T14:27:30Z</time>
      </trkpt>
      <trkpt lat="48.65406" lon="7.2823">
        <ele>589.4</ele>
        <time>2020-08-18T14:27:32Z</time>
      </trkpt>
      <trkpt lat="48.65399" lon="7.2823">
        <ele>588.8</ele>
        <time>2020-08-18T14:27:34Z</time>
      </trkpt>
      <trkpt lat="48.65393" lon="7.2823">
        <ele>588.4</ele>
        <time>2020-08-18T14:27:36Z</time>
      </trkpt>
      <trkpt lat="48.65387" lon="7.2823">
        <ele>588.2</ele>
        <time>2020-08-18T14:27:38Z</time>
      </trkpt>
      <trkpt lat="48.65382" lon="7.2823">
        <ele>587.6</ele>
        <time>2020-08-18T14:27:40Z</time>
      </trkpt>
      <trkpt lat="48.65376" lon="7.28229">
        <ele>587.5</ele>
        <time>2020-08-18T14:27:42Z</time>
      </trkpt>
      <trkpt lat="48.6537" lon="7.28227">
        <ele>587.5</ele>
        <time>2020-08-18T14:27:44Z</time>
      </trkpt>
      <trkpt lat="48.65362" lon="7.28226">
        <ele>588</ele>
        <time>2020-08-18T14:27:46Z</time>
      </trkpt>
      <trkpt lat="48.65354" lon="7.28227">
        <ele>588.7</ele>
        <time>2020-08-18T14:27:48Z</time>
      </trkpt>
      <trkpt lat="48.65345" lon="7.28229">
        <ele>590</ele>
        <time>2020-08-18T14:27:50Z</time>
      </trkpt>
      <trkpt lat="48.65335" lon="7.28232">
        <ele>590.9</ele>
        <time>2020-08-18T14:27:52Z</time>
      </trkpt>
      <trkpt lat="48.65325" lon="7.28237">
        <ele>591.4</ele>
        <time>2020-08-18T14:27:54Z</time>
      </trkpt>
      <trkpt lat="48.65317" lon="7.28241">
        <ele>591.7</ele>
        <time>2020-08-18T14:27:56Z</time>
      </trkpt>
      <trkpt lat="48.65308" lon="7.28246">
        <ele>592.3</ele>
        <time>2020-08-18T14:27:58Z</time>
      </trkpt>
      <trkpt lat="48.65301" lon="7.28252">
        <ele>592.4</ele>
        <time>2020-08-18T14:28:00Z</time>
      </trkpt>
      <trkpt lat="48.65294" lon="7.28257">
        <ele>592.4</ele>
        <time>2020-08-18T14:28:02Z</time>
      </trkpt>
      <trkpt lat="48.65287" lon="7.28261">
        <ele>592.7</ele>
        <time>2020-08-18T14:28:04Z</time>
      </trkpt>
      <trkpt lat="48.65281" lon="7.28267">
        <ele>593.2</ele>
        <time>2020-08-18T14:28:06Z</time>
      </trkpt>
      <trkpt lat="48.65274" lon="7.28274">
        <ele>593</ele>
        <time>2020-08-18T14:28:08Z</time>
      </trkpt>
      <trkpt lat="48.65268" lon="7.28282">
        <ele>592.8</ele>
        <time>2020-08-18T14:28:10Z</time>
      </trkpt>
      <trkpt lat="48.65262" lon="7.28292">
        <ele>593.4</ele>
        <time>2020-08-18T14:28:12Z</time>
      </trkpt>
      <trkpt lat="48.65256" lon="7.283">
        <ele>593.7</ele>
        <time>2020-08-18T14:28:14Z</time>
      </trkpt>
      <trkpt lat="48.6525" lon="7.28307">
        <ele>594.5</ele>
        <time>2020-08-18T14:28:16Z</time>
      </trkpt>
      <trkpt lat="48.65243" lon="7.28314">
        <ele>595</ele>
        <time>2020-08-18T14:28:18Z</time>
      </trkpt>
      <trkpt lat="48.65238" lon="7.28322">
        <ele>595.5</ele>
        <time>2020-08-18T14:28:20Z</time>
      </trkpt>
      <trkpt lat="48.65233" lon="7.28331">
        <ele>596.1</ele>
        <time>2020-08-18T14:28:22Z</time>
      </trkpt>
      <trkpt lat="48.65227" lon="7.28339">
        <ele>596.9</ele>
        <time>2020-08-18T14:28:24Z</time>
      </trkpt>
      <trkpt lat="48.65221" lon="7.28346">
        <ele>597.1</ele>
        <time>2020-08-18T14:28:26Z</time>
      </trkpt>
      <trkpt lat="48.65216" lon="7.28351">
        <ele>597.6</ele>
        <time>2020-08-18T14:28:28Z</time>
      </trkpt>
      <trkpt lat="48.6521" lon="7.28356">
        <ele>596.6</ele>
        <time>2020-08-18T14:28:30Z</time>
      </trkpt>
      <trkpt lat="48.65204" lon="7.28363">
        <ele>596.8</ele>
        <time>2020-08-18T14:28:32Z</time>
      </trkpt>
      <trkpt lat="48.65199" lon="7.28371">
        <ele>596.6</ele>
        <time>2020-08-18T14:28:34Z</time>
      </trkpt>
      <trkpt lat="48.65193" lon="7.28379">
        <ele>596.6</ele>
        <time>2020-08-18T14:28:36Z</time>
      </trkpt>
      <trkpt lat="48.65187" lon="7.28387">
        <ele>597.2</ele>
        <time>2020-08-18T14:28:38Z</time>
      </trkpt>
      <trkpt lat="48.65181" lon="7.28394">
        <ele>596.9</ele>
        <time>2020-08-18T14:28:40Z</time>
      </trkpt>
      <trkpt lat="48.65174" lon="7.28402">
        <ele>597</ele>
        <time>2020-08-18T14:28:42Z</time>
      </trkpt>
      <trkpt lat="48.65168" lon="7.28408">
        <ele>596.9</ele>
        <time>2020-08-18T14:28:44Z</time>
      </trkpt>
      <trkpt lat="48.65162" lon="7.28414">
        <ele>597.1</ele>
        <time>2020-08-18T14:28:46Z</time>
      </trkpt>
      <trkpt lat="48.65156" lon="7.2842">
        <ele>596.9</ele>
        <time>2020-08-18T14:28:48Z</time>
      </trkpt>
      <trkpt lat="48.6515" lon="7.28426">
        <ele>596.6</ele>
        <time>2020-08-18T14:28:50Z</time>
      </trkpt>
      <trkpt lat="48.65144" lon="7.28429">
        <ele>596.3</ele>
        <time>2020-08-18T14:28:52Z</time>
      </trkpt>
      <trkpt lat="48.65138" lon="7.28433">
        <ele>596.2</ele>
        <time>2020-08-18T14:28:54Z</time>
      </trkpt>
      <trkpt lat="48.65131" lon="7.2844">
        <ele>597</ele>
        <time>2020-08-18T14:28:56Z</time>
      </trkpt>
      <trkpt lat="48.65125" lon="7.28446">
        <ele>597.1</ele>
        <time>2020-08-18T14:28:58Z</time>
      </trkpt>
      <trkpt lat="48.65119" lon="7.28453">
        <ele>597</ele>
        <time>2020-08-18T14:29:00Z</time>
      </trkpt>
      <trkpt lat="48.65113" lon="7.2846">
        <ele>596.9</ele>
        <time>2020-08-18T14:29:02Z</time>
      </trkpt>
      <trkpt lat="48.65107" lon="7.28466">
        <ele>597.1</ele>
        <time>2020-08-18T14:29:04Z</time>
      </trkpt>
      <trkpt lat="48.65102" lon="7.28473">
        <ele>597.4</ele>
        <time>2020-08-18T14:29:06Z</time>
      </trkpt>
      <trkpt lat="48.65097" lon="7.28479">
        <ele>597.1</ele>
        <time>2020-08-18T14:29:08Z</time>
      </trkpt>
      <trkpt lat="48.65092" lon="7.28485">
        <ele>597.2</ele>
        <time>2020-08-18T14:29:10Z</time>
      </trkpt>
      <trkpt lat="48.65085" lon="7.2849">
        <ele>597.6</ele>
        <time>2020-08-18T14:29:12Z</time>
      </trkpt>
      <trkpt lat="48.65079" lon="7.28497">
        <ele>597.6</ele>
        <time>2020-08-18T14:29:14Z</time>
      </trkpt>
      <trkpt lat="48.65073" lon="7.28504">
        <ele>598.6</ele>
        <time>2020-08-18T14:29:16Z</time>
      </trkpt>
      <trkpt lat="48.65067" lon="7.2851">
        <ele>599.9</ele>
        <time>2020-08-18T14:29:18Z</time>
      </trkpt>
      <trkpt lat="48.65061" lon="7.28515">
        <ele>601.2</ele>
        <time>2020-08-18T14:29:20Z</time>
      </trkpt>
      <trkpt lat="48.65055" lon="7.2852">
        <ele>602.6</ele>
        <time>2020-08-18T14:29:22Z</time>
      </trkpt>
      <trkpt lat="48.65048" lon="7.28526">
        <ele>604.1</ele>
        <time>2020-08-18T14:29:24Z</time>
      </trkpt>
      <trkpt lat="48.65042" lon="7.28533">
        <ele>604.9</ele>
        <time>2020-08-18T14:29:26Z</time>
      </trkpt>
      <trkpt lat="48.65035" lon="7.28541">
        <ele>606.5</ele>
        <time>2020-08-18T14:29:28Z</time>
      </trkpt>
      <trkpt lat="48.65028" lon="7.28547">
        <ele>605.9</ele>
        <time>2020-08-18T14:29:30Z</time>
      </trkpt>
      <trkpt lat="48.65022" lon="7.28552">
        <ele>605.7</ele>
        <time>2020-08-18T14:29:32Z</time>
      </trkpt>
      <trkpt lat="48.65015" lon="7.28558">
        <ele>605.7</ele>
        <time>2020-08-18T14:29:34Z</time>
      </trkpt>
      <trkpt lat="48.65009" lon="7.28566">
        <ele>606</ele>
        <time>2020-08-18T14:29:36Z</time>
      </trkpt>
      <trkpt lat="48.65002" lon="7.28572">
        <ele>604.1</ele>
        <time>2020-08-18T14:29:38Z</time>
      </trkpt>
      <trkpt lat="48.64996" lon="7.28577">
        <ele>603.1</ele>
        <time>2020-08-18T14:29:40Z</time>
      </trkpt>
      <trkpt lat="48.6499" lon="7.28581">
        <ele>602.2</ele>
        <time>2020-08-18T14:29:42Z</time>
      </trkpt>
      <trkpt lat="48.64984" lon="7.28584">
        <ele>600.2</ele>
        <time>2020-08-18T14:29:44Z</time>
      </trkpt>
      <trkpt lat="48.64976" lon="7.28586">
        <ele>600.7</ele>
        <time>2020-08-18T14:29:46Z</time>
      </trkpt>
      <trkpt lat="48.64968" lon="7.28588">
        <ele>600.8</ele>
        <time>2020-08-18T14:29:48Z</time>
      </trkpt>
      <trkpt lat="48.64961" lon="7.2859">
        <ele>601.2</ele>
        <time>2020-08-18T14:29:50Z</time>
      </trkpt>
      <trkpt lat="48.64954" lon="7.28592">
        <ele>601.5</ele>
        <time>2020-08-18T14:29:52Z</time>
      </trkpt>
      <trkpt lat="48.64946" lon="7.28592">
        <ele>601.3</ele>
        <time>2020-08-18T14:29:54Z</time>
      </trkpt>
      <trkpt lat="48.64939" lon="7.28592">
        <ele>599.4</ele>
        <time>2020-08-18T14:29:56Z</time>
      </trkpt>
      <trkpt lat="48.64931" lon="7.28592">
        <ele>600.1</ele>
        <time>2020-08-18T14:29:58Z</time>
      </trkpt>
      <trkpt lat="48.64923" lon="7.28592">
        <ele>601.1</ele>
        <time>2020-08-18T14:30:00Z</time>
      </trkpt>
      <trkpt lat="48.64915" lon="7.28592">
        <ele>602.8</ele>
        <time>2020-08-18T14:30:02Z</time>
      </trkpt>
      <trkpt lat="48.64907" lon="7.28592">
        <ele>604.8</ele>
        <time>2020-08-18T14:30:04Z</time>
      </trkpt>
      <trkpt lat="48.649" lon="7.28591">
        <ele>607</ele>
        <time>2020-08-18T14:30:06Z</time>
      </trkpt>
      <trkpt lat="48.64893" lon="7.28589">
        <ele>608.8</ele>
        <time>2020-08-18T14:30:08Z</time>
      </trkpt>
      <trkpt lat="48.64886" lon="7.28585">
        <ele>610.5</ele>
        <time>2020-08-18T14:30:10Z</time>
      </trkpt>
      <trkpt lat="48.64879" lon="7.28582">
        <ele>611.9</ele>
        <time>2020-08-18T14:30:12Z</time>
      </trkpt>
      <trkpt lat="48.64872" lon="7.28578">
        <ele>613.1</ele>
        <time>2020-08-18T14:30:14Z</time>
      </trkpt>
      <trkpt lat="48.64866" lon="7.28574">
        <ele>614</ele>
        <time>2020-08-18T14:30:16Z</time>
      </trkpt>
      <trkpt lat="48.6486" lon="7.2857">
        <ele>615.5</ele>
        <time>2020-08-18T14:30:18Z</time>
      </trkpt>
      <trkpt lat="48.64854" lon="7.28565">
        <ele>616.8</ele>
        <time>2020-08-18T14:30:20Z</time>
      </trkpt>
      <trkpt lat="48.64848" lon="7.28559">
        <ele>618</ele>
        <time>2020-08-18T14:30:22Z</time>
      </trkpt>
      <trkpt lat="48.64843" lon="7.28551">
        <ele>618.6</ele>
        <time>2020-08-18T14:30:24Z</time>
      </trkpt>
      <trkpt lat="48.64838" lon="7.28543">
        <ele>619.7</ele>
        <time>2020-08-18T14:30:26Z</time>
      </trkpt>
      <trkpt lat="48.64834" lon="7.28535">
        <ele>620.1</ele>
        <time>2020-08-18T14:30:28Z</time>
      </trkpt>
      <trkpt lat="48.6483" lon="7.28525">
        <ele>620.4</ele>
        <time>2020-08-18T14:30:30Z</time>
      </trkpt>
      <trkpt lat="48.64827" lon="7.28515">
        <ele>621</ele>
        <time>2020-08-18T14:30:32Z</time>
      </trkpt>
      <trkpt lat="48.64824" lon="7.28506">
        <ele>621.1</ele>
        <time>2020-08-18T14:30:34Z</time>
      </trkpt>
      <trkpt lat="48.64822" lon="7.28496">
        <ele>621.7</ele>
        <time>2020-08-18T14:30:36Z</time>
      </trkpt>
      <trkpt lat="48.64821" lon="7.28486">
        <ele>622.1</ele>
        <time>2020-08-18T14:30:38Z</time>
      </trkpt>
      <trkpt lat="48.64819" lon="7.28476">
        <ele>622.4</ele>
        <time>2020-08-18T14:30:40Z</time>
      </trkpt>
      <trkpt lat="48.64817" lon="7.28466">
        <ele>623</ele>
        <time>2020-08-18T14:30:42Z</time>
      </trkpt>
      <trkpt lat="48.64816" lon="7.28454">
        <ele>624</ele>
        <time>2020-08-18T14:30:44Z</time>
      </trkpt>
      <trkpt lat="48.64815" lon="7.28445">
        <ele>624.8</ele>
        <time>2020-08-18T14:30:46Z</time>
      </trkpt>
      <trkpt lat="48.64815" lon="7.28435">
        <ele>626</ele>
        <time>2020-08-18T14:30:48Z</time>
      </trkpt>
      <trkpt lat="48.64814" lon="7.28425">
        <ele>627.2</ele>
        <time>2020-08-18T14:30:50Z</time>
      </trkpt>
      <trkpt lat="48.64812" lon="7.28415">
        <ele>627.6</ele>
        <time>2020-08-18T14:30:52Z</time>
      </trkpt>
      <trkpt lat="48.64811" lon="7.28405">
        <ele>628.8</ele>
        <time>2020-08-18T14:30:54Z</time>
      </trkpt>
      <trkpt lat="48.64809" lon="7.28395">
        <ele>629.3</ele>
        <time>2020-08-18T14:30:56Z</time>
      </trkpt>
      <trkpt lat="48.64807" lon="7.28385">
        <ele>629.9</ele>
        <time>2020-08-18T14:30:58Z</time>
      </trkpt>
      <trkpt lat="48.64805" lon="7.28375">
        <ele>630.5</ele>
        <time>2020-08-18T14:31:00Z</time>
      </trkpt>
      <trkpt lat="48.64803" lon="7.28366">
        <ele>631.1</ele>
        <time>2020-08-18T14:31:02Z</time>
      </trkpt>
      <trkpt lat="48.64799" lon="7.28356">
        <ele>631.2</ele>
        <time>2020-08-18T14:31:04Z</time>
      </trkpt>
      <trkpt lat="48.64797" lon="7.28347">
        <ele>631.5</ele>
        <time>2020-08-18T14:31:06Z</time>
      </trkpt>
      <trkpt lat="48.64794" lon="7.28337">
        <ele>632.3</ele>
        <time>2020-08-18T14:31:08Z</time>
      </trkpt>
      <trkpt lat="48.64791" lon="7.28327">
        <ele>633.2</ele>
        <time>2020-08-18T14:31:10Z</time>
      </trkpt>
      <trkpt lat="48.64787" lon="7.28317">
        <ele>634.1</ele>
        <time>2020-08-18T14:31:12Z</time>
      </trkpt>
      <trkpt lat="48.64784" lon="7.28308">
        <ele>634.6</ele>
        <time>2020-08-18T14:31:14Z</time>
      </trkpt>
      <trkpt lat="48.6478" lon="7.28298">
        <ele>635.5</ele>
        <time>2020-08-18T14:31:16Z</time>
      </trkpt>
      <trkpt lat="48.64777" lon="7.28288">
        <ele>636.2</ele>
        <time>2020-08-18T14:31:18Z</time>
      </trkpt>
      <trkpt lat="48.64774" lon="7.28279">
        <ele>636.9</ele>
        <time>2020-08-18T14:31:20Z</time>
      </trkpt>
      <trkpt lat="48.6477" lon="7.2827">
        <ele>636.1</ele>
        <time>2020-08-18T14:31:22Z</time>
      </trkpt>
      <trkpt lat="48.64767" lon="7.28261">
        <ele>635.9</ele>
        <time>2020-08-18T14:31:24Z</time>
      </trkpt>
      <trkpt lat="48.64763" lon="7.28253">
        <ele>635.7</ele>
        <time>2020-08-18T14:31:26Z</time>
      </trkpt>
      <trkpt lat="48.6476" lon="7.28247">
        <ele>635.5</ele>
        <time>2020-08-18T14:31:28Z</time>
      </trkpt>
      <trkpt lat="48.64757" lon="7.28241">
        <ele>635.4</ele>
        <time>2020-08-18T14:31:30Z</time>
      </trkpt>
      <trkpt lat="48.64753" lon="7.28234">
        <ele>635.3</ele>
        <time>2020-08-18T14:31:32Z</time>
      </trkpt>
      <trkpt lat="48.64749" lon="7.28227">
        <ele>635.3</ele>
        <time>2020-08-18T14:31:34Z</time>
      </trkpt>
      <trkpt lat="48.64745" lon="7.28221">
        <ele>635.1</ele>
        <time>2020-08-18T14:31:36Z</time>
      </trkpt>
      <trkpt lat="48.64741" lon="7.28214">
        <ele>635</ele>
        <time>2020-08-18T14:31:38Z</time>
      </trkpt>
      <trkpt lat="48.64735" lon="7.28209">
        <ele>634.4</ele>
        <time>2020-08-18T14:31:40Z</time>
      </trkpt>
      <trkpt lat="48.6473" lon="7.28205">
        <ele>634.3</ele>
        <time>2020-08-18T14:31:42Z</time>
      </trkpt>
      <trkpt lat="48.64724" lon="7.28201">
        <ele>634.2</ele>
        <time>2020-08-18T14:31:44Z</time>
      </trkpt>
      <trkpt lat="48.64717" lon="7.28198">
        <ele>634</ele>
        <time>2020-08-18T14:31:46Z</time>
      </trkpt>
      <trkpt lat="48.64711" lon="7.28195">
        <ele>633.7</ele>
        <time>2020-08-18T14:31:48Z</time>
      </trkpt>
      <trkpt lat="48.64704" lon="7.28193">
        <ele>633.6</ele>
        <time>2020-08-18T14:31:50Z</time>
      </trkpt>
      <trkpt lat="48.64698" lon="7.28192">
        <ele>633.4</ele>
        <time>2020-08-18T14:31:52Z</time>
      </trkpt>
      <trkpt lat="48.64692" lon="7.28191">
        <ele>633.3</ele>
        <time>2020-08-18T14:31:54Z</time>
      </trkpt>
      <trkpt lat="48.64686" lon="7.28189">
        <ele>633.1</ele>
        <time>2020-08-18T14:31:56Z</time>
      </trkpt>
      <trkpt lat="48.6468" lon="7.28185">
        <ele>633.2</ele>
        <time>2020-08-18T14:31:58Z</time>
      </trkpt>
      <trkpt lat="48.64674" lon="7.28181">
        <ele>633.2</ele>
        <time>2020-08-18T14:32:00Z</time>
      </trkpt>
      <trkpt lat="48.6467" lon="7.28176">
        <ele>632.3</ele>
        <time>2020-08-18T14:32:02Z</time>
      </trkpt>
      <trkpt lat="48.64666" lon="7.2817">
        <ele>632.6</ele>
        <time>2020-08-18T14:32:04Z</time>
      </trkpt>
      <trkpt lat="48.64662" lon="7.28163">
        <ele>632.6</ele>
        <time>2020-08-18T14:32:06Z</time>
      </trkpt>
      <trkpt lat="48.64658" lon="7.28155">
        <ele>632.7</ele>
        <time>2020-08-18T14:32:08Z</time>
      </trkpt>
      <trkpt lat="48.64653" lon="7.28145">
        <ele>633</ele>
        <time>2020-08-18T14:32:10Z</time>
      </trkpt>
      <trkpt lat="48.64649" lon="7.28136">
        <ele>633.1</ele>
        <time>2020-08-18T14:32:12Z</time>
      </trkpt>
      <trkpt lat="48.64646" lon="7.28127">
        <ele>633.8</ele>
        <time>2020-08-18T14:32:14Z</time>
      </trkpt>
      <trkpt lat="48.64642" lon="7.28118">
        <ele>634</ele>
        <time>2020-08-18T14:32:16Z</time>
      </trkpt>
      <trkpt lat="48.64638" lon="7.28112">
        <ele>633.6</ele>
        <time>2020-08-18T14:32:18Z</time>
      </trkpt>
      <trkpt lat="48.64634" lon="7.28105">
        <ele>633.9</ele>
        <time>2020-08-18T14:32:20Z</time>
      </trkpt>
      <trkpt lat="48.64631" lon="7.28097">
        <ele>633.6</ele>
        <time>2020-08-18T14:32:22Z</time>
      </trkpt>
      <trkpt lat="48.64627" lon="7.28089">
        <ele>633.8</ele>
        <time>2020-08-18T14:32:24Z</time>
      </trkpt>
      <trkpt lat="48.64623" lon="7.28082">
        <ele>633.9</ele>
        <time>2020-08-18T14:32:26Z</time>
      </trkpt>
      <trkpt lat="48.6462" lon="7.28076">
        <ele>633.8</ele>
        <time>2020-08-18T14:32:28Z</time>
      </trkpt>
      <trkpt lat="48.64615" lon="7.28071">
        <ele>635.7</ele>
        <time>2020-08-18T14:32:48Z</time>
      </trkpt>
      <trkpt lat="48.64612" lon="7.28063">
        <ele>636.1</ele>
        <time>2020-08-18T14:32:50Z</time>
      </trkpt>
      <trkpt lat="48.64606" lon="7.28053">
        <ele>636.6</ele>
        <time>2020-08-18T14:32:52Z</time>
      </trkpt>
      <trkpt lat="48.646" lon="7.28041">
        <ele>636.9</ele>
        <time>2020-08-18T14:32:54Z</time>
      </trkpt>
      <trkpt lat="48.64595" lon="7.28029">
        <ele>637.3</ele>
        <time>2020-08-18T14:32:56Z</time>
      </trkpt>
      <trkpt lat="48.6459" lon="7.28016">
        <ele>637.7</ele>
        <time>2020-08-18T14:32:58Z</time>
      </trkpt>
      <trkpt lat="48.64587" lon="7.28003">
        <ele>638.1</ele>
        <time>2020-08-18T14:33:00Z</time>
      </trkpt>
      <trkpt lat="48.64585" lon="7.27991">
        <ele>638.3</ele>
        <time>2020-08-18T14:33:02Z</time>
      </trkpt>
      <trkpt lat="48.64582" lon="7.27979">
        <ele>638.6</ele>
        <time>2020-08-18T14:33:04Z</time>
      </trkpt>
      <trkpt lat="48.64579" lon="7.27967">
        <ele>639.2</ele>
        <time>2020-08-18T14:33:06Z</time>
      </trkpt>
      <trkpt lat="48.64576" lon="7.27955">
        <ele>639.8</ele>
        <time>2020-08-18T14:33:08Z</time>
      </trkpt>
      <trkpt lat="48.64573" lon="7.27944">
        <ele>640.1</ele>
        <time>2020-08-18T14:33:10Z</time>
      </trkpt>
      <trkpt lat="48.64569" lon="7.27933">
        <ele>640.2</ele>
        <time>2020-08-18T14:33:12Z</time>
      </trkpt>
      <trkpt lat="48.64566" lon="7.27922">
        <ele>640.3</ele>
        <time>2020-08-18T14:33:14Z</time>
      </trkpt>
      <trkpt lat="48.64563" lon="7.27912">
        <ele>640</ele>
        <time>2020-08-18T14:33:16Z</time>
      </trkpt>
      <trkpt lat="48.6456" lon="7.27901">
        <ele>640.4</ele>
        <time>2020-08-18T14:33:18Z</time>
      </trkpt>
      <trkpt lat="48.64558" lon="7.2789">
        <ele>640.7</ele>
        <time>2020-08-18T14:33:20Z</time>
      </trkpt>
      <trkpt lat="48.64556" lon="7.27879">
        <ele>641.1</ele>
        <time>2020-08-18T14:33:22Z</time>
      </trkpt>
      <trkpt lat="48.64553" lon="7.27868">
        <ele>641.7</ele>
        <time>2020-08-18T14:33:24Z</time>
      </trkpt>
      <trkpt lat="48.64551" lon="7.27857">
        <ele>642.4</ele>
        <time>2020-08-18T14:33:26Z</time>
      </trkpt>
      <trkpt lat="48.64548" lon="7.27846">
        <ele>642.7</ele>
        <time>2020-08-18T14:33:28Z</time>
      </trkpt>
      <trkpt lat="48.64546" lon="7.27835">
        <ele>643.4</ele>
        <time>2020-08-18T14:33:30Z</time>
      </trkpt>
      <trkpt lat="48.64543" lon="7.27824">
        <ele>643.9</ele>
        <time>2020-08-18T14:33:32Z</time>
      </trkpt>
      <trkpt lat="48.6454" lon="7.27813">
        <ele>644.2</ele>
        <time>2020-08-18T14:33:34Z</time>
      </trkpt>
      <trkpt lat="48.64536" lon="7.27802">
        <ele>644.3</ele>
        <time>2020-08-18T14:33:36Z</time>
      </trkpt>
      <trkpt lat="48.64533" lon="7.27791">
        <ele>644.4</ele>
        <time>2020-08-18T14:33:38Z</time>
      </trkpt>
      <trkpt lat="48.64529" lon="7.2778">
        <ele>643.9</ele>
        <time>2020-08-18T14:33:40Z</time>
      </trkpt>
      <trkpt lat="48.64524" lon="7.27769">
        <ele>643.7</ele>
        <time>2020-08-18T14:33:42Z</time>
      </trkpt>
      <trkpt lat="48.6452" lon="7.27758">
        <ele>643.7</ele>
        <time>2020-08-18T14:33:44Z</time>
      </trkpt>
      <trkpt lat="48.64517" lon="7.27746">
        <ele>643</ele>
        <time>2020-08-18T14:33:46Z</time>
      </trkpt>
      <trkpt lat="48.64513" lon="7.27734">
        <ele>642.8</ele>
        <time>2020-08-18T14:33:48Z</time>
      </trkpt>
      <trkpt lat="48.64509" lon="7.27723">
        <ele>642.5</ele>
        <time>2020-08-18T14:33:50Z</time>
      </trkpt>
      <trkpt lat="48.64506" lon="7.27712">
        <ele>642.6</ele>
        <time>2020-08-18T14:33:52Z</time>
      </trkpt>
      <trkpt lat="48.64502" lon="7.277">
        <ele>642.4</ele>
        <time>2020-08-18T14:33:54Z</time>
      </trkpt>
      <trkpt lat="48.64498" lon="7.27689">
        <ele>642.2</ele>
        <time>2020-08-18T14:33:56Z</time>
      </trkpt>
      <trkpt lat="48.64494" lon="7.27678">
        <ele>642.1</ele>
        <time>2020-08-18T14:33:58Z</time>
      </trkpt>
      <trkpt lat="48.64491" lon="7.27666">
        <ele>641.5</ele>
        <time>2020-08-18T14:34:00Z</time>
      </trkpt>
      <trkpt lat="48.64487" lon="7.27655">
        <ele>641.3</ele>
        <time>2020-08-18T14:34:02Z</time>
      </trkpt>
      <trkpt lat="48.64484" lon="7.27644">
        <ele>641.2</ele>
        <time>2020-08-18T14:34:04Z</time>
      </trkpt>
      <trkpt lat="48.6448" lon="7.27631">
        <ele>641.4</ele>
        <time>2020-08-18T14:34:06Z</time>
      </trkpt>
      <trkpt lat="48.64477" lon="7.27619">
        <ele>641.6</ele>
        <time>2020-08-18T14:34:08Z</time>
      </trkpt>
      <trkpt lat="48.64473" lon="7.27607">
        <ele>641.6</ele>
        <time>2020-08-18T14:34:10Z</time>
      </trkpt>
      <trkpt lat="48.64469" lon="7.27595">
        <ele>641.5</ele>
        <time>2020-08-18T14:34:12Z</time>
      </trkpt>
      <trkpt lat="48.64464" lon="7.27584">
        <ele>641.4</ele>
        <time>2020-08-18T14:34:14Z</time>
      </trkpt>
      <trkpt lat="48.64459" lon="7.27574">
        <ele>641.7</ele>
        <time>2020-08-18T14:34:16Z</time>
      </trkpt>
      <trkpt lat="48.64454" lon="7.27565">
        <ele>642</ele>
        <time>2020-08-18T14:34:18Z</time>
      </trkpt>
      <trkpt lat="48.64448" lon="7.27556">
        <ele>641.9</ele>
        <time>2020-08-18T14:34:20Z</time>
      </trkpt>
      <trkpt lat="48.64442" lon="7.27546">
        <ele>641.8</ele>
        <time>2020-08-18T14:34:22Z</time>
      </trkpt>
      <trkpt lat="48.64435" lon="7.27537">
        <ele>641.4</ele>
        <time>2020-08-18T14:34:24Z</time>
      </trkpt>
      <trkpt lat="48.64427" lon="7.27528">
        <ele>641</ele>
        <time>2020-08-18T14:34:26Z</time>
      </trkpt>
      <trkpt lat="48.64419" lon="7.27521">
        <ele>640.9</ele>
        <time>2020-08-18T14:34:28Z</time>
      </trkpt>
      <trkpt lat="48.6441" lon="7.27515">
        <ele>640.8</ele>
        <time>2020-08-18T14:34:30Z</time>
      </trkpt>
      <trkpt lat="48.64402" lon="7.2751">
        <ele>640.7</ele>
        <time>2020-08-18T14:34:32Z</time>
      </trkpt>
      <trkpt lat="48.64398" lon="7.27505">
        <ele>640.6</ele>
        <time>2020-08-18T14:34:34Z</time>
      </trkpt>
      <trkpt lat="48.64393" lon="7.275">
        <ele>641.9</ele>
        <time>2020-08-18T14:34:48Z</time>
      </trkpt>
      <trkpt lat="48.64388" lon="7.27495">
        <ele>642.1</ele>
        <time>2020-08-18T14:34:51Z</time>
      </trkpt>
      <trkpt lat="48.64383" lon="7.27493">
        <ele>642.1</ele>
        <time>2020-08-18T14:34:54Z</time>
      </trkpt>
      <trkpt lat="48.64378" lon="7.27494">
        <ele>642.4</ele>
        <time>2020-08-18T14:34:56Z</time>
      </trkpt>
      <trkpt lat="48.6437" lon="7.275">
        <ele>642.3</ele>
        <time>2020-08-18T14:34:58Z</time>
      </trkpt>
      <trkpt lat="48.64362" lon="7.27505">
        <ele>642.1</ele>
        <time>2020-08-18T14:35:00Z</time>
      </trkpt>
      <trkpt lat="48.64354" lon="7.27509">
        <ele>641.5</ele>
        <time>2020-08-18T14:35:02Z</time>
      </trkpt>
      <trkpt lat="48.64347" lon="7.27514">
        <ele>640.7</ele>
        <time>2020-08-18T14:35:04Z</time>
      </trkpt>
      <trkpt lat="48.64343" lon="7.27518">
        <ele>640</ele>
        <time>2020-08-18T14:35:06Z</time>
      </trkpt>
      <trkpt lat="48.64338" lon="7.27522">
        <ele>639.4</ele>
        <time>2020-08-18T14:35:11Z</time>
      </trkpt>
      <trkpt lat="48.64333" lon="7.27525">
        <ele>639.6</ele>
        <time>2020-08-18T14:35:15Z</time>
      </trkpt>
      <trkpt lat="48.64327" lon="7.27529">
        <ele>639.7</ele>
        <time>2020-08-18T14:35:18Z</time>
      </trkpt>
      <trkpt lat="48.64314" lon="7.27534">
        <ele>639.4</ele>
        <time>2020-08-18T14:35:20Z</time>
      </trkpt>
      <trkpt lat="48.643" lon="7.27538">
        <ele>639.2</ele>
        <time>2020-08-18T14:35:22Z</time>
      </trkpt>
      <trkpt lat="48.64285" lon="7.27543">
        <ele>638.9</ele>
        <time>2020-08-18T14:35:24Z</time>
      </trkpt>
      <trkpt lat="48.6427" lon="7.27548">
        <ele>638.5</ele>
        <time>2020-08-18T14:35:26Z</time>
      </trkpt>
      <trkpt lat="48.64254" lon="7.27556">
        <ele>637.7</ele>
        <time>2020-08-18T14:35:28Z</time>
      </trkpt>
      <trkpt lat="48.6424" lon="7.27565">
        <ele>637.5</ele>
        <time>2020-08-18T14:35:30Z</time>
      </trkpt>
      <trkpt lat="48.64227" lon="7.27572">
        <ele>636.9</ele>
        <time>2020-08-18T14:35:32Z</time>
      </trkpt>
      <trkpt lat="48.64212" lon="7.27577">
        <ele>636.7</ele>
        <time>2020-08-18T14:35:34Z</time>
      </trkpt>
      <trkpt lat="48.64199" lon="7.27581">
        <ele>636.4</ele>
        <time>2020-08-18T14:35:36Z</time>
      </trkpt>
      <trkpt lat="48.64186" lon="7.27584">
        <ele>635.9</ele>
        <time>2020-08-18T14:35:38Z</time>
      </trkpt>
      <trkpt lat="48.64172" lon="7.27588">
        <ele>635.9</ele>
        <time>2020-08-18T14:35:40Z</time>
      </trkpt>
      <trkpt lat="48.64159" lon="7.27591">
        <ele>634.7</ele>
        <time>2020-08-18T14:35:42Z</time>
      </trkpt>
      <trkpt lat="48.64146" lon="7.27592">
        <ele>634</ele>
        <time>2020-08-18T14:35:44Z</time>
      </trkpt>
      <trkpt lat="48.64131" lon="7.27591">
        <ele>633.8</ele>
        <time>2020-08-18T14:35:46Z</time>
      </trkpt>
      <trkpt lat="48.64116" lon="7.27589">
        <ele>633.2</ele>
        <time>2020-08-18T14:35:48Z</time>
      </trkpt>
      <trkpt lat="48.64102" lon="7.27584">
        <ele>632.3</ele>
        <time>2020-08-18T14:35:50Z</time>
      </trkpt>
      <trkpt lat="48.64085" lon="7.2758">
        <ele>631.7</ele>
        <time>2020-08-18T14:35:52Z</time>
      </trkpt>
      <trkpt lat="48.64069" lon="7.27575">
        <ele>630.8</ele>
        <time>2020-08-18T14:35:54Z</time>
      </trkpt>
      <trkpt lat="48.64055" lon="7.27571">
        <ele>629.6</ele>
        <time>2020-08-18T14:35:56Z</time>
      </trkpt>
      <trkpt lat="48.64044" lon="7.27566">
        <ele>628.6</ele>
        <time>2020-08-18T14:35:58Z</time>
      </trkpt>
      <trkpt lat="48.64036" lon="7.27558">
        <ele>627.3</ele>
        <time>2020-08-18T14:36:00Z</time>
      </trkpt>
      <trkpt lat="48.64029" lon="7.27551">
        <ele>626.7</ele>
        <time>2020-08-18T14:36:02Z</time>
      </trkpt>
      <trkpt lat="48.64025" lon="7.27542">
        <ele>625.8</ele>
        <time>2020-08-18T14:36:04Z</time>
      </trkpt>
      <trkpt lat="48.64021" lon="7.2753">
        <ele>624.9</ele>
        <time>2020-08-18T14:36:06Z</time>
      </trkpt>
      <trkpt lat="48.64019" lon="7.27515">
        <ele>624.3</ele>
        <time>2020-08-18T14:36:08Z</time>
      </trkpt>
      <trkpt lat="48.64018" lon="7.27499">
        <ele>622.9</ele>
        <time>2020-08-18T14:36:10Z</time>
      </trkpt>
      <trkpt lat="48.64019" lon="7.27483">
        <ele>621.6</ele>
        <time>2020-08-18T14:36:12Z</time>
      </trkpt>
      <trkpt lat="48.6402" lon="7.27466">
        <ele>621</ele>
        <time>2020-08-18T14:36:14Z</time>
      </trkpt>
      <trkpt lat="48.64022" lon="7.27452">
        <ele>620.5</ele>
        <time>2020-08-18T14:36:16Z</time>
      </trkpt>
      <trkpt lat="48.64023" lon="7.27442">
        <ele>620</ele>
        <time>2020-08-18T14:36:18Z</time>
      </trkpt>
      <trkpt lat="48.64024" lon="7.27433">
        <ele>618.7</ele>
        <time>2020-08-18T14:36:20Z</time>
      </trkpt>
      <trkpt lat="48.64025" lon="7.27421">
        <ele>617.4</ele>
        <time>2020-08-18T14:36:22Z</time>
      </trkpt>
      <trkpt lat="48.64026" lon="7.27412">
        <ele>616.1</ele>
        <time>2020-08-18T14:36:24Z</time>
      </trkpt>
      <trkpt lat="48.64024" lon="7.27402">
        <ele>615.4</ele>
        <time>2020-08-18T14:36:26Z</time>
      </trkpt>
      <trkpt lat="48.64022" lon="7.27393">
        <ele>614.7</ele>
        <time>2020-08-18T14:36:28Z</time>
      </trkpt>
      <trkpt lat="48.64019" lon="7.27386">
        <ele>614.3</ele>
        <time>2020-08-18T14:36:30Z</time>
      </trkpt>
      <trkpt lat="48.64018" lon="7.2738">
        <ele>613.5</ele>
        <time>2020-08-18T14:36:32Z</time>
      </trkpt>
      <trkpt lat="48.64015" lon="7.27371">
        <ele>613.2</ele>
        <time>2020-08-18T14:36:34Z</time>
      </trkpt>
      <trkpt lat="48.64013" lon="7.27362">
        <ele>613</ele>
        <time>2020-08-18T14:36:36Z</time>
      </trkpt>
      <trkpt lat="48.6401" lon="7.27354">
        <ele>613.1</ele>
        <time>2020-08-18T14:36:38Z</time>
      </trkpt>
      <trkpt lat="48.64008" lon="7.27348">
        <ele>612.9</ele>
        <time>2020-08-18T14:36:40Z</time>
      </trkpt>
      <trkpt lat="48.64004" lon="7.27339">
        <ele>612.9</ele>
        <time>2020-08-18T14:36:42Z</time>
      </trkpt>
      <trkpt lat="48.64001" lon="7.27329">
        <ele>612.9</ele>
        <time>2020-08-18T14:36:44Z</time>
      </trkpt>
      <trkpt lat="48.63998" lon="7.2732">
        <ele>613.5</ele>
        <time>2020-08-18T14:36:46Z</time>
      </trkpt>
      <trkpt lat="48.63996" lon="7.2731">
        <ele>613.9</ele>
        <time>2020-08-18T14:36:48Z</time>
      </trkpt>
      <trkpt lat="48.63992" lon="7.27297">
        <ele>614.7</ele>
        <time>2020-08-18T14:36:50Z</time>
      </trkpt>
      <trkpt lat="48.6399" lon="7.27287">
        <ele>614.9</ele>
        <time>2020-08-18T14:36:52Z</time>
      </trkpt>
      <trkpt lat="48.63988" lon="7.2728">
        <ele>613.1</ele>
        <time>2020-08-18T14:36:57Z</time>
      </trkpt>
      <trkpt lat="48.63992" lon="7.27276">
        <ele>605</ele>
        <time>2020-08-18T14:37:13Z</time>
      </trkpt>
      <trkpt lat="48.6399" lon="7.27265">
        <ele>606.3</ele>
        <time>2020-08-18T14:37:16Z</time>
      </trkpt>
      <trkpt lat="48.63989" lon="7.27256">
        <ele>605.1</ele>
        <time>2020-08-18T14:37:18Z</time>
      </trkpt>
      <trkpt lat="48.63987" lon="7.27245">
        <ele>606</ele>
        <time>2020-08-18T14:37:20Z</time>
      </trkpt>
      <trkpt lat="48.63986" lon="7.27234">
        <ele>606.8</ele>
        <time>2020-08-18T14:37:22Z</time>
      </trkpt>
      <trkpt lat="48.63984" lon="7.27225">
        <ele>607</ele>
        <time>2020-08-18T14:37:24Z</time>
      </trkpt>
      <trkpt lat="48.63983" lon="7.27216">
        <ele>607.5</ele>
        <time>2020-08-18T14:37:26Z</time>
      </trkpt>
      <trkpt lat="48.63981" lon="7.27207">
        <ele>607.8</ele>
        <time>2020-08-18T14:37:28Z</time>
      </trkpt>
      <trkpt lat="48.63978" lon="7.27198">
        <ele>608.2</ele>
        <time>2020-08-18T14:37:30Z</time>
      </trkpt>
      <trkpt lat="48.63975" lon="7.27188">
        <ele>608.6</ele>
        <time>2020-08-18T14:37:32Z</time>
      </trkpt>
      <trkpt lat="48.63973" lon="7.27177">
        <ele>609.5</ele>
        <time>2020-08-18T14:37:34Z</time>
      </trkpt>
      <trkpt lat="48.6397" lon="7.27166">
        <ele>610</ele>
        <time>2020-08-18T14:37:36Z</time>
      </trkpt>
      <trkpt lat="48.63969" lon="7.27156">
        <ele>610.6</ele>
        <time>2020-08-18T14:37:38Z</time>
      </trkpt>
      <trkpt lat="48.63969" lon="7.27144">
        <ele>611.5</ele>
        <time>2020-08-18T14:37:40Z</time>
      </trkpt>
      <trkpt lat="48.63969" lon="7.27135">
        <ele>613.1</ele>
        <time>2020-08-18T14:37:42Z</time>
      </trkpt>
      <trkpt lat="48.6397" lon="7.27127">
        <ele>614.6</ele>
        <time>2020-08-18T14:37:44Z</time>
      </trkpt>
      <trkpt lat="48.63971" lon="7.2712">
        <ele>615.8</ele>
        <time>2020-08-18T14:37:46Z</time>
      </trkpt>
      <trkpt lat="48.63974" lon="7.27112">
        <ele>616.8</ele>
        <time>2020-08-18T14:37:49Z</time>
      </trkpt>
      <trkpt lat="48.63974" lon="7.27105">
        <ele>619.2</ele>
        <time>2020-08-18T14:37:53Z</time>
      </trkpt>
      <trkpt lat="48.63975" lon="7.27097">
        <ele>620.3</ele>
        <time>2020-08-18T14:38:00Z</time>
      </trkpt>
      <trkpt lat="48.63978" lon="7.2709">
        <ele>620.9</ele>
        <time>2020-08-18T14:38:04Z</time>
      </trkpt>
      <trkpt lat="48.6398" lon="7.27083">
        <ele>621.6</ele>
        <time>2020-08-18T14:38:08Z</time>
      </trkpt>
      <trkpt lat="48.63984" lon="7.27077">
        <ele>621.5</ele>
        <time>2020-08-18T14:38:12Z</time>
      </trkpt>
      <trkpt lat="48.63986" lon="7.2707">
        <ele>620.9</ele>
        <time>2020-08-18T14:38:16Z</time>
      </trkpt>
      <trkpt lat="48.63989" lon="7.27062">
        <ele>619.1</ele>
        <time>2020-08-18T14:38:20Z</time>
      </trkpt>
      <trkpt lat="48.63991" lon="7.27054">
        <ele>617.5</ele>
        <time>2020-08-18T14:38:25Z</time>
      </trkpt>
      <trkpt lat="48.63994" lon="7.27048">
        <ele>618</ele>
        <time>2020-08-18T14:38:29Z</time>
      </trkpt>
      <trkpt lat="48.63996" lon="7.27041">
        <ele>617.9</ele>
        <time>2020-08-18T14:38:34Z</time>
      </trkpt>
      <trkpt lat="48.63999" lon="7.27034">
        <ele>618.2</ele>
        <time>2020-08-18T14:38:38Z</time>
      </trkpt>
      <trkpt lat="48.64" lon="7.27028">
        <ele>618.8</ele>
        <time>2020-08-18T14:38:42Z</time>
      </trkpt>
      <trkpt lat="48.64001" lon="7.2702">
        <ele>618.7</ele>
        <time>2020-08-18T14:38:46Z</time>
      </trkpt>
      <trkpt lat="48.64002" lon="7.27012">
        <ele>618.8</ele>
        <time>2020-08-18T14:38:49Z</time>
      </trkpt>
      <trkpt lat="48.64003" lon="7.27005">
        <ele>619.7</ele>
        <time>2020-08-18T14:38:53Z</time>
      </trkpt>
      <trkpt lat="48.64004" lon="7.26997">
        <ele>620.7</ele>
        <time>2020-08-18T14:38:57Z</time>
      </trkpt>
      <trkpt lat="48.64005" lon="7.26989">
        <ele>622.9</ele>
        <time>2020-08-18T14:39:02Z</time>
      </trkpt>
      <trkpt lat="48.64003" lon="7.26982">
        <ele>624.4</ele>
        <time>2020-08-18T14:39:07Z</time>
      </trkpt>
      <trkpt lat="48.64001" lon="7.26975">
        <ele>623.6</ele>
        <time>2020-08-18T14:39:12Z</time>
      </trkpt>
      <trkpt lat="48.64" lon="7.26967">
        <ele>624.2</ele>
        <time>2020-08-18T14:39:17Z</time>
      </trkpt>
      <trkpt lat="48.63999" lon="7.26959">
        <ele>624.9</ele>
        <time>2020-08-18T14:39:22Z</time>
      </trkpt>
      <trkpt lat="48.63998" lon="7.26951">
        <ele>625.2</ele>
        <time>2020-08-18T14:39:26Z</time>
      </trkpt>
      <trkpt lat="48.63998" lon="7.26943">
        <ele>626</ele>
        <time>2020-08-18T14:39:30Z</time>
      </trkpt>
      <trkpt lat="48.63996" lon="7.26936">
        <ele>627.7</ele>
        <time>2020-08-18T14:39:34Z</time>
      </trkpt>
      <trkpt lat="48.63995" lon="7.26929">
        <ele>628.7</ele>
        <time>2020-08-18T14:39:39Z</time>
      </trkpt>
      <trkpt lat="48.63994" lon="7.26921">
        <ele>630.4</ele>
        <time>2020-08-18T14:39:43Z</time>
      </trkpt>
      <trkpt lat="48.63995" lon="7.26913">
        <ele>632.1</ele>
        <time>2020-08-18T14:39:48Z</time>
      </trkpt>
      <trkpt lat="48.63995" lon="7.26906">
        <ele>633</ele>
        <time>2020-08-18T14:39:52Z</time>
      </trkpt>
      <trkpt lat="48.63995" lon="7.26899">
        <ele>634.1</ele>
        <time>2020-08-18T14:39:56Z</time>
      </trkpt>
      <trkpt lat="48.63995" lon="7.26892">
        <ele>633.9</ele>
        <time>2020-08-18T14:40:05Z</time>
      </trkpt>
      <trkpt lat="48.63993" lon="7.26884">
        <ele>633.3</ele>
        <time>2020-08-18T14:40:09Z</time>
      </trkpt>
      <trkpt lat="48.6399" lon="7.26877">
        <ele>632.2</ele>
        <time>2020-08-18T14:40:14Z</time>
      </trkpt>
      <trkpt lat="48.63987" lon="7.26872">
        <ele>632.1</ele>
        <time>2020-08-18T14:40:18Z</time>
      </trkpt>
      <trkpt lat="48.63986" lon="7.26864">
        <ele>633.3</ele>
        <time>2020-08-18T14:40:22Z</time>
      </trkpt>
      <trkpt lat="48.63985" lon="7.26855">
        <ele>634.2</ele>
        <time>2020-08-18T14:40:26Z</time>
      </trkpt>
      <trkpt lat="48.63984" lon="7.26849">
        <ele>634.6</ele>
        <time>2020-08-18T14:40:29Z</time>
      </trkpt>
      <trkpt lat="48.63984" lon="7.26841">
        <ele>634</ele>
        <time>2020-08-18T14:40:33Z</time>
      </trkpt>
      <trkpt lat="48.63983" lon="7.26833">
        <ele>633.4</ele>
        <time>2020-08-18T14:40:37Z</time>
      </trkpt>
      <trkpt lat="48.63982" lon="7.26826">
        <ele>633.1</ele>
        <time>2020-08-18T14:40:41Z</time>
      </trkpt>
      <trkpt lat="48.6398" lon="7.26819">
        <ele>633.9</ele>
        <time>2020-08-18T14:40:45Z</time>
      </trkpt>
      <trkpt lat="48.63979" lon="7.26812">
        <ele>633.8</ele>
        <time>2020-08-18T14:40:49Z</time>
      </trkpt>
      <trkpt lat="48.63979" lon="7.26804">
        <ele>635</ele>
        <time>2020-08-18T14:40:53Z</time>
      </trkpt>
      <trkpt lat="48.63978" lon="7.26796">
        <ele>634.8</ele>
        <time>2020-08-18T14:40:58Z</time>
      </trkpt>
      <trkpt lat="48.63975" lon="7.26789">
        <ele>634.7</ele>
        <time>2020-08-18T14:41:02Z</time>
      </trkpt>
      <trkpt lat="48.63973" lon="7.26781">
        <ele>635.6</ele>
        <time>2020-08-18T14:41:06Z</time>
      </trkpt>
      <trkpt lat="48.63971" lon="7.26775">
        <ele>635.7</ele>
        <time>2020-08-18T14:41:10Z</time>
      </trkpt>
      <trkpt lat="48.63971" lon="7.26767">
        <ele>636.5</ele>
        <time>2020-08-18T14:41:15Z</time>
      </trkpt>
      <trkpt lat="48.63971" lon="7.26759">
        <ele>636.4</ele>
        <time>2020-08-18T14:41:20Z</time>
      </trkpt>
      <trkpt lat="48.63969" lon="7.26752">
        <ele>636.2</ele>
        <time>2020-08-18T14:41:24Z</time>
      </trkpt>
      <trkpt lat="48.63966" lon="7.26746">
        <ele>636.4</ele>
        <time>2020-08-18T14:41:28Z</time>
      </trkpt>
      <trkpt lat="48.63965" lon="7.26739">
        <ele>633.8</ele>
        <time>2020-08-18T14:41:43Z</time>
      </trkpt>
      <trkpt lat="48.63962" lon="7.26732">
        <ele>633</ele>
        <time>2020-08-18T14:41:50Z</time>
      </trkpt>
      <trkpt lat="48.6396" lon="7.26725">
        <ele>631.7</ele>
        <time>2020-08-18T14:41:53Z</time>
      </trkpt>
      <trkpt lat="48.63958" lon="7.26719">
        <ele>630.5</ele>
        <time>2020-08-18T14:41:55Z</time>
      </trkpt>
      <trkpt lat="48.63955" lon="7.2671">
        <ele>628.9</ele>
        <time>2020-08-18T14:41:58Z</time>
      </trkpt>
      <trkpt lat="48.63954" lon="7.26703">
        <ele>628.1</ele>
        <time>2020-08-18T14:42:00Z</time>
      </trkpt>
      <trkpt lat="48.63951" lon="7.26695">
        <ele>622.4</ele>
        <time>2020-08-18T14:42:02Z</time>
      </trkpt>
      <trkpt lat="48.63949" lon="7.26688">
        <ele>620.1</ele>
        <time>2020-08-18T14:42:04Z</time>
      </trkpt>
      <trkpt lat="48.63946" lon="7.26681">
        <ele>618.2</ele>
        <time>2020-08-18T14:42:06Z</time>
      </trkpt>
      <trkpt lat="48.63945" lon="7.26674">
        <ele>615.8</ele>
        <time>2020-08-18T14:42:08Z</time>
      </trkpt>
      <trkpt lat="48.63944" lon="7.26667">
        <ele>614.5</ele>
        <time>2020-08-18T14:42:10Z</time>
      </trkpt>
      <trkpt lat="48.63943" lon="7.26659">
        <ele>616.1</ele>
        <time>2020-08-18T14:42:12Z</time>
      </trkpt>
      <trkpt lat="48.63942" lon="7.26652">
        <ele>617.3</ele>
        <time>2020-08-18T14:42:14Z</time>
      </trkpt>
      <trkpt lat="48.63942" lon="7.26643">
        <ele>618.2</ele>
        <time>2020-08-18T14:42:17Z</time>
      </trkpt>
      <trkpt lat="48.6394" lon="7.26636">
        <ele>619.6</ele>
        <time>2020-08-18T14:42:19Z</time>
      </trkpt>
      <trkpt lat="48.63938" lon="7.26629">
        <ele>621.3</ele>
        <time>2020-08-18T14:42:21Z</time>
      </trkpt>
      <trkpt lat="48.63936" lon="7.26623">
        <ele>623</ele>
        <time>2020-08-18T14:42:23Z</time>
      </trkpt>
      <trkpt lat="48.63934" lon="7.26617">
        <ele>625.4</ele>
        <time>2020-08-18T14:42:25Z</time>
      </trkpt>
      <trkpt lat="48.63931" lon="7.2661">
        <ele>627</ele>
        <time>2020-08-18T14:42:27Z</time>
      </trkpt>
      <trkpt lat="48.63928" lon="7.26604">
        <ele>629</ele>
        <time>2020-08-18T14:42:29Z</time>
      </trkpt>
      <trkpt lat="48.63925" lon="7.26597">
        <ele>631.2</ele>
        <time>2020-08-18T14:42:31Z</time>
      </trkpt>
      <trkpt lat="48.63922" lon="7.2659">
        <ele>633.5</ele>
        <time>2020-08-18T14:42:33Z</time>
      </trkpt>
      <trkpt lat="48.63918" lon="7.26583">
        <ele>634.5</ele>
        <time>2020-08-18T14:42:35Z</time>
      </trkpt>
      <trkpt lat="48.63915" lon="7.26576">
        <ele>635.7</ele>
        <time>2020-08-18T14:42:37Z</time>
      </trkpt>
      <trkpt lat="48.63913" lon="7.26568">
        <ele>636.3</ele>
        <time>2020-08-18T14:42:39Z</time>
      </trkpt>
      <trkpt lat="48.63911" lon="7.26562">
        <ele>637.5</ele>
        <time>2020-08-18T14:42:41Z</time>
      </trkpt>
      <trkpt lat="48.63908" lon="7.26556">
        <ele>638.4</ele>
        <time>2020-08-18T14:42:43Z</time>
      </trkpt>
      <trkpt lat="48.63906" lon="7.2655">
        <ele>639.5</ele>
        <time>2020-08-18T14:42:45Z</time>
      </trkpt>
      <trkpt lat="48.63902" lon="7.26545">
        <ele>640.2</ele>
        <time>2020-08-18T14:42:47Z</time>
      </trkpt>
      <trkpt lat="48.63898" lon="7.2654">
        <ele>640.9</ele>
        <time>2020-08-18T14:42:49Z</time>
      </trkpt>
      <trkpt lat="48.63894" lon="7.26535">
        <ele>641</ele>
        <time>2020-08-18T14:42:51Z</time>
      </trkpt>
      <trkpt lat="48.6389" lon="7.2653">
        <ele>640.3</ele>
        <time>2020-08-18T14:42:53Z</time>
      </trkpt>
      <trkpt lat="48.63886" lon="7.26525">
        <ele>640.4</ele>
        <time>2020-08-18T14:42:55Z</time>
      </trkpt>
      <trkpt lat="48.63882" lon="7.2652">
        <ele>640.4</ele>
        <time>2020-08-18T14:42:57Z</time>
      </trkpt>
      <trkpt lat="48.63878" lon="7.26517">
        <ele>640.5</ele>
        <time>2020-08-18T14:42:59Z</time>
      </trkpt>
      <trkpt lat="48.63873" lon="7.26514">
        <ele>641.2</ele>
        <time>2020-08-18T14:43:01Z</time>
      </trkpt>
      <trkpt lat="48.63868" lon="7.2651">
        <ele>642.1</ele>
        <time>2020-08-18T14:43:04Z</time>
      </trkpt>
      <trkpt lat="48.63862" lon="7.26505">
        <ele>642.7</ele>
        <time>2020-08-18T14:43:07Z</time>
      </trkpt>
      <trkpt lat="48.63858" lon="7.26501">
        <ele>643.3</ele>
        <time>2020-08-18T14:43:09Z</time>
      </trkpt>
      <trkpt lat="48.63854" lon="7.26497">
        <ele>643.8</ele>
        <time>2020-08-18T14:43:11Z</time>
      </trkpt>
      <trkpt lat="48.63849" lon="7.26493">
        <ele>638</ele>
        <time>2020-08-18T14:43:13Z</time>
      </trkpt>
      <trkpt lat="48.63844" lon="7.2649">
        <ele>636.3</ele>
        <time>2020-08-18T14:43:15Z</time>
      </trkpt>
      <trkpt lat="48.63839" lon="7.26488">
        <ele>633.4</ele>
        <time>2020-08-18T14:43:17Z</time>
      </trkpt>
      <trkpt lat="48.63835" lon="7.26485">
        <ele>634.3</ele>
        <time>2020-08-18T14:43:19Z</time>
      </trkpt>
      <trkpt lat="48.63831" lon="7.26481">
        <ele>635</ele>
        <time>2020-08-18T14:43:21Z</time>
      </trkpt>
      <trkpt lat="48.63827" lon="7.26476">
        <ele>632.6</ele>
        <time>2020-08-18T14:43:23Z</time>
      </trkpt>
      <trkpt lat="48.63823" lon="7.26472">
        <ele>634.1</ele>
        <time>2020-08-18T14:43:25Z</time>
      </trkpt>
      <trkpt lat="48.63818" lon="7.26468">
        <ele>636</ele>
        <time>2020-08-18T14:43:27Z</time>
      </trkpt>
      <trkpt lat="48.63813" lon="7.26464">
        <ele>637.6</ele>
        <time>2020-08-18T14:43:29Z</time>
      </trkpt>
      <trkpt lat="48.63806" lon="7.2646">
        <ele>639.4</ele>
        <time>2020-08-18T14:43:31Z</time>
      </trkpt>
      <trkpt lat="48.638" lon="7.26457">
        <ele>640.1</ele>
        <time>2020-08-18T14:43:33Z</time>
      </trkpt>
      <trkpt lat="48.63793" lon="7.26455">
        <ele>641.1</ele>
        <time>2020-08-18T14:43:35Z</time>
      </trkpt>
      <trkpt lat="48.63788" lon="7.26454">
        <ele>642.3</ele>
        <time>2020-08-18T14:43:37Z</time>
      </trkpt>
      <trkpt lat="48.63782" lon="7.26453">
        <ele>644.6</ele>
        <time>2020-08-18T14:43:40Z</time>
      </trkpt>
      <trkpt lat="48.63778" lon="7.26457">
        <ele>649.9</ele>
        <time>2020-08-18T14:43:51Z</time>
      </trkpt>
      <trkpt lat="48.63771" lon="7.26458">
        <ele>652.2</ele>
        <time>2020-08-18T14:44:15Z</time>
      </trkpt>
      <trkpt lat="48.63764" lon="7.26459">
        <ele>651.3</ele>
        <time>2020-08-18T14:44:17Z</time>
      </trkpt>
      <trkpt lat="48.63752" lon="7.26459">
        <ele>650.6</ele>
        <time>2020-08-18T14:44:19Z</time>
      </trkpt>
      <trkpt lat="48.63741" lon="7.26457">
        <ele>649.4</ele>
        <time>2020-08-18T14:44:21Z</time>
      </trkpt>
      <trkpt lat="48.6373" lon="7.26455">
        <ele>648.3</ele>
        <time>2020-08-18T14:44:23Z</time>
      </trkpt>
      <trkpt lat="48.6372" lon="7.26452">
        <ele>647.6</ele>
        <time>2020-08-18T14:44:25Z</time>
      </trkpt>
      <trkpt lat="48.6371" lon="7.2645">
        <ele>647.1</ele>
        <time>2020-08-18T14:44:27Z</time>
      </trkpt>
      <trkpt lat="48.637" lon="7.26447">
        <ele>647.4</ele>
        <time>2020-08-18T14:44:29Z</time>
      </trkpt>
      <trkpt lat="48.63692" lon="7.2644">
        <ele>647.4</ele>
        <time>2020-08-18T14:44:32Z</time>
      </trkpt>
      <trkpt lat="48.63684" lon="7.2643">
        <ele>648.1</ele>
        <time>2020-08-18T14:44:34Z</time>
      </trkpt>
      <trkpt lat="48.63678" lon="7.26423">
        <ele>648.3</ele>
        <time>2020-08-18T14:44:36Z</time>
      </trkpt>
      <trkpt lat="48.63674" lon="7.26418">
        <ele>648.8</ele>
        <time>2020-08-18T14:44:38Z</time>
      </trkpt>
      <trkpt lat="48.63668" lon="7.26411">
        <ele>649.7</ele>
        <time>2020-08-18T14:44:40Z</time>
      </trkpt>
      <trkpt lat="48.63664" lon="7.26402">
        <ele>650.2</ele>
        <time>2020-08-18T14:44:42Z</time>
      </trkpt>
      <trkpt lat="48.6366" lon="7.26391">
        <ele>650.8</ele>
        <time>2020-08-18T14:44:44Z</time>
      </trkpt>
      <trkpt lat="48.63656" lon="7.26382">
        <ele>651.6</ele>
        <time>2020-08-18T14:44:46Z</time>
      </trkpt>
      <trkpt lat="48.63651" lon="7.26374">
        <ele>652.3</ele>
        <time>2020-08-18T14:44:48Z</time>
      </trkpt>
      <trkpt lat="48.63646" lon="7.26367">
        <ele>652.8</ele>
        <time>2020-08-18T14:44:50Z</time>
      </trkpt>
      <trkpt lat="48.63642" lon="7.2636">
        <ele>653.5</ele>
        <time>2020-08-18T14:44:52Z</time>
      </trkpt>
      <trkpt lat="48.63639" lon="7.26353">
        <ele>654.1</ele>
        <time>2020-08-18T14:44:54Z</time>
      </trkpt>
      <trkpt lat="48.63636" lon="7.26346">
        <ele>654.7</ele>
        <time>2020-08-18T14:44:56Z</time>
      </trkpt>
      <trkpt lat="48.63634" lon="7.2634">
        <ele>654.2</ele>
        <time>2020-08-18T14:44:58Z</time>
      </trkpt>
      <trkpt lat="48.63631" lon="7.26331">
        <ele>653.3</ele>
        <time>2020-08-18T14:45:01Z</time>
      </trkpt>
      <trkpt lat="48.63628" lon="7.26323">
        <ele>652.3</ele>
        <time>2020-08-18T14:45:04Z</time>
      </trkpt>
      <trkpt lat="48.63626" lon="7.26317">
        <ele>651.1</ele>
        <time>2020-08-18T14:45:06Z</time>
      </trkpt>
      <trkpt lat="48.63624" lon="7.2631">
        <ele>650.1</ele>
        <time>2020-08-18T14:45:08Z</time>
      </trkpt>
      <trkpt lat="48.63622" lon="7.26302">
        <ele>649.8</ele>
        <time>2020-08-18T14:45:10Z</time>
      </trkpt>
      <trkpt lat="48.63619" lon="7.26295">
        <ele>649.9</ele>
        <time>2020-08-18T14:45:12Z</time>
      </trkpt>
      <trkpt lat="48.63618" lon="7.26287">
        <ele>649.6</ele>
        <time>2020-08-18T14:45:14Z</time>
      </trkpt>
      <trkpt lat="48.63617" lon="7.26279">
        <ele>649.2</ele>
        <time>2020-08-18T14:45:16Z</time>
      </trkpt>
      <trkpt lat="48.63616" lon="7.26269">
        <ele>648.2</ele>
        <time>2020-08-18T14:45:18Z</time>
      </trkpt>
      <trkpt lat="48.63614" lon="7.2626">
        <ele>647.3</ele>
        <time>2020-08-18T14:45:20Z</time>
      </trkpt>
      <trkpt lat="48.63613" lon="7.26251">
        <ele>646.3</ele>
        <time>2020-08-18T14:45:22Z</time>
      </trkpt>
      <trkpt lat="48.63611" lon="7.26244">
        <ele>645.4</ele>
        <time>2020-08-18T14:45:25Z</time>
      </trkpt>
      <trkpt lat="48.63608" lon="7.26238">
        <ele>643.5</ele>
        <time>2020-08-18T14:45:32Z</time>
      </trkpt>
      <trkpt lat="48.63607" lon="7.26229">
        <ele>644</ele>
        <time>2020-08-18T14:45:49Z</time>
      </trkpt>
      <trkpt lat="48.63605" lon="7.26221">
        <ele>644.3</ele>
        <time>2020-08-18T14:45:52Z</time>
      </trkpt>
      <trkpt lat="48.63604" lon="7.26213">
        <ele>645.7</ele>
        <time>2020-08-18T14:45:54Z</time>
      </trkpt>
      <trkpt lat="48.63602" lon="7.26207">
        <ele>646.4</ele>
        <time>2020-08-18T14:45:56Z</time>
      </trkpt>
      <trkpt lat="48.636" lon="7.262">
        <ele>646.8</ele>
        <time>2020-08-18T14:45:58Z</time>
      </trkpt>
      <trkpt lat="48.63598" lon="7.26192">
        <ele>647.8</ele>
        <time>2020-08-18T14:46:00Z</time>
      </trkpt>
      <trkpt lat="48.63598" lon="7.26184">
        <ele>648.2</ele>
        <time>2020-08-18T14:46:02Z</time>
      </trkpt>
      <trkpt lat="48.63597" lon="7.26176">
        <ele>649.2</ele>
        <time>2020-08-18T14:46:04Z</time>
      </trkpt>
      <trkpt lat="48.63597" lon="7.26168">
        <ele>648.3</ele>
        <time>2020-08-18T14:46:06Z</time>
      </trkpt>
      <trkpt lat="48.63597" lon="7.26161">
        <ele>647.8</ele>
        <time>2020-08-18T14:46:08Z</time>
      </trkpt>
      <trkpt lat="48.63597" lon="7.26154">
        <ele>646.8</ele>
        <time>2020-08-18T14:46:10Z</time>
      </trkpt>
      <trkpt lat="48.63596" lon="7.26146">
        <ele>646.2</ele>
        <time>2020-08-18T14:46:12Z</time>
      </trkpt>
      <trkpt lat="48.63596" lon="7.26138">
        <ele>645.9</ele>
        <time>2020-08-18T14:46:14Z</time>
      </trkpt>
      <trkpt lat="48.63597" lon="7.26129">
        <ele>646.4</ele>
        <time>2020-08-18T14:46:16Z</time>
      </trkpt>
      <trkpt lat="48.63597" lon="7.26122">
        <ele>646.9</ele>
        <time>2020-08-18T14:46:18Z</time>
      </trkpt>
      <trkpt lat="48.63596" lon="7.26115">
        <ele>648.2</ele>
        <time>2020-08-18T14:46:20Z</time>
      </trkpt>
      <trkpt lat="48.63595" lon="7.26108">
        <ele>649.8</ele>
        <time>2020-08-18T14:46:22Z</time>
      </trkpt>
      <trkpt lat="48.63594" lon="7.26101">
        <ele>651.1</ele>
        <time>2020-08-18T14:46:24Z</time>
      </trkpt>
      <trkpt lat="48.63592" lon="7.26094">
        <ele>652.3</ele>
        <time>2020-08-18T14:46:26Z</time>
      </trkpt>
      <trkpt lat="48.63591" lon="7.26087">
        <ele>653.4</ele>
        <time>2020-08-18T14:46:28Z</time>
      </trkpt>
      <trkpt lat="48.6359" lon="7.26079">
        <ele>653.6</ele>
        <time>2020-08-18T14:46:30Z</time>
      </trkpt>
      <trkpt lat="48.63589" lon="7.26072">
        <ele>653.6</ele>
        <time>2020-08-18T14:46:32Z</time>
      </trkpt>
      <trkpt lat="48.63588" lon="7.26062">
        <ele>654.4</ele>
        <time>2020-08-18T14:46:35Z</time>
      </trkpt>
      <trkpt lat="48.63587" lon="7.26056">
        <ele>655.5</ele>
        <time>2020-08-18T14:46:37Z</time>
      </trkpt>
      <trkpt lat="48.63584" lon="7.26048">
        <ele>642.2</ele>
        <time>2020-08-18T14:46:39Z</time>
      </trkpt>
      <trkpt lat="48.63582" lon="7.26039">
        <ele>643.5</ele>
        <time>2020-08-18T14:46:41Z</time>
      </trkpt>
      <trkpt lat="48.6358" lon="7.26031">
        <ele>644.5</ele>
        <time>2020-08-18T14:46:43Z</time>
      </trkpt>
      <trkpt lat="48.63578" lon="7.26024">
        <ele>646.5</ele>
        <time>2020-08-18T14:46:45Z</time>
      </trkpt>
      <trkpt lat="48.63577" lon="7.26017">
        <ele>649</ele>
        <time>2020-08-18T14:46:47Z</time>
      </trkpt>
      <trkpt lat="48.63575" lon="7.26009">
        <ele>652.3</ele>
        <time>2020-08-18T14:46:49Z</time>
      </trkpt>
      <trkpt lat="48.63573" lon="7.26001">
        <ele>655.3</ele>
        <time>2020-08-18T14:46:51Z</time>
      </trkpt>
      <trkpt lat="48.6357" lon="7.25993">
        <ele>657.9</ele>
        <time>2020-08-18T14:46:53Z</time>
      </trkpt>
      <trkpt lat="48.63568" lon="7.25985">
        <ele>659.9</ele>
        <time>2020-08-18T14:46:55Z</time>
      </trkpt>
      <trkpt lat="48.63565" lon="7.25979">
        <ele>660.8</ele>
        <time>2020-08-18T14:46:57Z</time>
      </trkpt>
      <trkpt lat="48.63561" lon="7.25976">
        <ele>661.8</ele>
        <time>2020-08-18T14:47:00Z</time>
      </trkpt>
      <trkpt lat="48.63555" lon="7.25974">
        <ele>662.2</ele>
        <time>2020-08-18T14:47:03Z</time>
      </trkpt>
      <trkpt lat="48.63549" lon="7.25969">
        <ele>662.4</ele>
        <time>2020-08-18T14:47:06Z</time>
      </trkpt>
      <trkpt lat="48.63544" lon="7.25964">
        <ele>662.3</ele>
        <time>2020-08-18T14:47:08Z</time>
      </trkpt>
      <trkpt lat="48.6354" lon="7.25959">
        <ele>662</ele>
        <time>2020-08-18T14:47:11Z</time>
      </trkpt>
      <trkpt lat="48.63535" lon="7.25959">
        <ele>664.1</ele>
        <time>2020-08-18T14:47:39Z</time>
      </trkpt>
      <trkpt lat="48.63531" lon="7.25961">
        <ele>664</ele>
        <time>2020-08-18T14:47:42Z</time>
      </trkpt>
      <trkpt lat="48.63526" lon="7.25963">
        <ele>663.7</ele>
        <time>2020-08-18T14:47:46Z</time>
      </trkpt>
      <trkpt lat="48.6353" lon="7.25959">
        <ele>666.3</ele>
        <time>2020-08-18T14:48:05Z</time>
      </trkpt>
      <trkpt lat="48.63536" lon="7.25955">
        <ele>665.3</ele>
        <time>2020-08-18T14:48:09Z</time>
      </trkpt>
      <trkpt lat="48.63537" lon="7.25947">
        <ele>664.4</ele>
        <time>2020-08-18T14:48:11Z</time>
      </trkpt>
      <trkpt lat="48.63539" lon="7.25939">
        <ele>662.9</ele>
        <time>2020-08-18T14:48:13Z</time>
      </trkpt>
      <trkpt lat="48.63541" lon="7.25933">
        <ele>661</ele>
        <time>2020-08-18T14:48:19Z</time>
      </trkpt>
      <trkpt lat="48.63544" lon="7.25925">
        <ele>659.1</ele>
        <time>2020-08-18T14:48:23Z</time>
      </trkpt>
      <trkpt lat="48.63545" lon="7.25916">
        <ele>658.5</ele>
        <time>2020-08-18T14:48:25Z</time>
      </trkpt>
      <trkpt lat="48.63548" lon="7.25904">
        <ele>658.1</ele>
        <time>2020-08-18T14:48:27Z</time>
      </trkpt>
      <trkpt lat="48.63551" lon="7.25894">
        <ele>658.1</ele>
        <time>2020-08-18T14:48:29Z</time>
      </trkpt>
      <trkpt lat="48.63557" lon="7.25885">
        <ele>657.5</ele>
        <time>2020-08-18T14:48:31Z</time>
      </trkpt>
      <trkpt lat="48.63564" lon="7.25874">
        <ele>656.7</ele>
        <time>2020-08-18T14:48:33Z</time>
      </trkpt>
      <trkpt lat="48.6357" lon="7.25864">
        <ele>654.6</ele>
        <time>2020-08-18T14:48:35Z</time>
      </trkpt>
      <trkpt lat="48.63577" lon="7.25854">
        <ele>653.4</ele>
        <time>2020-08-18T14:48:37Z</time>
      </trkpt>
      <trkpt lat="48.63584" lon="7.25842">
        <ele>652.7</ele>
        <time>2020-08-18T14:48:39Z</time>
      </trkpt>
      <trkpt lat="48.63592" lon="7.25832">
        <ele>651.5</ele>
        <time>2020-08-18T14:48:41Z</time>
      </trkpt>
      <trkpt lat="48.636" lon="7.25827">
        <ele>650.1</ele>
        <time>2020-08-18T14:48:43Z</time>
      </trkpt>
      <trkpt lat="48.63605" lon="7.25822">
        <ele>649.2</ele>
        <time>2020-08-18T14:48:45Z</time>
      </trkpt>
      <trkpt lat="48.63609" lon="7.25815">
        <ele>649</ele>
        <time>2020-08-18T14:48:47Z</time>
      </trkpt>
      <trkpt lat="48.63613" lon="7.25805">
        <ele>652.7</ele>
        <time>2020-08-18T14:48:49Z</time>
      </trkpt>
      <trkpt lat="48.63616" lon="7.25795">
        <ele>653.7</ele>
        <time>2020-08-18T14:48:51Z</time>
      </trkpt>
      <trkpt lat="48.63618" lon="7.25786">
        <ele>654.2</ele>
        <time>2020-08-18T14:48:53Z</time>
      </trkpt>
      <trkpt lat="48.6362" lon="7.25776">
        <ele>654.9</ele>
        <time>2020-08-18T14:48:56Z</time>
      </trkpt>
      <trkpt lat="48.6362" lon="7.25769">
        <ele>655</ele>
        <time>2020-08-18T14:49:03Z</time>
      </trkpt>
      <trkpt lat="48.63622" lon="7.2576">
        <ele>654.8</ele>
        <time>2020-08-18T14:49:06Z</time>
      </trkpt>
      <trkpt lat="48.63623" lon="7.25753">
        <ele>654.8</ele>
        <time>2020-08-18T14:49:08Z</time>
      </trkpt>
      <trkpt lat="48.63624" lon="7.25746">
        <ele>655.3</ele>
        <time>2020-08-18T14:49:10Z</time>
      </trkpt>
      <trkpt lat="48.63626" lon="7.25737">
        <ele>655.6</ele>
        <time>2020-08-18T14:49:12Z</time>
      </trkpt>
      <trkpt lat="48.63628" lon="7.25727">
        <ele>655.3</ele>
        <time>2020-08-18T14:49:14Z</time>
      </trkpt>
      <trkpt lat="48.63631" lon="7.25716">
        <ele>656.1</ele>
        <time>2020-08-18T14:49:17Z</time>
      </trkpt>
      <trkpt lat="48.63633" lon="7.25704">
        <ele>656.8</ele>
        <time>2020-08-18T14:49:19Z</time>
      </trkpt>
      <trkpt lat="48.63637" lon="7.25686">
        <ele>657.4</ele>
        <time>2020-08-18T14:49:22Z</time>
      </trkpt>
      <trkpt lat="48.6364" lon="7.25674">
        <ele>657.8</ele>
        <time>2020-08-18T14:49:24Z</time>
      </trkpt>
      <trkpt lat="48.63643" lon="7.25662">
        <ele>658</ele>
        <time>2020-08-18T14:49:25Z</time>
      </trkpt>
      <trkpt lat="48.63646" lon="7.25651">
        <ele>658</ele>
        <time>2020-08-18T14:49:27Z</time>
      </trkpt>
      <trkpt lat="48.63651" lon="7.25641">
        <ele>658</ele>
        <time>2020-08-18T14:49:29Z</time>
      </trkpt>
      <trkpt lat="48.63654" lon="7.25631">
        <ele>657.9</ele>
        <time>2020-08-18T14:49:32Z</time>
      </trkpt>
      <trkpt lat="48.63659" lon="7.25617">
        <ele>657.4</ele>
        <time>2020-08-18T14:49:34Z</time>
      </trkpt>
      <trkpt lat="48.63662" lon="7.25609">
        <ele>656.9</ele>
        <time>2020-08-18T14:49:36Z</time>
      </trkpt>
      <trkpt lat="48.63665" lon="7.25599">
        <ele>655.7</ele>
        <time>2020-08-18T14:49:38Z</time>
      </trkpt>
      <trkpt lat="48.63668" lon="7.25589">
        <ele>654.6</ele>
        <time>2020-08-18T14:49:40Z</time>
      </trkpt>
      <trkpt lat="48.6367" lon="7.25579">
        <ele>653.9</ele>
        <time>2020-08-18T14:49:42Z</time>
      </trkpt>
      <trkpt lat="48.63675" lon="7.25567">
        <ele>653.2</ele>
        <time>2020-08-18T14:49:45Z</time>
      </trkpt>
      <trkpt lat="48.63677" lon="7.2556">
        <ele>651.6</ele>
        <time>2020-08-18T14:49:49Z</time>
      </trkpt>
      <trkpt lat="48.63678" lon="7.25553">
        <ele>647.2</ele>
        <time>2020-08-18T14:49:59Z</time>
      </trkpt>
      <trkpt lat="48.6368" lon="7.25544">
        <ele>646.6</ele>
        <time>2020-08-18T14:50:06Z</time>
      </trkpt>
      <trkpt lat="48.63682" lon="7.25536">
        <ele>646.4</ele>
        <time>2020-08-18T14:50:08Z</time>
      </trkpt>
      <trkpt lat="48.63686" lon="7.25526">
        <ele>644.9</ele>
        <time>2020-08-18T14:50:10Z</time>
      </trkpt>
      <trkpt lat="48.6369" lon="7.25518">
        <ele>644.3</ele>
        <time>2020-08-18T14:50:12Z</time>
      </trkpt>
      <trkpt lat="48.63695" lon="7.2551">
        <ele>644.2</ele>
        <time>2020-08-18T14:50:14Z</time>
      </trkpt>
      <trkpt lat="48.63698" lon="7.25499">
        <ele>643.7</ele>
        <time>2020-08-18T14:50:16Z</time>
      </trkpt>
      <trkpt lat="48.63702" lon="7.25488">
        <ele>643.1</ele>
        <time>2020-08-18T14:50:18Z</time>
      </trkpt>
      <trkpt lat="48.6371" lon="7.25467">
        <ele>642</ele>
        <time>2020-08-18T14:50:21Z</time>
      </trkpt>
      <trkpt lat="48.63715" lon="7.25444">
        <ele>642.6</ele>
        <time>2020-08-18T14:50:24Z</time>
      </trkpt>
      <trkpt lat="48.63717" lon="7.25429">
        <ele>643.9</ele>
        <time>2020-08-18T14:50:26Z</time>
      </trkpt>
      <trkpt lat="48.63723" lon="7.2541">
        <ele>646.1</ele>
        <time>2020-08-18T14:50:29Z</time>
      </trkpt>
      <trkpt lat="48.63727" lon="7.25398">
        <ele>645.2</ele>
        <time>2020-08-18T14:50:31Z</time>
      </trkpt>
      <trkpt lat="48.63735" lon="7.25385">
        <ele>644.9</ele>
        <time>2020-08-18T14:50:34Z</time>
      </trkpt>
      <trkpt lat="48.63739" lon="7.25375">
        <ele>644.5</ele>
        <time>2020-08-18T14:50:37Z</time>
      </trkpt>
      <trkpt lat="48.63741" lon="7.25363">
        <ele>643.6</ele>
        <time>2020-08-18T14:50:40Z</time>
      </trkpt>
      <trkpt lat="48.63745" lon="7.25351">
        <ele>643.5</ele>
        <time>2020-08-18T14:50:42Z</time>
      </trkpt>
      <trkpt lat="48.63749" lon="7.25336">
        <ele>642.4</ele>
        <time>2020-08-18T14:50:44Z</time>
      </trkpt>
      <trkpt lat="48.63753" lon="7.25321">
        <ele>641.1</ele>
        <time>2020-08-18T14:50:46Z</time>
      </trkpt>
      <trkpt lat="48.63758" lon="7.25306">
        <ele>640.2</ele>
        <time>2020-08-18T14:50:48Z</time>
      </trkpt>
      <trkpt lat="48.63762" lon="7.25291">
        <ele>639</ele>
        <time>2020-08-18T14:50:50Z</time>
      </trkpt>
      <trkpt lat="48.63767" lon="7.25277">
        <ele>638.2</ele>
        <time>2020-08-18T14:50:52Z</time>
      </trkpt>
      <trkpt lat="48.63773" lon="7.25262">
        <ele>637.3</ele>
        <time>2020-08-18T14:50:54Z</time>
      </trkpt>
      <trkpt lat="48.63778" lon="7.25247">
        <ele>636.8</ele>
        <time>2020-08-18T14:50:56Z</time>
      </trkpt>
      <trkpt lat="48.63785" lon="7.25222">
        <ele>635.9</ele>
        <time>2020-08-18T14:50:59Z</time>
      </trkpt>
      <trkpt lat="48.63789" lon="7.25205">
        <ele>635.4</ele>
        <time>2020-08-18T14:51:01Z</time>
      </trkpt>
      <trkpt lat="48.63795" lon="7.25188">
        <ele>634.2</ele>
        <time>2020-08-18T14:51:03Z</time>
      </trkpt>
      <trkpt lat="48.63802" lon="7.25174">
        <ele>633</ele>
        <time>2020-08-18T14:51:05Z</time>
      </trkpt>
      <trkpt lat="48.63808" lon="7.25158">
        <ele>631.9</ele>
        <time>2020-08-18T14:51:07Z</time>
      </trkpt>
      <trkpt lat="48.63815" lon="7.25145">
        <ele>630.4</ele>
        <time>2020-08-18T14:51:09Z</time>
      </trkpt>
      <trkpt lat="48.63821" lon="7.25131">
        <ele>629.4</ele>
        <time>2020-08-18T14:51:11Z</time>
      </trkpt>
      <trkpt lat="48.6383" lon="7.25118">
        <ele>627.9</ele>
        <time>2020-08-18T14:51:13Z</time>
      </trkpt>
      <trkpt lat="48.63839" lon="7.25107">
        <ele>626.1</ele>
        <time>2020-08-18T14:51:15Z</time>
      </trkpt>
      <trkpt lat="48.63851" lon="7.25089">
        <ele>624.8</ele>
        <time>2020-08-18T14:51:17Z</time>
      </trkpt>
      <trkpt lat="48.63857" lon="7.25078">
        <ele>624.3</ele>
        <time>2020-08-18T14:51:20Z</time>
      </trkpt>
      <trkpt lat="48.63869" lon="7.25061">
        <ele>623.5</ele>
        <time>2020-08-18T14:51:22Z</time>
      </trkpt>
      <trkpt lat="48.63881" lon="7.25045">
        <ele>623</ele>
        <time>2020-08-18T14:51:25Z</time>
      </trkpt>
      <trkpt lat="48.63889" lon="7.25031">
        <ele>622.9</ele>
        <time>2020-08-18T14:51:27Z</time>
      </trkpt>
      <trkpt lat="48.63897" lon="7.25017">
        <ele>622.4</ele>
        <time>2020-08-18T14:51:29Z</time>
      </trkpt>
      <trkpt lat="48.63905" lon="7.25004">
        <ele>622.5</ele>
        <time>2020-08-18T14:51:31Z</time>
      </trkpt>
      <trkpt lat="48.63912" lon="7.24993">
        <ele>622.8</ele>
        <time>2020-08-18T14:51:33Z</time>
      </trkpt>
      <trkpt lat="48.63919" lon="7.24982">
        <ele>623.5</ele>
        <time>2020-08-18T14:51:35Z</time>
      </trkpt>
      <trkpt lat="48.63925" lon="7.2497">
        <ele>624</ele>
        <time>2020-08-18T14:51:37Z</time>
      </trkpt>
      <trkpt lat="48.63928" lon="7.24957">
        <ele>624.3</ele>
        <time>2020-08-18T14:51:39Z</time>
      </trkpt>
      <trkpt lat="48.63931" lon="7.24942">
        <ele>625.2</ele>
        <time>2020-08-18T14:51:41Z</time>
      </trkpt>
      <trkpt lat="48.63933" lon="7.24926">
        <ele>625.5</ele>
        <time>2020-08-18T14:51:43Z</time>
      </trkpt>
      <trkpt lat="48.63938" lon="7.24911">
        <ele>625.3</ele>
        <time>2020-08-18T14:51:45Z</time>
      </trkpt>
      <trkpt lat="48.63943" lon="7.24889">
        <ele>624.7</ele>
        <time>2020-08-18T14:51:48Z</time>
      </trkpt>
      <trkpt lat="48.63945" lon="7.24872">
        <ele>624.8</ele>
        <time>2020-08-18T14:51:50Z</time>
      </trkpt>
      <trkpt lat="48.63945" lon="7.24857">
        <ele>625.2</ele>
        <time>2020-08-18T14:51:52Z</time>
      </trkpt>
      <trkpt lat="48.63945" lon="7.24849">
        <ele>625.4</ele>
        <time>2020-08-18T14:51:54Z</time>
      </trkpt>
      <trkpt lat="48.63947" lon="7.24842">
        <ele>625.5</ele>
        <time>2020-08-18T14:51:59Z</time>
      </trkpt>
      <trkpt lat="48.6395" lon="7.24836">
        <ele>628</ele>
        <time>2020-08-18T14:52:19Z</time>
      </trkpt>
      <trkpt lat="48.63955" lon="7.2483">
        <ele>626.9</ele>
        <time>2020-08-18T14:52:22Z</time>
      </trkpt>
      <trkpt lat="48.6396" lon="7.24821">
        <ele>625.6</ele>
        <time>2020-08-18T14:52:24Z</time>
      </trkpt>
      <trkpt lat="48.63966" lon="7.24814">
        <ele>624.4</ele>
        <time>2020-08-18T14:52:26Z</time>
      </trkpt>
      <trkpt lat="48.63972" lon="7.24807">
        <ele>623.4</ele>
        <time>2020-08-18T14:52:28Z</time>
      </trkpt>
      <trkpt lat="48.63978" lon="7.248">
        <ele>623</ele>
        <time>2020-08-18T14:52:30Z</time>
      </trkpt>
      <trkpt lat="48.63987" lon="7.24791">
        <ele>622.6</ele>
        <time>2020-08-18T14:52:33Z</time>
      </trkpt>
      <trkpt lat="48.63994" lon="7.24782">
        <ele>622.2</ele>
        <time>2020-08-18T14:52:36Z</time>
      </trkpt>
      <trkpt lat="48.64001" lon="7.24778">
        <ele>622.2</ele>
        <time>2020-08-18T14:52:38Z</time>
      </trkpt>
      <trkpt lat="48.64008" lon="7.24773">
        <ele>621.8</ele>
        <time>2020-08-18T14:52:40Z</time>
      </trkpt>
      <trkpt lat="48.64014" lon="7.2477">
        <ele>621.2</ele>
        <time>2020-08-18T14:52:42Z</time>
      </trkpt>
      <trkpt lat="48.64021" lon="7.24765">
        <ele>620.2</ele>
        <time>2020-08-18T14:52:44Z</time>
      </trkpt>
      <trkpt lat="48.64029" lon="7.24759">
        <ele>620.4</ele>
        <time>2020-08-18T14:52:46Z</time>
      </trkpt>
      <trkpt lat="48.64039" lon="7.2475">
        <ele>620.8</ele>
        <time>2020-08-18T14:52:48Z</time>
      </trkpt>
      <trkpt lat="48.64048" lon="7.24743">
        <ele>620.7</ele>
        <time>2020-08-18T14:52:50Z</time>
      </trkpt>
      <trkpt lat="48.64057" lon="7.24739">
        <ele>621.5</ele>
        <time>2020-08-18T14:52:52Z</time>
      </trkpt>
      <trkpt lat="48.64066" lon="7.24736">
        <ele>621.4</ele>
        <time>2020-08-18T14:52:54Z</time>
      </trkpt>
      <trkpt lat="48.64074" lon="7.24735">
        <ele>621.5</ele>
        <time>2020-08-18T14:52:56Z</time>
      </trkpt>
      <trkpt lat="48.64083" lon="7.24737">
        <ele>621.6</ele>
        <time>2020-08-18T14:52:58Z</time>
      </trkpt>
      <trkpt lat="48.64091" lon="7.2474">
        <ele>621.2</ele>
        <time>2020-08-18T14:53:00Z</time>
      </trkpt>
      <trkpt lat="48.64106" lon="7.24745">
        <ele>620.8</ele>
        <time>2020-08-18T14:53:03Z</time>
      </trkpt>
      <trkpt lat="48.64116" lon="7.2475">
        <ele>620.1</ele>
        <time>2020-08-18T14:53:05Z</time>
      </trkpt>
      <trkpt lat="48.64126" lon="7.24755">
        <ele>619.1</ele>
        <time>2020-08-18T14:53:07Z</time>
      </trkpt>
      <trkpt lat="48.64138" lon="7.24761">
        <ele>618.7</ele>
        <time>2020-08-18T14:53:09Z</time>
      </trkpt>
      <trkpt lat="48.64152" lon="7.24771">
        <ele>617.8</ele>
        <time>2020-08-18T14:53:12Z</time>
      </trkpt>
      <trkpt lat="48.64158" lon="7.24778">
        <ele>616.7</ele>
        <time>2020-08-18T14:53:14Z</time>
      </trkpt>
      <trkpt lat="48.64162" lon="7.24784">
        <ele>616.1</ele>
        <time>2020-08-18T14:53:16Z</time>
      </trkpt>
      <trkpt lat="48.64165" lon="7.2479">
        <ele>616.1</ele>
        <time>2020-08-18T14:53:18Z</time>
      </trkpt>
      <trkpt lat="48.64169" lon="7.24795">
        <ele>616.2</ele>
        <time>2020-08-18T14:53:20Z</time>
      </trkpt>
      <trkpt lat="48.64173" lon="7.248">
        <ele>615.6</ele>
        <time>2020-08-18T14:53:22Z</time>
      </trkpt>
      <trkpt lat="48.64177" lon="7.24808">
        <ele>615.5</ele>
        <time>2020-08-18T14:53:25Z</time>
      </trkpt>
      <trkpt lat="48.64181" lon="7.24813">
        <ele>615.2</ele>
        <time>2020-08-18T14:53:27Z</time>
      </trkpt>
      <trkpt lat="48.64185" lon="7.24817">
        <ele>615.8</ele>
        <time>2020-08-18T14:53:29Z</time>
      </trkpt>
      <trkpt lat="48.6419" lon="7.2482">
        <ele>615.7</ele>
        <time>2020-08-18T14:53:31Z</time>
      </trkpt>
      <trkpt lat="48.64194" lon="7.24825">
        <ele>614.7</ele>
        <time>2020-08-18T14:53:33Z</time>
      </trkpt>
      <trkpt lat="48.64203" lon="7.24833">
        <ele>614.6</ele>
        <time>2020-08-18T14:53:36Z</time>
      </trkpt>
      <trkpt lat="48.64209" lon="7.24839">
        <ele>613.8</ele>
        <time>2020-08-18T14:53:38Z</time>
      </trkpt>
      <trkpt lat="48.64215" lon="7.24846">
        <ele>613.7</ele>
        <time>2020-08-18T14:53:40Z</time>
      </trkpt>
      <trkpt lat="48.6422" lon="7.24854">
        <ele>612.8</ele>
        <time>2020-08-18T14:53:42Z</time>
      </trkpt>
      <trkpt lat="48.64224" lon="7.24861">
        <ele>612</ele>
        <time>2020-08-18T14:53:44Z</time>
      </trkpt>
      <trkpt lat="48.64227" lon="7.24868">
        <ele>610.8</ele>
        <time>2020-08-18T14:53:46Z</time>
      </trkpt>
      <trkpt lat="48.64231" lon="7.24875">
        <ele>610</ele>
        <time>2020-08-18T14:53:48Z</time>
      </trkpt>
      <trkpt lat="48.64235" lon="7.24883">
        <ele>609.2</ele>
        <time>2020-08-18T14:53:50Z</time>
      </trkpt>
      <trkpt lat="48.64239" lon="7.2489">
        <ele>608.5</ele>
        <time>2020-08-18T14:53:52Z</time>
      </trkpt>
      <trkpt lat="48.64241" lon="7.24898">
        <ele>607.6</ele>
        <time>2020-08-18T14:53:54Z</time>
      </trkpt>
      <trkpt lat="48.64244" lon="7.24906">
        <ele>606.3</ele>
        <time>2020-08-18T14:53:56Z</time>
      </trkpt>
      <trkpt lat="48.64247" lon="7.24914">
        <ele>605</ele>
        <time>2020-08-18T14:53:58Z</time>
      </trkpt>
      <trkpt lat="48.64251" lon="7.24923">
        <ele>603.8</ele>
        <time>2020-08-18T14:54:00Z</time>
      </trkpt>
      <trkpt lat="48.64256" lon="7.24933">
        <ele>603</ele>
        <time>2020-08-18T14:54:02Z</time>
      </trkpt>
      <trkpt lat="48.64263" lon="7.24949">
        <ele>601</ele>
        <time>2020-08-18T14:54:05Z</time>
      </trkpt>
      <trkpt lat="48.64267" lon="7.2496">
        <ele>599.4</ele>
        <time>2020-08-18T14:54:07Z</time>
      </trkpt>
      <trkpt lat="48.64271" lon="7.24973">
        <ele>598.5</ele>
        <time>2020-08-18T14:54:09Z</time>
      </trkpt>
      <trkpt lat="48.64276" lon="7.24988">
        <ele>596.8</ele>
        <time>2020-08-18T14:54:11Z</time>
      </trkpt>
      <trkpt lat="48.64281" lon="7.25002">
        <ele>595.7</ele>
        <time>2020-08-18T14:54:13Z</time>
      </trkpt>
      <trkpt lat="48.64285" lon="7.25014">
        <ele>594.7</ele>
        <time>2020-08-18T14:54:15Z</time>
      </trkpt>
      <trkpt lat="48.64287" lon="7.25021">
        <ele>593.3</ele>
        <time>2020-08-18T14:54:18Z</time>
      </trkpt>
      <trkpt lat="48.6429" lon="7.25025">
        <ele>593</ele>
        <time>2020-08-18T14:54:32Z</time>
      </trkpt>
      <trkpt lat="48.64294" lon="7.25032">
        <ele>592.7</ele>
        <time>2020-08-18T14:54:35Z</time>
      </trkpt>
      <trkpt lat="48.643" lon="7.25039">
        <ele>592.4</ele>
        <time>2020-08-18T14:54:38Z</time>
      </trkpt>
      <trkpt lat="48.64305" lon="7.25042">
        <ele>591.9</ele>
        <time>2020-08-18T14:54:40Z</time>
      </trkpt>
      <trkpt lat="48.64309" lon="7.25041">
        <ele>591.8</ele>
        <time>2020-08-18T14:54:45Z</time>
      </trkpt>
      <trkpt lat="48.64315" lon="7.2504">
        <ele>590.5</ele>
        <time>2020-08-18T14:54:51Z</time>
      </trkpt>
      <trkpt lat="48.6432" lon="7.25033">
        <ele>590.9</ele>
        <time>2020-08-18T14:54:54Z</time>
      </trkpt>
      <trkpt lat="48.64325" lon="7.25024">
        <ele>591.2</ele>
        <time>2020-08-18T14:54:57Z</time>
      </trkpt>
      <trkpt lat="48.64327" lon="7.25015">
        <ele>591.8</ele>
        <time>2020-08-18T14:55:00Z</time>
      </trkpt>
      <trkpt lat="48.64329" lon="7.25008">
        <ele>592</ele>
        <time>2020-08-18T14:55:02Z</time>
      </trkpt>
      <trkpt lat="48.64332" lon="7.25001">
        <ele>592.2</ele>
        <time>2020-08-18T14:55:04Z</time>
      </trkpt>
      <trkpt lat="48.64336" lon="7.24994">
        <ele>592.2</ele>
        <time>2020-08-18T14:55:06Z</time>
      </trkpt>
      <trkpt lat="48.64339" lon="7.24987">
        <ele>592</ele>
        <time>2020-08-18T14:55:08Z</time>
      </trkpt>
      <trkpt lat="48.64342" lon="7.24981">
        <ele>592.5</ele>
        <time>2020-08-18T14:55:10Z</time>
      </trkpt>
      <trkpt lat="48.64345" lon="7.24973">
        <ele>592.8</ele>
        <time>2020-08-18T14:55:12Z</time>
      </trkpt>
      <trkpt lat="48.64347" lon="7.24966">
        <ele>593.3</ele>
        <time>2020-08-18T14:55:14Z</time>
      </trkpt>
      <trkpt lat="48.6435" lon="7.2496">
        <ele>593.6</ele>
        <time>2020-08-18T14:55:16Z</time>
      </trkpt>
      <trkpt lat="48.64353" lon="7.24954">
        <ele>594.6</ele>
        <time>2020-08-18T14:55:18Z</time>
      </trkpt>
      <trkpt lat="48.64356" lon="7.24949">
        <ele>595.1</ele>
        <time>2020-08-18T14:55:20Z</time>
      </trkpt>
      <trkpt lat="48.64357" lon="7.24942">
        <ele>597.5</ele>
        <time>2020-08-18T14:55:24Z</time>
      </trkpt>
      <trkpt lat="48.64361" lon="7.24935">
        <ele>599.3</ele>
        <time>2020-08-18T14:55:29Z</time>
      </trkpt>
      <trkpt lat="48.64365" lon="7.24932">
        <ele>599.1</ele>
        <time>2020-08-18T14:55:31Z</time>
      </trkpt>
      <trkpt lat="48.6437" lon="7.24927">
        <ele>599.1</ele>
        <time>2020-08-18T14:55:33Z</time>
      </trkpt>
      <trkpt lat="48.64377" lon="7.24923">
        <ele>598.3</ele>
        <time>2020-08-18T14:55:35Z</time>
      </trkpt>
      <trkpt lat="48.64385" lon="7.24919">
        <ele>597.6</ele>
        <time>2020-08-18T14:55:37Z</time>
      </trkpt>
      <trkpt lat="48.64393" lon="7.24915">
        <ele>596.2</ele>
        <time>2020-08-18T14:55:39Z</time>
      </trkpt>
      <trkpt lat="48.64403" lon="7.24911">
        <ele>594.8</ele>
        <time>2020-08-18T14:55:42Z</time>
      </trkpt>
      <trkpt lat="48.64408" lon="7.24907">
        <ele>594.9</ele>
        <time>2020-08-18T14:55:44Z</time>
      </trkpt>
      <trkpt lat="48.64416" lon="7.24898">
        <ele>594</ele>
        <time>2020-08-18T14:55:46Z</time>
      </trkpt>
      <trkpt lat="48.64432" lon="7.24887">
        <ele>593</ele>
        <time>2020-08-18T14:55:49Z</time>
      </trkpt>
      <trkpt lat="48.64442" lon="7.2488">
        <ele>592.7</ele>
        <time>2020-08-18T14:55:51Z</time>
      </trkpt>
      <trkpt lat="48.64453" lon="7.24875">
        <ele>593</ele>
        <time>2020-08-18T14:55:54Z</time>
      </trkpt>
      <trkpt lat="48.64458" lon="7.24874">
        <ele>592.6</ele>
        <time>2020-08-18T14:55:56Z</time>
      </trkpt>
      <trkpt lat="48.64463" lon="7.24872">
        <ele>591.5</ele>
        <time>2020-08-18T14:55:59Z</time>
      </trkpt>
      <trkpt lat="48.64474" lon="7.24871">
        <ele>589.1</ele>
        <time>2020-08-18T14:56:02Z</time>
      </trkpt>
      <trkpt lat="48.64483" lon="7.24868">
        <ele>588.3</ele>
        <time>2020-08-18T14:56:04Z</time>
      </trkpt>
      <trkpt lat="48.64492" lon="7.24862">
        <ele>587.8</ele>
        <time>2020-08-18T14:56:06Z</time>
      </trkpt>
      <trkpt lat="48.64501" lon="7.24856">
        <ele>586.8</ele>
        <time>2020-08-18T14:56:08Z</time>
      </trkpt>
      <trkpt lat="48.6451" lon="7.24851">
        <ele>586.2</ele>
        <time>2020-08-18T14:56:10Z</time>
      </trkpt>
      <trkpt lat="48.64517" lon="7.24848">
        <ele>583.8</ele>
        <time>2020-08-18T14:56:12Z</time>
      </trkpt>
      <trkpt lat="48.64528" lon="7.24845">
        <ele>581.4</ele>
        <time>2020-08-18T14:56:14Z</time>
      </trkpt>
      <trkpt lat="48.64541" lon="7.24842">
        <ele>579.6</ele>
        <time>2020-08-18T14:56:16Z</time>
      </trkpt>
      <trkpt lat="48.64556" lon="7.24842">
        <ele>577.7</ele>
        <time>2020-08-18T14:56:18Z</time>
      </trkpt>
      <trkpt lat="48.6457" lon="7.2484">
        <ele>576.6</ele>
        <time>2020-08-18T14:56:20Z</time>
      </trkpt>
      <trkpt lat="48.64579" lon="7.24837">
        <ele>576.1</ele>
        <time>2020-08-18T14:56:22Z</time>
      </trkpt>
      <trkpt lat="48.64584" lon="7.24835">
        <ele>576.3</ele>
        <time>2020-08-18T14:56:24Z</time>
      </trkpt>
      <trkpt lat="48.64589" lon="7.24832">
        <ele>577.9</ele>
        <time>2020-08-18T14:56:28Z</time>
      </trkpt>
      <trkpt lat="48.64592" lon="7.24826">
        <ele>582</ele>
        <time>2020-08-18T14:56:35Z</time>
      </trkpt>
      <trkpt lat="48.64598" lon="7.24825">
        <ele>582.6</ele>
        <time>2020-08-18T14:56:37Z</time>
      </trkpt>
      <trkpt lat="48.64606" lon="7.24825">
        <ele>583.1</ele>
        <time>2020-08-18T14:56:39Z</time>
      </trkpt>
      <trkpt lat="48.64618" lon="7.24826">
        <ele>583.2</ele>
        <time>2020-08-18T14:56:42Z</time>
      </trkpt>
      <trkpt lat="48.64627" lon="7.24828">
        <ele>583.2</ele>
        <time>2020-08-18T14:56:44Z</time>
      </trkpt>
      <trkpt lat="48.64636" lon="7.2483">
        <ele>583</ele>
        <time>2020-08-18T14:56:46Z</time>
      </trkpt>
      <trkpt lat="48.64642" lon="7.24833">
        <ele>583.5</ele>
        <time>2020-08-18T14:56:48Z</time>
      </trkpt>
      <trkpt lat="48.64648" lon="7.24835">
        <ele>584.3</ele>
        <time>2020-08-18T14:56:51Z</time>
      </trkpt>
      <trkpt lat="48.64652" lon="7.24838">
        <ele>583.7</ele>
        <time>2020-08-18T14:56:58Z</time>
      </trkpt>
      <trkpt lat="48.64657" lon="7.24844">
        <ele>582.9</ele>
        <time>2020-08-18T14:57:02Z</time>
      </trkpt>
      <trkpt lat="48.64661" lon="7.24848">
        <ele>582.4</ele>
        <time>2020-08-18T14:57:04Z</time>
      </trkpt>
      <trkpt lat="48.64666" lon="7.24853">
        <ele>582.1</ele>
        <time>2020-08-18T14:57:06Z</time>
      </trkpt>
      <trkpt lat="48.64671" lon="7.24857">
        <ele>582.2</ele>
        <time>2020-08-18T14:57:08Z</time>
      </trkpt>
      <trkpt lat="48.64676" lon="7.24859">
        <ele>581.9</ele>
        <time>2020-08-18T14:57:11Z</time>
      </trkpt>
      <trkpt lat="48.6468" lon="7.2486">
        <ele>580.5</ele>
        <time>2020-08-18T14:57:22Z</time>
      </trkpt>
      <trkpt lat="48.64684" lon="7.24866">
        <ele>579.5</ele>
        <time>2020-08-18T14:57:24Z</time>
      </trkpt>
      <trkpt lat="48.64688" lon="7.24873">
        <ele>578.9</ele>
        <time>2020-08-18T14:57:26Z</time>
      </trkpt>
      <trkpt lat="48.64692" lon="7.2488">
        <ele>578.6</ele>
        <time>2020-08-18T14:57:28Z</time>
      </trkpt>
      <trkpt lat="48.64697" lon="7.24889">
        <ele>578</ele>
        <time>2020-08-18T14:57:30Z</time>
      </trkpt>
      <trkpt lat="48.647" lon="7.24898">
        <ele>577.6</ele>
        <time>2020-08-18T14:57:32Z</time>
      </trkpt>
      <trkpt lat="48.64702" lon="7.24905">
        <ele>577.4</ele>
        <time>2020-08-18T14:57:34Z</time>
      </trkpt>
      <trkpt lat="48.64706" lon="7.24911">
        <ele>577.4</ele>
        <time>2020-08-18T14:57:36Z</time>
      </trkpt>
      <trkpt lat="48.64713" lon="7.24917">
        <ele>575.5</ele>
        <time>2020-08-18T14:57:38Z</time>
      </trkpt>
      <trkpt lat="48.6472" lon="7.24923">
        <ele>574.6</ele>
        <time>2020-08-18T14:57:40Z</time>
      </trkpt>
      <trkpt lat="48.64725" lon="7.24927">
        <ele>573.9</ele>
        <time>2020-08-18T14:57:42Z</time>
      </trkpt>
      <trkpt lat="48.6473" lon="7.24929">
        <ele>572.7</ele>
        <time>2020-08-18T14:57:45Z</time>
      </trkpt>
      <trkpt lat="48.64735" lon="7.24926">
        <ele>571.4</ele>
        <time>2020-08-18T14:57:50Z</time>
      </trkpt>
      <trkpt lat="48.64739" lon="7.24923">
        <ele>571.5</ele>
        <time>2020-08-18T14:57:52Z</time>
      </trkpt>
      <trkpt lat="48.64745" lon="7.24918">
        <ele>571.4</ele>
        <time>2020-08-18T14:57:54Z</time>
      </trkpt>
      <trkpt lat="48.64752" lon="7.24914">
        <ele>571.3</ele>
        <time>2020-08-18T14:57:56Z</time>
      </trkpt>
      <trkpt lat="48.64757" lon="7.24911">
        <ele>571.5</ele>
        <time>2020-08-18T14:57:59Z</time>
      </trkpt>
      <trkpt lat="48.64761" lon="7.24906">
        <ele>570.6</ele>
        <time>2020-08-18T14:58:02Z</time>
      </trkpt>
      <trkpt lat="48.64765" lon="7.24899">
        <ele>569.8</ele>
        <time>2020-08-18T14:58:04Z</time>
      </trkpt>
      <trkpt lat="48.64769" lon="7.24894">
        <ele>569</ele>
        <time>2020-08-18T14:58:07Z</time>
      </trkpt>
      <trkpt lat="48.64774" lon="7.24889">
        <ele>567.4</ele>
        <time>2020-08-18T14:58:11Z</time>
      </trkpt>
      <trkpt lat="48.6478" lon="7.24883">
        <ele>567</ele>
        <time>2020-08-18T14:58:13Z</time>
      </trkpt>
      <trkpt lat="48.64787" lon="7.24873">
        <ele>566.5</ele>
        <time>2020-08-18T14:58:15Z</time>
      </trkpt>
      <trkpt lat="48.64794" lon="7.24863">
        <ele>566</ele>
        <time>2020-08-18T14:58:17Z</time>
      </trkpt>
      <trkpt lat="48.64801" lon="7.24856">
        <ele>564.8</ele>
        <time>2020-08-18T14:58:19Z</time>
      </trkpt>
      <trkpt lat="48.64806" lon="7.24847">
        <ele>563.9</ele>
        <time>2020-08-18T14:58:21Z</time>
      </trkpt>
      <trkpt lat="48.64811" lon="7.24838">
        <ele>563.8</ele>
        <time>2020-08-18T14:58:23Z</time>
      </trkpt>
      <trkpt lat="48.64815" lon="7.24827">
        <ele>564.3</ele>
        <time>2020-08-18T14:58:25Z</time>
      </trkpt>
      <trkpt lat="48.64817" lon="7.24821">
        <ele>564.8</ele>
        <time>2020-08-18T14:58:27Z</time>
      </trkpt>
      <trkpt lat="48.64817" lon="7.24814">
        <ele>566.1</ele>
        <time>2020-08-18T14:58:40Z</time>
      </trkpt>
      <trkpt lat="48.64815" lon="7.24819">
        <ele>565.7</ele>
        <time>2020-08-18T14:59:08Z</time>
      </trkpt>
      <trkpt lat="48.64811" lon="7.24826">
        <ele>565</ele>
        <time>2020-08-18T14:59:10Z</time>
      </trkpt>
      <trkpt lat="48.64807" lon="7.24833">
        <ele>564.4</ele>
        <time>2020-08-18T14:59:12Z</time>
      </trkpt>
      <trkpt lat="48.64803" lon="7.24839">
        <ele>564.2</ele>
        <time>2020-08-18T14:59:15Z</time>
      </trkpt>
      <trkpt lat="48.64799" lon="7.24845">
        <ele>563.4</ele>
        <time>2020-08-18T14:59:18Z</time>
      </trkpt>
      <trkpt lat="48.64795" lon="7.24853">
        <ele>562.7</ele>
        <time>2020-08-18T14:59:20Z</time>
      </trkpt>
      <trkpt lat="48.64789" lon="7.24864">
        <ele>562.6</ele>
        <time>2020-08-18T14:59:22Z</time>
      </trkpt>
      <trkpt lat="48.64785" lon="7.24874">
        <ele>562.9</ele>
        <time>2020-08-18T14:59:24Z</time>
      </trkpt>
      <trkpt lat="48.6478" lon="7.24882">
        <ele>562.8</ele>
        <time>2020-08-18T14:59:26Z</time>
      </trkpt>
      <trkpt lat="48.64776" lon="7.24889">
        <ele>563</ele>
        <time>2020-08-18T14:59:28Z</time>
      </trkpt>
      <trkpt lat="48.64773" lon="7.24897">
        <ele>563.2</ele>
        <time>2020-08-18T14:59:30Z</time>
      </trkpt>
      <trkpt lat="48.64772" lon="7.24904">
        <ele>563.8</ele>
        <time>2020-08-18T14:59:33Z</time>
      </trkpt>
      <trkpt lat="48.64777" lon="7.24905">
        <ele>565</ele>
        <time>2020-08-18T14:59:41Z</time>
      </trkpt>
      <trkpt lat="48.64782" lon="7.249">
        <ele>565.1</ele>
        <time>2020-08-18T14:59:44Z</time>
      </trkpt>
      <trkpt lat="48.64788" lon="7.24895">
        <ele>565.1</ele>
        <time>2020-08-18T14:59:46Z</time>
      </trkpt>
      <trkpt lat="48.64801" lon="7.24885">
        <ele>564.2</ele>
        <time>2020-08-18T14:59:49Z</time>
      </trkpt>
      <trkpt lat="48.64805" lon="7.24881">
        <ele>563.1</ele>
        <time>2020-08-18T14:59:51Z</time>
      </trkpt>
      <trkpt lat="48.64811" lon="7.24876">
        <ele>558.8</ele>
        <time>2020-08-18T15:00:02Z</time>
      </trkpt>
      <trkpt lat="48.64823" lon="7.24871">
        <ele>558.2</ele>
        <time>2020-08-18T15:00:05Z</time>
      </trkpt>
      <trkpt lat="48.64831" lon="7.24867">
        <ele>558.7</ele>
        <time>2020-08-18T15:00:07Z</time>
      </trkpt>
      <trkpt lat="48.64841" lon="7.24863">
        <ele>558.6</ele>
        <time>2020-08-18T15:00:09Z</time>
      </trkpt>
      <trkpt lat="48.64853" lon="7.24859">
        <ele>558.4</ele>
        <time>2020-08-18T15:00:11Z</time>
      </trkpt>
      <trkpt lat="48.64871" lon="7.24859">
        <ele>558.3</ele>
        <time>2020-08-18T15:00:14Z</time>
      </trkpt>
      <trkpt lat="48.64888" lon="7.24861">
        <ele>558</ele>
        <time>2020-08-18T15:00:16Z</time>
      </trkpt>
      <trkpt lat="48.64906" lon="7.24862">
        <ele>558.1</ele>
        <time>2020-08-18T15:00:18Z</time>
      </trkpt>
      <trkpt lat="48.64924" lon="7.24862">
        <ele>558.3</ele>
        <time>2020-08-18T15:00:20Z</time>
      </trkpt>
      <trkpt lat="48.64941" lon="7.24863">
        <ele>557.4</ele>
        <time>2020-08-18T15:00:22Z</time>
      </trkpt>
      <trkpt lat="48.64958" lon="7.24864">
        <ele>557.6</ele>
        <time>2020-08-18T15:00:24Z</time>
      </trkpt>
      <trkpt lat="48.64975" lon="7.24867">
        <ele>556</ele>
        <time>2020-08-18T15:00:26Z</time>
      </trkpt>
      <trkpt lat="48.6499" lon="7.24874">
        <ele>555.5</ele>
        <time>2020-08-18T15:00:28Z</time>
      </trkpt>
      <trkpt lat="48.65005" lon="7.2488">
        <ele>553.8</ele>
        <time>2020-08-18T15:00:30Z</time>
      </trkpt>
      <trkpt lat="48.65019" lon="7.24886">
        <ele>552.1</ele>
        <time>2020-08-18T15:00:32Z</time>
      </trkpt>
      <trkpt lat="48.65035" lon="7.24891">
        <ele>550</ele>
        <time>2020-08-18T15:00:34Z</time>
      </trkpt>
      <trkpt lat="48.65052" lon="7.24895">
        <ele>548.5</ele>
        <time>2020-08-18T15:00:36Z</time>
      </trkpt>
      <trkpt lat="48.65069" lon="7.24897">
        <ele>547.1</ele>
        <time>2020-08-18T15:00:38Z</time>
      </trkpt>
      <trkpt lat="48.65086" lon="7.24896">
        <ele>545.6</ele>
        <time>2020-08-18T15:00:40Z</time>
      </trkpt>
      <trkpt lat="48.65102" lon="7.24891">
        <ele>544.9</ele>
        <time>2020-08-18T15:00:42Z</time>
      </trkpt>
      <trkpt lat="48.65116" lon="7.24884">
        <ele>544.2</ele>
        <time>2020-08-18T15:00:44Z</time>
      </trkpt>
      <trkpt lat="48.65131" lon="7.24877">
        <ele>543.9</ele>
        <time>2020-08-18T15:00:46Z</time>
      </trkpt>
      <trkpt lat="48.65153" lon="7.2486">
        <ele>542.9</ele>
        <time>2020-08-18T15:00:49Z</time>
      </trkpt>
      <trkpt lat="48.65174" lon="7.24837">
        <ele>542.1</ele>
        <time>2020-08-18T15:00:52Z</time>
      </trkpt>
      <trkpt lat="48.65185" lon="7.24821">
        <ele>541.5</ele>
        <time>2020-08-18T15:00:54Z</time>
      </trkpt>
      <trkpt lat="48.65196" lon="7.24804">
        <ele>540.8</ele>
        <time>2020-08-18T15:00:56Z</time>
      </trkpt>
      <trkpt lat="48.65208" lon="7.24785">
        <ele>540.8</ele>
        <time>2020-08-18T15:00:58Z</time>
      </trkpt>
      <trkpt lat="48.65217" lon="7.24766">
        <ele>540.6</ele>
        <time>2020-08-18T15:01:00Z</time>
      </trkpt>
      <trkpt lat="48.65227" lon="7.24746">
        <ele>540.5</ele>
        <time>2020-08-18T15:01:02Z</time>
      </trkpt>
      <trkpt lat="48.65238" lon="7.24725">
        <ele>540.6</ele>
        <time>2020-08-18T15:01:04Z</time>
      </trkpt>
      <trkpt lat="48.65247" lon="7.24706">
        <ele>540.5</ele>
        <time>2020-08-18T15:01:06Z</time>
      </trkpt>
      <trkpt lat="48.65256" lon="7.2469">
        <ele>540.5</ele>
        <time>2020-08-18T15:01:08Z</time>
      </trkpt>
      <trkpt lat="48.65258" lon="7.24681">
        <ele>539.3</ele>
        <time>2020-08-18T15:01:10Z</time>
      </trkpt>
      <trkpt lat="48.65259" lon="7.24674">
        <ele>538.1</ele>
        <time>2020-08-18T15:01:14Z</time>
      </trkpt>
      <trkpt lat="48.65263" lon="7.24672">
        <ele>536.9</ele>
        <time>2020-08-18T15:01:24Z</time>
      </trkpt>
      <trkpt lat="48.65268" lon="7.24667">
        <ele>536.1</ele>
        <time>2020-08-18T15:01:26Z</time>
      </trkpt>
      <trkpt lat="48.65274" lon="7.2466">
        <ele>535.5</ele>
        <time>2020-08-18T15:01:28Z</time>
      </trkpt>
      <trkpt lat="48.65278" lon="7.2465">
        <ele>534.5</ele>
        <time>2020-08-18T15:01:30Z</time>
      </trkpt>
      <trkpt lat="48.6528" lon="7.24642">
        <ele>533</ele>
        <time>2020-08-18T15:01:33Z</time>
      </trkpt>
      <trkpt lat="48.65283" lon="7.24634">
        <ele>531</ele>
        <time>2020-08-18T15:01:37Z</time>
      </trkpt>
      <trkpt lat="48.65286" lon="7.24624">
        <ele>530.3</ele>
        <time>2020-08-18T15:01:39Z</time>
      </trkpt>
      <trkpt lat="48.65289" lon="7.24611">
        <ele>529.6</ele>
        <time>2020-08-18T15:01:41Z</time>
      </trkpt>
      <trkpt lat="48.65293" lon="7.24597">
        <ele>529.3</ele>
        <time>2020-08-18T15:01:43Z</time>
      </trkpt>
      <trkpt lat="48.65295" lon="7.24581">
        <ele>528.6</ele>
        <time>2020-08-18T15:01:45Z</time>
      </trkpt>
      <trkpt lat="48.65298" lon="7.24565">
        <ele>527.8</ele>
        <time>2020-08-18T15:01:47Z</time>
      </trkpt>
      <trkpt lat="48.65298" lon="7.24546">
        <ele>528</ele>
        <time>2020-08-18T15:01:49Z</time>
      </trkpt>
      <trkpt lat="48.65298" lon="7.24528">
        <ele>528</ele>
        <time>2020-08-18T15:01:51Z</time>
      </trkpt>
      <trkpt lat="48.65298" lon="7.24509">
        <ele>527.8</ele>
        <time>2020-08-18T15:01:53Z</time>
      </trkpt>
      <trkpt lat="48.65298" lon="7.24489">
        <ele>527.4</ele>
        <time>2020-08-18T15:01:55Z</time>
      </trkpt>
      <trkpt lat="48.65299" lon="7.24468">
        <ele>527.1</ele>
        <time>2020-08-18T15:01:57Z</time>
      </trkpt>
      <trkpt lat="48.65298" lon="7.24447">
        <ele>526.7</ele>
        <time>2020-08-18T15:01:59Z</time>
      </trkpt>
      <trkpt lat="48.65298" lon="7.24425">
        <ele>526</ele>
        <time>2020-08-18T15:02:01Z</time>
      </trkpt>
      <trkpt lat="48.65298" lon="7.24404">
        <ele>525.1</ele>
        <time>2020-08-18T15:02:03Z</time>
      </trkpt>
      <trkpt lat="48.65298" lon="7.24382">
        <ele>524.2</ele>
        <time>2020-08-18T15:02:05Z</time>
      </trkpt>
      <trkpt lat="48.65298" lon="7.24359">
        <ele>523.2</ele>
        <time>2020-08-18T15:02:07Z</time>
      </trkpt>
      <trkpt lat="48.65298" lon="7.24336">
        <ele>522.2</ele>
        <time>2020-08-18T15:02:09Z</time>
      </trkpt>
      <trkpt lat="48.65298" lon="7.24313">
        <ele>521.2</ele>
        <time>2020-08-18T15:02:11Z</time>
      </trkpt>
      <trkpt lat="48.65298" lon="7.24289">
        <ele>520.1</ele>
        <time>2020-08-18T15:02:13Z</time>
      </trkpt>
      <trkpt lat="48.65298" lon="7.24264">
        <ele>518.8</ele>
        <time>2020-08-18T15:02:15Z</time>
      </trkpt>
      <trkpt lat="48.65299" lon="7.2424">
        <ele>517.8</ele>
        <time>2020-08-18T15:02:17Z</time>
      </trkpt>
      <trkpt lat="48.65299" lon="7.24217">
        <ele>516.5</ele>
        <time>2020-08-18T15:02:19Z</time>
      </trkpt>
      <trkpt lat="48.653" lon="7.24196">
        <ele>514.9</ele>
        <time>2020-08-18T15:02:21Z</time>
      </trkpt>
      <trkpt lat="48.65301" lon="7.24174">
        <ele>513.6</ele>
        <time>2020-08-18T15:02:23Z</time>
      </trkpt>
      <trkpt lat="48.65303" lon="7.24152">
        <ele>512.3</ele>
        <time>2020-08-18T15:02:25Z</time>
      </trkpt>
      <trkpt lat="48.65306" lon="7.2413">
        <ele>511.4</ele>
        <time>2020-08-18T15:02:27Z</time>
      </trkpt>
      <trkpt lat="48.65308" lon="7.24106">
        <ele>510.5</ele>
        <time>2020-08-18T15:02:29Z</time>
      </trkpt>
      <trkpt lat="48.65309" lon="7.24084">
        <ele>509.8</ele>
        <time>2020-08-18T15:02:31Z</time>
      </trkpt>
      <trkpt lat="48.65311" lon="7.24062">
        <ele>509.4</ele>
        <time>2020-08-18T15:02:33Z</time>
      </trkpt>
      <trkpt lat="48.65315" lon="7.24039">
        <ele>508</ele>
        <time>2020-08-18T15:02:35Z</time>
      </trkpt>
      <trkpt lat="48.65318" lon="7.24012">
        <ele>506.9</ele>
        <time>2020-08-18T15:02:37Z</time>
      </trkpt>
      <trkpt lat="48.65321" lon="7.23985">
        <ele>505.8</ele>
        <time>2020-08-18T15:02:39Z</time>
      </trkpt>
      <trkpt lat="48.65324" lon="7.23959">
        <ele>504.2</ele>
        <time>2020-08-18T15:02:41Z</time>
      </trkpt>
      <trkpt lat="48.65328" lon="7.23935">
        <ele>503.1</ele>
        <time>2020-08-18T15:02:43Z</time>
      </trkpt>
      <trkpt lat="48.65331" lon="7.23912">
        <ele>501.3</ele>
        <time>2020-08-18T15:02:45Z</time>
      </trkpt>
      <trkpt lat="48.65333" lon="7.23889">
        <ele>499.7</ele>
        <time>2020-08-18T15:02:47Z</time>
      </trkpt>
      <trkpt lat="48.65334" lon="7.23867">
        <ele>498.3</ele>
        <time>2020-08-18T15:02:49Z</time>
      </trkpt>
      <trkpt lat="48.65333" lon="7.2385">
        <ele>497.4</ele>
        <time>2020-08-18T15:02:51Z</time>
      </trkpt>
      <trkpt lat="48.65332" lon="7.23841">
        <ele>497.4</ele>
        <time>2020-08-18T15:02:53Z</time>
      </trkpt>
      <trkpt lat="48.65331" lon="7.23831">
        <ele>497.3</ele>
        <time>2020-08-18T15:03:00Z</time>
      </trkpt>
      <trkpt lat="48.65331" lon="7.23823">
        <ele>497.1</ele>
        <time>2020-08-18T15:03:02Z</time>
      </trkpt>
      <trkpt lat="48.6533" lon="7.23811">
        <ele>496.8</ele>
        <time>2020-08-18T15:03:04Z</time>
      </trkpt>
      <trkpt lat="48.6533" lon="7.23797">
        <ele>496</ele>
        <time>2020-08-18T15:03:06Z</time>
      </trkpt>
      <trkpt lat="48.6533" lon="7.23781">
        <ele>494.9</ele>
        <time>2020-08-18T15:03:08Z</time>
      </trkpt>
      <trkpt lat="48.6533" lon="7.23762">
        <ele>493.5</ele>
        <time>2020-08-18T15:03:10Z</time>
      </trkpt>
      <trkpt lat="48.65331" lon="7.23743">
        <ele>491.6</ele>
        <time>2020-08-18T15:03:12Z</time>
      </trkpt>
      <trkpt lat="48.65332" lon="7.23723">
        <ele>489.6</ele>
        <time>2020-08-18T15:03:14Z</time>
      </trkpt>
      <trkpt lat="48.65333" lon="7.23704">
        <ele>488</ele>
        <time>2020-08-18T15:03:16Z</time>
      </trkpt>
      <trkpt lat="48.65336" lon="7.2369">
        <ele>486.6</ele>
        <time>2020-08-18T15:03:18Z</time>
      </trkpt>
      <trkpt lat="48.65339" lon="7.23684">
        <ele>485.7</ele>
        <time>2020-08-18T15:03:20Z</time>
      </trkpt>
      <trkpt lat="48.65341" lon="7.23678">
        <ele>483.3</ele>
        <time>2020-08-18T15:03:26Z</time>
      </trkpt>
      <trkpt lat="48.65343" lon="7.23671">
        <ele>481.6</ele>
        <time>2020-08-18T15:03:40Z</time>
      </trkpt>
      <trkpt lat="48.65345" lon="7.23663">
        <ele>480.5</ele>
        <time>2020-08-18T15:03:43Z</time>
      </trkpt>
      <trkpt lat="48.65343" lon="7.23656">
        <ele>480.4</ele>
        <time>2020-08-18T15:03:51Z</time>
      </trkpt>
      <trkpt lat="48.65337" lon="7.23651">
        <ele>480.1</ele>
        <time>2020-08-18T15:03:54Z</time>
      </trkpt>
      <trkpt lat="48.65332" lon="7.23645">
        <ele>480.3</ele>
        <time>2020-08-18T15:03:56Z</time>
      </trkpt>
      <trkpt lat="48.65326" lon="7.23638">
        <ele>480.6</ele>
        <time>2020-08-18T15:03:58Z</time>
      </trkpt>
      <trkpt lat="48.65322" lon="7.23628">
        <ele>480.5</ele>
        <time>2020-08-18T15:04:00Z</time>
      </trkpt>
      <trkpt lat="48.65321" lon="7.23616">
        <ele>480.3</ele>
        <time>2020-08-18T15:04:02Z</time>
      </trkpt>
      <trkpt lat="48.6532" lon="7.23603">
        <ele>479.6</ele>
        <time>2020-08-18T15:04:04Z</time>
      </trkpt>
      <trkpt lat="48.65322" lon="7.23591">
        <ele>478.8</ele>
        <time>2020-08-18T15:04:06Z</time>
      </trkpt>
      <trkpt lat="48.65328" lon="7.23579">
        <ele>478.6</ele>
        <time>2020-08-18T15:04:08Z</time>
      </trkpt>
      <trkpt lat="48.65336" lon="7.23569">
        <ele>478.6</ele>
        <time>2020-08-18T15:04:10Z</time>
      </trkpt>
      <trkpt lat="48.65345" lon="7.23559">
        <ele>478.3</ele>
        <time>2020-08-18T15:04:12Z</time>
      </trkpt>
      <trkpt lat="48.65349" lon="7.23553">
        <ele>478.3</ele>
        <time>2020-08-18T15:04:14Z</time>
      </trkpt>
      <trkpt lat="48.65351" lon="7.23546">
        <ele>474.9</ele>
        <time>2020-08-18T15:04:28Z</time>
      </trkpt>
      <trkpt lat="48.65356" lon="7.2354">
        <ele>474.1</ele>
        <time>2020-08-18T15:04:31Z</time>
      </trkpt>
      <trkpt lat="48.65359" lon="7.23533">
        <ele>473</ele>
        <time>2020-08-18T15:04:33Z</time>
      </trkpt>
      <trkpt lat="48.65366" lon="7.23525">
        <ele>472.6</ele>
        <time>2020-08-18T15:04:35Z</time>
      </trkpt>
      <trkpt lat="48.65374" lon="7.2352">
        <ele>471.8</ele>
        <time>2020-08-18T15:04:37Z</time>
      </trkpt>
      <trkpt lat="48.65384" lon="7.23515">
        <ele>471.2</ele>
        <time>2020-08-18T15:04:39Z</time>
      </trkpt>
      <trkpt lat="48.65392" lon="7.23512">
        <ele>471.1</ele>
        <time>2020-08-18T15:04:41Z</time>
      </trkpt>
      <trkpt lat="48.65396" lon="7.23509">
        <ele>470.7</ele>
        <time>2020-08-18T15:04:44Z</time>
      </trkpt>
      <trkpt lat="48.65396" lon="7.235">
        <ele>470.6</ele>
        <time>2020-08-18T15:04:48Z</time>
      </trkpt>
      <trkpt lat="48.65396" lon="7.23493">
        <ele>470.6</ele>
        <time>2020-08-18T15:04:50Z</time>
      </trkpt>
      <trkpt lat="48.65396" lon="7.23485">
        <ele>470.4</ele>
        <time>2020-08-18T15:04:52Z</time>
      </trkpt>
      <trkpt lat="48.65396" lon="7.23475">
        <ele>470.8</ele>
        <time>2020-08-18T15:04:54Z</time>
      </trkpt>
      <trkpt lat="48.65396" lon="7.23464">
        <ele>471.4</ele>
        <time>2020-08-18T15:04:56Z</time>
      </trkpt>
      <trkpt lat="48.65396" lon="7.23451">
        <ele>471.9</ele>
        <time>2020-08-18T15:04:58Z</time>
      </trkpt>
      <trkpt lat="48.65397" lon="7.23436">
        <ele>472.1</ele>
        <time>2020-08-18T15:05:00Z</time>
      </trkpt>
      <trkpt lat="48.65397" lon="7.23421">
        <ele>472</ele>
        <time>2020-08-18T15:05:02Z</time>
      </trkpt>
      <trkpt lat="48.65397" lon="7.23407">
        <ele>472</ele>
        <time>2020-08-18T15:05:04Z</time>
      </trkpt>
      <trkpt lat="48.65398" lon="7.23392">
        <ele>473.1</ele>
        <time>2020-08-18T15:05:06Z</time>
      </trkpt>
      <trkpt lat="48.654" lon="7.23378">
        <ele>473.6</ele>
        <time>2020-08-18T15:05:08Z</time>
      </trkpt>
      <trkpt lat="48.654" lon="7.23368">
        <ele>474.5</ele>
        <time>2020-08-18T15:05:10Z</time>
      </trkpt>
      <trkpt lat="48.65402" lon="7.23361">
        <ele>474.6</ele>
        <time>2020-08-18T15:05:21Z</time>
      </trkpt>
      <trkpt lat="48.65408" lon="7.23361">
        <ele>475.1</ele>
        <time>2020-08-18T15:05:26Z</time>
      </trkpt>
      <trkpt lat="48.65413" lon="7.23361">
        <ele>475.2</ele>
        <time>2020-08-18T15:05:30Z</time>
      </trkpt>
      <trkpt lat="48.65419" lon="7.23361">
        <ele>475.5</ele>
        <time>2020-08-18T15:05:34Z</time>
      </trkpt>
      <trkpt lat="48.65424" lon="7.23359">
        <ele>475.6</ele>
        <time>2020-08-18T15:05:38Z</time>
      </trkpt>
      <trkpt lat="48.65429" lon="7.23356">
        <ele>475.4</ele>
        <time>2020-08-18T15:05:42Z</time>
      </trkpt>
      <trkpt lat="48.65433" lon="7.23353">
        <ele>474.6</ele>
        <time>2020-08-18T15:05:46Z</time>
      </trkpt>
      <trkpt lat="48.65438" lon="7.23347">
        <ele>474.9</ele>
        <time>2020-08-18T15:05:51Z</time>
      </trkpt>
      <trkpt lat="48.65441" lon="7.23343">
        <ele>475.8</ele>
        <time>2020-08-18T15:05:55Z</time>
      </trkpt>
      <trkpt lat="48.65445" lon="7.23339">
        <ele>476.5</ele>
        <time>2020-08-18T15:06:06Z</time>
      </trkpt>
      <trkpt lat="48.65449" lon="7.23334">
        <ele>475.8</ele>
        <time>2020-08-18T15:06:11Z</time>
      </trkpt>
      <trkpt lat="48.65453" lon="7.23329">
        <ele>476</ele>
        <time>2020-08-18T15:06:15Z</time>
      </trkpt>
      <trkpt lat="48.65456" lon="7.23323">
        <ele>477</ele>
        <time>2020-08-18T15:06:19Z</time>
      </trkpt>
      <trkpt lat="48.65459" lon="7.23317">
        <ele>478.1</ele>
        <time>2020-08-18T15:06:23Z</time>
      </trkpt>
      <trkpt lat="48.65463" lon="7.23312">
        <ele>478.7</ele>
        <time>2020-08-18T15:06:27Z</time>
      </trkpt>
      <trkpt lat="48.65465" lon="7.23306">
        <ele>478.4</ele>
        <time>2020-08-18T15:06:31Z</time>
      </trkpt>
      <trkpt lat="48.65467" lon="7.23298">
        <ele>478.2</ele>
        <time>2020-08-18T15:06:35Z</time>
      </trkpt>
      <trkpt lat="48.65468" lon="7.23289">
        <ele>478.2</ele>
        <time>2020-08-18T15:06:39Z</time>
      </trkpt>
      <trkpt lat="48.65469" lon="7.23282">
        <ele>478.4</ele>
        <time>2020-08-18T15:06:42Z</time>
      </trkpt>
      <trkpt lat="48.65472" lon="7.23275">
        <ele>477.7</ele>
        <time>2020-08-18T15:06:46Z</time>
      </trkpt>
      <trkpt lat="48.65475" lon="7.23267">
        <ele>477.6</ele>
        <time>2020-08-18T15:06:50Z</time>
      </trkpt>
      <trkpt lat="48.65477" lon="7.23261">
        <ele>478</ele>
        <time>2020-08-18T15:06:54Z</time>
      </trkpt>
      <trkpt lat="48.65481" lon="7.23255">
        <ele>477.9</ele>
        <time>2020-08-18T15:06:58Z</time>
      </trkpt>
      <trkpt lat="48.65481" lon="7.23248">
        <ele>479.3</ele>
        <time>2020-08-18T15:07:02Z</time>
      </trkpt>
      <trkpt lat="48.65483" lon="7.23239">
        <ele>481.5</ele>
        <time>2020-08-18T15:08:06Z</time>
      </trkpt>
      <trkpt lat="48.65484" lon="7.23232">
        <ele>482</ele>
        <time>2020-08-18T15:08:08Z</time>
      </trkpt>
      <trkpt lat="48.65486" lon="7.23222">
        <ele>481.8</ele>
        <time>2020-08-18T15:08:10Z</time>
      </trkpt>
      <trkpt lat="48.65488" lon="7.23211">
        <ele>481.9</ele>
        <time>2020-08-18T15:08:12Z</time>
      </trkpt>
      <trkpt lat="48.65489" lon="7.23198">
        <ele>482.2</ele>
        <time>2020-08-18T15:08:14Z</time>
      </trkpt>
      <trkpt lat="48.6549" lon="7.23184">
        <ele>482.4</ele>
        <time>2020-08-18T15:08:16Z</time>
      </trkpt>
      <trkpt lat="48.65492" lon="7.2317">
        <ele>483.1</ele>
        <time>2020-08-18T15:08:18Z</time>
      </trkpt>
      <trkpt lat="48.65494" lon="7.23156">
        <ele>483.7</ele>
        <time>2020-08-18T15:08:20Z</time>
      </trkpt>
      <trkpt lat="48.65496" lon="7.23142">
        <ele>484</ele>
        <time>2020-08-18T15:08:22Z</time>
      </trkpt>
      <trkpt lat="48.65497" lon="7.23128">
        <ele>483.4</ele>
        <time>2020-08-18T15:08:24Z</time>
      </trkpt>
      <trkpt lat="48.65499" lon="7.23115">
        <ele>484.1</ele>
        <time>2020-08-18T15:08:26Z</time>
      </trkpt>
      <trkpt lat="48.655" lon="7.23105">
        <ele>484.4</ele>
        <time>2020-08-18T15:08:28Z</time>
      </trkpt>
      <trkpt lat="48.655" lon="7.23096">
        <ele>484.7</ele>
        <time>2020-08-18T15:08:30Z</time>
      </trkpt>
      <trkpt lat="48.655" lon="7.23087">
        <ele>484.8</ele>
        <time>2020-08-18T15:08:32Z</time>
      </trkpt>
      <trkpt lat="48.655" lon="7.23078">
        <ele>485.1</ele>
        <time>2020-08-18T15:08:34Z</time>
      </trkpt>
      <trkpt lat="48.65501" lon="7.2307">
        <ele>485.6</ele>
        <time>2020-08-18T15:08:36Z</time>
      </trkpt>
      <trkpt lat="48.65502" lon="7.23062">
        <ele>486.1</ele>
        <time>2020-08-18T15:08:38Z</time>
      </trkpt>
      <trkpt lat="48.65503" lon="7.23054">
        <ele>485.8</ele>
        <time>2020-08-18T15:08:40Z</time>
      </trkpt>
      <trkpt lat="48.65503" lon="7.23046">
        <ele>485.9</ele>
        <time>2020-08-18T15:08:42Z</time>
      </trkpt>
      <trkpt lat="48.65503" lon="7.23037">
        <ele>485.7</ele>
        <time>2020-08-18T15:08:44Z</time>
      </trkpt>
      <trkpt lat="48.65504" lon="7.23028">
        <ele>485.8</ele>
        <time>2020-08-18T15:08:46Z</time>
      </trkpt>
      <trkpt lat="48.65505" lon="7.2302">
        <ele>486.1</ele>
        <time>2020-08-18T15:08:48Z</time>
      </trkpt>
      <trkpt lat="48.65506" lon="7.23011">
        <ele>486.2</ele>
        <time>2020-08-18T15:08:50Z</time>
      </trkpt>
      <trkpt lat="48.65508" lon="7.23002">
        <ele>486.5</ele>
        <time>2020-08-18T15:08:52Z</time>
      </trkpt>
      <trkpt lat="48.65511" lon="7.22988">
        <ele>486.5</ele>
        <time>2020-08-18T15:08:55Z</time>
      </trkpt>
      <trkpt lat="48.65513" lon="7.2298">
        <ele>486.3</ele>
        <time>2020-08-18T15:08:57Z</time>
      </trkpt>
      <trkpt lat="48.65516" lon="7.2297">
        <ele>486.2</ele>
        <time>2020-08-18T15:08:59Z</time>
      </trkpt>
      <trkpt lat="48.65519" lon="7.22961">
        <ele>486.3</ele>
        <time>2020-08-18T15:09:01Z</time>
      </trkpt>
      <trkpt lat="48.65522" lon="7.22951">
        <ele>486.8</ele>
        <time>2020-08-18T15:09:03Z</time>
      </trkpt>
      <trkpt lat="48.65525" lon="7.22942">
        <ele>486.8</ele>
        <time>2020-08-18T15:09:05Z</time>
      </trkpt>
      <trkpt lat="48.65529" lon="7.22934">
        <ele>487</ele>
        <time>2020-08-18T15:09:07Z</time>
      </trkpt>
      <trkpt lat="48.65533" lon="7.22927">
        <ele>487.2</ele>
        <time>2020-08-18T15:09:09Z</time>
      </trkpt>
      <trkpt lat="48.65536" lon="7.22921">
        <ele>489</ele>
        <time>2020-08-18T15:12:51Z</time>
      </trkpt>
      <trkpt lat="48.65538" lon="7.22913">
        <ele>489</ele>
        <time>2020-08-18T15:12:55Z</time>
      </trkpt>
      <trkpt lat="48.65542" lon="7.22906">
        <ele>489.5</ele>
        <time>2020-08-18T15:12:57Z</time>
      </trkpt>
      <trkpt lat="48.65548" lon="7.22898">
        <ele>489.2</ele>
        <time>2020-08-18T15:12:59Z</time>
      </trkpt>
      <trkpt lat="48.65555" lon="7.22889">
        <ele>488.6</ele>
        <time>2020-08-18T15:13:01Z</time>
      </trkpt>
      <trkpt lat="48.65564" lon="7.2288">
        <ele>487.9</ele>
        <time>2020-08-18T15:13:03Z</time>
      </trkpt>
      <trkpt lat="48.65574" lon="7.22869">
        <ele>487.3</ele>
        <time>2020-08-18T15:13:05Z</time>
      </trkpt>
      <trkpt lat="48.65585" lon="7.22859">
        <ele>486.5</ele>
        <time>2020-08-18T15:13:07Z</time>
      </trkpt>
      <trkpt lat="48.65596" lon="7.22851">
        <ele>486</ele>
        <time>2020-08-18T15:13:09Z</time>
      </trkpt>
      <trkpt lat="48.65607" lon="7.22845">
        <ele>485.6</ele>
        <time>2020-08-18T15:13:11Z</time>
      </trkpt>
      <trkpt lat="48.65619" lon="7.22843">
        <ele>485.7</ele>
        <time>2020-08-18T15:13:13Z</time>
      </trkpt>
      <trkpt lat="48.6563" lon="7.22842">
        <ele>485.6</ele>
        <time>2020-08-18T15:13:15Z</time>
      </trkpt>
      <trkpt lat="48.6564" lon="7.22843">
        <ele>485.5</ele>
        <time>2020-08-18T15:13:17Z</time>
      </trkpt>
      <trkpt lat="48.65651" lon="7.22844">
        <ele>486.1</ele>
        <time>2020-08-18T15:13:19Z</time>
      </trkpt>
      <trkpt lat="48.65662" lon="7.22843">
        <ele>485.3</ele>
        <time>2020-08-18T15:13:21Z</time>
      </trkpt>
      <trkpt lat="48.65673" lon="7.22839">
        <ele>484</ele>
        <time>2020-08-18T15:13:23Z</time>
      </trkpt>
      <trkpt lat="48.65685" lon="7.22831">
        <ele>482.2</ele>
        <time>2020-08-18T15:13:25Z</time>
      </trkpt>
      <trkpt lat="48.65695" lon="7.22821">
        <ele>481</ele>
        <time>2020-08-18T15:13:27Z</time>
      </trkpt>
      <trkpt lat="48.65704" lon="7.22812">
        <ele>480.2</ele>
        <time>2020-08-18T15:13:29Z</time>
      </trkpt>
      <trkpt lat="48.6571" lon="7.22801">
        <ele>480.3</ele>
        <time>2020-08-18T15:13:31Z</time>
      </trkpt>
      <trkpt lat="48.65717" lon="7.22791">
        <ele>480.2</ele>
        <time>2020-08-18T15:13:33Z</time>
      </trkpt>
      <trkpt lat="48.65723" lon="7.22781">
        <ele>480.2</ele>
        <time>2020-08-18T15:13:35Z</time>
      </trkpt>
      <trkpt lat="48.65726" lon="7.2277">
        <ele>480.5</ele>
        <time>2020-08-18T15:13:37Z</time>
      </trkpt>
      <trkpt lat="48.65727" lon="7.22759">
        <ele>480.9</ele>
        <time>2020-08-18T15:13:39Z</time>
      </trkpt>
      <trkpt lat="48.65728" lon="7.2275">
        <ele>481.3</ele>
        <time>2020-08-18T15:13:41Z</time>
      </trkpt>
      <trkpt lat="48.65726" lon="7.22743">
        <ele>482.3</ele>
        <time>2020-08-18T15:13:44Z</time>
      </trkpt>
      <trkpt lat="48.65726" lon="7.22752">
        <ele>481.2</ele>
        <time>2020-08-18T15:13:49Z</time>
      </trkpt>
      <trkpt lat="48.65727" lon="7.2276">
        <ele>481.4</ele>
        <time>2020-08-18T15:13:51Z</time>
      </trkpt>
      <trkpt lat="48.65724" lon="7.2277">
        <ele>481.6</ele>
        <time>2020-08-18T15:13:53Z</time>
      </trkpt>
      <trkpt lat="48.65719" lon="7.2278">
        <ele>481.5</ele>
        <time>2020-08-18T15:13:55Z</time>
      </trkpt>
      <trkpt lat="48.65715" lon="7.22787">
        <ele>481.4</ele>
        <time>2020-08-18T15:13:57Z</time>
      </trkpt>
      <trkpt lat="48.65713" lon="7.22794">
        <ele>481</ele>
        <time>2020-08-18T15:13:59Z</time>
      </trkpt>
      <trkpt lat="48.6572" lon="7.22794">
        <ele>481.3</ele>
        <time>2020-08-18T15:14:03Z</time>
      </trkpt>
      <trkpt lat="48.65726" lon="7.22791">
        <ele>481.5</ele>
        <time>2020-08-18T15:14:05Z</time>
      </trkpt>
      <trkpt lat="48.65732" lon="7.22787">
        <ele>481.4</ele>
        <time>2020-08-18T15:14:07Z</time>
      </trkpt>
      <trkpt lat="48.65739" lon="7.22784">
        <ele>481.4</ele>
        <time>2020-08-18T15:14:09Z</time>
      </trkpt>
      <trkpt lat="48.65745" lon="7.2278">
        <ele>481.8</ele>
        <time>2020-08-18T15:14:11Z</time>
      </trkpt>
      <trkpt lat="48.65753" lon="7.22774">
        <ele>482.2</ele>
        <time>2020-08-18T15:14:13Z</time>
      </trkpt>
      <trkpt lat="48.6576" lon="7.2277">
        <ele>482.2</ele>
        <time>2020-08-18T15:14:15Z</time>
      </trkpt>
      <trkpt lat="48.65768" lon="7.22765">
        <ele>481.7</ele>
        <time>2020-08-18T15:14:17Z</time>
      </trkpt>
      <trkpt lat="48.65778" lon="7.22757">
        <ele>481.6</ele>
        <time>2020-08-18T15:14:19Z</time>
      </trkpt>
      <trkpt lat="48.65788" lon="7.22748">
        <ele>481.6</ele>
        <time>2020-08-18T15:14:21Z</time>
      </trkpt>
      <trkpt lat="48.65799" lon="7.22737">
        <ele>481.1</ele>
        <time>2020-08-18T15:14:23Z</time>
      </trkpt>
      <trkpt lat="48.65809" lon="7.22723">
        <ele>481.5</ele>
        <time>2020-08-18T15:14:25Z</time>
      </trkpt>
      <trkpt lat="48.65817" lon="7.22707">
        <ele>481.4</ele>
        <time>2020-08-18T15:14:27Z</time>
      </trkpt>
      <trkpt lat="48.65824" lon="7.22692">
        <ele>480.8</ele>
        <time>2020-08-18T15:14:29Z</time>
      </trkpt>
      <trkpt lat="48.65833" lon="7.22678">
        <ele>481.3</ele>
        <time>2020-08-18T15:14:31Z</time>
      </trkpt>
      <trkpt lat="48.65842" lon="7.22663">
        <ele>481.1</ele>
        <time>2020-08-18T15:14:33Z</time>
      </trkpt>
      <trkpt lat="48.65851" lon="7.22647">
        <ele>480.6</ele>
        <time>2020-08-18T15:14:35Z</time>
      </trkpt>
      <trkpt lat="48.65858" lon="7.22632">
        <ele>480</ele>
        <time>2020-08-18T15:14:37Z</time>
      </trkpt>
      <trkpt lat="48.65865" lon="7.22615">
        <ele>478.8</ele>
        <time>2020-08-18T15:14:39Z</time>
      </trkpt>
      <trkpt lat="48.65871" lon="7.22596">
        <ele>478.2</ele>
        <time>2020-08-18T15:14:41Z</time>
      </trkpt>
      <trkpt lat="48.65876" lon="7.22582">
        <ele>477.5</ele>
        <time>2020-08-18T15:14:43Z</time>
      </trkpt>
      <trkpt lat="48.65879" lon="7.22575">
        <ele>476.9</ele>
        <time>2020-08-18T15:14:45Z</time>
      </trkpt>
      <trkpt lat="48.65881" lon="7.22567">
        <ele>475.2</ele>
        <time>2020-08-18T15:14:48Z</time>
      </trkpt>
      <trkpt lat="48.65884" lon="7.22558">
        <ele>473.7</ele>
        <time>2020-08-18T15:14:53Z</time>
      </trkpt>
      <trkpt lat="48.65886" lon="7.2255">
        <ele>473.6</ele>
        <time>2020-08-18T15:14:55Z</time>
      </trkpt>
      <trkpt lat="48.65889" lon="7.22537">
        <ele>472.8</ele>
        <time>2020-08-18T15:14:57Z</time>
      </trkpt>
      <trkpt lat="48.65892" lon="7.22521">
        <ele>472.7</ele>
        <time>2020-08-18T15:14:59Z</time>
      </trkpt>
      <trkpt lat="48.65894" lon="7.22506">
        <ele>472</ele>
        <time>2020-08-18T15:15:01Z</time>
      </trkpt>
      <trkpt lat="48.65894" lon="7.22494">
        <ele>470.6</ele>
        <time>2020-08-18T15:15:03Z</time>
      </trkpt>
      <trkpt lat="48.65894" lon="7.22483">
        <ele>470.1</ele>
        <time>2020-08-18T15:15:05Z</time>
      </trkpt>
      <trkpt lat="48.65894" lon="7.22475">
        <ele>494.8</ele>
        <time>2020-08-18T15:15:15Z</time>
      </trkpt>
      <trkpt lat="48.65895" lon="7.22465">
        <ele>497.4</ele>
        <time>2020-08-18T15:15:18Z</time>
      </trkpt>
      <trkpt lat="48.65895" lon="7.22455">
        <ele>495.2</ele>
        <time>2020-08-18T15:15:20Z</time>
      </trkpt>
      <trkpt lat="48.65894" lon="7.22445">
        <ele>492.5</ele>
        <time>2020-08-18T15:15:22Z</time>
      </trkpt>
      <trkpt lat="48.65891" lon="7.22431">
        <ele>489</ele>
        <time>2020-08-18T15:15:24Z</time>
      </trkpt>
      <trkpt lat="48.65888" lon="7.22419">
        <ele>485.4</ele>
        <time>2020-08-18T15:15:26Z</time>
      </trkpt>
      <trkpt lat="48.65886" lon="7.22409">
        <ele>482.7</ele>
        <time>2020-08-18T15:15:28Z</time>
      </trkpt>
      <trkpt lat="48.65886" lon="7.22402">
        <ele>480.3</ele>
        <time>2020-08-18T15:15:30Z</time>
      </trkpt>
      <trkpt lat="48.65884" lon="7.22395">
        <ele>475.7</ele>
        <time>2020-08-18T15:15:34Z</time>
      </trkpt>
      <trkpt lat="48.65883" lon="7.22386">
        <ele>473.5</ele>
        <time>2020-08-18T15:15:37Z</time>
      </trkpt>
      <trkpt lat="48.65883" lon="7.22378">
        <ele>472.8</ele>
        <time>2020-08-18T15:15:39Z</time>
      </trkpt>
      <trkpt lat="48.65884" lon="7.22371">
        <ele>472.5</ele>
        <time>2020-08-18T15:15:41Z</time>
      </trkpt>
      <trkpt lat="48.65885" lon="7.22363">
        <ele>471.9</ele>
        <time>2020-08-18T15:15:43Z</time>
      </trkpt>
      <trkpt lat="48.65886" lon="7.22354">
        <ele>471.4</ele>
        <time>2020-08-18T15:15:45Z</time>
      </trkpt>
      <trkpt lat="48.65887" lon="7.22345">
        <ele>471.4</ele>
        <time>2020-08-18T15:15:47Z</time>
      </trkpt>
      <trkpt lat="48.65889" lon="7.22337">
        <ele>471.7</ele>
        <time>2020-08-18T15:15:49Z</time>
      </trkpt>
      <trkpt lat="48.65892" lon="7.2233">
        <ele>472</ele>
        <time>2020-08-18T15:15:51Z</time>
      </trkpt>
      <trkpt lat="48.65896" lon="7.22324">
        <ele>472</ele>
        <time>2020-08-18T15:15:53Z</time>
      </trkpt>
      <trkpt lat="48.659" lon="7.22318">
        <ele>473.3</ele>
        <time>2020-08-18T15:15:55Z</time>
      </trkpt>
      <trkpt lat="48.65902" lon="7.2231">
        <ele>473.2</ele>
        <time>2020-08-18T15:15:57Z</time>
      </trkpt>
      <trkpt lat="48.65905" lon="7.22302">
        <ele>473.4</ele>
        <time>2020-08-18T15:15:59Z</time>
      </trkpt>
      <trkpt lat="48.65908" lon="7.22291">
        <ele>473</ele>
        <time>2020-08-18T15:16:01Z</time>
      </trkpt>
      <trkpt lat="48.65912" lon="7.2228">
        <ele>474.1</ele>
        <time>2020-08-18T15:16:03Z</time>
      </trkpt>
      <trkpt lat="48.65917" lon="7.22269">
        <ele>475</ele>
        <time>2020-08-18T15:16:05Z</time>
      </trkpt>
      <trkpt lat="48.65921" lon="7.22259">
        <ele>476.4</ele>
        <time>2020-08-18T15:16:07Z</time>
      </trkpt>
      <trkpt lat="48.65924" lon="7.22248">
        <ele>478.2</ele>
        <time>2020-08-18T15:16:09Z</time>
      </trkpt>
      <trkpt lat="48.65927" lon="7.22239">
        <ele>479.3</ele>
        <time>2020-08-18T15:16:11Z</time>
      </trkpt>
      <trkpt lat="48.65932" lon="7.2223">
        <ele>480.6</ele>
        <time>2020-08-18T15:16:13Z</time>
      </trkpt>
      <trkpt lat="48.65937" lon="7.22221">
        <ele>482.1</ele>
        <time>2020-08-18T15:16:15Z</time>
      </trkpt>
      <trkpt lat="48.65942" lon="7.22214">
        <ele>484.2</ele>
        <time>2020-08-18T15:16:17Z</time>
      </trkpt>
      <trkpt lat="48.65947" lon="7.22208">
        <ele>486.3</ele>
        <time>2020-08-18T15:16:19Z</time>
      </trkpt>
      <trkpt lat="48.65953" lon="7.222">
        <ele>487.5</ele>
        <time>2020-08-18T15:16:21Z</time>
      </trkpt>
      <trkpt lat="48.65959" lon="7.22193">
        <ele>489</ele>
        <time>2020-08-18T15:16:23Z</time>
      </trkpt>
      <trkpt lat="48.65965" lon="7.22187">
        <ele>489.4</ele>
        <time>2020-08-18T15:16:25Z</time>
      </trkpt>
      <trkpt lat="48.65972" lon="7.22181">
        <ele>490.4</ele>
        <time>2020-08-18T15:16:27Z</time>
      </trkpt>
      <trkpt lat="48.6598" lon="7.22176">
        <ele>491</ele>
        <time>2020-08-18T15:16:29Z</time>
      </trkpt>
      <trkpt lat="48.65989" lon="7.22169">
        <ele>491.8</ele>
        <time>2020-08-18T15:16:31Z</time>
      </trkpt>
      <trkpt lat="48.65999" lon="7.2216">
        <ele>492.2</ele>
        <time>2020-08-18T15:16:33Z</time>
      </trkpt>
      <trkpt lat="48.66008" lon="7.2215">
        <ele>493.7</ele>
        <time>2020-08-18T15:16:35Z</time>
      </trkpt>
      <trkpt lat="48.66016" lon="7.22141">
        <ele>495.2</ele>
        <time>2020-08-18T15:16:37Z</time>
      </trkpt>
      <trkpt lat="48.66023" lon="7.22134">
        <ele>496.3</ele>
        <time>2020-08-18T15:16:39Z</time>
      </trkpt>
      <trkpt lat="48.66031" lon="7.22129">
        <ele>496.9</ele>
        <time>2020-08-18T15:16:41Z</time>
      </trkpt>
      <trkpt lat="48.66043" lon="7.22123">
        <ele>496.7</ele>
        <time>2020-08-18T15:16:43Z</time>
      </trkpt>
      <trkpt lat="48.66056" lon="7.22117">
        <ele>497</ele>
        <time>2020-08-18T15:16:45Z</time>
      </trkpt>
      <trkpt lat="48.66069" lon="7.22111">
        <ele>497.2</ele>
        <time>2020-08-18T15:16:47Z</time>
      </trkpt>
      <trkpt lat="48.66084" lon="7.22102">
        <ele>497.4</ele>
        <time>2020-08-18T15:16:49Z</time>
      </trkpt>
      <trkpt lat="48.66097" lon="7.22094">
        <ele>497.3</ele>
        <time>2020-08-18T15:16:51Z</time>
      </trkpt>
      <trkpt lat="48.66108" lon="7.22084">
        <ele>497.9</ele>
        <time>2020-08-18T15:16:53Z</time>
      </trkpt>
      <trkpt lat="48.66118" lon="7.22071">
        <ele>498.2</ele>
        <time>2020-08-18T15:16:55Z</time>
      </trkpt>
      <trkpt lat="48.66125" lon="7.22055">
        <ele>498.2</ele>
        <time>2020-08-18T15:16:57Z</time>
      </trkpt>
      <trkpt lat="48.66132" lon="7.2204">
        <ele>498.4</ele>
        <time>2020-08-18T15:16:59Z</time>
      </trkpt>
      <trkpt lat="48.6614" lon="7.22022">
        <ele>523.4</ele>
        <time>2020-08-18T15:17:01Z</time>
      </trkpt>
      <trkpt lat="48.66148" lon="7.22004">
        <ele>537.3</ele>
        <time>2020-08-18T15:17:03Z</time>
      </trkpt>
      <trkpt lat="48.66157" lon="7.21989">
        <ele>538.9</ele>
        <time>2020-08-18T15:17:05Z</time>
      </trkpt>
      <trkpt lat="48.66163" lon="7.21972">
        <ele>539</ele>
        <time>2020-08-18T15:17:07Z</time>
      </trkpt>
      <trkpt lat="48.66167" lon="7.21952">
        <ele>534.4</ele>
        <time>2020-08-18T15:17:09Z</time>
      </trkpt>
      <trkpt lat="48.66172" lon="7.21933">
        <ele>529</ele>
        <time>2020-08-18T15:17:11Z</time>
      </trkpt>
      <trkpt lat="48.66179" lon="7.21915">
        <ele>524.6</ele>
        <time>2020-08-18T15:17:13Z</time>
      </trkpt>
      <trkpt lat="48.66187" lon="7.21897">
        <ele>520.6</ele>
        <time>2020-08-18T15:17:15Z</time>
      </trkpt>
      <trkpt lat="48.66195" lon="7.21881">
        <ele>539.4</ele>
        <time>2020-08-18T15:17:17Z</time>
      </trkpt>
      <trkpt lat="48.66204" lon="7.21869">
        <ele>539.1</ele>
        <time>2020-08-18T15:17:19Z</time>
      </trkpt>
      <trkpt lat="48.66213" lon="7.21855">
        <ele>534.9</ele>
        <time>2020-08-18T15:17:21Z</time>
      </trkpt>
      <trkpt lat="48.66225" lon="7.21841">
        <ele>531</ele>
        <time>2020-08-18T15:17:23Z</time>
      </trkpt>
      <trkpt lat="48.66234" lon="7.21828">
        <ele>525.7</ele>
        <time>2020-08-18T15:17:25Z</time>
      </trkpt>
      <trkpt lat="48.66241" lon="7.21815">
        <ele>544.9</ele>
        <time>2020-08-18T15:17:27Z</time>
      </trkpt>
      <trkpt lat="48.66252" lon="7.21803">
        <ele>541.4</ele>
        <time>2020-08-18T15:17:29Z</time>
      </trkpt>
      <trkpt lat="48.66261" lon="7.2179">
        <ele>543</ele>
        <time>2020-08-18T15:17:31Z</time>
      </trkpt>
      <trkpt lat="48.6627" lon="7.21775">
        <ele>541</ele>
        <time>2020-08-18T15:17:33Z</time>
      </trkpt>
      <trkpt lat="48.66277" lon="7.21763">
        <ele>535.7</ele>
        <time>2020-08-18T15:17:35Z</time>
      </trkpt>
      <trkpt lat="48.66285" lon="7.21752">
        <ele>531.5</ele>
        <time>2020-08-18T15:17:37Z</time>
      </trkpt>
      <trkpt lat="48.66296" lon="7.21739">
        <ele>526.3</ele>
        <time>2020-08-18T15:17:39Z</time>
      </trkpt>
      <trkpt lat="48.66308" lon="7.21729">
        <ele>521.4</ele>
        <time>2020-08-18T15:17:41Z</time>
      </trkpt>
      <trkpt lat="48.66315" lon="7.2172">
        <ele>517.9</ele>
        <time>2020-08-18T15:17:43Z</time>
      </trkpt>
      <trkpt lat="48.6632" lon="7.21711">
        <ele>514.7</ele>
        <time>2020-08-18T15:17:45Z</time>
      </trkpt>
      <trkpt lat="48.66325" lon="7.217">
        <ele>512.3</ele>
        <time>2020-08-18T15:17:47Z</time>
      </trkpt>
      <trkpt lat="48.66333" lon="7.21687">
        <ele>509.3</ele>
        <time>2020-08-18T15:17:49Z</time>
      </trkpt>
      <trkpt lat="48.66337" lon="7.21675">
        <ele>506.7</ele>
        <time>2020-08-18T15:17:51Z</time>
      </trkpt>
      <trkpt lat="48.6634" lon="7.21663">
        <ele>504.4</ele>
        <time>2020-08-18T15:17:53Z</time>
      </trkpt>
      <trkpt lat="48.66342" lon="7.21649">
        <ele>501.7</ele>
        <time>2020-08-18T15:17:55Z</time>
      </trkpt>
      <trkpt lat="48.66346" lon="7.21631">
        <ele>500</ele>
        <time>2020-08-18T15:17:57Z</time>
      </trkpt>
      <trkpt lat="48.6635" lon="7.21616">
        <ele>498.6</ele>
        <time>2020-08-18T15:17:59Z</time>
      </trkpt>
      <trkpt lat="48.66354" lon="7.21602">
        <ele>497.3</ele>
        <time>2020-08-18T15:18:01Z</time>
      </trkpt>
      <trkpt lat="48.66357" lon="7.21591">
        <ele>496.6</ele>
        <time>2020-08-18T15:18:03Z</time>
      </trkpt>
      <trkpt lat="48.66361" lon="7.2158">
        <ele>495</ele>
        <time>2020-08-18T15:18:05Z</time>
      </trkpt>
      <trkpt lat="48.66365" lon="7.2157">
        <ele>494.5</ele>
        <time>2020-08-18T15:18:07Z</time>
      </trkpt>
      <trkpt lat="48.66369" lon="7.21559">
        <ele>494.2</ele>
        <time>2020-08-18T15:18:09Z</time>
      </trkpt>
      <trkpt lat="48.66374" lon="7.21546">
        <ele>494.3</ele>
        <time>2020-08-18T15:18:11Z</time>
      </trkpt>
      <trkpt lat="48.66378" lon="7.21533">
        <ele>494.7</ele>
        <time>2020-08-18T15:18:13Z</time>
      </trkpt>
      <trkpt lat="48.66381" lon="7.2152">
        <ele>495.3</ele>
        <time>2020-08-18T15:18:15Z</time>
      </trkpt>
      <trkpt lat="48.66384" lon="7.2151">
        <ele>495.1</ele>
        <time>2020-08-18T15:18:17Z</time>
      </trkpt>
      <trkpt lat="48.66388" lon="7.21499">
        <ele>494.7</ele>
        <time>2020-08-18T15:18:19Z</time>
      </trkpt>
      <trkpt lat="48.66392" lon="7.21486">
        <ele>495.5</ele>
        <time>2020-08-18T15:18:21Z</time>
      </trkpt>
      <trkpt lat="48.66398" lon="7.21474">
        <ele>494.9</ele>
        <time>2020-08-18T15:18:23Z</time>
      </trkpt>
      <trkpt lat="48.66403" lon="7.21462">
        <ele>495</ele>
        <time>2020-08-18T15:18:25Z</time>
      </trkpt>
      <trkpt lat="48.66406" lon="7.21452">
        <ele>494.7</ele>
        <time>2020-08-18T15:18:27Z</time>
      </trkpt>
      <trkpt lat="48.66408" lon="7.21444">
        <ele>494.8</ele>
        <time>2020-08-18T15:18:31Z</time>
      </trkpt>
      <trkpt lat="48.66412" lon="7.21439">
        <ele>498.3</ele>
        <time>2020-08-18T15:18:46Z</time>
      </trkpt>
      <trkpt lat="48.66416" lon="7.21433">
        <ele>499.8</ele>
        <time>2020-08-18T15:18:49Z</time>
      </trkpt>
      <trkpt lat="48.66427" lon="7.21422">
        <ele>499.8</ele>
        <time>2020-08-18T15:18:51Z</time>
      </trkpt>
      <trkpt lat="48.6644" lon="7.21405">
        <ele>500.5</ele>
        <time>2020-08-18T15:18:53Z</time>
      </trkpt>
      <trkpt lat="48.66453" lon="7.21388">
        <ele>500.7</ele>
        <time>2020-08-18T15:18:55Z</time>
      </trkpt>
      <trkpt lat="48.66462" lon="7.21378">
        <ele>501</ele>
        <time>2020-08-18T15:18:57Z</time>
      </trkpt>
      <trkpt lat="48.66468" lon="7.21369">
        <ele>500.6</ele>
        <time>2020-08-18T15:18:59Z</time>
      </trkpt>
      <trkpt lat="48.66473" lon="7.21361">
        <ele>500.5</ele>
        <time>2020-08-18T15:19:01Z</time>
      </trkpt>
      <trkpt lat="48.66477" lon="7.21355">
        <ele>500.4</ele>
        <time>2020-08-18T15:19:03Z</time>
      </trkpt>
      <trkpt lat="48.66482" lon="7.21347">
        <ele>500.8</ele>
        <time>2020-08-18T15:19:06Z</time>
      </trkpt>
      <trkpt lat="48.66486" lon="7.2134">
        <ele>500.8</ele>
        <time>2020-08-18T15:19:08Z</time>
      </trkpt>
      <trkpt lat="48.66491" lon="7.21335">
        <ele>500.9</ele>
        <time>2020-08-18T15:19:10Z</time>
      </trkpt>
      <trkpt lat="48.66498" lon="7.2133">
        <ele>500.9</ele>
        <time>2020-08-18T15:19:12Z</time>
      </trkpt>
      <trkpt lat="48.66505" lon="7.21324">
        <ele>501.7</ele>
        <time>2020-08-18T15:19:14Z</time>
      </trkpt>
      <trkpt lat="48.66514" lon="7.21318">
        <ele>501.8</ele>
        <time>2020-08-18T15:19:16Z</time>
      </trkpt>
      <trkpt lat="48.66523" lon="7.21313">
        <ele>501.6</ele>
        <time>2020-08-18T15:19:18Z</time>
      </trkpt>
      <trkpt lat="48.66539" lon="7.21309">
        <ele>501.4</ele>
        <time>2020-08-18T15:19:20Z</time>
      </trkpt>
      <trkpt lat="48.66549" lon="7.21304">
        <ele>501.4</ele>
        <time>2020-08-18T15:19:22Z</time>
      </trkpt>
      <trkpt lat="48.66554" lon="7.21301">
        <ele>501.5</ele>
        <time>2020-08-18T15:19:24Z</time>
      </trkpt>
      <trkpt lat="48.66558" lon="7.21297">
        <ele>501.9</ele>
        <time>2020-08-18T15:19:27Z</time>
      </trkpt>
      <trkpt lat="48.66562" lon="7.21294">
        <ele>501.1</ele>
        <time>2020-08-18T15:19:33Z</time>
      </trkpt>
      <trkpt lat="48.66567" lon="7.21292">
        <ele>500.3</ele>
        <time>2020-08-18T15:19:40Z</time>
      </trkpt>
      <trkpt lat="48.66573" lon="7.21291">
        <ele>497.9</ele>
        <time>2020-08-18T15:19:51Z</time>
      </trkpt>
      <trkpt lat="48.66578" lon="7.21291">
        <ele>495.7</ele>
        <time>2020-08-18T15:19:55Z</time>
      </trkpt>
      <trkpt lat="48.66582" lon="7.21294">
        <ele>492.9</ele>
        <time>2020-08-18T15:20:02Z</time>
      </trkpt>
      <trkpt lat="48.66587" lon="7.21297">
        <ele>491.2</ele>
        <time>2020-08-18T15:20:07Z</time>
      </trkpt>
      <trkpt lat="48.66592" lon="7.21297">
        <ele>490.6</ele>
        <time>2020-08-18T15:20:12Z</time>
      </trkpt>
      <trkpt lat="48.66597" lon="7.21296">
        <ele>490.2</ele>
        <time>2020-08-18T15:20:15Z</time>
      </trkpt>
      <trkpt lat="48.66603" lon="7.21293">
        <ele>489.9</ele>
        <time>2020-08-18T15:20:19Z</time>
      </trkpt>
      <trkpt lat="48.66608" lon="7.21292">
        <ele>489</ele>
        <time>2020-08-18T15:20:23Z</time>
      </trkpt>
      <trkpt lat="48.66612" lon="7.21291">
        <ele>488.5</ele>
        <time>2020-08-18T15:20:28Z</time>
      </trkpt>
      <trkpt lat="48.66617" lon="7.21288">
        <ele>489.5</ele>
        <time>2020-08-18T15:20:40Z</time>
      </trkpt>
      <trkpt lat="48.6662" lon="7.21284">
        <ele>491.5</ele>
        <time>2020-08-18T15:20:49Z</time>
      </trkpt>
      <trkpt lat="48.66625" lon="7.21283">
        <ele>491.1</ele>
        <time>2020-08-18T15:20:54Z</time>
      </trkpt>
      <trkpt lat="48.6663" lon="7.21283">
        <ele>491.5</ele>
        <time>2020-08-18T15:20:56Z</time>
      </trkpt>
      <trkpt lat="48.66638" lon="7.2128">
        <ele>491.2</ele>
        <time>2020-08-18T15:20:58Z</time>
      </trkpt>
      <trkpt lat="48.66647" lon="7.21277">
        <ele>491.6</ele>
        <time>2020-08-18T15:21:00Z</time>
      </trkpt>
      <trkpt lat="48.66661" lon="7.21272">
        <ele>491.9</ele>
        <time>2020-08-18T15:21:02Z</time>
      </trkpt>
      <trkpt lat="48.66672" lon="7.21266">
        <ele>491.6</ele>
        <time>2020-08-18T15:21:04Z</time>
      </trkpt>
      <trkpt lat="48.66681" lon="7.2126">
        <ele>491.5</ele>
        <time>2020-08-18T15:21:06Z</time>
      </trkpt>
      <trkpt lat="48.66687" lon="7.21252">
        <ele>491.3</ele>
        <time>2020-08-18T15:21:08Z</time>
      </trkpt>
      <trkpt lat="48.66692" lon="7.21242">
        <ele>490.5</ele>
        <time>2020-08-18T15:21:10Z</time>
      </trkpt>
      <trkpt lat="48.66698" lon="7.21233">
        <ele>490.3</ele>
        <time>2020-08-18T15:21:12Z</time>
      </trkpt>
      <trkpt lat="48.66702" lon="7.21221">
        <ele>490.4</ele>
        <time>2020-08-18T15:21:14Z</time>
      </trkpt>
      <trkpt lat="48.66704" lon="7.21206">
        <ele>490.1</ele>
        <time>2020-08-18T15:21:16Z</time>
      </trkpt>
      <trkpt lat="48.66705" lon="7.21189">
        <ele>490</ele>
        <time>2020-08-18T15:21:18Z</time>
      </trkpt>
      <trkpt lat="48.66708" lon="7.21176">
        <ele>489.5</ele>
        <time>2020-08-18T15:21:20Z</time>
      </trkpt>
      <trkpt lat="48.6671" lon="7.21164">
        <ele>488.1</ele>
        <time>2020-08-18T15:21:22Z</time>
      </trkpt>
      <trkpt lat="48.66712" lon="7.2115">
        <ele>486.5</ele>
        <time>2020-08-18T15:21:24Z</time>
      </trkpt>
      <trkpt lat="48.66715" lon="7.21136">
        <ele>484.9</ele>
        <time>2020-08-18T15:21:26Z</time>
      </trkpt>
      <trkpt lat="48.66721" lon="7.21121">
        <ele>484</ele>
        <time>2020-08-18T15:21:28Z</time>
      </trkpt>
      <trkpt lat="48.66726" lon="7.21104">
        <ele>482.8</ele>
        <time>2020-08-18T15:21:30Z</time>
      </trkpt>
      <trkpt lat="48.66731" lon="7.21087">
        <ele>482.8</ele>
        <time>2020-08-18T15:21:32Z</time>
      </trkpt>
      <trkpt lat="48.66734" lon="7.21072">
        <ele>481.7</ele>
        <time>2020-08-18T15:21:34Z</time>
      </trkpt>
      <trkpt lat="48.66738" lon="7.21055">
        <ele>481.3</ele>
        <time>2020-08-18T15:21:36Z</time>
      </trkpt>
      <trkpt lat="48.66742" lon="7.21037">
        <ele>481.2</ele>
        <time>2020-08-18T15:21:38Z</time>
      </trkpt>
      <trkpt lat="48.66744" lon="7.21023">
        <ele>481.4</ele>
        <time>2020-08-18T15:21:40Z</time>
      </trkpt>
      <trkpt lat="48.66745" lon="7.21012">
        <ele>481.2</ele>
        <time>2020-08-18T15:21:42Z</time>
      </trkpt>
      <trkpt lat="48.66744" lon="7.21">
        <ele>481</ele>
        <time>2020-08-18T15:21:44Z</time>
      </trkpt>
      <trkpt lat="48.6674" lon="7.20986">
        <ele>481.2</ele>
        <time>2020-08-18T15:21:46Z</time>
      </trkpt>
      <trkpt lat="48.66738" lon="7.20973">
        <ele>482</ele>
        <time>2020-08-18T15:21:48Z</time>
      </trkpt>
      <trkpt lat="48.66738" lon="7.20959">
        <ele>482.7</ele>
        <time>2020-08-18T15:21:50Z</time>
      </trkpt>
      <trkpt lat="48.66739" lon="7.20947">
        <ele>482.9</ele>
        <time>2020-08-18T15:21:52Z</time>
      </trkpt>
      <trkpt lat="48.66741" lon="7.20937">
        <ele>483.2</ele>
        <time>2020-08-18T15:21:54Z</time>
      </trkpt>
      <trkpt lat="48.66743" lon="7.20928">
        <ele>483.2</ele>
        <time>2020-08-18T15:21:56Z</time>
      </trkpt>
      <trkpt lat="48.66743" lon="7.20921">
        <ele>484.4</ele>
        <time>2020-08-18T15:21:59Z</time>
      </trkpt>
      <trkpt lat="48.66746" lon="7.20914">
        <ele>486.4</ele>
        <time>2020-08-18T15:22:07Z</time>
      </trkpt>
      <trkpt lat="48.66749" lon="7.20905">
        <ele>486.4</ele>
        <time>2020-08-18T15:22:10Z</time>
      </trkpt>
      <trkpt lat="48.66754" lon="7.20897">
        <ele>485.9</ele>
        <time>2020-08-18T15:22:12Z</time>
      </trkpt>
      <trkpt lat="48.66759" lon="7.20888">
        <ele>484.7</ele>
        <time>2020-08-18T15:22:14Z</time>
      </trkpt>
      <trkpt lat="48.66766" lon="7.20875">
        <ele>483.3</ele>
        <time>2020-08-18T15:22:16Z</time>
      </trkpt>
      <trkpt lat="48.66772" lon="7.20859">
        <ele>481.9</ele>
        <time>2020-08-18T15:22:18Z</time>
      </trkpt>
      <trkpt lat="48.66775" lon="7.20845">
        <ele>485</ele>
        <time>2020-08-18T15:22:20Z</time>
      </trkpt>
      <trkpt lat="48.66779" lon="7.20832">
        <ele>485.8</ele>
        <time>2020-08-18T15:22:22Z</time>
      </trkpt>
      <trkpt lat="48.66784" lon="7.20817">
        <ele>485.7</ele>
        <time>2020-08-18T15:22:24Z</time>
      </trkpt>
      <trkpt lat="48.66789" lon="7.20803">
        <ele>484.8</ele>
        <time>2020-08-18T15:22:26Z</time>
      </trkpt>
      <trkpt lat="48.66793" lon="7.20788">
        <ele>483.8</ele>
        <time>2020-08-18T15:22:28Z</time>
      </trkpt>
      <trkpt lat="48.66798" lon="7.20774">
        <ele>482.9</ele>
        <time>2020-08-18T15:22:30Z</time>
      </trkpt>
      <trkpt lat="48.66801" lon="7.20759">
        <ele>481.7</ele>
        <time>2020-08-18T15:22:32Z</time>
      </trkpt>
      <trkpt lat="48.66805" lon="7.20748">
        <ele>480.9</ele>
        <time>2020-08-18T15:22:34Z</time>
      </trkpt>
      <trkpt lat="48.66811" lon="7.20735">
        <ele>480.6</ele>
        <time>2020-08-18T15:22:36Z</time>
      </trkpt>
      <trkpt lat="48.66818" lon="7.20722">
        <ele>479.3</ele>
        <time>2020-08-18T15:22:38Z</time>
      </trkpt>
      <trkpt lat="48.66828" lon="7.20709">
        <ele>478.4</ele>
        <time>2020-08-18T15:22:40Z</time>
      </trkpt>
      <trkpt lat="48.66839" lon="7.20695">
        <ele>478.1</ele>
        <time>2020-08-18T15:22:42Z</time>
      </trkpt>
      <trkpt lat="48.66848" lon="7.20685">
        <ele>478</ele>
        <time>2020-08-18T15:22:44Z</time>
      </trkpt>
      <trkpt lat="48.66856" lon="7.20671">
        <ele>477.4</ele>
        <time>2020-08-18T15:22:46Z</time>
      </trkpt>
      <trkpt lat="48.66864" lon="7.20657">
        <ele>476.8</ele>
        <time>2020-08-18T15:22:48Z</time>
      </trkpt>
      <trkpt lat="48.66871" lon="7.20642">
        <ele>475.3</ele>
        <time>2020-08-18T15:22:50Z</time>
      </trkpt>
      <trkpt lat="48.66875" lon="7.20624">
        <ele>475.4</ele>
        <time>2020-08-18T15:22:52Z</time>
      </trkpt>
      <trkpt lat="48.66879" lon="7.20607">
        <ele>475.7</ele>
        <time>2020-08-18T15:22:54Z</time>
      </trkpt>
      <trkpt lat="48.66883" lon="7.20592">
        <ele>474</ele>
        <time>2020-08-18T15:22:56Z</time>
      </trkpt>
      <trkpt lat="48.66889" lon="7.20579">
        <ele>473.2</ele>
        <time>2020-08-18T15:22:58Z</time>
      </trkpt>
      <trkpt lat="48.66896" lon="7.20565">
        <ele>471.5</ele>
        <time>2020-08-18T15:23:00Z</time>
      </trkpt>
      <trkpt lat="48.66903" lon="7.20554">
        <ele>470.1</ele>
        <time>2020-08-18T15:23:02Z</time>
      </trkpt>
      <trkpt lat="48.66912" lon="7.20544">
        <ele>469.1</ele>
        <time>2020-08-18T15:23:04Z</time>
      </trkpt>
      <trkpt lat="48.66923" lon="7.20534">
        <ele>472.3</ele>
        <time>2020-08-18T15:23:06Z</time>
      </trkpt>
      <trkpt lat="48.66935" lon="7.20527">
        <ele>471.7</ele>
        <time>2020-08-18T15:23:08Z</time>
      </trkpt>
      <trkpt lat="48.66947" lon="7.2052">
        <ele>473.6</ele>
        <time>2020-08-18T15:23:10Z</time>
      </trkpt>
      <trkpt lat="48.66959" lon="7.20514">
        <ele>473.4</ele>
        <time>2020-08-18T15:23:12Z</time>
      </trkpt>
      <trkpt lat="48.6697" lon="7.2051">
        <ele>471.6</ele>
        <time>2020-08-18T15:23:14Z</time>
      </trkpt>
      <trkpt lat="48.6698" lon="7.20505">
        <ele>470.1</ele>
        <time>2020-08-18T15:23:16Z</time>
      </trkpt>
      <trkpt lat="48.6699" lon="7.205">
        <ele>467.4</ele>
        <time>2020-08-18T15:23:18Z</time>
      </trkpt>
      <trkpt lat="48.66999" lon="7.20495">
        <ele>465</ele>
        <time>2020-08-18T15:23:20Z</time>
      </trkpt>
      <trkpt lat="48.67009" lon="7.20493">
        <ele>461.6</ele>
        <time>2020-08-18T15:23:22Z</time>
      </trkpt>
      <trkpt lat="48.67019" lon="7.2049">
        <ele>459.1</ele>
        <time>2020-08-18T15:23:24Z</time>
      </trkpt>
      <trkpt lat="48.67029" lon="7.20486">
        <ele>456.6</ele>
        <time>2020-08-18T15:23:26Z</time>
      </trkpt>
      <trkpt lat="48.67035" lon="7.20484">
        <ele>454.7</ele>
        <time>2020-08-18T15:23:28Z</time>
      </trkpt>
      <trkpt lat="48.67037" lon="7.20477">
        <ele>450.5</ele>
        <time>2020-08-18T15:23:54Z</time>
      </trkpt>
      <trkpt lat="48.67041" lon="7.20471">
        <ele>450.1</ele>
        <time>2020-08-18T15:23:56Z</time>
      </trkpt>
      <trkpt lat="48.67045" lon="7.20462">
        <ele>455.1</ele>
        <time>2020-08-18T15:23:58Z</time>
      </trkpt>
      <trkpt lat="48.67049" lon="7.20452">
        <ele>454</ele>
        <time>2020-08-18T15:24:00Z</time>
      </trkpt>
      <trkpt lat="48.67053" lon="7.20442">
        <ele>453.6</ele>
        <time>2020-08-18T15:24:02Z</time>
      </trkpt>
      <trkpt lat="48.67058" lon="7.20436">
        <ele>453.9</ele>
        <time>2020-08-18T15:24:04Z</time>
      </trkpt>
      <trkpt lat="48.6706" lon="7.20426">
        <ele>447</ele>
        <time>2020-08-18T15:24:20Z</time>
      </trkpt>
      <trkpt lat="48.67063" lon="7.20417">
        <ele>445.3</ele>
        <time>2020-08-18T15:24:22Z</time>
      </trkpt>
      <trkpt lat="48.67066" lon="7.20406">
        <ele>444.2</ele>
        <time>2020-08-18T15:24:24Z</time>
      </trkpt>
      <trkpt lat="48.67071" lon="7.20393">
        <ele>443.3</ele>
        <time>2020-08-18T15:24:26Z</time>
      </trkpt>
      <trkpt lat="48.67076" lon="7.20382">
        <ele>442.1</ele>
        <time>2020-08-18T15:24:28Z</time>
      </trkpt>
      <trkpt lat="48.6708" lon="7.20373">
        <ele>441.4</ele>
        <time>2020-08-18T15:24:30Z</time>
      </trkpt>
      <trkpt lat="48.67082" lon="7.20366">
        <ele>440.6</ele>
        <time>2020-08-18T15:24:34Z</time>
      </trkpt>
      <trkpt lat="48.67083" lon="7.20359">
        <ele>439.3</ele>
        <time>2020-08-18T15:24:44Z</time>
      </trkpt>
      <trkpt lat="48.67084" lon="7.20352">
        <ele>437.2</ele>
        <time>2020-08-18T15:24:54Z</time>
      </trkpt>
      <trkpt lat="48.67087" lon="7.20343">
        <ele>436.3</ele>
        <time>2020-08-18T15:24:57Z</time>
      </trkpt>
      <trkpt lat="48.67088" lon="7.20334">
        <ele>435.4</ele>
        <time>2020-08-18T15:24:59Z</time>
      </trkpt>
      <trkpt lat="48.67087" lon="7.20327">
        <ele>434.4</ele>
        <time>2020-08-18T15:25:01Z</time>
      </trkpt>
      <trkpt lat="48.67087" lon="7.2032">
        <ele>432.5</ele>
        <time>2020-08-18T15:25:06Z</time>
      </trkpt>
      <trkpt lat="48.67086" lon="7.20313">
        <ele>430.4</ele>
        <time>2020-08-18T15:25:14Z</time>
      </trkpt>
      <trkpt lat="48.67088" lon="7.20304">
        <ele>427.2</ele>
        <time>2020-08-18T15:25:29Z</time>
      </trkpt>
      <trkpt lat="48.67089" lon="7.20295">
        <ele>427.3</ele>
        <time>2020-08-18T15:25:32Z</time>
      </trkpt>
      <trkpt lat="48.67094" lon="7.20286">
        <ele>426.7</ele>
        <time>2020-08-18T15:25:34Z</time>
      </trkpt>
      <trkpt lat="48.67101" lon="7.20278">
        <ele>426</ele>
        <time>2020-08-18T15:25:36Z</time>
      </trkpt>
      <trkpt lat="48.67108" lon="7.2027">
        <ele>425.6</ele>
        <time>2020-08-18T15:25:38Z</time>
      </trkpt>
      <trkpt lat="48.67113" lon="7.20266">
        <ele>426.2</ele>
        <time>2020-08-18T15:25:40Z</time>
      </trkpt>
      <trkpt lat="48.67118" lon="7.20261">
        <ele>425.7</ele>
        <time>2020-08-18T15:25:42Z</time>
      </trkpt>
      <trkpt lat="48.67124" lon="7.20257">
        <ele>425.4</ele>
        <time>2020-08-18T15:25:44Z</time>
      </trkpt>
      <trkpt lat="48.67129" lon="7.20253">
        <ele>425.2</ele>
        <time>2020-08-18T15:25:46Z</time>
      </trkpt>
      <trkpt lat="48.67133" lon="7.20247">
        <ele>425.1</ele>
        <time>2020-08-18T15:25:49Z</time>
      </trkpt>
      <trkpt lat="48.67137" lon="7.20244">
        <ele>422.9</ele>
        <time>2020-08-18T15:25:53Z</time>
      </trkpt>
      <trkpt lat="48.67133" lon="7.20241">
        <ele>419.1</ele>
        <time>2020-08-18T15:26:09Z</time>
      </trkpt>
      <trkpt lat="48.67128" lon="7.20239">
        <ele>419.9</ele>
        <time>2020-08-18T15:26:11Z</time>
      </trkpt>
      <trkpt lat="48.67121" lon="7.20238">
        <ele>419.8</ele>
        <time>2020-08-18T15:26:13Z</time>
      </trkpt>
      <trkpt lat="48.67114" lon="7.2024">
        <ele>419.7</ele>
        <time>2020-08-18T15:26:15Z</time>
      </trkpt>
      <trkpt lat="48.6711" lon="7.20242">
        <ele>419.5</ele>
        <time>2020-08-18T15:26:17Z</time>
      </trkpt>
      <trkpt lat="48.67106" lon="7.20247">
        <ele>420.2</ele>
        <time>2020-08-18T15:26:21Z</time>
      </trkpt>
      <trkpt lat="48.67103" lon="7.20252">
        <ele>420.8</ele>
        <time>2020-08-18T15:26:27Z</time>
      </trkpt>
      <trkpt lat="48.67105" lon="7.20244">
        <ele>420.6</ele>
        <time>2020-08-18T15:26:36Z</time>
      </trkpt>
      <trkpt lat="48.67108" lon="7.20236">
        <ele>419.4</ele>
        <time>2020-08-18T15:26:39Z</time>
      </trkpt>
      <trkpt lat="48.67111" lon="7.2023">
        <ele>417.2</ele>
        <time>2020-08-18T15:26:44Z</time>
      </trkpt>
      <trkpt lat="48.67115" lon="7.20225">
        <ele>416.8</ele>
        <time>2020-08-18T15:26:46Z</time>
      </trkpt>
      <trkpt lat="48.6712" lon="7.20219">
        <ele>416</ele>
        <time>2020-08-18T15:26:48Z</time>
      </trkpt>
      <trkpt lat="48.67125" lon="7.20214">
        <ele>414.7</ele>
        <time>2020-08-18T15:26:50Z</time>
      </trkpt>
      <trkpt lat="48.67129" lon="7.2021">
        <ele>413.5</ele>
        <time>2020-08-18T15:26:52Z</time>
      </trkpt>
      <trkpt lat="48.67134" lon="7.20206">
        <ele>412.3</ele>
        <time>2020-08-18T15:26:55Z</time>
      </trkpt>
      <trkpt lat="48.6714" lon="7.20203">
        <ele>409.7</ele>
        <time>2020-08-18T15:26:58Z</time>
      </trkpt>
      <trkpt lat="48.67145" lon="7.20201">
        <ele>406</ele>
        <time>2020-08-18T15:27:03Z</time>
      </trkpt>
      <trkpt lat="48.67147" lon="7.20196">
        <ele>404.2</ele>
        <time>2020-08-18T15:27:10Z</time>
      </trkpt>
      <trkpt lat="48.67153" lon="7.20192">
        <ele>403.9</ele>
        <time>2020-08-18T15:27:20Z</time>
      </trkpt>
      <trkpt lat="48.67159" lon="7.20194">
        <ele>403.6</ele>
        <time>2020-08-18T15:27:22Z</time>
      </trkpt>
      <trkpt lat="48.67167" lon="7.20196">
        <ele>403</ele>
        <time>2020-08-18T15:27:24Z</time>
      </trkpt>
      <trkpt lat="48.67174" lon="7.20197">
        <ele>404.6</ele>
        <time>2020-08-18T15:27:26Z</time>
      </trkpt>
      <trkpt lat="48.6718" lon="7.20194">
        <ele>405.3</ele>
        <time>2020-08-18T15:27:29Z</time>
      </trkpt>
      <trkpt lat="48.67182" lon="7.20187">
        <ele>404.6</ele>
        <time>2020-08-18T15:27:33Z</time>
      </trkpt>
      <trkpt lat="48.67183" lon="7.2018">
        <ele>403.5</ele>
        <time>2020-08-18T15:27:39Z</time>
      </trkpt>
      <trkpt lat="48.67181" lon="7.20173">
        <ele>400.2</ele>
        <time>2020-08-18T15:27:46Z</time>
      </trkpt>
      <trkpt lat="48.67176" lon="7.2017">
        <ele>396.3</ele>
        <time>2020-08-18T15:27:52Z</time>
      </trkpt>
      <trkpt lat="48.67172" lon="7.20169">
        <ele>394.3</ele>
        <time>2020-08-18T15:27:56Z</time>
      </trkpt>
      <trkpt lat="48.67166" lon="7.20169">
        <ele>388.1</ele>
        <time>2020-08-18T15:28:02Z</time>
      </trkpt>
      <trkpt lat="48.67162" lon="7.20163">
        <ele>385</ele>
        <time>2020-08-18T15:28:06Z</time>
      </trkpt>
      <trkpt lat="48.67163" lon="7.20156">
        <ele>380.8</ele>
        <time>2020-08-18T15:28:19Z</time>
      </trkpt>
      <trkpt lat="48.67169" lon="7.2015">
        <ele>379.8</ele>
        <time>2020-08-18T15:28:22Z</time>
      </trkpt>
      <trkpt lat="48.67179" lon="7.20147">
        <ele>379</ele>
        <time>2020-08-18T15:28:24Z</time>
      </trkpt>
      <trkpt lat="48.67185" lon="7.20145">
        <ele>378.6</ele>
        <time>2020-08-18T15:28:26Z</time>
      </trkpt>
      <trkpt lat="48.67189" lon="7.20143">
        <ele>378.4</ele>
        <time>2020-08-18T15:28:31Z</time>
      </trkpt>
      <trkpt lat="48.67192" lon="7.20137">
        <ele>378.9</ele>
        <time>2020-08-18T15:28:44Z</time>
      </trkpt>
      <trkpt lat="48.67187" lon="7.20138">
        <ele>381.8</ele>
        <time>2020-08-18T15:29:01Z</time>
      </trkpt>
      <trkpt lat="48.67182" lon="7.2014">
        <ele>382.4</ele>
        <time>2020-08-18T15:29:05Z</time>
      </trkpt>
      <trkpt lat="48.67177" lon="7.20142">
        <ele>382.9</ele>
        <time>2020-08-18T15:29:09Z</time>
      </trkpt>
      <trkpt lat="48.67172" lon="7.20146">
        <ele>382.9</ele>
        <time>2020-08-18T15:29:13Z</time>
      </trkpt>
      <trkpt lat="48.67169" lon="7.20151">
        <ele>383.6</ele>
        <time>2020-08-18T15:29:18Z</time>
      </trkpt>
      <trkpt lat="48.67163" lon="7.2015">
        <ele>395.3</ele>
        <time>2020-08-18T15:29:34Z</time>
      </trkpt>
      <trkpt lat="48.67157" lon="7.2015">
        <ele>394.7</ele>
        <time>2020-08-18T15:29:37Z</time>
      </trkpt>
      <trkpt lat="48.67151" lon="7.20149">
        <ele>394</ele>
        <time>2020-08-18T15:29:40Z</time>
      </trkpt>
      <trkpt lat="48.67146" lon="7.20148">
        <ele>393.1</ele>
        <time>2020-08-18T15:29:42Z</time>
      </trkpt>
      <trkpt lat="48.67142" lon="7.2015">
        <ele>391.5</ele>
        <time>2020-08-18T15:29:45Z</time>
      </trkpt>
      <trkpt lat="48.67148" lon="7.20153">
        <ele>389</ele>
        <time>2020-08-18T15:29:49Z</time>
      </trkpt>
      <trkpt lat="48.67154" lon="7.20154">
        <ele>387.8</ele>
        <time>2020-08-18T15:29:51Z</time>
      </trkpt>
      <trkpt lat="48.67162" lon="7.20155">
        <ele>387.4</ele>
        <time>2020-08-18T15:29:53Z</time>
      </trkpt>
      <trkpt lat="48.6717" lon="7.20156">
        <ele>386.6</ele>
        <time>2020-08-18T15:29:55Z</time>
      </trkpt>
      <trkpt lat="48.67178" lon="7.20159">
        <ele>386.2</ele>
        <time>2020-08-18T15:29:57Z</time>
      </trkpt>
      <trkpt lat="48.67185" lon="7.20162">
        <ele>385.9</ele>
        <time>2020-08-18T15:29:59Z</time>
      </trkpt>
      <trkpt lat="48.67193" lon="7.20166">
        <ele>384.9</ele>
        <time>2020-08-18T15:30:01Z</time>
      </trkpt>
      <trkpt lat="48.672" lon="7.20173">
        <ele>384.3</ele>
        <time>2020-08-18T15:30:03Z</time>
      </trkpt>
      <trkpt lat="48.67206" lon="7.20179">
        <ele>383.5</ele>
        <time>2020-08-18T15:30:05Z</time>
      </trkpt>
      <trkpt lat="48.67211" lon="7.20184">
        <ele>382.7</ele>
        <time>2020-08-18T15:30:07Z</time>
      </trkpt>
      <trkpt lat="48.67206" lon="7.20181">
        <ele>382.7</ele>
        <time>2020-08-18T15:30:36Z</time>
      </trkpt>
      <trkpt lat="48.672" lon="7.20176">
        <ele>382</ele>
        <time>2020-08-18T15:30:39Z</time>
      </trkpt>
      <trkpt lat="48.67196" lon="7.20173">
        <ele>381.8</ele>
        <time>2020-08-18T15:30:41Z</time>
      </trkpt>
      <trkpt lat="48.6719" lon="7.20169">
        <ele>381.2</ele>
        <time>2020-08-18T15:30:43Z</time>
      </trkpt>
      <trkpt lat="48.67184" lon="7.20165">
        <ele>380.7</ele>
        <time>2020-08-18T15:30:45Z</time>
      </trkpt>
      <trkpt lat="48.67179" lon="7.20161">
        <ele>380.7</ele>
        <time>2020-08-18T15:30:47Z</time>
      </trkpt>
      <trkpt lat="48.67172" lon="7.20158">
        <ele>381.1</ele>
        <time>2020-08-18T15:30:49Z</time>
      </trkpt>
      <trkpt lat="48.67168" lon="7.20158">
        <ele>381.6</ele>
        <time>2020-08-18T15:30:53Z</time>
      </trkpt>
      <trkpt lat="48.67163" lon="7.20158">
        <ele>383.3</ele>
        <time>2020-08-18T15:31:05Z</time>
      </trkpt>
      <trkpt lat="48.6716" lon="7.20152">
        <ele>413.1</ele>
        <time>2020-08-18T15:31:37Z</time>
      </trkpt>
      <trkpt lat="48.67154" lon="7.20152">
        <ele>420.5</ele>
        <time>2020-08-18T15:31:43Z</time>
      </trkpt>
      <trkpt lat="48.67149" lon="7.2015">
        <ele>412.3</ele>
        <time>2020-08-18T15:31:48Z</time>
      </trkpt>
      <trkpt lat="48.67144" lon="7.2015">
        <ele>404.8</ele>
        <time>2020-08-18T15:31:53Z</time>
      </trkpt>
      <trkpt lat="48.67149" lon="7.20152">
        <ele>397.3</ele>
        <time>2020-08-18T15:32:01Z</time>
      </trkpt>
      <trkpt lat="48.67154" lon="7.20153">
        <ele>395.8</ele>
        <time>2020-08-18T15:32:03Z</time>
      </trkpt>
      <trkpt lat="48.67159" lon="7.20153">
        <ele>392.9</ele>
        <time>2020-08-18T15:32:06Z</time>
      </trkpt>
      <trkpt lat="48.67163" lon="7.20148">
        <ele>388.1</ele>
        <time>2020-08-18T15:32:36Z</time>
      </trkpt>
      <trkpt lat="48.67168" lon="7.20146">
        <ele>386.3</ele>
        <time>2020-08-18T15:32:38Z</time>
      </trkpt>
      <trkpt lat="48.67174" lon="7.20144">
        <ele>384.6</ele>
        <time>2020-08-18T15:32:40Z</time>
      </trkpt>
      <trkpt lat="48.6718" lon="7.20142">
        <ele>383.6</ele>
        <time>2020-08-18T15:32:42Z</time>
      </trkpt>
      <trkpt lat="48.67186" lon="7.20141">
        <ele>382.1</ele>
        <time>2020-08-18T15:32:45Z</time>
      </trkpt>
      <trkpt lat="48.6719" lon="7.20141">
        <ele>381.8</ele>
        <time>2020-08-18T15:32:47Z</time>
      </trkpt>
      <trkpt lat="48.67199" lon="7.20138">
        <ele>380.3</ele>
        <time>2020-08-18T15:32:49Z</time>
      </trkpt>
      <trkpt lat="48.67209" lon="7.20138">
        <ele>378.9</ele>
        <time>2020-08-18T15:32:51Z</time>
      </trkpt>
      <trkpt lat="48.67221" lon="7.20141">
        <ele>377.6</ele>
        <time>2020-08-18T15:32:53Z</time>
      </trkpt>
      <trkpt lat="48.67235" lon="7.20142">
        <ele>376.5</ele>
        <time>2020-08-18T15:32:55Z</time>
      </trkpt>
      <trkpt lat="48.67249" lon="7.20142">
        <ele>376.2</ele>
        <time>2020-08-18T15:32:57Z</time>
      </trkpt>
      <trkpt lat="48.67262" lon="7.20143">
        <ele>375.1</ele>
        <time>2020-08-18T15:32:59Z</time>
      </trkpt>
      <trkpt lat="48.67272" lon="7.20149">
        <ele>372.9</ele>
        <time>2020-08-18T15:33:01Z</time>
      </trkpt>
      <trkpt lat="48.67279" lon="7.20156">
        <ele>371.7</ele>
        <time>2020-08-18T15:33:03Z</time>
      </trkpt>
      <trkpt lat="48.67285" lon="7.20166">
        <ele>370.1</ele>
        <time>2020-08-18T15:33:05Z</time>
      </trkpt>
      <trkpt lat="48.6729" lon="7.20177">
        <ele>378.4</ele>
        <time>2020-08-18T15:33:07Z</time>
      </trkpt>
      <trkpt lat="48.67293" lon="7.20189">
        <ele>377.6</ele>
        <time>2020-08-18T15:33:09Z</time>
      </trkpt>
      <trkpt lat="48.67295" lon="7.20201">
        <ele>379.1</ele>
        <time>2020-08-18T15:33:11Z</time>
      </trkpt>
      <trkpt lat="48.67294" lon="7.20215">
        <ele>377.3</ele>
        <time>2020-08-18T15:33:13Z</time>
      </trkpt>
      <trkpt lat="48.67295" lon="7.20229">
        <ele>376.3</ele>
        <time>2020-08-18T15:33:15Z</time>
      </trkpt>
      <trkpt lat="48.67295" lon="7.20245">
        <ele>374.7</ele>
        <time>2020-08-18T15:33:17Z</time>
      </trkpt>
      <trkpt lat="48.67291" lon="7.2026">
        <ele>383.8</ele>
        <time>2020-08-18T15:33:19Z</time>
      </trkpt>
      <trkpt lat="48.67289" lon="7.20277">
        <ele>382.4</ele>
        <time>2020-08-18T15:33:21Z</time>
      </trkpt>
      <trkpt lat="48.67284" lon="7.20294">
        <ele>380.8</ele>
        <time>2020-08-18T15:33:23Z</time>
      </trkpt>
      <trkpt lat="48.67282" lon="7.20307">
        <ele>378.3</ele>
        <time>2020-08-18T15:33:25Z</time>
      </trkpt>
      <trkpt lat="48.67282" lon="7.20315">
        <ele>376.8</ele>
        <time>2020-08-18T15:33:27Z</time>
      </trkpt>
      <trkpt lat="48.67285" lon="7.20321">
        <ele>372.3</ele>
        <time>2020-08-18T15:33:33Z</time>
      </trkpt>
      <trkpt lat="48.67289" lon="7.20317">
        <ele>369.6</ele>
        <time>2020-08-18T15:33:36Z</time>
      </trkpt>
      <trkpt lat="48.67294" lon="7.20311">
        <ele>367.4</ele>
        <time>2020-08-18T15:33:38Z</time>
      </trkpt>
      <trkpt lat="48.673" lon="7.20303">
        <ele>366</ele>
        <time>2020-08-18T15:33:40Z</time>
      </trkpt>
      <trkpt lat="48.67306" lon="7.20292">
        <ele>365</ele>
        <time>2020-08-18T15:33:42Z</time>
      </trkpt>
      <trkpt lat="48.67311" lon="7.20279">
        <ele>364</ele>
        <time>2020-08-18T15:33:44Z</time>
      </trkpt>
      <trkpt lat="48.67316" lon="7.20265">
        <ele>362.2</ele>
        <time>2020-08-18T15:33:46Z</time>
      </trkpt>
      <trkpt lat="48.67321" lon="7.20249">
        <ele>360.6</ele>
        <time>2020-08-18T15:33:48Z</time>
      </trkpt>
      <trkpt lat="48.67326" lon="7.20235">
        <ele>358.8</ele>
        <time>2020-08-18T15:33:50Z</time>
      </trkpt>
      <trkpt lat="48.67332" lon="7.20222">
        <ele>357.4</ele>
        <time>2020-08-18T15:33:52Z</time>
      </trkpt>
      <trkpt lat="48.67334" lon="7.20208">
        <ele>354.9</ele>
        <time>2020-08-18T15:33:54Z</time>
      </trkpt>
      <trkpt lat="48.67336" lon="7.202">
        <ele>354</ele>
        <time>2020-08-18T15:33:56Z</time>
      </trkpt>
      <trkpt lat="48.6734" lon="7.20195">
        <ele>352.7</ele>
        <time>2020-08-18T15:34:00Z</time>
      </trkpt>
      <trkpt lat="48.67344" lon="7.20188">
        <ele>351.3</ele>
        <time>2020-08-18T15:34:08Z</time>
      </trkpt>
      <trkpt lat="48.67344" lon="7.2018">
        <ele>349.7</ele>
        <time>2020-08-18T15:34:10Z</time>
      </trkpt>
      <trkpt lat="48.67344" lon="7.20171">
        <ele>348.2</ele>
        <time>2020-08-18T15:34:12Z</time>
      </trkpt>
      <trkpt lat="48.67343" lon="7.20162">
        <ele>346.3</ele>
        <time>2020-08-18T15:34:15Z</time>
      </trkpt>
      <trkpt lat="48.67341" lon="7.20153">
        <ele>344.9</ele>
        <time>2020-08-18T15:34:17Z</time>
      </trkpt>
      <trkpt lat="48.67338" lon="7.20143">
        <ele>343.6</ele>
        <time>2020-08-18T15:34:19Z</time>
      </trkpt>
      <trkpt lat="48.67333" lon="7.20133">
        <ele>342.7</ele>
        <time>2020-08-18T15:34:21Z</time>
      </trkpt>
      <trkpt lat="48.67328" lon="7.20123">
        <ele>342.1</ele>
        <time>2020-08-18T15:34:23Z</time>
      </trkpt>
      <trkpt lat="48.67323" lon="7.20114">
        <ele>341.5</ele>
        <time>2020-08-18T15:34:25Z</time>
      </trkpt>
      <trkpt lat="48.67315" lon="7.20105">
        <ele>340.6</ele>
        <time>2020-08-18T15:34:27Z</time>
      </trkpt>
      <trkpt lat="48.67308" lon="7.20095">
        <ele>339.6</ele>
        <time>2020-08-18T15:34:29Z</time>
      </trkpt>
      <trkpt lat="48.67303" lon="7.20084">
        <ele>339.1</ele>
        <time>2020-08-18T15:34:31Z</time>
      </trkpt>
      <trkpt lat="48.67297" lon="7.20073">
        <ele>338.4</ele>
        <time>2020-08-18T15:34:33Z</time>
      </trkpt>
      <trkpt lat="48.6729" lon="7.20059">
        <ele>337.7</ele>
        <time>2020-08-18T15:34:35Z</time>
      </trkpt>
      <trkpt lat="48.67284" lon="7.20047">
        <ele>337.9</ele>
        <time>2020-08-18T15:34:37Z</time>
      </trkpt>
      <trkpt lat="48.67275" lon="7.20037">
        <ele>337.6</ele>
        <time>2020-08-18T15:34:39Z</time>
      </trkpt>
      <trkpt lat="48.67264" lon="7.20028">
        <ele>337.2</ele>
        <time>2020-08-18T15:34:41Z</time>
      </trkpt>
      <trkpt lat="48.67254" lon="7.20021">
        <ele>337.6</ele>
        <time>2020-08-18T15:34:43Z</time>
      </trkpt>
      <trkpt lat="48.67244" lon="7.20015">
        <ele>337</ele>
        <time>2020-08-18T15:34:45Z</time>
      </trkpt>
      <trkpt lat="48.67235" lon="7.20008">
        <ele>337.1</ele>
        <time>2020-08-18T15:34:47Z</time>
      </trkpt>
      <trkpt lat="48.67232" lon="7.20003">
        <ele>336.9</ele>
        <time>2020-08-18T15:34:49Z</time>
      </trkpt>
      <trkpt lat="48.67228" lon="7.19998">
        <ele>329.3</ele>
        <time>2020-08-18T15:35:34Z</time>
      </trkpt>
      <trkpt lat="48.67223" lon="7.19992">
        <ele>328.4</ele>
        <time>2020-08-18T15:35:36Z</time>
      </trkpt>
      <trkpt lat="48.67218" lon="7.19985">
        <ele>328</ele>
        <time>2020-08-18T15:35:38Z</time>
      </trkpt>
      <trkpt lat="48.67213" lon="7.1998">
        <ele>328.2</ele>
        <time>2020-08-18T15:35:39Z</time>
      </trkpt>
      <trkpt lat="48.67203" lon="7.19973">
        <ele>327.9</ele>
        <time>2020-08-18T15:35:41Z</time>
      </trkpt>
      <trkpt lat="48.67193" lon="7.19965">
        <ele>327.3</ele>
        <time>2020-08-18T15:35:43Z</time>
      </trkpt>
      <trkpt lat="48.67183" lon="7.19957">
        <ele>326.9</ele>
        <time>2020-08-18T15:35:45Z</time>
      </trkpt>
      <trkpt lat="48.67172" lon="7.1995">
        <ele>327</ele>
        <time>2020-08-18T15:35:47Z</time>
      </trkpt>
      <trkpt lat="48.67162" lon="7.19942">
        <ele>327.1</ele>
        <time>2020-08-18T15:35:49Z</time>
      </trkpt>
      <trkpt lat="48.67151" lon="7.19935">
        <ele>327.4</ele>
        <time>2020-08-18T15:35:51Z</time>
      </trkpt>
      <trkpt lat="48.6714" lon="7.19927">
        <ele>327.7</ele>
        <time>2020-08-18T15:35:53Z</time>
      </trkpt>
      <trkpt lat="48.67127" lon="7.19918">
        <ele>327.6</ele>
        <time>2020-08-18T15:35:55Z</time>
      </trkpt>
      <trkpt lat="48.67114" lon="7.19909">
        <ele>327.2</ele>
        <time>2020-08-18T15:35:57Z</time>
      </trkpt>
      <trkpt lat="48.67102" lon="7.19901">
        <ele>327.3</ele>
        <time>2020-08-18T15:35:59Z</time>
      </trkpt>
      <trkpt lat="48.6709" lon="7.19894">
        <ele>327.2</ele>
        <time>2020-08-18T15:36:01Z</time>
      </trkpt>
      <trkpt lat="48.67077" lon="7.19889">
        <ele>326.7</ele>
        <time>2020-08-18T15:36:03Z</time>
      </trkpt>
      <trkpt lat="48.67064" lon="7.19885">
        <ele>326.5</ele>
        <time>2020-08-18T15:36:05Z</time>
      </trkpt>
      <trkpt lat="48.67054" lon="7.19882">
        <ele>326.3</ele>
        <time>2020-08-18T15:36:07Z</time>
      </trkpt>
      <trkpt lat="48.67043" lon="7.19881">
        <ele>325.4</ele>
        <time>2020-08-18T15:36:09Z</time>
      </trkpt>
      <trkpt lat="48.67032" lon="7.19882">
        <ele>324.9</ele>
        <time>2020-08-18T15:36:11Z</time>
      </trkpt>
      <trkpt lat="48.67021" lon="7.19884">
        <ele>323.6</ele>
        <time>2020-08-18T15:36:13Z</time>
      </trkpt>
      <trkpt lat="48.67015" lon="7.19886">
        <ele>321.7</ele>
        <time>2020-08-18T15:36:15Z</time>
      </trkpt>
      <trkpt lat="48.6701" lon="7.19885">
        <ele>336.6</ele>
        <time>2020-08-18T15:36:27Z</time>
      </trkpt>
      <trkpt lat="48.67012" lon="7.19878">
        <ele>334.8</ele>
        <time>2020-08-18T15:36:31Z</time>
      </trkpt>
      <trkpt lat="48.67017" lon="7.19875">
        <ele>332.8</ele>
        <time>2020-08-18T15:36:33Z</time>
      </trkpt>
      <trkpt lat="48.67023" lon="7.19871">
        <ele>330.3</ele>
        <time>2020-08-18T15:36:35Z</time>
      </trkpt>
      <trkpt lat="48.67031" lon="7.19866">
        <ele>327.9</ele>
        <time>2020-08-18T15:36:37Z</time>
      </trkpt>
      <trkpt lat="48.6704" lon="7.1986">
        <ele>325.3</ele>
        <time>2020-08-18T15:36:39Z</time>
      </trkpt>
      <trkpt lat="48.67051" lon="7.19853">
        <ele>323.4</ele>
        <time>2020-08-18T15:36:41Z</time>
      </trkpt>
      <trkpt lat="48.67065" lon="7.19848">
        <ele>321.4</ele>
        <time>2020-08-18T15:36:43Z</time>
      </trkpt>
      <trkpt lat="48.67079" lon="7.19842">
        <ele>319.8</ele>
        <time>2020-08-18T15:36:45Z</time>
      </trkpt>
      <trkpt lat="48.67092" lon="7.19837">
        <ele>318.1</ele>
        <time>2020-08-18T15:36:47Z</time>
      </trkpt>
      <trkpt lat="48.67105" lon="7.19833">
        <ele>316.2</ele>
        <time>2020-08-18T15:36:49Z</time>
      </trkpt>
      <trkpt lat="48.67119" lon="7.19829">
        <ele>314.7</ele>
        <time>2020-08-18T15:36:51Z</time>
      </trkpt>
      <trkpt lat="48.67134" lon="7.19826">
        <ele>312.6</ele>
        <time>2020-08-18T15:36:53Z</time>
      </trkpt>
      <trkpt lat="48.67151" lon="7.19822">
        <ele>311.1</ele>
        <time>2020-08-18T15:36:55Z</time>
      </trkpt>
      <trkpt lat="48.67166" lon="7.19819">
        <ele>310</ele>
        <time>2020-08-18T15:36:57Z</time>
      </trkpt>
      <trkpt lat="48.67181" lon="7.19814">
        <ele>309.3</ele>
        <time>2020-08-18T15:36:59Z</time>
      </trkpt>
      <trkpt lat="48.67197" lon="7.19811">
        <ele>308.5</ele>
        <time>2020-08-18T15:37:01Z</time>
      </trkpt>
      <trkpt lat="48.67214" lon="7.19808">
        <ele>308.4</ele>
        <time>2020-08-18T15:37:03Z</time>
      </trkpt>
      <trkpt lat="48.67233" lon="7.19806">
        <ele>307.5</ele>
        <time>2020-08-18T15:37:05Z</time>
      </trkpt>
      <trkpt lat="48.67247" lon="7.19808">
        <ele>304.4</ele>
        <time>2020-08-18T15:37:07Z</time>
      </trkpt>
      <trkpt lat="48.67254" lon="7.1981">
        <ele>302.8</ele>
        <time>2020-08-18T15:37:09Z</time>
      </trkpt>
      <trkpt lat="48.67259" lon="7.19808">
        <ele>297.5</ele>
        <time>2020-08-18T15:37:17Z</time>
      </trkpt>
      <trkpt lat="48.67264" lon="7.19806">
        <ele>296.7</ele>
        <time>2020-08-18T15:37:20Z</time>
      </trkpt>
      <trkpt lat="48.67271" lon="7.19804">
        <ele>295.4</ele>
        <time>2020-08-18T15:37:23Z</time>
      </trkpt>
      <trkpt lat="48.67275" lon="7.19802">
        <ele>294.1</ele>
        <time>2020-08-18T15:37:25Z</time>
      </trkpt>
      <trkpt lat="48.67282" lon="7.19799">
        <ele>292.2</ele>
        <time>2020-08-18T15:37:28Z</time>
      </trkpt>
      <trkpt lat="48.67287" lon="7.19796">
        <ele>290.9</ele>
        <time>2020-08-18T15:37:30Z</time>
      </trkpt>
      <trkpt lat="48.67295" lon="7.19789">
        <ele>290.5</ele>
        <time>2020-08-18T15:37:32Z</time>
      </trkpt>
      <trkpt lat="48.67301" lon="7.19783">
        <ele>307.8</ele>
        <time>2020-08-18T15:37:34Z</time>
      </trkpt>
      <trkpt lat="48.67304" lon="7.19778">
        <ele>309.7</ele>
        <time>2020-08-18T15:37:36Z</time>
      </trkpt>
      <trkpt lat="48.67308" lon="7.19773">
        <ele>317.4</ele>
        <time>2020-08-18T15:37:40Z</time>
      </trkpt>
      <trkpt lat="48.67313" lon="7.19768">
        <ele>312.5</ele>
        <time>2020-08-18T15:37:42Z</time>
      </trkpt>
      <trkpt lat="48.6732" lon="7.19763">
        <ele>307.4</ele>
        <time>2020-08-18T15:37:44Z</time>
      </trkpt>
      <trkpt lat="48.67328" lon="7.19757">
        <ele>302.9</ele>
        <time>2020-08-18T15:37:46Z</time>
      </trkpt>
      <trkpt lat="48.67335" lon="7.19752">
        <ele>298.6</ele>
        <time>2020-08-18T15:37:48Z</time>
      </trkpt>
      <trkpt lat="48.67339" lon="7.19749">
        <ele>293.7</ele>
        <time>2020-08-18T15:37:50Z</time>
      </trkpt>
      <trkpt lat="48.67343" lon="7.19746">
        <ele>286</ele>
        <time>2020-08-18T15:37:55Z</time>
      </trkpt>
      <trkpt lat="48.6735" lon="7.19746">
        <ele>282.6</ele>
        <time>2020-08-18T15:37:58Z</time>
      </trkpt>
      <trkpt lat="48.67356" lon="7.19746">
        <ele>281.2</ele>
        <time>2020-08-18T15:38:00Z</time>
      </trkpt>
      <trkpt lat="48.67363" lon="7.19748">
        <ele>306.1</ele>
        <time>2020-08-18T15:38:02Z</time>
      </trkpt>
      <trkpt lat="48.6737" lon="7.1975">
        <ele>310.9</ele>
        <time>2020-08-18T15:38:04Z</time>
      </trkpt>
      <trkpt lat="48.67378" lon="7.19754">
        <ele>309.6</ele>
        <time>2020-08-18T15:38:06Z</time>
      </trkpt>
      <trkpt lat="48.67385" lon="7.19758">
        <ele>307.4</ele>
        <time>2020-08-18T15:38:08Z</time>
      </trkpt>
      <trkpt lat="48.67394" lon="7.19762">
        <ele>305.8</ele>
        <time>2020-08-18T15:38:10Z</time>
      </trkpt>
      <trkpt lat="48.67404" lon="7.1977">
        <ele>300.4</ele>
        <time>2020-08-18T15:38:12Z</time>
      </trkpt>
      <trkpt lat="48.67414" lon="7.19777">
        <ele>295.3</ele>
        <time>2020-08-18T15:38:14Z</time>
      </trkpt>
      <trkpt lat="48.67424" lon="7.19784">
        <ele>292.7</ele>
        <time>2020-08-18T15:38:16Z</time>
      </trkpt>
      <trkpt lat="48.67434" lon="7.19791">
        <ele>288</ele>
        <time>2020-08-18T15:38:18Z</time>
      </trkpt>
      <trkpt lat="48.67446" lon="7.19798">
        <ele>286.7</ele>
        <time>2020-08-18T15:38:20Z</time>
      </trkpt>
      <trkpt lat="48.67456" lon="7.19806">
        <ele>284.7</ele>
        <time>2020-08-18T15:38:22Z</time>
      </trkpt>
      <trkpt lat="48.67467" lon="7.19812">
        <ele>284</ele>
        <time>2020-08-18T15:38:24Z</time>
      </trkpt>
      <trkpt lat="48.67476" lon="7.19817">
        <ele>283.7</ele>
        <time>2020-08-18T15:38:26Z</time>
      </trkpt>
      <trkpt lat="48.67486" lon="7.19821">
        <ele>283.2</ele>
        <time>2020-08-18T15:38:28Z</time>
      </trkpt>
      <trkpt lat="48.67495" lon="7.19825">
        <ele>283</ele>
        <time>2020-08-18T15:38:30Z</time>
      </trkpt>
      <trkpt lat="48.67503" lon="7.19826">
        <ele>283.1</ele>
        <time>2020-08-18T15:38:32Z</time>
      </trkpt>
      <trkpt lat="48.67511" lon="7.19829">
        <ele>282.4</ele>
        <time>2020-08-18T15:38:34Z</time>
      </trkpt>
      <trkpt lat="48.67519" lon="7.19832">
        <ele>282.4</ele>
        <time>2020-08-18T15:38:36Z</time>
      </trkpt>
      <trkpt lat="48.67526" lon="7.19835">
        <ele>282.5</ele>
        <time>2020-08-18T15:38:38Z</time>
      </trkpt>
      <trkpt lat="48.67532" lon="7.19838">
        <ele>282.8</ele>
        <time>2020-08-18T15:38:40Z</time>
      </trkpt>
      <trkpt lat="48.67538" lon="7.19842">
        <ele>282.6</ele>
        <time>2020-08-18T15:38:42Z</time>
      </trkpt>
      <trkpt lat="48.67547" lon="7.19844">
        <ele>304.6</ele>
        <time>2020-08-18T15:38:44Z</time>
      </trkpt>
      <trkpt lat="48.67558" lon="7.19846">
        <ele>310.8</ele>
        <time>2020-08-18T15:38:46Z</time>
      </trkpt>
      <trkpt lat="48.67568" lon="7.19849">
        <ele>311.2</ele>
        <time>2020-08-18T15:38:48Z</time>
      </trkpt>
      <trkpt lat="48.67579" lon="7.19854">
        <ele>305</ele>
        <time>2020-08-18T15:38:50Z</time>
      </trkpt>
      <trkpt lat="48.6759" lon="7.19859">
        <ele>300.2</ele>
        <time>2020-08-18T15:38:52Z</time>
      </trkpt>
      <trkpt lat="48.67604" lon="7.19865">
        <ele>293</ele>
        <time>2020-08-18T15:38:54Z</time>
      </trkpt>
      <trkpt lat="48.67616" lon="7.1987">
        <ele>288.7</ele>
        <time>2020-08-18T15:38:56Z</time>
      </trkpt>
      <trkpt lat="48.67627" lon="7.19874">
        <ele>285.9</ele>
        <time>2020-08-18T15:38:58Z</time>
      </trkpt>
      <trkpt lat="48.67637" lon="7.19877">
        <ele>284.3</ele>
        <time>2020-08-18T15:39:00Z</time>
      </trkpt>
      <trkpt lat="48.67645" lon="7.19878">
        <ele>282.4</ele>
        <time>2020-08-18T15:39:02Z</time>
      </trkpt>
      <trkpt lat="48.67649" lon="7.1988">
        <ele>280.5</ele>
        <time>2020-08-18T15:39:05Z</time>
      </trkpt>
      <trkpt lat="48.67655" lon="7.1988">
        <ele>276.3</ele>
        <time>2020-08-18T15:39:17Z</time>
      </trkpt>
      <trkpt lat="48.6766" lon="7.1988">
        <ele>276</ele>
        <time>2020-08-18T15:39:19Z</time>
      </trkpt>
      <trkpt lat="48.67666" lon="7.1988">
        <ele>275.9</ele>
        <time>2020-08-18T15:39:21Z</time>
      </trkpt>
      <trkpt lat="48.67674" lon="7.19876">
        <ele>275.4</ele>
        <time>2020-08-18T15:39:23Z</time>
      </trkpt>
      <trkpt lat="48.67684" lon="7.19872">
        <ele>275</ele>
        <time>2020-08-18T15:39:25Z</time>
      </trkpt>
      <trkpt lat="48.67695" lon="7.19866">
        <ele>274.2</ele>
        <time>2020-08-18T15:39:27Z</time>
      </trkpt>
      <trkpt lat="48.67708" lon="7.1986">
        <ele>273.4</ele>
        <time>2020-08-18T15:39:29Z</time>
      </trkpt>
      <trkpt lat="48.67722" lon="7.19852">
        <ele>272.6</ele>
        <time>2020-08-18T15:39:31Z</time>
      </trkpt>
      <trkpt lat="48.67738" lon="7.19842">
        <ele>271.6</ele>
        <time>2020-08-18T15:39:33Z</time>
      </trkpt>
      <trkpt lat="48.67754" lon="7.19829">
        <ele>270.7</ele>
        <time>2020-08-18T15:39:35Z</time>
      </trkpt>
      <trkpt lat="48.67771" lon="7.19814">
        <ele>269.3</ele>
        <time>2020-08-18T15:39:37Z</time>
      </trkpt>
      <trkpt lat="48.67788" lon="7.198">
        <ele>268.3</ele>
        <time>2020-08-18T15:39:39Z</time>
      </trkpt>
      <trkpt lat="48.67806" lon="7.19785">
        <ele>266.8</ele>
        <time>2020-08-18T15:39:41Z</time>
      </trkpt>
      <trkpt lat="48.67825" lon="7.1977">
        <ele>265.7</ele>
        <time>2020-08-18T15:39:43Z</time>
      </trkpt>
      <trkpt lat="48.67844" lon="7.19755">
        <ele>264.6</ele>
        <time>2020-08-18T15:39:45Z</time>
      </trkpt>
      <trkpt lat="48.67863" lon="7.1974">
        <ele>264</ele>
        <time>2020-08-18T15:39:47Z</time>
      </trkpt>
      <trkpt lat="48.67883" lon="7.19727">
        <ele>262.9</ele>
        <time>2020-08-18T15:39:49Z</time>
      </trkpt>
      <trkpt lat="48.67903" lon="7.19715">
        <ele>261.6</ele>
        <time>2020-08-18T15:39:51Z</time>
      </trkpt>
      <trkpt lat="48.67923" lon="7.19706">
        <ele>260.6</ele>
        <time>2020-08-18T15:39:53Z</time>
      </trkpt>
      <trkpt lat="48.67944" lon="7.19699">
        <ele>259.5</ele>
        <time>2020-08-18T15:39:55Z</time>
      </trkpt>
      <trkpt lat="48.67966" lon="7.19696">
        <ele>258.4</ele>
        <time>2020-08-18T15:39:57Z</time>
      </trkpt>
      <trkpt lat="48.67987" lon="7.19697">
        <ele>257.3</ele>
        <time>2020-08-18T15:39:59Z</time>
      </trkpt>
      <trkpt lat="48.68009" lon="7.19703">
        <ele>256.2</ele>
        <time>2020-08-18T15:40:01Z</time>
      </trkpt>
      <trkpt lat="48.6803" lon="7.1971">
        <ele>255.2</ele>
        <time>2020-08-18T15:40:03Z</time>
      </trkpt>
      <trkpt lat="48.6805" lon="7.19718">
        <ele>254.6</ele>
        <time>2020-08-18T15:40:05Z</time>
      </trkpt>
      <trkpt lat="48.6807" lon="7.19724">
        <ele>253.6</ele>
        <time>2020-08-18T15:40:07Z</time>
      </trkpt>
      <trkpt lat="48.6809" lon="7.19729">
        <ele>253.1</ele>
        <time>2020-08-18T15:40:09Z</time>
      </trkpt>
      <trkpt lat="48.6811" lon="7.19729">
        <ele>252.4</ele>
        <time>2020-08-18T15:40:11Z</time>
      </trkpt>
      <trkpt lat="48.68129" lon="7.19728">
        <ele>251.7</ele>
        <time>2020-08-18T15:40:13Z</time>
      </trkpt>
      <trkpt lat="48.68147" lon="7.19726">
        <ele>251.1</ele>
        <time>2020-08-18T15:40:15Z</time>
      </trkpt>
      <trkpt lat="48.68161" lon="7.19724">
        <ele>250.9</ele>
        <time>2020-08-18T15:40:17Z</time>
      </trkpt>
      <trkpt lat="48.68173" lon="7.19722">
        <ele>250.9</ele>
        <time>2020-08-18T15:40:19Z</time>
      </trkpt>
      <trkpt lat="48.68183" lon="7.19725">
        <ele>250.9</ele>
        <time>2020-08-18T15:40:21Z</time>
      </trkpt>
      <trkpt lat="48.68187" lon="7.1973">
        <ele>251.6</ele>
        <time>2020-08-18T15:40:23Z</time>
      </trkpt>
      <trkpt lat="48.68187" lon="7.19737">
        <ele>252.2</ele>
        <time>2020-08-18T15:40:25Z</time>
      </trkpt>
      <trkpt lat="48.68183" lon="7.19744">
        <ele>253.2</ele>
        <time>2020-08-18T15:40:27Z</time>
      </trkpt>
      <trkpt lat="48.68177" lon="7.1975">
        <ele>253.2</ele>
        <time>2020-08-18T15:40:29Z</time>
      </trkpt>
      <trkpt lat="48.68171" lon="7.19753">
        <ele>253.6</ele>
        <time>2020-08-18T15:40:31Z</time>
      </trkpt>
      <trkpt lat="48.68164" lon="7.19757">
        <ele>253.4</ele>
        <time>2020-08-18T15:40:33Z</time>
      </trkpt>
      <trkpt lat="48.68158" lon="7.19762">
        <ele>253.6</ele>
        <time>2020-08-18T15:40:35Z</time>
      </trkpt>
      <trkpt lat="48.68155" lon="7.19769">
        <ele>253.4</ele>
        <time>2020-08-18T15:40:37Z</time>
      </trkpt>
      <trkpt lat="48.68154" lon="7.19776">
        <ele>253.9</ele>
        <time>2020-08-18T15:40:39Z</time>
      </trkpt>
      <trkpt lat="48.68153" lon="7.19784">
        <ele>254.2</ele>
        <time>2020-08-18T15:40:44Z</time>
      </trkpt>
      <trkpt lat="48.68152" lon="7.19792">
        <ele>256.9</ele>
        <time>2020-08-18T15:40:57Z</time>
      </trkpt>
      <trkpt lat="48.68149" lon="7.19797">
        <ele>257.7</ele>
        <time>2020-08-18T15:40:59Z</time>
      </trkpt>
      <trkpt lat="48.68144" lon="7.19802">
        <ele>258.6</ele>
        <time>2020-08-18T15:41:01Z</time>
      </trkpt>
      <trkpt lat="48.68139" lon="7.19807">
        <ele>258.8</ele>
        <time>2020-08-18T15:41:03Z</time>
      </trkpt>
      <trkpt lat="48.68134" lon="7.19811">
        <ele>259.2</ele>
        <time>2020-08-18T15:41:05Z</time>
      </trkpt>
      <trkpt lat="48.68128" lon="7.19816">
        <ele>259.3</ele>
        <time>2020-08-18T15:41:07Z</time>
      </trkpt>
      <trkpt lat="48.68122" lon="7.19822">
        <ele>259.2</ele>
        <time>2020-08-18T15:41:09Z</time>
      </trkpt>
      <trkpt lat="48.68116" lon="7.19827">
        <ele>259.4</ele>
        <time>2020-08-18T15:41:11Z</time>
      </trkpt>
      <trkpt lat="48.68109" lon="7.19833">
        <ele>259.1</ele>
        <time>2020-08-18T15:41:13Z</time>
      </trkpt>
      <trkpt lat="48.68099" lon="7.19838">
        <ele>259.1</ele>
        <time>2020-08-18T15:41:15Z</time>
      </trkpt>
      <trkpt lat="48.68087" lon="7.19844">
        <ele>256.9</ele>
        <time>2020-08-18T15:41:17Z</time>
      </trkpt>
      <trkpt lat="48.68075" lon="7.19848">
        <ele>256.4</ele>
        <time>2020-08-18T15:41:19Z</time>
      </trkpt>
      <trkpt lat="48.68064" lon="7.1985">
        <ele>256.1</ele>
        <time>2020-08-18T15:41:21Z</time>
      </trkpt>
      <trkpt lat="48.68055" lon="7.19854">
        <ele>255</ele>
        <time>2020-08-18T15:41:23Z</time>
      </trkpt>
      <trkpt lat="48.68046" lon="7.19857">
        <ele>255.2</ele>
        <time>2020-08-18T15:41:25Z</time>
      </trkpt>
      <trkpt lat="48.68038" lon="7.1986">
        <ele>254.4</ele>
        <time>2020-08-18T15:41:27Z</time>
      </trkpt>
      <trkpt lat="48.68029" lon="7.19865">
        <ele>253.9</ele>
        <time>2020-08-18T15:41:29Z</time>
      </trkpt>
      <trkpt lat="48.68021" lon="7.19872">
        <ele>253.2</ele>
        <time>2020-08-18T15:41:31Z</time>
      </trkpt>
      <trkpt lat="48.68013" lon="7.19879">
        <ele>253.4</ele>
        <time>2020-08-18T15:41:33Z</time>
      </trkpt>
      <trkpt lat="48.68005" lon="7.1989">
        <ele>253.2</ele>
        <time>2020-08-18T15:41:35Z</time>
      </trkpt>
      <trkpt lat="48.67997" lon="7.19901">
        <ele>254</ele>
        <time>2020-08-18T15:41:37Z</time>
      </trkpt>
      <trkpt lat="48.67993" lon="7.19913">
        <ele>253.7</ele>
        <time>2020-08-18T15:41:39Z</time>
      </trkpt>
      <trkpt lat="48.67989" lon="7.19927">
        <ele>253.6</ele>
        <time>2020-08-18T15:41:41Z</time>
      </trkpt>
      <trkpt lat="48.67988" lon="7.19943">
        <ele>253.6</ele>
        <time>2020-08-18T15:41:43Z</time>
      </trkpt>
      <trkpt lat="48.67988" lon="7.19959">
        <ele>253.6</ele>
        <time>2020-08-18T15:41:45Z</time>
      </trkpt>
      <trkpt lat="48.67988" lon="7.19974">
        <ele>253.7</ele>
        <time>2020-08-18T15:41:47Z</time>
      </trkpt>
      <trkpt lat="48.6799" lon="7.19987">
        <ele>254</ele>
        <time>2020-08-18T15:41:49Z</time>
      </trkpt>
      <trkpt lat="48.67992" lon="7.20001">
        <ele>254.7</ele>
        <time>2020-08-18T15:41:51Z</time>
      </trkpt>
      <trkpt lat="48.67995" lon="7.20017">
        <ele>254.8</ele>
        <time>2020-08-18T15:41:53Z</time>
      </trkpt>
      <trkpt lat="48.68001" lon="7.20031">
        <ele>254.4</ele>
        <time>2020-08-18T15:41:55Z</time>
      </trkpt>
      <trkpt lat="48.68007" lon="7.20045">
        <ele>299.9</ele>
        <time>2020-08-18T15:41:57Z</time>
      </trkpt>
      <trkpt lat="48.6801" lon="7.20062">
        <ele>305.1</ele>
        <time>2020-08-18T15:41:59Z</time>
      </trkpt>
      <trkpt lat="48.68011" lon="7.20081">
        <ele>303.2</ele>
        <time>2020-08-18T15:42:01Z</time>
      </trkpt>
      <trkpt lat="48.6801" lon="7.20102">
        <ele>297.9</ele>
        <time>2020-08-18T15:42:03Z</time>
      </trkpt>
      <trkpt lat="48.68005" lon="7.20124">
        <ele>290.5</ele>
        <time>2020-08-18T15:42:05Z</time>
      </trkpt>
      <trkpt lat="48.68001" lon="7.20145">
        <ele>284.3</ele>
        <time>2020-08-18T15:42:07Z</time>
      </trkpt>
      <trkpt lat="48.67998" lon="7.20164">
        <ele>278.5</ele>
        <time>2020-08-18T15:42:09Z</time>
      </trkpt>
      <trkpt lat="48.67995" lon="7.20183">
        <ele>274.9</ele>
        <time>2020-08-18T15:42:11Z</time>
      </trkpt>
      <trkpt lat="48.67991" lon="7.20202">
        <ele>271.3</ele>
        <time>2020-08-18T15:42:13Z</time>
      </trkpt>
      <trkpt lat="48.67985" lon="7.20218">
        <ele>268.5</ele>
        <time>2020-08-18T15:42:15Z</time>
      </trkpt>
      <trkpt lat="48.67979" lon="7.20234">
        <ele>266.4</ele>
        <time>2020-08-18T15:42:17Z</time>
      </trkpt>
      <trkpt lat="48.67974" lon="7.20249">
        <ele>265.3</ele>
        <time>2020-08-18T15:42:19Z</time>
      </trkpt>
      <trkpt lat="48.6797" lon="7.20261">
        <ele>264.6</ele>
        <time>2020-08-18T15:42:21Z</time>
      </trkpt>
      <trkpt lat="48.67961" lon="7.2027">
        <ele>263.5</ele>
        <time>2020-08-18T15:42:23Z</time>
      </trkpt>
      <trkpt lat="48.67952" lon="7.20277">
        <ele>262</ele>
        <time>2020-08-18T15:42:25Z</time>
      </trkpt>
      <trkpt lat="48.67943" lon="7.20287">
        <ele>262.7</ele>
        <time>2020-08-18T15:42:27Z</time>
      </trkpt>
      <trkpt lat="48.67935" lon="7.203">
        <ele>262.7</ele>
        <time>2020-08-18T15:42:29Z</time>
      </trkpt>
      <trkpt lat="48.67927" lon="7.20313">
        <ele>263.1</ele>
        <time>2020-08-18T15:42:31Z</time>
      </trkpt>
      <trkpt lat="48.67917" lon="7.20328">
        <ele>263.5</ele>
        <time>2020-08-18T15:42:33Z</time>
      </trkpt>
      <trkpt lat="48.67909" lon="7.20341">
        <ele>263.4</ele>
        <time>2020-08-18T15:42:35Z</time>
      </trkpt>
      <trkpt lat="48.67903" lon="7.20352">
        <ele>263.8</ele>
        <time>2020-08-18T15:42:37Z</time>
      </trkpt>
      <trkpt lat="48.67896" lon="7.20364">
        <ele>263.6</ele>
        <time>2020-08-18T15:42:39Z</time>
      </trkpt>
      <trkpt lat="48.67891" lon="7.20377">
        <ele>263.1</ele>
        <time>2020-08-18T15:42:41Z</time>
      </trkpt>
      <trkpt lat="48.67885" lon="7.20389">
        <ele>263.6</ele>
        <time>2020-08-18T15:42:43Z</time>
      </trkpt>
      <trkpt lat="48.6788" lon="7.20402">
        <ele>262.8</ele>
        <time>2020-08-18T15:42:45Z</time>
      </trkpt>
      <trkpt lat="48.67876" lon="7.20419">
        <ele>262.6</ele>
        <time>2020-08-18T15:42:47Z</time>
      </trkpt>
      <trkpt lat="48.67874" lon="7.20435">
        <ele>262.1</ele>
        <time>2020-08-18T15:42:49Z</time>
      </trkpt>
      <trkpt lat="48.6787" lon="7.20454">
        <ele>261.6</ele>
        <time>2020-08-18T15:42:51Z</time>
      </trkpt>
      <trkpt lat="48.67866" lon="7.20474">
        <ele>261.3</ele>
        <time>2020-08-18T15:42:53Z</time>
      </trkpt>
      <trkpt lat="48.67862" lon="7.20492">
        <ele>261.1</ele>
        <time>2020-08-18T15:42:55Z</time>
      </trkpt>
      <trkpt lat="48.67856" lon="7.20507">
        <ele>261.2</ele>
        <time>2020-08-18T15:42:57Z</time>
      </trkpt>
      <trkpt lat="48.67851" lon="7.20522">
        <ele>260.3</ele>
        <time>2020-08-18T15:42:59Z</time>
      </trkpt>
      <trkpt lat="48.67847" lon="7.20536">
        <ele>260.3</ele>
        <time>2020-08-18T15:43:01Z</time>
      </trkpt>
      <trkpt lat="48.67846" lon="7.20553">
        <ele>260</ele>
        <time>2020-08-18T15:43:03Z</time>
      </trkpt>
      <trkpt lat="48.67844" lon="7.2057">
        <ele>260.3</ele>
        <time>2020-08-18T15:43:05Z</time>
      </trkpt>
      <trkpt lat="48.6784" lon="7.20587">
        <ele>260.1</ele>
        <time>2020-08-18T15:43:07Z</time>
      </trkpt>
      <trkpt lat="48.67836" lon="7.20605">
        <ele>260.9</ele>
        <time>2020-08-18T15:43:09Z</time>
      </trkpt>
      <trkpt lat="48.67834" lon="7.20621">
        <ele>260.8</ele>
        <time>2020-08-18T15:43:11Z</time>
      </trkpt>
      <trkpt lat="48.67834" lon="7.20635">
        <ele>260.8</ele>
        <time>2020-08-18T15:43:13Z</time>
      </trkpt>
      <trkpt lat="48.67833" lon="7.20649">
        <ele>261.5</ele>
        <time>2020-08-18T15:43:15Z</time>
      </trkpt>
      <trkpt lat="48.67829" lon="7.20666">
        <ele>262</ele>
        <time>2020-08-18T15:43:17Z</time>
      </trkpt>
      <trkpt lat="48.67826" lon="7.20686">
        <ele>262.6</ele>
        <time>2020-08-18T15:43:19Z</time>
      </trkpt>
      <trkpt lat="48.67821" lon="7.20707">
        <ele>263.4</ele>
        <time>2020-08-18T15:43:21Z</time>
      </trkpt>
      <trkpt lat="48.67817" lon="7.20726">
        <ele>264.7</ele>
        <time>2020-08-18T15:43:23Z</time>
      </trkpt>
      <trkpt lat="48.6781" lon="7.20744">
        <ele>265.5</ele>
        <time>2020-08-18T15:43:25Z</time>
      </trkpt>
      <trkpt lat="48.678" lon="7.20762">
        <ele>266.1</ele>
        <time>2020-08-18T15:43:27Z</time>
      </trkpt>
      <trkpt lat="48.67789" lon="7.20779">
        <ele>266.4</ele>
        <time>2020-08-18T15:43:29Z</time>
      </trkpt>
      <trkpt lat="48.67784" lon="7.20791">
        <ele>266.8</ele>
        <time>2020-08-18T15:43:31Z</time>
      </trkpt>
      <trkpt lat="48.67786" lon="7.20799">
        <ele>267.6</ele>
        <time>2020-08-18T15:43:33Z</time>
      </trkpt>
      <trkpt lat="48.67788" lon="7.20806">
        <ele>267.8</ele>
        <time>2020-08-18T15:43:37Z</time>
      </trkpt>
      <trkpt lat="48.67792" lon="7.20806">
        <ele>272.4</ele>
        <time>2020-08-18T15:43:49Z</time>
      </trkpt>
      <trkpt lat="48.67792" lon="7.20814">
        <ele>274.2</ele>
        <time>2020-08-18T15:43:55Z</time>
      </trkpt>
      <trkpt lat="48.67789" lon="7.20822">
        <ele>273.5</ele>
        <time>2020-08-18T15:43:57Z</time>
      </trkpt>
      <trkpt lat="48.67782" lon="7.20833">
        <ele>272.9</ele>
        <time>2020-08-18T15:43:59Z</time>
      </trkpt>
      <trkpt lat="48.67774" lon="7.20846">
        <ele>272.1</ele>
        <time>2020-08-18T15:44:01Z</time>
      </trkpt>
      <trkpt lat="48.67764" lon="7.20858">
        <ele>271.2</ele>
        <time>2020-08-18T15:44:03Z</time>
      </trkpt>
      <trkpt lat="48.67755" lon="7.2087">
        <ele>270.9</ele>
        <time>2020-08-18T15:44:05Z</time>
      </trkpt>
      <trkpt lat="48.67747" lon="7.20881">
        <ele>270.5</ele>
        <time>2020-08-18T15:44:07Z</time>
      </trkpt>
      <trkpt lat="48.67739" lon="7.20893">
        <ele>270.8</ele>
        <time>2020-08-18T15:44:09Z</time>
      </trkpt>
      <trkpt lat="48.67731" lon="7.20907">
        <ele>271.1</ele>
        <time>2020-08-18T15:44:11Z</time>
      </trkpt>
      <trkpt lat="48.67724" lon="7.20921">
        <ele>271.1</ele>
        <time>2020-08-18T15:44:13Z</time>
      </trkpt>
      <trkpt lat="48.6772" lon="7.20935">
        <ele>271.5</ele>
        <time>2020-08-18T15:44:15Z</time>
      </trkpt>
      <trkpt lat="48.67716" lon="7.20948">
        <ele>271.7</ele>
        <time>2020-08-18T15:44:17Z</time>
      </trkpt>
      <trkpt lat="48.67712" lon="7.20961">
        <ele>271.8</ele>
        <time>2020-08-18T15:44:19Z</time>
      </trkpt>
      <trkpt lat="48.67709" lon="7.20973">
        <ele>271.5</ele>
        <time>2020-08-18T15:44:21Z</time>
      </trkpt>
      <trkpt lat="48.67708" lon="7.2098">
        <ele>271.6</ele>
        <time>2020-08-18T15:44:23Z</time>
      </trkpt>
      <trkpt lat="48.67711" lon="7.20987">
        <ele>272</ele>
        <time>2020-08-18T15:44:28Z</time>
      </trkpt>
      <trkpt lat="48.67714" lon="7.20992">
        <ele>272.5</ele>
        <time>2020-08-18T15:44:35Z</time>
      </trkpt>
      <trkpt lat="48.67714" lon="7.21002">
        <ele>272.9</ele>
        <time>2020-08-18T15:44:38Z</time>
      </trkpt>
      <trkpt lat="48.67714" lon="7.21012">
        <ele>273.4</ele>
        <time>2020-08-18T15:44:40Z</time>
      </trkpt>
      <trkpt lat="48.67714" lon="7.21023">
        <ele>273</ele>
        <time>2020-08-18T15:44:42Z</time>
      </trkpt>
      <trkpt lat="48.67715" lon="7.21034">
        <ele>272.7</ele>
        <time>2020-08-18T15:44:44Z</time>
      </trkpt>
      <trkpt lat="48.67715" lon="7.21046">
        <ele>272.9</ele>
        <time>2020-08-18T15:44:46Z</time>
      </trkpt>
      <trkpt lat="48.67715" lon="7.21058">
        <ele>273.4</ele>
        <time>2020-08-18T15:44:48Z</time>
      </trkpt>
      <trkpt lat="48.67712" lon="7.21071">
        <ele>274.2</ele>
        <time>2020-08-18T15:44:50Z</time>
      </trkpt>
      <trkpt lat="48.6771" lon="7.21083">
        <ele>274.7</ele>
        <time>2020-08-18T15:44:52Z</time>
      </trkpt>
      <trkpt lat="48.6771" lon="7.21095">
        <ele>275.4</ele>
        <time>2020-08-18T15:44:54Z</time>
      </trkpt>
      <trkpt lat="48.67709" lon="7.21109">
        <ele>277.1</ele>
        <time>2020-08-18T15:44:56Z</time>
      </trkpt>
      <trkpt lat="48.67709" lon="7.21122">
        <ele>278.8</ele>
        <time>2020-08-18T15:44:58Z</time>
      </trkpt>
      <trkpt lat="48.67709" lon="7.21135">
        <ele>279.9</ele>
        <time>2020-08-18T15:45:00Z</time>
      </trkpt>
      <trkpt lat="48.67707" lon="7.21147">
        <ele>281.4</ele>
        <time>2020-08-18T15:45:02Z</time>
      </trkpt>
      <trkpt lat="48.67705" lon="7.21159">
        <ele>282.3</ele>
        <time>2020-08-18T15:45:04Z</time>
      </trkpt>
      <trkpt lat="48.67702" lon="7.2117">
        <ele>283.7</ele>
        <time>2020-08-18T15:45:06Z</time>
      </trkpt>
      <trkpt lat="48.67699" lon="7.21181">
        <ele>285.1</ele>
        <time>2020-08-18T15:45:08Z</time>
      </trkpt>
      <trkpt lat="48.67695" lon="7.21192">
        <ele>286.7</ele>
        <time>2020-08-18T15:45:10Z</time>
      </trkpt>
      <trkpt lat="48.67692" lon="7.21204">
        <ele>288</ele>
        <time>2020-08-18T15:45:12Z</time>
      </trkpt>
      <trkpt lat="48.67689" lon="7.21217">
        <ele>288.8</ele>
        <time>2020-08-18T15:45:14Z</time>
      </trkpt>
      <trkpt lat="48.67686" lon="7.21229">
        <ele>289.7</ele>
        <time>2020-08-18T15:45:16Z</time>
      </trkpt>
      <trkpt lat="48.67684" lon="7.21242">
        <ele>290.6</ele>
        <time>2020-08-18T15:45:18Z</time>
      </trkpt>
      <trkpt lat="48.67682" lon="7.21254">
        <ele>291.6</ele>
        <time>2020-08-18T15:45:20Z</time>
      </trkpt>
      <trkpt lat="48.67679" lon="7.21268">
        <ele>292.9</ele>
        <time>2020-08-18T15:45:22Z</time>
      </trkpt>
      <trkpt lat="48.67678" lon="7.21281">
        <ele>293.5</ele>
        <time>2020-08-18T15:45:24Z</time>
      </trkpt>
      <trkpt lat="48.67677" lon="7.21293">
        <ele>294.4</ele>
        <time>2020-08-18T15:45:26Z</time>
      </trkpt>
      <trkpt lat="48.67676" lon="7.21305">
        <ele>295.6</ele>
        <time>2020-08-18T15:45:28Z</time>
      </trkpt>
      <trkpt lat="48.67675" lon="7.21317">
        <ele>294.5</ele>
        <time>2020-08-18T15:45:30Z</time>
      </trkpt>
      <trkpt lat="48.67673" lon="7.21328">
        <ele>294.8</ele>
        <time>2020-08-18T15:45:32Z</time>
      </trkpt>
      <trkpt lat="48.67673" lon="7.2134">
        <ele>295.1</ele>
        <time>2020-08-18T15:45:34Z</time>
      </trkpt>
      <trkpt lat="48.67675" lon="7.21351">
        <ele>295.4</ele>
        <time>2020-08-18T15:45:36Z</time>
      </trkpt>
      <trkpt lat="48.67678" lon="7.21362">
        <ele>295.4</ele>
        <time>2020-08-18T15:45:38Z</time>
      </trkpt>
      <trkpt lat="48.67679" lon="7.21372">
        <ele>296</ele>
        <time>2020-08-18T15:45:40Z</time>
      </trkpt>
      <trkpt lat="48.67679" lon="7.21381">
        <ele>295.9</ele>
        <time>2020-08-18T15:45:42Z</time>
      </trkpt>
      <trkpt lat="48.67679" lon="7.21391">
        <ele>295.7</ele>
        <time>2020-08-18T15:45:44Z</time>
      </trkpt>
      <trkpt lat="48.67681" lon="7.21401">
        <ele>296.4</ele>
        <time>2020-08-18T15:45:46Z</time>
      </trkpt>
      <trkpt lat="48.67684" lon="7.21411">
        <ele>296.9</ele>
        <time>2020-08-18T15:45:48Z</time>
      </trkpt>
      <trkpt lat="48.6769" lon="7.2142">
        <ele>297.2</ele>
        <time>2020-08-18T15:45:50Z</time>
      </trkpt>
      <trkpt lat="48.67696" lon="7.21429">
        <ele>297.1</ele>
        <time>2020-08-18T15:45:52Z</time>
      </trkpt>
      <trkpt lat="48.67703" lon="7.21437">
        <ele>297.8</ele>
        <time>2020-08-18T15:45:54Z</time>
      </trkpt>
      <trkpt lat="48.67709" lon="7.21446">
        <ele>297.9</ele>
        <time>2020-08-18T15:45:56Z</time>
      </trkpt>
      <trkpt lat="48.67715" lon="7.21455">
        <ele>298.3</ele>
        <time>2020-08-18T15:45:58Z</time>
      </trkpt>
      <trkpt lat="48.67721" lon="7.21463">
        <ele>299.3</ele>
        <time>2020-08-18T15:46:00Z</time>
      </trkpt>
      <trkpt lat="48.67727" lon="7.21472">
        <ele>300.5</ele>
        <time>2020-08-18T15:46:02Z</time>
      </trkpt>
      <trkpt lat="48.67733" lon="7.2148">
        <ele>301.3</ele>
        <time>2020-08-18T15:46:04Z</time>
      </trkpt>
      <trkpt lat="48.67739" lon="7.21488">
        <ele>301.6</ele>
        <time>2020-08-18T15:46:06Z</time>
      </trkpt>
      <trkpt lat="48.67745" lon="7.21495">
        <ele>302.2</ele>
        <time>2020-08-18T15:46:08Z</time>
      </trkpt>
      <trkpt lat="48.67753" lon="7.21501">
        <ele>303.6</ele>
        <time>2020-08-18T15:46:10Z</time>
      </trkpt>
      <trkpt lat="48.67761" lon="7.21508">
        <ele>304</ele>
        <time>2020-08-18T15:46:12Z</time>
      </trkpt>
      <trkpt lat="48.67768" lon="7.21516">
        <ele>305.2</ele>
        <time>2020-08-18T15:46:14Z</time>
      </trkpt>
      <trkpt lat="48.67776" lon="7.21523">
        <ele>306.4</ele>
        <time>2020-08-18T15:46:16Z</time>
      </trkpt>
      <trkpt lat="48.67783" lon="7.2153">
        <ele>307.7</ele>
        <time>2020-08-18T15:46:18Z</time>
      </trkpt>
      <trkpt lat="48.67791" lon="7.21536">
        <ele>308.8</ele>
        <time>2020-08-18T15:46:20Z</time>
      </trkpt>
      <trkpt lat="48.67799" lon="7.21541">
        <ele>309.2</ele>
        <time>2020-08-18T15:46:22Z</time>
      </trkpt>
      <trkpt lat="48.67805" lon="7.2155">
        <ele>309.1</ele>
        <time>2020-08-18T15:46:24Z</time>
      </trkpt>
      <trkpt lat="48.67813" lon="7.21558">
        <ele>309.3</ele>
        <time>2020-08-18T15:46:26Z</time>
      </trkpt>
      <trkpt lat="48.67819" lon="7.21565">
        <ele>309.7</ele>
        <time>2020-08-18T15:46:28Z</time>
      </trkpt>
      <trkpt lat="48.67827" lon="7.21572">
        <ele>310</ele>
        <time>2020-08-18T15:46:30Z</time>
      </trkpt>
      <trkpt lat="48.67834" lon="7.21579">
        <ele>310.1</ele>
        <time>2020-08-18T15:46:32Z</time>
      </trkpt>
      <trkpt lat="48.67841" lon="7.21585">
        <ele>310.6</ele>
        <time>2020-08-18T15:46:34Z</time>
      </trkpt>
      <trkpt lat="48.67848" lon="7.21593">
        <ele>311.1</ele>
        <time>2020-08-18T15:46:36Z</time>
      </trkpt>
      <trkpt lat="48.67856" lon="7.216">
        <ele>311</ele>
        <time>2020-08-18T15:46:38Z</time>
      </trkpt>
      <trkpt lat="48.67864" lon="7.21607">
        <ele>310.4</ele>
        <time>2020-08-18T15:46:40Z</time>
      </trkpt>
      <trkpt lat="48.67871" lon="7.21615">
        <ele>310.1</ele>
        <time>2020-08-18T15:46:42Z</time>
      </trkpt>
      <trkpt lat="48.67877" lon="7.21623">
        <ele>310.6</ele>
        <time>2020-08-18T15:46:44Z</time>
      </trkpt>
      <trkpt lat="48.67884" lon="7.21629">
        <ele>311.5</ele>
        <time>2020-08-18T15:46:46Z</time>
      </trkpt>
      <trkpt lat="48.67891" lon="7.21636">
        <ele>311.6</ele>
        <time>2020-08-18T15:46:48Z</time>
      </trkpt>
      <trkpt lat="48.67899" lon="7.21645">
        <ele>312.6</ele>
        <time>2020-08-18T15:46:50Z</time>
      </trkpt>
      <trkpt lat="48.67906" lon="7.21651">
        <ele>313.4</ele>
        <time>2020-08-18T15:46:52Z</time>
      </trkpt>
      <trkpt lat="48.67914" lon="7.21657">
        <ele>314.4</ele>
        <time>2020-08-18T15:46:54Z</time>
      </trkpt>
      <trkpt lat="48.67921" lon="7.2166">
        <ele>316</ele>
        <time>2020-08-18T15:46:56Z</time>
      </trkpt>
      <trkpt lat="48.67928" lon="7.21662">
        <ele>316.8</ele>
        <time>2020-08-18T15:46:58Z</time>
      </trkpt>
      <trkpt lat="48.67933" lon="7.21663">
        <ele>317.7</ele>
        <time>2020-08-18T15:47:00Z</time>
      </trkpt>
      <trkpt lat="48.67938" lon="7.21663">
        <ele>318.5</ele>
        <time>2020-08-18T15:47:02Z</time>
      </trkpt>
      <trkpt lat="48.67943" lon="7.21663">
        <ele>319.6</ele>
        <time>2020-08-18T15:47:04Z</time>
      </trkpt>
      <trkpt lat="48.67948" lon="7.21662">
        <ele>320.8</ele>
        <time>2020-08-18T15:47:06Z</time>
      </trkpt>
      <trkpt lat="48.67953" lon="7.21661">
        <ele>321.4</ele>
        <time>2020-08-18T15:47:08Z</time>
      </trkpt>
      <trkpt lat="48.67959" lon="7.21659">
        <ele>322</ele>
        <time>2020-08-18T15:47:10Z</time>
      </trkpt>
      <trkpt lat="48.67965" lon="7.21657">
        <ele>322.6</ele>
        <time>2020-08-18T15:47:12Z</time>
      </trkpt>
      <trkpt lat="48.67973" lon="7.21655">
        <ele>322.6</ele>
        <time>2020-08-18T15:47:14Z</time>
      </trkpt>
      <trkpt lat="48.6798" lon="7.21653">
        <ele>324.2</ele>
        <time>2020-08-18T15:47:16Z</time>
      </trkpt>
      <trkpt lat="48.67987" lon="7.2165">
        <ele>326.2</ele>
        <time>2020-08-18T15:47:18Z</time>
      </trkpt>
      <trkpt lat="48.67992" lon="7.21646">
        <ele>327.6</ele>
        <time>2020-08-18T15:47:20Z</time>
      </trkpt>
      <trkpt lat="48.67997" lon="7.21643">
        <ele>329.8</ele>
        <time>2020-08-18T15:47:23Z</time>
      </trkpt>
      <trkpt lat="48.68003" lon="7.21641">
        <ele>330.5</ele>
        <time>2020-08-18T15:47:27Z</time>
      </trkpt>
      <trkpt lat="48.68008" lon="7.21641">
        <ele>331.9</ele>
        <time>2020-08-18T15:47:30Z</time>
      </trkpt>
      <trkpt lat="48.68014" lon="7.2164">
        <ele>333</ele>
        <time>2020-08-18T15:47:33Z</time>
      </trkpt>
      <trkpt lat="48.6802" lon="7.21639">
        <ele>333.9</ele>
        <time>2020-08-18T15:47:36Z</time>
      </trkpt>
      <trkpt lat="48.68025" lon="7.21637">
        <ele>334.9</ele>
        <time>2020-08-18T15:47:39Z</time>
      </trkpt>
      <trkpt lat="48.6803" lon="7.21639">
        <ele>335.3</ele>
        <time>2020-08-18T15:47:42Z</time>
      </trkpt>
      <trkpt lat="48.68035" lon="7.21642">
        <ele>335.8</ele>
        <time>2020-08-18T15:47:45Z</time>
      </trkpt>
      <trkpt lat="48.6804" lon="7.21649">
        <ele>336.4</ele>
        <time>2020-08-18T15:47:48Z</time>
      </trkpt>
      <trkpt lat="48.68044" lon="7.21655">
        <ele>336.3</ele>
        <time>2020-08-18T15:47:50Z</time>
      </trkpt>
      <trkpt lat="48.68047" lon="7.21665">
        <ele>336.1</ele>
        <time>2020-08-18T15:47:52Z</time>
      </trkpt>
      <trkpt lat="48.68049" lon="7.21677">
        <ele>336.1</ele>
        <time>2020-08-18T15:47:54Z</time>
      </trkpt>
      <trkpt lat="48.68052" lon="7.2169">
        <ele>335.8</ele>
        <time>2020-08-18T15:47:56Z</time>
      </trkpt>
      <trkpt lat="48.68055" lon="7.21703">
        <ele>337.3</ele>
        <time>2020-08-18T15:47:58Z</time>
      </trkpt>
      <trkpt lat="48.68062" lon="7.21722">
        <ele>338</ele>
        <time>2020-08-18T15:48:00Z</time>
      </trkpt>
      <trkpt lat="48.68065" lon="7.21737">
        <ele>338.7</ele>
        <time>2020-08-18T15:48:02Z</time>
      </trkpt>
      <trkpt lat="48.68065" lon="7.2175">
        <ele>339.4</ele>
        <time>2020-08-18T15:48:04Z</time>
      </trkpt>
      <trkpt lat="48.68061" lon="7.21763">
        <ele>339.5</ele>
        <time>2020-08-18T15:48:06Z</time>
      </trkpt>
      <trkpt lat="48.68056" lon="7.21776">
        <ele>339.7</ele>
        <time>2020-08-18T15:48:08Z</time>
      </trkpt>
      <trkpt lat="48.68048" lon="7.21787">
        <ele>339</ele>
        <time>2020-08-18T15:48:10Z</time>
      </trkpt>
      <trkpt lat="48.68038" lon="7.21794">
        <ele>339.4</ele>
        <time>2020-08-18T15:48:12Z</time>
      </trkpt>
      <trkpt lat="48.68029" lon="7.21801">
        <ele>339.8</ele>
        <time>2020-08-18T15:48:14Z</time>
      </trkpt>
      <trkpt lat="48.68024" lon="7.21809">
        <ele>339.4</ele>
        <time>2020-08-18T15:48:16Z</time>
      </trkpt>
      <trkpt lat="48.6802" lon="7.2182">
        <ele>353.3</ele>
        <time>2020-08-18T15:48:18Z</time>
      </trkpt>
      <trkpt lat="48.68017" lon="7.21831">
        <ele>354.7</ele>
        <time>2020-08-18T15:48:20Z</time>
      </trkpt>
      <trkpt lat="48.68016" lon="7.21842">
        <ele>355.1</ele>
        <time>2020-08-18T15:48:22Z</time>
      </trkpt>
      <trkpt lat="48.68017" lon="7.21852">
        <ele>355.5</ele>
        <time>2020-08-18T15:48:24Z</time>
      </trkpt>
      <trkpt lat="48.68021" lon="7.21868">
        <ele>353.3</ele>
        <time>2020-08-18T15:48:26Z</time>
      </trkpt>
      <trkpt lat="48.68024" lon="7.2188">
        <ele>352.7</ele>
        <time>2020-08-18T15:48:28Z</time>
      </trkpt>
      <trkpt lat="48.68025" lon="7.21892">
        <ele>350.8</ele>
        <time>2020-08-18T15:48:30Z</time>
      </trkpt>
      <trkpt lat="48.68027" lon="7.21904">
        <ele>350.2</ele>
        <time>2020-08-18T15:48:32Z</time>
      </trkpt>
      <trkpt lat="48.68032" lon="7.21914">
        <ele>350.2</ele>
        <time>2020-08-18T15:48:34Z</time>
      </trkpt>
      <trkpt lat="48.68035" lon="7.21927">
        <ele>349.7</ele>
        <time>2020-08-18T15:48:36Z</time>
      </trkpt>
      <trkpt lat="48.68038" lon="7.2194">
        <ele>349.5</ele>
        <time>2020-08-18T15:48:38Z</time>
      </trkpt>
      <trkpt lat="48.68041" lon="7.21952">
        <ele>369.4</ele>
        <time>2020-08-18T15:48:40Z</time>
      </trkpt>
      <trkpt lat="48.68044" lon="7.21963">
        <ele>371.1</ele>
        <time>2020-08-18T15:48:42Z</time>
      </trkpt>
      <trkpt lat="48.68047" lon="7.21973">
        <ele>380.5</ele>
        <time>2020-08-18T15:48:44Z</time>
      </trkpt>
      <trkpt lat="48.6805" lon="7.21984">
        <ele>391.8</ele>
        <time>2020-08-18T15:48:46Z</time>
      </trkpt>
      <trkpt lat="48.68052" lon="7.21994">
        <ele>398.7</ele>
        <time>2020-08-18T15:48:48Z</time>
      </trkpt>
      <trkpt lat="48.68053" lon="7.22005">
        <ele>402.4</ele>
        <time>2020-08-18T15:48:50Z</time>
      </trkpt>
      <trkpt lat="48.68054" lon="7.22015">
        <ele>400.9</ele>
        <time>2020-08-18T15:48:52Z</time>
      </trkpt>
      <trkpt lat="48.68056" lon="7.22026">
        <ele>396.7</ele>
        <time>2020-08-18T15:48:54Z</time>
      </trkpt>
      <trkpt lat="48.6806" lon="7.22037">
        <ele>391.7</ele>
        <time>2020-08-18T15:48:56Z</time>
      </trkpt>
      <trkpt lat="48.68065" lon="7.22049">
        <ele>386.2</ele>
        <time>2020-08-18T15:48:58Z</time>
      </trkpt>
      <trkpt lat="48.68071" lon="7.22061">
        <ele>382.6</ele>
        <time>2020-08-18T15:49:00Z</time>
      </trkpt>
      <trkpt lat="48.68078" lon="7.22076">
        <ele>379.6</ele>
        <time>2020-08-18T15:49:02Z</time>
      </trkpt>
      <trkpt lat="48.68081" lon="7.22092">
        <ele>376.1</ele>
        <time>2020-08-18T15:49:04Z</time>
      </trkpt>
      <trkpt lat="48.68084" lon="7.22106">
        <ele>373.3</ele>
        <time>2020-08-18T15:49:06Z</time>
      </trkpt>
      <trkpt lat="48.68088" lon="7.2212">
        <ele>370.7</ele>
        <time>2020-08-18T15:49:08Z</time>
      </trkpt>
      <trkpt lat="48.68089" lon="7.22133">
        <ele>368.5</ele>
        <time>2020-08-18T15:49:10Z</time>
      </trkpt>
      <trkpt lat="48.68088" lon="7.22146">
        <ele>383.1</ele>
        <time>2020-08-18T15:49:12Z</time>
      </trkpt>
      <trkpt lat="48.68089" lon="7.22157">
        <ele>382.1</ele>
        <time>2020-08-18T15:49:14Z</time>
      </trkpt>
      <trkpt lat="48.68091" lon="7.22168">
        <ele>380</ele>
        <time>2020-08-18T15:49:16Z</time>
      </trkpt>
      <trkpt lat="48.68092" lon="7.2218">
        <ele>377.4</ele>
        <time>2020-08-18T15:49:18Z</time>
      </trkpt>
      <trkpt lat="48.68094" lon="7.22192">
        <ele>373.9</ele>
        <time>2020-08-18T15:49:20Z</time>
      </trkpt>
      <trkpt lat="48.68095" lon="7.22204">
        <ele>371.7</ele>
        <time>2020-08-18T15:49:22Z</time>
      </trkpt>
      <trkpt lat="48.68097" lon="7.22216">
        <ele>370.6</ele>
        <time>2020-08-18T15:49:24Z</time>
      </trkpt>
      <trkpt lat="48.68098" lon="7.22227">
        <ele>369.4</ele>
        <time>2020-08-18T15:49:26Z</time>
      </trkpt>
      <trkpt lat="48.68099" lon="7.22239">
        <ele>368.4</ele>
        <time>2020-08-18T15:49:28Z</time>
      </trkpt>
      <trkpt lat="48.68098" lon="7.22251">
        <ele>367.2</ele>
        <time>2020-08-18T15:49:30Z</time>
      </trkpt>
      <trkpt lat="48.68097" lon="7.22264">
        <ele>366.6</ele>
        <time>2020-08-18T15:49:32Z</time>
      </trkpt>
      <trkpt lat="48.68096" lon="7.22277">
        <ele>367.1</ele>
        <time>2020-08-18T15:49:34Z</time>
      </trkpt>
      <trkpt lat="48.68094" lon="7.22291">
        <ele>366.5</ele>
        <time>2020-08-18T15:49:36Z</time>
      </trkpt>
      <trkpt lat="48.68092" lon="7.22304">
        <ele>366.9</ele>
        <time>2020-08-18T15:49:38Z</time>
      </trkpt>
      <trkpt lat="48.68092" lon="7.22323">
        <ele>367.3</ele>
        <time>2020-08-18T15:49:40Z</time>
      </trkpt>
      <trkpt lat="48.68088" lon="7.22336">
        <ele>367.6</ele>
        <time>2020-08-18T15:49:42Z</time>
      </trkpt>
      <trkpt lat="48.68083" lon="7.22349">
        <ele>368.1</ele>
        <time>2020-08-18T15:49:44Z</time>
      </trkpt>
      <trkpt lat="48.68076" lon="7.22357">
        <ele>368.2</ele>
        <time>2020-08-18T15:49:46Z</time>
      </trkpt>
      <trkpt lat="48.68067" lon="7.22364">
        <ele>390.5</ele>
        <time>2020-08-18T15:49:48Z</time>
      </trkpt>
      <trkpt lat="48.6806" lon="7.22362">
        <ele>392.2</ele>
        <time>2020-08-18T15:49:50Z</time>
      </trkpt>
      <trkpt lat="48.68053" lon="7.22358">
        <ele>390.4</ele>
        <time>2020-08-18T15:49:52Z</time>
      </trkpt>
      <trkpt lat="48.68045" lon="7.22352">
        <ele>388</ele>
        <time>2020-08-18T15:49:54Z</time>
      </trkpt>
      <trkpt lat="48.68038" lon="7.22344">
        <ele>385.2</ele>
        <time>2020-08-18T15:49:56Z</time>
      </trkpt>
      <trkpt lat="48.68032" lon="7.22337">
        <ele>391.8</ele>
        <time>2020-08-18T15:49:58Z</time>
      </trkpt>
      <trkpt lat="48.68027" lon="7.2233">
        <ele>391.3</ele>
        <time>2020-08-18T15:50:00Z</time>
      </trkpt>
      <trkpt lat="48.68021" lon="7.22324">
        <ele>390.3</ele>
        <time>2020-08-18T15:50:02Z</time>
      </trkpt>
      <trkpt lat="48.68015" lon="7.22314">
        <ele>388.2</ele>
        <time>2020-08-18T15:50:04Z</time>
      </trkpt>
      <trkpt lat="48.68007" lon="7.22304">
        <ele>386.3</ele>
        <time>2020-08-18T15:50:06Z</time>
      </trkpt>
      <trkpt lat="48.67998" lon="7.22294">
        <ele>384.9</ele>
        <time>2020-08-18T15:50:08Z</time>
      </trkpt>
      <trkpt lat="48.67989" lon="7.22287">
        <ele>383.4</ele>
        <time>2020-08-18T15:50:10Z</time>
      </trkpt>
      <trkpt lat="48.67981" lon="7.22281">
        <ele>382.9</ele>
        <time>2020-08-18T15:50:12Z</time>
      </trkpt>
      <trkpt lat="48.67974" lon="7.22274">
        <ele>382.5</ele>
        <time>2020-08-18T15:50:14Z</time>
      </trkpt>
      <trkpt lat="48.67967" lon="7.22269">
        <ele>382.3</ele>
        <time>2020-08-18T15:50:16Z</time>
      </trkpt>
      <trkpt lat="48.67959" lon="7.22263">
        <ele>381.6</ele>
        <time>2020-08-18T15:50:18Z</time>
      </trkpt>
      <trkpt lat="48.67952" lon="7.22256">
        <ele>381.4</ele>
        <time>2020-08-18T15:50:20Z</time>
      </trkpt>
      <trkpt lat="48.67945" lon="7.22251">
        <ele>381.4</ele>
        <time>2020-08-18T15:50:22Z</time>
      </trkpt>
      <trkpt lat="48.67936" lon="7.22245">
        <ele>381.6</ele>
        <time>2020-08-18T15:50:24Z</time>
      </trkpt>
      <trkpt lat="48.67927" lon="7.22239">
        <ele>382.2</ele>
        <time>2020-08-18T15:50:26Z</time>
      </trkpt>
      <trkpt lat="48.67918" lon="7.22233">
        <ele>382.3</ele>
        <time>2020-08-18T15:50:28Z</time>
      </trkpt>
      <trkpt lat="48.67909" lon="7.22226">
        <ele>382.4</ele>
        <time>2020-08-18T15:50:30Z</time>
      </trkpt>
      <trkpt lat="48.679" lon="7.22221">
        <ele>382.4</ele>
        <time>2020-08-18T15:50:32Z</time>
      </trkpt>
      <trkpt lat="48.67894" lon="7.22217">
        <ele>383.3</ele>
        <time>2020-08-18T15:50:34Z</time>
      </trkpt>
      <trkpt lat="48.67886" lon="7.22212">
        <ele>383.6</ele>
        <time>2020-08-18T15:50:36Z</time>
      </trkpt>
      <trkpt lat="48.67879" lon="7.22208">
        <ele>384.4</ele>
        <time>2020-08-18T15:50:38Z</time>
      </trkpt>
      <trkpt lat="48.67872" lon="7.22205">
        <ele>384.9</ele>
        <time>2020-08-18T15:50:40Z</time>
      </trkpt>
      <trkpt lat="48.67864" lon="7.22201">
        <ele>386.4</ele>
        <time>2020-08-18T15:50:42Z</time>
      </trkpt>
      <trkpt lat="48.67857" lon="7.22196">
        <ele>387.1</ele>
        <time>2020-08-18T15:50:44Z</time>
      </trkpt>
      <trkpt lat="48.67849" lon="7.2219">
        <ele>388.9</ele>
        <time>2020-08-18T15:50:46Z</time>
      </trkpt>
      <trkpt lat="48.67842" lon="7.22185">
        <ele>390.8</ele>
        <time>2020-08-18T15:50:48Z</time>
      </trkpt>
      <trkpt lat="48.67835" lon="7.2218">
        <ele>391.2</ele>
        <time>2020-08-18T15:50:50Z</time>
      </trkpt>
      <trkpt lat="48.67829" lon="7.22176">
        <ele>393</ele>
        <time>2020-08-18T15:50:52Z</time>
      </trkpt>
      <trkpt lat="48.67822" lon="7.22172">
        <ele>394.2</ele>
        <time>2020-08-18T15:50:54Z</time>
      </trkpt>
      <trkpt lat="48.67815" lon="7.22168">
        <ele>394.9</ele>
        <time>2020-08-18T15:50:56Z</time>
      </trkpt>
      <trkpt lat="48.67807" lon="7.22164">
        <ele>395.7</ele>
        <time>2020-08-18T15:50:58Z</time>
      </trkpt>
      <trkpt lat="48.67798" lon="7.22162">
        <ele>395.7</ele>
        <time>2020-08-18T15:51:00Z</time>
      </trkpt>
      <trkpt lat="48.67788" lon="7.22158">
        <ele>395.7</ele>
        <time>2020-08-18T15:51:02Z</time>
      </trkpt>
      <trkpt lat="48.6778" lon="7.22154">
        <ele>394.5</ele>
        <time>2020-08-18T15:51:04Z</time>
      </trkpt>
      <trkpt lat="48.67772" lon="7.22149">
        <ele>393.3</ele>
        <time>2020-08-18T15:51:06Z</time>
      </trkpt>
      <trkpt lat="48.67766" lon="7.22145">
        <ele>391.9</ele>
        <time>2020-08-18T15:51:08Z</time>
      </trkpt>
      <trkpt lat="48.67758" lon="7.22141">
        <ele>391.4</ele>
        <time>2020-08-18T15:51:10Z</time>
      </trkpt>
      <trkpt lat="48.67749" lon="7.22138">
        <ele>391</ele>
        <time>2020-08-18T15:51:12Z</time>
      </trkpt>
      <trkpt lat="48.67736" lon="7.22136">
        <ele>390.9</ele>
        <time>2020-08-18T15:51:14Z</time>
      </trkpt>
      <trkpt lat="48.67725" lon="7.22132">
        <ele>391.6</ele>
        <time>2020-08-18T15:51:16Z</time>
      </trkpt>
      <trkpt lat="48.67716" lon="7.22128">
        <ele>392.2</ele>
        <time>2020-08-18T15:51:18Z</time>
      </trkpt>
      <trkpt lat="48.67708" lon="7.22124">
        <ele>391.9</ele>
        <time>2020-08-18T15:51:20Z</time>
      </trkpt>
      <trkpt lat="48.677" lon="7.22123">
        <ele>391.7</ele>
        <time>2020-08-18T15:51:22Z</time>
      </trkpt>
      <trkpt lat="48.67691" lon="7.22123">
        <ele>391.6</ele>
        <time>2020-08-18T15:51:24Z</time>
      </trkpt>
      <trkpt lat="48.67683" lon="7.22124">
        <ele>391.3</ele>
        <time>2020-08-18T15:51:26Z</time>
      </trkpt>
      <trkpt lat="48.67674" lon="7.22126">
        <ele>391.2</ele>
        <time>2020-08-18T15:51:28Z</time>
      </trkpt>
      <trkpt lat="48.67665" lon="7.2213">
        <ele>391.5</ele>
        <time>2020-08-18T15:51:30Z</time>
      </trkpt>
      <trkpt lat="48.67657" lon="7.22134">
        <ele>391.9</ele>
        <time>2020-08-18T15:51:32Z</time>
      </trkpt>
      <trkpt lat="48.6765" lon="7.22139">
        <ele>391.4</ele>
        <time>2020-08-18T15:51:34Z</time>
      </trkpt>
      <trkpt lat="48.67644" lon="7.22145">
        <ele>391.2</ele>
        <time>2020-08-18T15:51:36Z</time>
      </trkpt>
      <trkpt lat="48.67638" lon="7.22151">
        <ele>391</ele>
        <time>2020-08-18T15:51:38Z</time>
      </trkpt>
      <trkpt lat="48.67632" lon="7.22157">
        <ele>391.3</ele>
        <time>2020-08-18T15:51:40Z</time>
      </trkpt>
      <trkpt lat="48.67628" lon="7.22164">
        <ele>392.2</ele>
        <time>2020-08-18T15:51:42Z</time>
      </trkpt>
      <trkpt lat="48.67626" lon="7.2217">
        <ele>392.9</ele>
        <time>2020-08-18T15:51:44Z</time>
      </trkpt>
      <trkpt lat="48.67625" lon="7.22177">
        <ele>396.8</ele>
        <time>2020-08-18T15:51:55Z</time>
      </trkpt>
      <trkpt lat="48.6762" lon="7.2218">
        <ele>399.8</ele>
        <time>2020-08-18T15:52:03Z</time>
      </trkpt>
      <trkpt lat="48.67611" lon="7.22184">
        <ele>399.9</ele>
        <time>2020-08-18T15:52:05Z</time>
      </trkpt>
      <trkpt lat="48.67601" lon="7.22189">
        <ele>399.5</ele>
        <time>2020-08-18T15:52:07Z</time>
      </trkpt>
      <trkpt lat="48.6759" lon="7.22197">
        <ele>401</ele>
        <time>2020-08-18T15:52:09Z</time>
      </trkpt>
      <trkpt lat="48.67579" lon="7.22205">
        <ele>400.1</ele>
        <time>2020-08-18T15:52:11Z</time>
      </trkpt>
      <trkpt lat="48.67568" lon="7.22214">
        <ele>399.8</ele>
        <time>2020-08-18T15:52:13Z</time>
      </trkpt>
      <trkpt lat="48.67559" lon="7.22223">
        <ele>399</ele>
        <time>2020-08-18T15:52:15Z</time>
      </trkpt>
      <trkpt lat="48.67553" lon="7.22233">
        <ele>398.4</ele>
        <time>2020-08-18T15:52:17Z</time>
      </trkpt>
      <trkpt lat="48.6755" lon="7.22239">
        <ele>397.5</ele>
        <time>2020-08-18T15:52:19Z</time>
      </trkpt>
      <trkpt lat="48.67548" lon="7.22246">
        <ele>396.5</ele>
        <time>2020-08-18T15:52:24Z</time>
      </trkpt>
      <trkpt lat="48.67549" lon="7.22254">
        <ele>395.9</ele>
        <time>2020-08-18T15:52:30Z</time>
      </trkpt>
      <trkpt lat="48.67545" lon="7.2226">
        <ele>396.7</ele>
        <time>2020-08-18T15:52:36Z</time>
      </trkpt>
      <trkpt lat="48.67542" lon="7.22268">
        <ele>395.7</ele>
        <time>2020-08-18T15:52:39Z</time>
      </trkpt>
      <trkpt lat="48.67541" lon="7.22277">
        <ele>395</ele>
        <time>2020-08-18T15:52:41Z</time>
      </trkpt>
      <trkpt lat="48.67538" lon="7.22288">
        <ele>394.4</ele>
        <time>2020-08-18T15:52:43Z</time>
      </trkpt>
      <trkpt lat="48.67535" lon="7.223">
        <ele>394</ele>
        <time>2020-08-18T15:52:45Z</time>
      </trkpt>
      <trkpt lat="48.67532" lon="7.22313">
        <ele>393.6</ele>
        <time>2020-08-18T15:52:47Z</time>
      </trkpt>
      <trkpt lat="48.6753" lon="7.22327">
        <ele>392.6</ele>
        <time>2020-08-18T15:52:49Z</time>
      </trkpt>
      <trkpt lat="48.67529" lon="7.22341">
        <ele>391.4</ele>
        <time>2020-08-18T15:52:51Z</time>
      </trkpt>
      <trkpt lat="48.67529" lon="7.22356">
        <ele>391</ele>
        <time>2020-08-18T15:52:53Z</time>
      </trkpt>
      <trkpt lat="48.67527" lon="7.22377">
        <ele>391.1</ele>
        <time>2020-08-18T15:52:55Z</time>
      </trkpt>
      <trkpt lat="48.67525" lon="7.22392">
        <ele>391.4</ele>
        <time>2020-08-18T15:52:57Z</time>
      </trkpt>
      <trkpt lat="48.67524" lon="7.22407">
        <ele>390.7</ele>
        <time>2020-08-18T15:52:59Z</time>
      </trkpt>
      <trkpt lat="48.67523" lon="7.22419">
        <ele>390.3</ele>
        <time>2020-08-18T15:53:01Z</time>
      </trkpt>
      <trkpt lat="48.67523" lon="7.22433">
        <ele>389.7</ele>
        <time>2020-08-18T15:53:03Z</time>
      </trkpt>
      <trkpt lat="48.67527" lon="7.22444">
        <ele>388.3</ele>
        <time>2020-08-18T15:53:05Z</time>
      </trkpt>
      <trkpt lat="48.67531" lon="7.22454">
        <ele>387.5</ele>
        <time>2020-08-18T15:53:07Z</time>
      </trkpt>
      <trkpt lat="48.67533" lon="7.22464">
        <ele>387.6</ele>
        <time>2020-08-18T15:53:09Z</time>
      </trkpt>
      <trkpt lat="48.67534" lon="7.22475">
        <ele>388.4</ele>
        <time>2020-08-18T15:53:11Z</time>
      </trkpt>
      <trkpt lat="48.67534" lon="7.22486">
        <ele>389.7</ele>
        <time>2020-08-18T15:53:13Z</time>
      </trkpt>
      <trkpt lat="48.67533" lon="7.22499">
        <ele>392.3</ele>
        <time>2020-08-18T15:53:15Z</time>
      </trkpt>
      <trkpt lat="48.67533" lon="7.22511">
        <ele>393.5</ele>
        <time>2020-08-18T15:53:17Z</time>
      </trkpt>
      <trkpt lat="48.67534" lon="7.22524">
        <ele>394.2</ele>
        <time>2020-08-18T15:53:19Z</time>
      </trkpt>
      <trkpt lat="48.67537" lon="7.22535">
        <ele>394.6</ele>
        <time>2020-08-18T15:53:21Z</time>
      </trkpt>
      <trkpt lat="48.6754" lon="7.22551">
        <ele>394.8</ele>
        <time>2020-08-18T15:53:23Z</time>
      </trkpt>
      <trkpt lat="48.67542" lon="7.22568">
        <ele>395.2</ele>
        <time>2020-08-18T15:53:25Z</time>
      </trkpt>
      <trkpt lat="48.67543" lon="7.22586">
        <ele>394.8</ele>
        <time>2020-08-18T15:53:27Z</time>
      </trkpt>
      <trkpt lat="48.67544" lon="7.226">
        <ele>395.7</ele>
        <time>2020-08-18T15:53:29Z</time>
      </trkpt>
      <trkpt lat="48.67546" lon="7.22614">
        <ele>396.2</ele>
        <time>2020-08-18T15:53:31Z</time>
      </trkpt>
      <trkpt lat="48.67547" lon="7.22627">
        <ele>398</ele>
        <time>2020-08-18T15:53:33Z</time>
      </trkpt>
      <trkpt lat="48.67548" lon="7.2264">
        <ele>399.4</ele>
        <time>2020-08-18T15:53:35Z</time>
      </trkpt>
      <trkpt lat="48.6755" lon="7.22653">
        <ele>400.4</ele>
        <time>2020-08-18T15:53:37Z</time>
      </trkpt>
      <trkpt lat="48.67552" lon="7.22665">
        <ele>400.9</ele>
        <time>2020-08-18T15:53:39Z</time>
      </trkpt>
      <trkpt lat="48.67554" lon="7.22676">
        <ele>401.4</ele>
        <time>2020-08-18T15:53:41Z</time>
      </trkpt>
      <trkpt lat="48.67557" lon="7.22687">
        <ele>401.8</ele>
        <time>2020-08-18T15:53:43Z</time>
      </trkpt>
      <trkpt lat="48.67559" lon="7.22699">
        <ele>402.2</ele>
        <time>2020-08-18T15:53:45Z</time>
      </trkpt>
      <trkpt lat="48.67562" lon="7.22712">
        <ele>402.6</ele>
        <time>2020-08-18T15:53:47Z</time>
      </trkpt>
      <trkpt lat="48.67565" lon="7.22725">
        <ele>403.2</ele>
        <time>2020-08-18T15:53:49Z</time>
      </trkpt>
      <trkpt lat="48.67568" lon="7.22736">
        <ele>403.6</ele>
        <time>2020-08-18T15:53:51Z</time>
      </trkpt>
      <trkpt lat="48.67572" lon="7.22745">
        <ele>404.8</ele>
        <time>2020-08-18T15:53:53Z</time>
      </trkpt>
      <trkpt lat="48.67578" lon="7.22755">
        <ele>405.8</ele>
        <time>2020-08-18T15:53:55Z</time>
      </trkpt>
      <trkpt lat="48.67584" lon="7.22766">
        <ele>407.3</ele>
        <time>2020-08-18T15:53:57Z</time>
      </trkpt>
      <trkpt lat="48.67589" lon="7.22777">
        <ele>407.8</ele>
        <time>2020-08-18T15:53:59Z</time>
      </trkpt>
      <trkpt lat="48.67592" lon="7.22787">
        <ele>408.5</ele>
        <time>2020-08-18T15:54:01Z</time>
      </trkpt>
      <trkpt lat="48.67595" lon="7.22798">
        <ele>409.3</ele>
        <time>2020-08-18T15:54:03Z</time>
      </trkpt>
      <trkpt lat="48.67598" lon="7.22811">
        <ele>410.3</ele>
        <time>2020-08-18T15:54:05Z</time>
      </trkpt>
      <trkpt lat="48.67603" lon="7.22825">
        <ele>411.3</ele>
        <time>2020-08-18T15:54:08Z</time>
      </trkpt>
      <trkpt lat="48.67606" lon="7.22835">
        <ele>412.6</ele>
        <time>2020-08-18T15:54:10Z</time>
      </trkpt>
      <trkpt lat="48.67608" lon="7.22851">
        <ele>411.8</ele>
        <time>2020-08-18T15:54:13Z</time>
      </trkpt>
      <trkpt lat="48.67609" lon="7.22861">
        <ele>411.5</ele>
        <time>2020-08-18T15:54:15Z</time>
      </trkpt>
      <trkpt lat="48.67609" lon="7.22872">
        <ele>411.1</ele>
        <time>2020-08-18T15:54:17Z</time>
      </trkpt>
      <trkpt lat="48.67609" lon="7.22888">
        <ele>412.1</ele>
        <time>2020-08-18T15:54:19Z</time>
      </trkpt>
      <trkpt lat="48.6761" lon="7.22903">
        <ele>412.3</ele>
        <time>2020-08-18T15:54:21Z</time>
      </trkpt>
      <trkpt lat="48.67612" lon="7.22917">
        <ele>412.5</ele>
        <time>2020-08-18T15:54:23Z</time>
      </trkpt>
      <trkpt lat="48.67615" lon="7.2293">
        <ele>412.8</ele>
        <time>2020-08-18T15:54:25Z</time>
      </trkpt>
      <trkpt lat="48.67618" lon="7.22944">
        <ele>412.5</ele>
        <time>2020-08-18T15:54:27Z</time>
      </trkpt>
      <trkpt lat="48.6762" lon="7.22957">
        <ele>412.4</ele>
        <time>2020-08-18T15:54:29Z</time>
      </trkpt>
      <trkpt lat="48.67622" lon="7.22968">
        <ele>412.9</ele>
        <time>2020-08-18T15:54:31Z</time>
      </trkpt>
      <trkpt lat="48.67623" lon="7.22979">
        <ele>412.9</ele>
        <time>2020-08-18T15:54:33Z</time>
      </trkpt>
      <trkpt lat="48.67623" lon="7.2299">
        <ele>413.6</ele>
        <time>2020-08-18T15:54:35Z</time>
      </trkpt>
      <trkpt lat="48.67622" lon="7.22999">
        <ele>414</ele>
        <time>2020-08-18T15:54:37Z</time>
      </trkpt>
      <trkpt lat="48.67624" lon="7.2301">
        <ele>438.8</ele>
        <time>2020-08-18T15:54:39Z</time>
      </trkpt>
      <trkpt lat="48.67625" lon="7.23021">
        <ele>444.7</ele>
        <time>2020-08-18T15:54:41Z</time>
      </trkpt>
      <trkpt lat="48.67627" lon="7.23032">
        <ele>446</ele>
        <time>2020-08-18T15:54:43Z</time>
      </trkpt>
      <trkpt lat="48.67628" lon="7.23044">
        <ele>444.8</ele>
        <time>2020-08-18T15:54:45Z</time>
      </trkpt>
      <trkpt lat="48.67629" lon="7.23058">
        <ele>440.9</ele>
        <time>2020-08-18T15:54:47Z</time>
      </trkpt>
      <trkpt lat="48.67631" lon="7.23071">
        <ele>438</ele>
        <time>2020-08-18T15:54:49Z</time>
      </trkpt>
      <trkpt lat="48.67631" lon="7.23083">
        <ele>435.1</ele>
        <time>2020-08-18T15:54:51Z</time>
      </trkpt>
      <trkpt lat="48.67632" lon="7.23096">
        <ele>432.3</ele>
        <time>2020-08-18T15:54:53Z</time>
      </trkpt>
      <trkpt lat="48.67633" lon="7.23106">
        <ele>429.8</ele>
        <time>2020-08-18T15:54:55Z</time>
      </trkpt>
      <trkpt lat="48.67633" lon="7.23118">
        <ele>428.8</ele>
        <time>2020-08-18T15:54:57Z</time>
      </trkpt>
      <trkpt lat="48.67633" lon="7.2313">
        <ele>427.9</ele>
        <time>2020-08-18T15:54:59Z</time>
      </trkpt>
      <trkpt lat="48.67635" lon="7.23142">
        <ele>427.2</ele>
        <time>2020-08-18T15:55:01Z</time>
      </trkpt>
      <trkpt lat="48.67636" lon="7.23153">
        <ele>427.5</ele>
        <time>2020-08-18T15:55:03Z</time>
      </trkpt>
      <trkpt lat="48.67637" lon="7.23163">
        <ele>427.3</ele>
        <time>2020-08-18T15:55:05Z</time>
      </trkpt>
      <trkpt lat="48.67637" lon="7.23175">
        <ele>427.1</ele>
        <time>2020-08-18T15:55:07Z</time>
      </trkpt>
      <trkpt lat="48.67637" lon="7.23187">
        <ele>427.3</ele>
        <time>2020-08-18T15:55:09Z</time>
      </trkpt>
      <trkpt lat="48.67638" lon="7.23201">
        <ele>426.8</ele>
        <time>2020-08-18T15:55:11Z</time>
      </trkpt>
      <trkpt lat="48.67641" lon="7.23214">
        <ele>427.3</ele>
        <time>2020-08-18T15:55:13Z</time>
      </trkpt>
      <trkpt lat="48.67643" lon="7.23227">
        <ele>427.9</ele>
        <time>2020-08-18T15:55:15Z</time>
      </trkpt>
      <trkpt lat="48.67644" lon="7.2324">
        <ele>428.2</ele>
        <time>2020-08-18T15:55:17Z</time>
      </trkpt>
      <trkpt lat="48.67646" lon="7.23251">
        <ele>428.9</ele>
        <time>2020-08-18T15:55:19Z</time>
      </trkpt>
      <trkpt lat="48.67648" lon="7.23261">
        <ele>429.3</ele>
        <time>2020-08-18T15:55:21Z</time>
      </trkpt>
      <trkpt lat="48.67651" lon="7.23273">
        <ele>428.7</ele>
        <time>2020-08-18T15:55:23Z</time>
      </trkpt>
      <trkpt lat="48.67655" lon="7.23284">
        <ele>428.5</ele>
        <time>2020-08-18T15:55:25Z</time>
      </trkpt>
      <trkpt lat="48.6766" lon="7.23295">
        <ele>428.7</ele>
        <time>2020-08-18T15:55:27Z</time>
      </trkpt>
      <trkpt lat="48.67663" lon="7.23307">
        <ele>428.7</ele>
        <time>2020-08-18T15:55:29Z</time>
      </trkpt>
      <trkpt lat="48.67665" lon="7.2332">
        <ele>429</ele>
        <time>2020-08-18T15:55:31Z</time>
      </trkpt>
      <trkpt lat="48.67667" lon="7.23332">
        <ele>430</ele>
        <time>2020-08-18T15:55:33Z</time>
      </trkpt>
      <trkpt lat="48.67668" lon="7.23346">
        <ele>430.5</ele>
        <time>2020-08-18T15:55:35Z</time>
      </trkpt>
      <trkpt lat="48.6767" lon="7.23361">
        <ele>430.8</ele>
        <time>2020-08-18T15:55:37Z</time>
      </trkpt>
      <trkpt lat="48.67673" lon="7.23376">
        <ele>430.4</ele>
        <time>2020-08-18T15:55:39Z</time>
      </trkpt>
      <trkpt lat="48.67676" lon="7.2339">
        <ele>430.4</ele>
        <time>2020-08-18T15:55:41Z</time>
      </trkpt>
      <trkpt lat="48.67676" lon="7.23403">
        <ele>430.9</ele>
        <time>2020-08-18T15:55:43Z</time>
      </trkpt>
      <trkpt lat="48.67674" lon="7.23414">
        <ele>431.5</ele>
        <time>2020-08-18T15:55:45Z</time>
      </trkpt>
      <trkpt lat="48.67673" lon="7.23423">
        <ele>431.8</ele>
        <time>2020-08-18T15:55:47Z</time>
      </trkpt>
      <trkpt lat="48.67672" lon="7.23435">
        <ele>432</ele>
        <time>2020-08-18T15:55:49Z</time>
      </trkpt>
      <trkpt lat="48.67674" lon="7.23448">
        <ele>432.8</ele>
        <time>2020-08-18T15:55:51Z</time>
      </trkpt>
      <trkpt lat="48.67677" lon="7.23461">
        <ele>481.7</ele>
        <time>2020-08-18T15:55:53Z</time>
      </trkpt>
      <trkpt lat="48.67679" lon="7.23473">
        <ele>490</ele>
        <time>2020-08-18T15:55:55Z</time>
      </trkpt>
      <trkpt lat="48.6768" lon="7.23485">
        <ele>515.7</ele>
        <time>2020-08-18T15:55:57Z</time>
      </trkpt>
      <trkpt lat="48.67682" lon="7.23498">
        <ele>514.7</ele>
        <time>2020-08-18T15:55:59Z</time>
      </trkpt>
      <trkpt lat="48.67683" lon="7.2351">
        <ele>506.2</ele>
        <time>2020-08-18T15:56:01Z</time>
      </trkpt>
      <trkpt lat="48.67686" lon="7.23522">
        <ele>526.9</ele>
        <time>2020-08-18T15:56:03Z</time>
      </trkpt>
      <trkpt lat="48.67689" lon="7.23534">
        <ele>523.4</ele>
        <time>2020-08-18T15:56:05Z</time>
      </trkpt>
      <trkpt lat="48.67691" lon="7.23544">
        <ele>515.5</ele>
        <time>2020-08-18T15:56:07Z</time>
      </trkpt>
      <trkpt lat="48.67693" lon="7.23555">
        <ele>507.3</ele>
        <time>2020-08-18T15:56:09Z</time>
      </trkpt>
      <trkpt lat="48.67694" lon="7.23565">
        <ele>498.6</ele>
        <time>2020-08-18T15:56:11Z</time>
      </trkpt>
      <trkpt lat="48.67695" lon="7.23574">
        <ele>489.4</ele>
        <time>2020-08-18T15:56:13Z</time>
      </trkpt>
      <trkpt lat="48.67696" lon="7.23583">
        <ele>517.3</ele>
        <time>2020-08-18T15:56:16Z</time>
      </trkpt>
      <trkpt lat="48.67695" lon="7.2359">
        <ele>489.7</ele>
        <time>2020-08-18T15:56:24Z</time>
      </trkpt>
      <trkpt lat="48.67697" lon="7.23596">
        <ele>457.8</ele>
        <time>2020-08-18T15:56:47Z</time>
      </trkpt>
      <trkpt lat="48.67701" lon="7.236">
        <ele>462</ele>
        <time>2020-08-18T15:56:54Z</time>
      </trkpt>
      <trkpt lat="48.67702" lon="7.23607">
        <ele>463.7</ele>
        <time>2020-08-18T15:56:59Z</time>
      </trkpt>
      <trkpt lat="48.67702" lon="7.23614">
        <ele>463.2</ele>
        <time>2020-08-18T15:57:02Z</time>
      </trkpt>
      <trkpt lat="48.67703" lon="7.23623">
        <ele>461.7</ele>
        <time>2020-08-18T15:57:05Z</time>
      </trkpt>
      <trkpt lat="48.67704" lon="7.23632">
        <ele>460.9</ele>
        <time>2020-08-18T15:57:08Z</time>
      </trkpt>
      <trkpt lat="48.67707" lon="7.23639">
        <ele>459.4</ele>
        <time>2020-08-18T15:57:10Z</time>
      </trkpt>
      <trkpt lat="48.67711" lon="7.23647">
        <ele>458.5</ele>
        <time>2020-08-18T15:57:12Z</time>
      </trkpt>
      <trkpt lat="48.67715" lon="7.23657">
        <ele>457</ele>
        <time>2020-08-18T15:57:14Z</time>
      </trkpt>
      <trkpt lat="48.67717" lon="7.23669">
        <ele>455.4</ele>
        <time>2020-08-18T15:57:16Z</time>
      </trkpt>
      <trkpt lat="48.67718" lon="7.23682">
        <ele>454.3</ele>
        <time>2020-08-18T15:57:18Z</time>
      </trkpt>
      <trkpt lat="48.67719" lon="7.23694">
        <ele>453.6</ele>
        <time>2020-08-18T15:57:20Z</time>
      </trkpt>
      <trkpt lat="48.67718" lon="7.23706">
        <ele>453</ele>
        <time>2020-08-18T15:57:22Z</time>
      </trkpt>
      <trkpt lat="48.67719" lon="7.23717">
        <ele>451.8</ele>
        <time>2020-08-18T15:57:24Z</time>
      </trkpt>
      <trkpt lat="48.67722" lon="7.23728">
        <ele>450.8</ele>
        <time>2020-08-18T15:57:26Z</time>
      </trkpt>
      <trkpt lat="48.67723" lon="7.23739">
        <ele>450.6</ele>
        <time>2020-08-18T15:57:28Z</time>
      </trkpt>
      <trkpt lat="48.67723" lon="7.2375">
        <ele>450.3</ele>
        <time>2020-08-18T15:57:30Z</time>
      </trkpt>
      <trkpt lat="48.67722" lon="7.23761">
        <ele>450</ele>
        <time>2020-08-18T15:57:32Z</time>
      </trkpt>
      <trkpt lat="48.67723" lon="7.23773">
        <ele>450.5</ele>
        <time>2020-08-18T15:57:34Z</time>
      </trkpt>
      <trkpt lat="48.67723" lon="7.23782">
        <ele>450.8</ele>
        <time>2020-08-18T15:57:36Z</time>
      </trkpt>
      <trkpt lat="48.67723" lon="7.23791">
        <ele>451.3</ele>
        <time>2020-08-18T15:57:38Z</time>
      </trkpt>
      <trkpt lat="48.67722" lon="7.238">
        <ele>452.4</ele>
        <time>2020-08-18T15:57:40Z</time>
      </trkpt>
      <trkpt lat="48.67722" lon="7.2381">
        <ele>453.9</ele>
        <time>2020-08-18T15:57:42Z</time>
      </trkpt>
      <trkpt lat="48.67723" lon="7.23822">
        <ele>455</ele>
        <time>2020-08-18T15:57:44Z</time>
      </trkpt>
      <trkpt lat="48.67723" lon="7.23834">
        <ele>455.9</ele>
        <time>2020-08-18T15:57:46Z</time>
      </trkpt>
      <trkpt lat="48.67723" lon="7.23847">
        <ele>455.7</ele>
        <time>2020-08-18T15:57:48Z</time>
      </trkpt>
      <trkpt lat="48.67725" lon="7.23861">
        <ele>456</ele>
        <time>2020-08-18T15:57:50Z</time>
      </trkpt>
      <trkpt lat="48.67727" lon="7.23874">
        <ele>456.8</ele>
        <time>2020-08-18T15:57:52Z</time>
      </trkpt>
      <trkpt lat="48.67727" lon="7.23886">
        <ele>456.6</ele>
        <time>2020-08-18T15:57:54Z</time>
      </trkpt>
      <trkpt lat="48.67727" lon="7.23898">
        <ele>456.7</ele>
        <time>2020-08-18T15:57:56Z</time>
      </trkpt>
      <trkpt lat="48.67727" lon="7.23909">
        <ele>475.6</ele>
        <time>2020-08-18T15:57:58Z</time>
      </trkpt>
      <trkpt lat="48.67726" lon="7.23919">
        <ele>478.4</ele>
        <time>2020-08-18T15:58:00Z</time>
      </trkpt>
      <trkpt lat="48.67725" lon="7.23931">
        <ele>479.5</ele>
        <time>2020-08-18T15:58:02Z</time>
      </trkpt>
      <trkpt lat="48.67724" lon="7.23941">
        <ele>480.2</ele>
        <time>2020-08-18T15:58:04Z</time>
      </trkpt>
      <trkpt lat="48.67723" lon="7.23951">
        <ele>479.9</ele>
        <time>2020-08-18T15:58:06Z</time>
      </trkpt>
      <trkpt lat="48.67721" lon="7.23962">
        <ele>479.7</ele>
        <time>2020-08-18T15:58:08Z</time>
      </trkpt>
      <trkpt lat="48.67719" lon="7.23974">
        <ele>478.7</ele>
        <time>2020-08-18T15:58:10Z</time>
      </trkpt>
      <trkpt lat="48.67718" lon="7.23986">
        <ele>477.6</ele>
        <time>2020-08-18T15:58:12Z</time>
      </trkpt>
      <trkpt lat="48.67718" lon="7.24">
        <ele>476.4</ele>
        <time>2020-08-18T15:58:14Z</time>
      </trkpt>
      <trkpt lat="48.67718" lon="7.24015">
        <ele>475</ele>
        <time>2020-08-18T15:58:16Z</time>
      </trkpt>
      <trkpt lat="48.67718" lon="7.24029">
        <ele>497.2</ele>
        <time>2020-08-18T15:58:18Z</time>
      </trkpt>
      <trkpt lat="48.67717" lon="7.24041">
        <ele>501.4</ele>
        <time>2020-08-18T15:58:20Z</time>
      </trkpt>
      <trkpt lat="48.67716" lon="7.24053">
        <ele>501.3</ele>
        <time>2020-08-18T15:58:22Z</time>
      </trkpt>
      <trkpt lat="48.67715" lon="7.24063">
        <ele>499.7</ele>
        <time>2020-08-18T15:58:24Z</time>
      </trkpt>
      <trkpt lat="48.67713" lon="7.24073">
        <ele>495.5</ele>
        <time>2020-08-18T15:58:26Z</time>
      </trkpt>
      <trkpt lat="48.67712" lon="7.24084">
        <ele>491.2</ele>
        <time>2020-08-18T15:58:28Z</time>
      </trkpt>
      <trkpt lat="48.67712" lon="7.24095">
        <ele>487.5</ele>
        <time>2020-08-18T15:58:30Z</time>
      </trkpt>
      <trkpt lat="48.67712" lon="7.24107">
        <ele>484.5</ele>
        <time>2020-08-18T15:58:32Z</time>
      </trkpt>
      <trkpt lat="48.67713" lon="7.24119">
        <ele>480.9</ele>
        <time>2020-08-18T15:58:34Z</time>
      </trkpt>
      <trkpt lat="48.67712" lon="7.24132">
        <ele>478.3</ele>
        <time>2020-08-18T15:58:36Z</time>
      </trkpt>
      <trkpt lat="48.67708" lon="7.24151">
        <ele>503</ele>
        <time>2020-08-18T15:58:38Z</time>
      </trkpt>
      <trkpt lat="48.67707" lon="7.24165">
        <ele>509.4</ele>
        <time>2020-08-18T15:58:40Z</time>
      </trkpt>
      <trkpt lat="48.67703" lon="7.2418">
        <ele>511.7</ele>
        <time>2020-08-18T15:58:42Z</time>
      </trkpt>
      <trkpt lat="48.677" lon="7.24195">
        <ele>508.5</ele>
        <time>2020-08-18T15:58:44Z</time>
      </trkpt>
      <trkpt lat="48.67695" lon="7.24207">
        <ele>503.9</ele>
        <time>2020-08-18T15:58:46Z</time>
      </trkpt>
      <trkpt lat="48.67691" lon="7.24219">
        <ele>497.5</ele>
        <time>2020-08-18T15:58:48Z</time>
      </trkpt>
      <trkpt lat="48.67688" lon="7.2423">
        <ele>490.2</ele>
        <time>2020-08-18T15:58:50Z</time>
      </trkpt>
      <trkpt lat="48.67686" lon="7.24245">
        <ele>484.7</ele>
        <time>2020-08-18T15:58:52Z</time>
      </trkpt>
      <trkpt lat="48.67682" lon="7.24261">
        <ele>479.4</ele>
        <time>2020-08-18T15:58:54Z</time>
      </trkpt>
      <trkpt lat="48.67675" lon="7.24272">
        <ele>476</ele>
        <time>2020-08-18T15:58:56Z</time>
      </trkpt>
      <trkpt lat="48.67669" lon="7.24284">
        <ele>488.2</ele>
        <time>2020-08-18T15:58:58Z</time>
      </trkpt>
      <trkpt lat="48.67663" lon="7.24296">
        <ele>489.2</ele>
        <time>2020-08-18T15:59:00Z</time>
      </trkpt>
      <trkpt lat="48.67658" lon="7.24304">
        <ele>487.4</ele>
        <time>2020-08-18T15:59:02Z</time>
      </trkpt>
      <trkpt lat="48.67654" lon="7.24311">
        <ele>485</ele>
        <time>2020-08-18T15:59:04Z</time>
      </trkpt>
      <trkpt lat="48.6765" lon="7.2432">
        <ele>482.8</ele>
        <time>2020-08-18T15:59:06Z</time>
      </trkpt>
      <trkpt lat="48.67646" lon="7.24331">
        <ele>491.9</ele>
        <time>2020-08-18T15:59:08Z</time>
      </trkpt>
      <trkpt lat="48.67642" lon="7.24343">
        <ele>492.1</ele>
        <time>2020-08-18T15:59:10Z</time>
      </trkpt>
      <trkpt lat="48.67635" lon="7.24356">
        <ele>490.5</ele>
        <time>2020-08-18T15:59:12Z</time>
      </trkpt>
      <trkpt lat="48.67626" lon="7.2437">
        <ele>488</ele>
        <time>2020-08-18T15:59:14Z</time>
      </trkpt>
      <trkpt lat="48.67621" lon="7.2438">
        <ele>485.2</ele>
        <time>2020-08-18T15:59:16Z</time>
      </trkpt>
      <trkpt lat="48.67614" lon="7.2439">
        <ele>481.8</ele>
        <time>2020-08-18T15:59:18Z</time>
      </trkpt>
      <trkpt lat="48.67608" lon="7.24398">
        <ele>479.4</ele>
        <time>2020-08-18T15:59:20Z</time>
      </trkpt>
      <trkpt lat="48.67603" lon="7.24408">
        <ele>477.6</ele>
        <time>2020-08-18T15:59:22Z</time>
      </trkpt>
      <trkpt lat="48.67597" lon="7.24419">
        <ele>475.1</ele>
        <time>2020-08-18T15:59:24Z</time>
      </trkpt>
      <trkpt lat="48.67592" lon="7.24432">
        <ele>473.9</ele>
        <time>2020-08-18T15:59:26Z</time>
      </trkpt>
      <trkpt lat="48.6759" lon="7.24439">
        <ele>472.4</ele>
        <time>2020-08-18T15:59:29Z</time>
      </trkpt>
      <trkpt lat="48.67587" lon="7.24445">
        <ele>468</ele>
        <time>2020-08-18T15:59:36Z</time>
      </trkpt>
      <trkpt lat="48.67586" lon="7.24453">
        <ele>467.1</ele>
        <time>2020-08-18T15:59:40Z</time>
      </trkpt>
      <trkpt lat="48.67581" lon="7.24459">
        <ele>466.6</ele>
        <time>2020-08-18T15:59:42Z</time>
      </trkpt>
      <trkpt lat="48.67571" lon="7.24478">
        <ele>465.1</ele>
        <time>2020-08-18T15:59:44Z</time>
      </trkpt>
      <trkpt lat="48.67559" lon="7.24495">
        <ele>463.8</ele>
        <time>2020-08-18T15:59:46Z</time>
      </trkpt>
      <trkpt lat="48.67548" lon="7.24513">
        <ele>463</ele>
        <time>2020-08-18T15:59:48Z</time>
      </trkpt>
      <trkpt lat="48.67538" lon="7.2453">
        <ele>461.4</ele>
        <time>2020-08-18T15:59:50Z</time>
      </trkpt>
      <trkpt lat="48.6753" lon="7.24547">
        <ele>461.1</ele>
        <time>2020-08-18T15:59:52Z</time>
      </trkpt>
      <trkpt lat="48.67524" lon="7.24565">
        <ele>460.9</ele>
        <time>2020-08-18T15:59:54Z</time>
      </trkpt>
      <trkpt lat="48.67519" lon="7.24584">
        <ele>460.9</ele>
        <time>2020-08-18T15:59:56Z</time>
      </trkpt>
      <trkpt lat="48.67514" lon="7.24602">
        <ele>460.4</ele>
        <time>2020-08-18T15:59:58Z</time>
      </trkpt>
      <trkpt lat="48.67509" lon="7.24617">
        <ele>459.8</ele>
        <time>2020-08-18T16:00:00Z</time>
      </trkpt>
      <trkpt lat="48.67505" lon="7.24634">
        <ele>459.1</ele>
        <time>2020-08-18T16:00:02Z</time>
      </trkpt>
      <trkpt lat="48.67502" lon="7.2465">
        <ele>458.7</ele>
        <time>2020-08-18T16:00:04Z</time>
      </trkpt>
      <trkpt lat="48.67501" lon="7.24666">
        <ele>458.4</ele>
        <time>2020-08-18T16:00:06Z</time>
      </trkpt>
      <trkpt lat="48.67501" lon="7.2468">
        <ele>458.8</ele>
        <time>2020-08-18T16:00:08Z</time>
      </trkpt>
      <trkpt lat="48.675" lon="7.24695">
        <ele>458.7</ele>
        <time>2020-08-18T16:00:10Z</time>
      </trkpt>
      <trkpt lat="48.67498" lon="7.24709">
        <ele>459.1</ele>
        <time>2020-08-18T16:00:12Z</time>
      </trkpt>
      <trkpt lat="48.67497" lon="7.24725">
        <ele>458.4</ele>
        <time>2020-08-18T16:00:14Z</time>
      </trkpt>
      <trkpt lat="48.67498" lon="7.24742">
        <ele>458.3</ele>
        <time>2020-08-18T16:00:16Z</time>
      </trkpt>
      <trkpt lat="48.67499" lon="7.24758">
        <ele>458.3</ele>
        <time>2020-08-18T16:00:18Z</time>
      </trkpt>
      <trkpt lat="48.675" lon="7.24774">
        <ele>458</ele>
        <time>2020-08-18T16:00:20Z</time>
      </trkpt>
      <trkpt lat="48.67501" lon="7.2479">
        <ele>457.5</ele>
        <time>2020-08-18T16:00:22Z</time>
      </trkpt>
      <trkpt lat="48.67502" lon="7.24805">
        <ele>456.9</ele>
        <time>2020-08-18T16:00:24Z</time>
      </trkpt>
      <trkpt lat="48.67501" lon="7.2482">
        <ele>456.5</ele>
        <time>2020-08-18T16:00:26Z</time>
      </trkpt>
      <trkpt lat="48.675" lon="7.24834">
        <ele>456.5</ele>
        <time>2020-08-18T16:00:28Z</time>
      </trkpt>
      <trkpt lat="48.67498" lon="7.24847">
        <ele>456.7</ele>
        <time>2020-08-18T16:00:30Z</time>
      </trkpt>
      <trkpt lat="48.67497" lon="7.24862">
        <ele>456.6</ele>
        <time>2020-08-18T16:00:32Z</time>
      </trkpt>
      <trkpt lat="48.67494" lon="7.24874">
        <ele>456.9</ele>
        <time>2020-08-18T16:00:34Z</time>
      </trkpt>
      <trkpt lat="48.67491" lon="7.24885">
        <ele>457</ele>
        <time>2020-08-18T16:00:36Z</time>
      </trkpt>
      <trkpt lat="48.67488" lon="7.24897">
        <ele>457</ele>
        <time>2020-08-18T16:00:38Z</time>
      </trkpt>
      <trkpt lat="48.67487" lon="7.24906">
        <ele>456.6</ele>
        <time>2020-08-18T16:00:40Z</time>
      </trkpt>
      <trkpt lat="48.67486" lon="7.24914">
        <ele>455.8</ele>
        <time>2020-08-18T16:00:44Z</time>
      </trkpt>
      <trkpt lat="48.67484" lon="7.2492">
        <ele>459.3</ele>
        <time>2020-08-18T16:00:50Z</time>
      </trkpt>
      <trkpt lat="48.67486" lon="7.24926">
        <ele>461.9</ele>
        <time>2020-08-18T16:00:58Z</time>
      </trkpt>
      <trkpt lat="48.67489" lon="7.24934">
        <ele>462.5</ele>
        <time>2020-08-18T16:01:06Z</time>
      </trkpt>
      <trkpt lat="48.67488" lon="7.24941">
        <ele>463.6</ele>
        <time>2020-08-18T16:01:11Z</time>
      </trkpt>
      <trkpt lat="48.67488" lon="7.2495">
        <ele>464.5</ele>
        <time>2020-08-18T16:01:16Z</time>
      </trkpt>
      <trkpt lat="48.67487" lon="7.24958">
        <ele>466.3</ele>
        <time>2020-08-18T16:01:21Z</time>
      </trkpt>
      <trkpt lat="48.67484" lon="7.24964">
        <ele>467.2</ele>
        <time>2020-08-18T16:01:24Z</time>
      </trkpt>
      <trkpt lat="48.67483" lon="7.2497">
        <ele>467.8</ele>
        <time>2020-08-18T16:01:27Z</time>
      </trkpt>
      <trkpt lat="48.67482" lon="7.24978">
        <ele>468.8</ele>
        <time>2020-08-18T16:01:31Z</time>
      </trkpt>
      <trkpt lat="48.67483" lon="7.24985">
        <ele>470.1</ele>
        <time>2020-08-18T16:01:36Z</time>
      </trkpt>
      <trkpt lat="48.67481" lon="7.24993">
        <ele>471.1</ele>
        <time>2020-08-18T16:01:40Z</time>
      </trkpt>
      <trkpt lat="48.67478" lon="7.24999">
        <ele>472.4</ele>
        <time>2020-08-18T16:01:44Z</time>
      </trkpt>
      <trkpt lat="48.67477" lon="7.25006">
        <ele>473.7</ele>
        <time>2020-08-18T16:01:48Z</time>
      </trkpt>
      <trkpt lat="48.67477" lon="7.25014">
        <ele>475.6</ele>
        <time>2020-08-18T16:01:52Z</time>
      </trkpt>
      <trkpt lat="48.67478" lon="7.25021">
        <ele>476.6</ele>
        <time>2020-08-18T16:01:56Z</time>
      </trkpt>
      <trkpt lat="48.6748" lon="7.25028">
        <ele>478.7</ele>
        <time>2020-08-18T16:02:01Z</time>
      </trkpt>
      <trkpt lat="48.67482" lon="7.25034">
        <ele>480.3</ele>
        <time>2020-08-18T16:02:07Z</time>
      </trkpt>
      <trkpt lat="48.67486" lon="7.25035">
        <ele>478.7</ele>
        <time>2020-08-18T16:02:14Z</time>
      </trkpt>
      <trkpt lat="48.67491" lon="7.25033">
        <ele>478.3</ele>
        <time>2020-08-18T16:02:16Z</time>
      </trkpt>
      <trkpt lat="48.67497" lon="7.25028">
        <ele>478</ele>
        <time>2020-08-18T16:02:18Z</time>
      </trkpt>
      <trkpt lat="48.67503" lon="7.25022">
        <ele>477.7</ele>
        <time>2020-08-18T16:02:20Z</time>
      </trkpt>
      <trkpt lat="48.6751" lon="7.25015">
        <ele>477.4</ele>
        <time>2020-08-18T16:02:22Z</time>
      </trkpt>
      <trkpt lat="48.67516" lon="7.25006">
        <ele>477</ele>
        <time>2020-08-18T16:02:24Z</time>
      </trkpt>
      <trkpt lat="48.67522" lon="7.24996">
        <ele>476.4</ele>
        <time>2020-08-18T16:02:26Z</time>
      </trkpt>
      <trkpt lat="48.67528" lon="7.24985">
        <ele>476.4</ele>
        <time>2020-08-18T16:02:28Z</time>
      </trkpt>
      <trkpt lat="48.67533" lon="7.24977">
        <ele>476.5</ele>
        <time>2020-08-18T16:02:30Z</time>
      </trkpt>
      <trkpt lat="48.67539" lon="7.24972">
        <ele>477.1</ele>
        <time>2020-08-18T16:02:32Z</time>
      </trkpt>
      <trkpt lat="48.67544" lon="7.24973">
        <ele>477.6</ele>
        <time>2020-08-18T16:02:34Z</time>
      </trkpt>
      <trkpt lat="48.67546" lon="7.24981">
        <ele>477.8</ele>
        <time>2020-08-18T16:02:37Z</time>
      </trkpt>
      <trkpt lat="48.67544" lon="7.24988">
        <ele>477.4</ele>
        <time>2020-08-18T16:02:39Z</time>
      </trkpt>
      <trkpt lat="48.67541" lon="7.24995">
        <ele>477.8</ele>
        <time>2020-08-18T16:02:41Z</time>
      </trkpt>
      <trkpt lat="48.67538" lon="7.25">
        <ele>478</ele>
        <time>2020-08-18T16:02:43Z</time>
      </trkpt>
      <trkpt lat="48.67534" lon="7.25004">
        <ele>478.3</ele>
        <time>2020-08-18T16:02:48Z</time>
      </trkpt>
      <trkpt lat="48.67533" lon="7.25011">
        <ele>478.9</ele>
        <time>2020-08-18T16:02:54Z</time>
      </trkpt>
      <trkpt lat="48.6753" lon="7.25018">
        <ele>479.7</ele>
        <time>2020-08-18T16:02:59Z</time>
      </trkpt>
      <trkpt lat="48.67526" lon="7.25024">
        <ele>480.8</ele>
        <time>2020-08-18T16:03:05Z</time>
      </trkpt>
      <trkpt lat="48.67522" lon="7.2503">
        <ele>479.8</ele>
        <time>2020-08-18T16:03:08Z</time>
      </trkpt>
      <trkpt lat="48.6752" lon="7.25036">
        <ele>479.8</ele>
        <time>2020-08-18T16:03:10Z</time>
      </trkpt>
      <trkpt lat="48.67517" lon="7.25042">
        <ele>480</ele>
        <time>2020-08-18T16:03:12Z</time>
      </trkpt>
      <trkpt lat="48.67512" lon="7.25048">
        <ele>478.9</ele>
        <time>2020-08-18T16:03:15Z</time>
      </trkpt>
      <trkpt lat="48.67509" lon="7.25055">
        <ele>478.1</ele>
        <time>2020-08-18T16:03:17Z</time>
      </trkpt>
      <trkpt lat="48.67501" lon="7.25064">
        <ele>478.3</ele>
        <time>2020-08-18T16:03:19Z</time>
      </trkpt>
      <trkpt lat="48.67493" lon="7.25071">
        <ele>478.3</ele>
        <time>2020-08-18T16:03:21Z</time>
      </trkpt>
      <trkpt lat="48.67484" lon="7.25081">
        <ele>478.5</ele>
        <time>2020-08-18T16:03:23Z</time>
      </trkpt>
      <trkpt lat="48.67478" lon="7.2509">
        <ele>479.6</ele>
        <time>2020-08-18T16:03:25Z</time>
      </trkpt>
      <trkpt lat="48.67474" lon="7.251">
        <ele>480.2</ele>
        <time>2020-08-18T16:03:27Z</time>
      </trkpt>
      <trkpt lat="48.67471" lon="7.25108">
        <ele>481.1</ele>
        <time>2020-08-18T16:03:29Z</time>
      </trkpt>
      <trkpt lat="48.67466" lon="7.25116">
        <ele>482.7</ele>
        <time>2020-08-18T16:03:31Z</time>
      </trkpt>
      <trkpt lat="48.67458" lon="7.25124">
        <ele>484.1</ele>
        <time>2020-08-18T16:03:34Z</time>
      </trkpt>
      <trkpt lat="48.67452" lon="7.25128">
        <ele>484.8</ele>
        <time>2020-08-18T16:03:36Z</time>
      </trkpt>
      <trkpt lat="48.67448" lon="7.25131">
        <ele>485.3</ele>
        <time>2020-08-18T16:03:38Z</time>
      </trkpt>
      <trkpt lat="48.67442" lon="7.25135">
        <ele>485.5</ele>
        <time>2020-08-18T16:03:40Z</time>
      </trkpt>
      <trkpt lat="48.67435" lon="7.2514">
        <ele>485.3</ele>
        <time>2020-08-18T16:03:42Z</time>
      </trkpt>
      <trkpt lat="48.6743" lon="7.25145">
        <ele>485.6</ele>
        <time>2020-08-18T16:03:44Z</time>
      </trkpt>
      <trkpt lat="48.67426" lon="7.2515">
        <ele>486.4</ele>
        <time>2020-08-18T16:03:46Z</time>
      </trkpt>
      <trkpt lat="48.6742" lon="7.2516">
        <ele>487.2</ele>
        <time>2020-08-18T16:03:48Z</time>
      </trkpt>
      <trkpt lat="48.67413" lon="7.25171">
        <ele>488</ele>
        <time>2020-08-18T16:03:50Z</time>
      </trkpt>
      <trkpt lat="48.6741" lon="7.25179">
        <ele>489.2</ele>
        <time>2020-08-18T16:03:52Z</time>
      </trkpt>
      <trkpt lat="48.67404" lon="7.25186">
        <ele>490.2</ele>
        <time>2020-08-18T16:03:54Z</time>
      </trkpt>
      <trkpt lat="48.67399" lon="7.25194">
        <ele>491.2</ele>
        <time>2020-08-18T16:03:56Z</time>
      </trkpt>
      <trkpt lat="48.67396" lon="7.25203">
        <ele>491.9</ele>
        <time>2020-08-18T16:03:58Z</time>
      </trkpt>
      <trkpt lat="48.67391" lon="7.25213">
        <ele>492.3</ele>
        <time>2020-08-18T16:04:00Z</time>
      </trkpt>
      <trkpt lat="48.67386" lon="7.25223">
        <ele>492.8</ele>
        <time>2020-08-18T16:04:02Z</time>
      </trkpt>
      <trkpt lat="48.6738" lon="7.25232">
        <ele>493.2</ele>
        <time>2020-08-18T16:04:04Z</time>
      </trkpt>
      <trkpt lat="48.67373" lon="7.25242">
        <ele>493.8</ele>
        <time>2020-08-18T16:04:06Z</time>
      </trkpt>
      <trkpt lat="48.67366" lon="7.25252">
        <ele>494</ele>
        <time>2020-08-18T16:04:08Z</time>
      </trkpt>
      <trkpt lat="48.6736" lon="7.25261">
        <ele>494</ele>
        <time>2020-08-18T16:04:10Z</time>
      </trkpt>
      <trkpt lat="48.67356" lon="7.25271">
        <ele>494.5</ele>
        <time>2020-08-18T16:04:12Z</time>
      </trkpt>
      <trkpt lat="48.67353" lon="7.25278">
        <ele>495.1</ele>
        <time>2020-08-18T16:04:14Z</time>
      </trkpt>
      <trkpt lat="48.67352" lon="7.25284">
        <ele>496.3</ele>
        <time>2020-08-18T16:04:19Z</time>
      </trkpt>
      <trkpt lat="48.67348" lon="7.25289">
        <ele>497.1</ele>
        <time>2020-08-18T16:04:26Z</time>
      </trkpt>
      <trkpt lat="48.67343" lon="7.25291">
        <ele>497.1</ele>
        <time>2020-08-18T16:04:34Z</time>
      </trkpt>
      <trkpt lat="48.67338" lon="7.25294">
        <ele>497.3</ele>
        <time>2020-08-18T16:04:37Z</time>
      </trkpt>
      <trkpt lat="48.67334" lon="7.25301">
        <ele>497.5</ele>
        <time>2020-08-18T16:04:40Z</time>
      </trkpt>
      <trkpt lat="48.6733" lon="7.25309">
        <ele>497.9</ele>
        <time>2020-08-18T16:04:42Z</time>
      </trkpt>
      <trkpt lat="48.67325" lon="7.25316">
        <ele>498.3</ele>
        <time>2020-08-18T16:04:44Z</time>
      </trkpt>
      <trkpt lat="48.67319" lon="7.25324">
        <ele>498.6</ele>
        <time>2020-08-18T16:04:46Z</time>
      </trkpt>
      <trkpt lat="48.67315" lon="7.25333">
        <ele>498.8</ele>
        <time>2020-08-18T16:04:48Z</time>
      </trkpt>
      <trkpt lat="48.67312" lon="7.25344">
        <ele>499.4</ele>
        <time>2020-08-18T16:04:50Z</time>
      </trkpt>
      <trkpt lat="48.67309" lon="7.25353">
        <ele>499.8</ele>
        <time>2020-08-18T16:04:52Z</time>
      </trkpt>
      <trkpt lat="48.67306" lon="7.25364">
        <ele>499.4</ele>
        <time>2020-08-18T16:04:54Z</time>
      </trkpt>
      <trkpt lat="48.67305" lon="7.25374">
        <ele>499.1</ele>
        <time>2020-08-18T16:04:56Z</time>
      </trkpt>
    </trkseg>
  </trk>
</gpx>